Wetterdaten: Samstag, 19.08.2017
Datum Zeit Temp. A. Temp. A. max Feuchte A. Luftdruck Regen Wind Richtung Richtung Sonnenschein ET UV Solar Taupunkt Windchill Windböen
19.08.2017 00:00 14,4 °C 14,4 °C 95 % 1014,5 hPa 0,0 mm 0,0 km/h (0 Bft) N 360 ° 0 min 0,000 mm 0,0 UV-I 0 W/m² 13,6 °C 14,4 °C 0,0 km/h (0 Bft)
19.08.2017 00:01 14,3 °C 14,4 °C 95 % 1014,5 hPa 0,0 mm 2,8 km/h (1 Bft) O 84 ° 0 min 0,000 mm 0,0 UV-I 0 W/m² 13,5 °C 14,3 °C 4,8 km/h (1 Bft)
19.08.2017 00:02 14,3 °C 14,4 °C 95 % 1014,5 hPa 0,0 mm 1,1 km/h (1 Bft) O 84 ° 0 min 0,000 mm 0,0 UV-I 0 W/m² 13,5 °C 14,3 °C 3,2 km/h (1 Bft)
19.08.2017 00:03 14,3 °C 14,3 °C 95 % 1014,5 hPa 0,0 mm 0,0 km/h (0 Bft) O 84 ° 0 min 0,000 mm 0,0 UV-I 0 W/m² 13,5 °C 14,3 °C 0,0 km/h (0 Bft)
19.08.2017 00:04 14,3 °C 14,3 °C 95 % 1014,5 hPa 0,0 mm 2,5 km/h (1 Bft) O 90 ° 0 min 0,000 mm 0,0 UV-I 0 W/m² 13,5 °C 14,3 °C 4,8 km/h (1 Bft)
19.08.2017 00:05 14,3 °C 14,3 °C 95 % 1014,5 hPa 0,0 mm 4,2 km/h (1 Bft) O-SO 115 ° 0 min 0,000 mm 0,0 UV-I 0 W/m² 13,5 °C 14,3 °C 4,8 km/h (1 Bft)
19.08.2017 00:06 14,3 °C 14,3 °C 95 % 1014,4 hPa 0,0 mm 3,9 km/h (1 Bft) SO 145 ° 0 min 0,000 mm 0,0 UV-I 0 W/m² 13,5 °C 14,3 °C 6,4 km/h (2 Bft)
19.08.2017 00:07 14,3 °C 14,3 °C 95 % 1014,4 hPa 0,0 mm 3,6 km/h (1 Bft) SO 133 ° 0 min 0,000 mm 0,0 UV-I 0 W/m² 13,5 °C 14,3 °C 4,8 km/h (1 Bft)
19.08.2017 00:08 14,3 °C 14,3 °C 95 % 1014,4 hPa 0,0 mm 1,5 km/h (1 Bft) S-SO 150 ° 0 min 0,000 mm 0,0 UV-I 0 W/m² 13,5 °C 14,3 °C 3,2 km/h (1 Bft)
19.08.2017 00:09 14,2 °C 14,3 °C 95 % 1014,4 hPa 0,0 mm 2,3 km/h (1 Bft) O-NO 70 ° 0 min 0,000 mm 0,0 UV-I 0 W/m² 13,4 °C 14,2 °C 4,8 km/h (1 Bft)
19.08.2017 00:10 14,3 °C 14,3 °C 95 % 1014,4 hPa 0,0 mm 0,0 km/h (0 Bft) O-NO 70 ° 0 min 0,000 mm 0,0 UV-I 0 W/m² 13,5 °C 14,3 °C 0,0 km/h (0 Bft)
19.08.2017 00:11 14,3 °C 14,3 °C 95 % 1014,5 hPa 0,0 mm 3,1 km/h (1 Bft) O-NO 70 ° 0 min 0,000 mm 0,0 UV-I 0 W/m² 13,5 °C 14,3 °C 4,8 km/h (1 Bft)
19.08.2017 00:12 14,3 °C 14,3 °C 95 % 1014,5 hPa 0,0 mm 2,5 km/h (1 Bft) O-NO 67 ° 0 min 0,000 mm 0,0 UV-I 0 W/m² 13,5 °C 14,3 °C 3,2 km/h (1 Bft)
19.08.2017 00:13 14,4 °C 14,4 °C 95 % 1014,5 hPa 0,0 mm 0,7 km/h (0 Bft) O-NO 67 ° 0 min 0,000 mm 0,0 UV-I 0 W/m² 13,6 °C 14,4 °C 3,2 km/h (1 Bft)
19.08.2017 00:14 14,4 °C 14,4 °C 95 % 1014,5 hPa 0,0 mm 0,0 km/h (0 Bft) O-NO 67 ° 0 min 0,000 mm 0,0 UV-I 0 W/m² 13,6 °C 14,4 °C 0,0 km/h (0 Bft)
19.08.2017 00:15 14,4 °C 14,4 °C 95 % 1014,5 hPa 0,0 mm 0,0 km/h (0 Bft) O-NO 67 ° 0 min 0,000 mm 0,0 UV-I 0 W/m² 13,6 °C 14,4 °C 0,0 km/h (0 Bft)
19.08.2017 00:16 14,3 °C 14,4 °C 95 % 1014,5 hPa 0,0 mm 1,3 km/h (1 Bft) O-NO 67 ° 0 min 0,000 mm 0,0 UV-I 0 W/m² 13,5 °C 14,3 °C 3,2 km/h (1 Bft)
19.08.2017 00:17 14,3 °C 14,4 °C 95 % 1014,5 hPa 0,0 mm 2,5 km/h (1 Bft) O-NO 68 ° 0 min 0,000 mm 0,0 UV-I 0 W/m² 13,5 °C 14,3 °C 3,2 km/h (1 Bft)
19.08.2017 00:18 14,3 °C 14,4 °C 95 % 1014,5 hPa 0,0 mm 1,4 km/h (1 Bft) O-NO 68 ° 0 min 0,000 mm 0,0 UV-I 0 W/m² 13,5 °C 14,3 °C 3,2 km/h (1 Bft)
19.08.2017 00:19 14,3 °C 14,3 °C 95 % 1014,5 hPa 0,0 mm 0,0 km/h (0 Bft) O-NO 68 ° 0 min 0,000 mm 0,0 UV-I 0 W/m² 13,5 °C 14,3 °C 0,0 km/h (0 Bft)
19.08.2017 00:20 14,3 °C 14,3 °C 95 % 1014,5 hPa 0,0 mm 0,0 km/h (0 Bft) O-NO 67 ° 0 min 0,000 mm 0,0 UV-I 0 W/m² 13,5 °C 14,3 °C 0,0 km/h (0 Bft)
19.08.2017 00:21 14,3 °C 14,3 °C 95 % 1014,5 hPa 0,0 mm 0,4 km/h (0 Bft) O-NO 67 ° 0 min 0,000 mm 0,0 UV-I 0 W/m² 13,5 °C 14,3 °C 1,6 km/h (1 Bft)
19.08.2017 00:22 14,3 °C 14,3 °C 95 % 1014,5 hPa 0,0 mm 2,0 km/h (1 Bft) O-NO 67 ° 0 min 0,000 mm 0,0 UV-I 0 W/m² 13,5 °C 14,3 °C 3,2 km/h (1 Bft)
19.08.2017 00:23 14,3 °C 14,3 °C 95 % 1014,6 hPa 0,0 mm 1,5 km/h (1 Bft) O-NO 67 ° 0 min 0,000 mm 0,0 UV-I 0 W/m² 13,5 °C 14,3 °C 3,2 km/h (1 Bft)
19.08.2017 00:24 14,3 °C 14,3 °C 95 % 1014,6 hPa 0,0 mm 1,8 km/h (1 Bft) O-NO 67 ° 0 min 0,000 mm 0,0 UV-I 0 W/m² 13,5 °C 14,3 °C 3,2 km/h (1 Bft)
19.08.2017 00:25 14,2 °C 14,3 °C 95 % 1014,6 hPa 0,0 mm 0,1 km/h (0 Bft) O-NO 67 ° 0 min 0,000 mm 0,0 UV-I 0 W/m² 13,4 °C 14,2 °C 1,6 km/h (1 Bft)
19.08.2017 00:26 14,2 °C 14,3 °C 95 % 1014,6 hPa 0,0 mm 1,4 km/h (1 Bft) O-NO 67 ° 0 min 0,000 mm 0,0 UV-I 0 W/m² 13,4 °C 14,2 °C 1,6 km/h (1 Bft)
19.08.2017 00:27 14,2 °C 14,2 °C 95 % 1014,5 hPa 0,0 mm 0,1 km/h (0 Bft) O-NO 67 ° 0 min 0,000 mm 0,0 UV-I 0 W/m² 13,4 °C 14,2 °C 1,6 km/h (1 Bft)
19.08.2017 00:28 14,2 °C 14,2 °C 95 % 1014,5 hPa 0,0 mm 0,0 km/h (0 Bft) O-NO 67 ° 0 min 0,000 mm 0,0 UV-I 0 W/m² 13,4 °C 14,2 °C 0,0 km/h (0 Bft)
19.08.2017 00:29 14,2 °C 14,2 °C 95 % 1014,3 hPa 0,0 mm 2,0 km/h (1 Bft) O 94 ° 0 min 0,000 mm 0,0 UV-I 0 W/m² 13,4 °C 14,2 °C 4,8 km/h (1 Bft)
19.08.2017 00:30 14,2 °C 14,2 °C 95 % 1014,4 hPa 0,0 mm 4,6 km/h (1 Bft) S 186 ° 0 min 0,000 mm 0,0 UV-I 0 W/m² 13,4 °C 14,2 °C 6,4 km/h (2 Bft)
19.08.2017 00:31 14,2 °C 14,2 °C 95 % 1014,4 hPa 0,0 mm 6,6 km/h (2 Bft) S-SW 196 ° 0 min 0,000 mm 0,0 UV-I 0 W/m² 13,4 °C 14,2 °C 8,0 km/h (2 Bft)
19.08.2017 00:32 14,2 °C 14,2 °C 95 % 1014,5 hPa 0,0 mm 3,4 km/h (1 Bft) S-SW 196 ° 0 min 0,000 mm 0,0 UV-I 0 W/m² 13,4 °C 14,2 °C 6,4 km/h (2 Bft)
19.08.2017 00:33 14,2 °C 14,2 °C 95 % 1014,5 hPa 0,0 mm 0,0 km/h (0 Bft) S-SW 196 ° 0 min 0,000 mm 0,0 UV-I 0 W/m² 13,4 °C 14,2 °C 0,0 km/h (0 Bft)
19.08.2017 00:34 14,3 °C 14,3 °C 95 % 1014,5 hPa 0,0 mm 0,0 km/h (0 Bft) S-SW 196 ° 0 min 0,000 mm 0,0 UV-I 0 W/m² 13,5 °C 14,3 °C 0,0 km/h (0 Bft)
19.08.2017 00:35 14,2 °C 14,3 °C 95 % 1014,4 hPa 0,0 mm 0,0 km/h (0 Bft) S-SW 196 ° 0 min 0,000 mm 0,0 UV-I 0 W/m² 13,4 °C 14,2 °C 0,0 km/h (0 Bft)
19.08.2017 00:36 14,2 °C 14,3 °C 95 % 1014,5 hPa 0,0 mm 0,7 km/h (0 Bft) S-SW 196 ° 0 min 0,000 mm 0,0 UV-I 0 W/m² 13,4 °C 14,2 °C 1,6 km/h (1 Bft)
19.08.2017 00:37 14,2 °C 14,2 °C 95 % 1014,5 hPa 0,0 mm 0,2 km/h (0 Bft) S-SW 196 ° 0 min 0,000 mm 0,0 UV-I 0 W/m² 13,4 °C 14,2 °C 1,6 km/h (1 Bft)
19.08.2017 00:38 14,2 °C 14,3 °C 95 % 1014,5 hPa 0,0 mm 0,0 km/h (0 Bft) S-SW 196 ° 0 min 0,000 mm 0,0 UV-I 0 W/m² 13,4 °C 14,2 °C 0,0 km/h (0 Bft)
19.08.2017 00:39 14,2 °C 14,3 °C 95 % 1014,6 hPa 0,0 mm 0,0 km/h (0 Bft) S-SW 196 ° 0 min 0,000 mm 0,0 UV-I 0 W/m² 13,4 °C 14,2 °C 0,0 km/h (0 Bft)
19.08.2017 00:40 14,2 °C 14,3 °C 95 % 1014,6 hPa 0,0 mm 0,0 km/h (0 Bft) S-SW 196 ° 0 min 0,000 mm 0,0 UV-I 0 W/m² 13,4 °C 14,2 °C 0,0 km/h (0 Bft)
19.08.2017 00:41 14,3 °C 14,3 °C 95 % 1014,5 hPa 0,0 mm 0,0 km/h (0 Bft) S-SW 196 ° 0 min 0,000 mm 0,0 UV-I 0 W/m² 13,5 °C 14,3 °C 0,0 km/h (0 Bft)
19.08.2017 00:42 14,3 °C 14,3 °C 95 % 1014,4 hPa 0,0 mm 0,1 km/h (0 Bft) S 170 ° 0 min 0,000 mm 0,0 UV-I 0 W/m² 13,5 °C 14,3 °C 1,6 km/h (1 Bft)
19.08.2017 00:43 14,3 °C 14,3 °C 95 % 1014,5 hPa 0,0 mm 2,7 km/h (1 Bft) S 170 ° 0 min 0,000 mm 0,0 UV-I 0 W/m² 13,5 °C 14,3 °C 6,4 km/h (2 Bft)
19.08.2017 00:44 14,2 °C 14,3 °C 95 % 1014,5 hPa 0,0 mm 0,0 km/h (0 Bft) S 170 ° 0 min 0,000 mm 0,0 UV-I 0 W/m² 13,4 °C 14,2 °C 0,0 km/h (0 Bft)
19.08.2017 00:45 14,2 °C 14,3 °C 95 % 1014,5 hPa 0,0 mm 0,0 km/h (0 Bft) S 170 ° 0 min 0,000 mm 0,0 UV-I 0 W/m² 13,4 °C 14,2 °C 0,0 km/h (0 Bft)
19.08.2017 00:46 14,2 °C 14,2 °C 95 % 1014,5 hPa 0,0 mm 0,0 km/h (0 Bft) S 170 ° 0 min 0,000 mm 0,0 UV-I 0 W/m² 13,4 °C 14,2 °C 0,0 km/h (0 Bft)
19.08.2017 00:47 14,2 °C 14,2 °C 95 % 1014,5 hPa 0,0 mm 0,0 km/h (0 Bft) S 170 ° 0 min 0,000 mm 0,0 UV-I 0 W/m² 13,4 °C 14,2 °C 0,0 km/h (0 Bft)
19.08.2017 00:48 14,2 °C 14,2 °C 95 % 1014,5 hPa 0,0 mm 0,1 km/h (0 Bft) S 170 ° 0 min 0,000 mm 0,0 UV-I 0 W/m² 13,4 °C 14,2 °C 1,6 km/h (1 Bft)
19.08.2017 00:49 14,2 °C 14,3 °C 95 % 1014,5 hPa 0,0 mm 1,0 km/h (0 Bft) S 170 ° 0 min 0,000 mm 0,0 UV-I 0 W/m² 13,4 °C 14,2 °C 3,2 km/h (1 Bft)
19.08.2017 00:50 14,2 °C 14,3 °C 95 % 1014,6 hPa 0,0 mm 0,0 km/h (0 Bft) S 170 ° 0 min 0,000 mm 0,0 UV-I 0 W/m² 13,4 °C 14,2 °C 0,0 km/h (0 Bft)
19.08.2017 00:51 14,2 °C 14,2 °C 95 % 1014,6 hPa 0,0 mm 0,0 km/h (0 Bft) S 170 ° 0 min 0,000 mm 0,0 UV-I 0 W/m² 13,4 °C 14,2 °C 0,0 km/h (0 Bft)
19.08.2017 00:52 14,2 °C 14,2 °C 95 % 1014,6 hPa 0,0 mm 0,0 km/h (0 Bft) S 170 ° 0 min 0,000 mm 0,0 UV-I 0 W/m² 13,4 °C 14,2 °C 0,0 km/h (0 Bft)
19.08.2017 00:53 14,2 °C 14,2 °C 95 % 1014,6 hPa 0,0 mm 0,0 km/h (0 Bft) S 170 ° 0 min 0,000 mm 0,0 UV-I 0 W/m² 13,4 °C 14,2 °C 0,0 km/h (0 Bft)
19.08.2017 00:54 14,2 °C 14,2 °C 95 % 1014,6 hPa 0,0 mm 0,0 km/h (0 Bft) S 170 ° 0 min 0,000 mm 0,0 UV-I 0 W/m² 13,4 °C 14,2 °C 0,0 km/h (0 Bft)
19.08.2017 00:55 14,2 °C 14,2 °C 95 % 1014,7 hPa 0,0 mm 0,0 km/h (0 Bft) S 170 ° 0 min 0,000 mm 0,0 UV-I 0 W/m² 13,4 °C 14,2 °C 0,0 km/h (0 Bft)
19.08.2017 00:56 14,2 °C 14,2 °C 95 % 1014,7 hPa 0,0 mm 0,0 km/h (0 Bft) S 170 ° 0 min 0,000 mm 0,0 UV-I 0 W/m² 13,4 °C 14,2 °C 0,0 km/h (0 Bft)
19.08.2017 00:57 14,2 °C 14,2 °C 95 % 1014,6 hPa 0,0 mm 0,0 km/h (0 Bft) S 170 ° 0 min 0,000 mm 0,0 UV-I 0 W/m² 13,4 °C 14,2 °C 0,0 km/h (0 Bft)
19.08.2017 00:58 14,2 °C 14,2 °C 95 % 1014,7 hPa 0,0 mm 0,0 km/h (0 Bft) S 170 ° 0 min 0,000 mm 0,0 UV-I 0 W/m² 13,4 °C 14,2 °C 0,0 km/h (0 Bft)
19.08.2017 00:59 14,2 °C 14,2 °C 95 % 1014,7 hPa 0,0 mm 0,0 km/h (0 Bft) S 170 ° 0 min 0,000 mm 0,0 UV-I 0 W/m² 13,4 °C 14,2 °C 0,0 km/h (0 Bft)
19.08.2017 01:00 14,2 °C 14,2 °C 95 % 1014,7 hPa 0,0 mm 0,0 km/h (0 Bft) S 170 ° 0 min 0,000 mm 0,0 UV-I 0 W/m² 13,4 °C 14,2 °C 0,0 km/h (0 Bft)
19.08.2017 01:01 14,2 °C 14,2 °C 95 % 1014,7 hPa 0,0 mm 0,0 km/h (0 Bft) S 170 ° 0 min 0,000 mm 0,0 UV-I 0 W/m² 13,4 °C 14,2 °C 0,0 km/h (0 Bft)
19.08.2017 01:02 14,2 °C 14,2 °C 95 % 1014,7 hPa 0,0 mm 0,0 km/h (0 Bft) S 170 ° 0 min 0,000 mm 0,0 UV-I 0 W/m² 13,4 °C 14,2 °C 0,0 km/h (0 Bft)
19.08.2017 01:03 14,2 °C 14,2 °C 95 % 1014,7 hPa 0,0 mm 0,0 km/h (0 Bft) S 170 ° 0 min 0,000 mm 0,0 UV-I 0 W/m² 13,4 °C 14,2 °C 0,0 km/h (0 Bft)
19.08.2017 01:04 14,2 °C 14,2 °C 95 % 1014,7 hPa 0,0 mm 0,0 km/h (0 Bft) S 170 ° 0 min 0,000 mm 0,0 UV-I 0 W/m² 13,4 °C 14,2 °C 0,0 km/h (0 Bft)
19.08.2017 01:05 14,2 °C 14,2 °C 95 % 1014,7 hPa 0,0 mm 0,0 km/h (0 Bft) S 170 ° 0 min 0,000 mm 0,0 UV-I 0 W/m² 13,4 °C 14,2 °C 0,0 km/h (0 Bft)
19.08.2017 01:06 14,2 °C 14,2 °C 95 % 1014,7 hPa 0,0 mm 0,0 km/h (0 Bft) S 170 ° 0 min 0,000 mm 0,0 UV-I 0 W/m² 13,4 °C 14,2 °C 0,0 km/h (0 Bft)
19.08.2017 01:07 14,2 °C 14,2 °C 95 % 1014,7 hPa 0,0 mm 1,4 km/h (1 Bft) S 170 ° 0 min 0,000 mm 0,0 UV-I 0 W/m² 13,4 °C 14,2 °C 3,2 km/h (1 Bft)
19.08.2017 01:08 14,3 °C 14,3 °C 95 % 1014,7 hPa 0,0 mm 0,8 km/h (0 Bft) S 170 ° 0 min 0,000 mm 0,0 UV-I 0 W/m² 13,5 °C 14,3 °C 3,2 km/h (1 Bft)
19.08.2017 01:09 14,4 °C 14,4 °C 96 % 1014,7 hPa 0,0 mm 2,0 km/h (1 Bft) S 170 ° 0 min 0,000 mm 0,0 UV-I 0 W/m² 13,8 °C 14,4 °C 6,4 km/h (2 Bft)
19.08.2017 01:10 14,4 °C 14,4 °C 96 % 1014,7 hPa 0,0 mm 1,0 km/h (0 Bft) W 263 ° 0 min 0,000 mm 0,0 UV-I 0 W/m² 13,8 °C 14,4 °C 4,8 km/h (1 Bft)
19.08.2017 01:11 14,4 °C 14,4 °C 96 % 1014,7 hPa 0,0 mm 1,6 km/h (1 Bft) W 263 ° 0 min 0,000 mm 0,0 UV-I 0 W/m² 13,8 °C 14,4 °C 3,2 km/h (1 Bft)
19.08.2017 01:12 14,4 °C 14,4 °C 96 % 1014,7 hPa 0,0 mm 0,2 km/h (0 Bft) W 263 ° 0 min 0,000 mm 0,0 UV-I 0 W/m² 13,8 °C 14,4 °C 1,6 km/h (1 Bft)
19.08.2017 01:13 14,5 °C 14,5 °C 96 % 1014,8 hPa 0,0 mm 2,0 km/h (1 Bft) W 263 ° 0 min 0,000 mm 0,0 UV-I 0 W/m² 13,9 °C 14,5 °C 6,4 km/h (2 Bft)
19.08.2017 01:14 14,6 °C 14,6 °C 96 % 1014,7 hPa 0,0 mm 3,8 km/h (1 Bft) W 270 ° 0 min 0,000 mm 0,0 UV-I 0 W/m² 14,0 °C 14,6 °C 6,4 km/h (2 Bft)
19.08.2017 01:15 14,6 °C 14,6 °C 96 % 1014,7 hPa 0,0 mm 2,8 km/h (1 Bft) SW 234 ° 0 min 0,000 mm 0,0 UV-I 0 W/m² 14,0 °C 14,6 °C 3,2 km/h (1 Bft)
19.08.2017 01:16 14,6 °C 14,6 °C 96 % 1014,7 hPa 0,0 mm 2,7 km/h (1 Bft) W-NW 290 ° 0 min 0,000 mm 0,0 UV-I 0 W/m² 14,0 °C 14,6 °C 6,4 km/h (2 Bft)
19.08.2017 01:17 14,6 °C 14,6 °C 95 % 1014,7 hPa 0,0 mm 5,7 km/h (1 Bft) W 280 ° 0 min 0,000 mm 0,0 UV-I 0 W/m² 13,8 °C 14,6 °C 11,3 km/h (2 Bft)
19.08.2017 01:18 14,7 °C 14,7 °C 95 % 1014,7 hPa 0,0 mm 7,2 km/h (2 Bft) W 267 ° 0 min 0,000 mm 0,0 UV-I 0 W/m² 13,9 °C 14,7 °C 11,3 km/h (2 Bft)
19.08.2017 01:19 14,7 °C 14,7 °C 96 % 1014,7 hPa 0,0 mm 1,7 km/h (1 Bft) W-SW 254 ° 0 min 0,000 mm 0,0 UV-I 0 W/m² 14,1 °C 14,7 °C 3,2 km/h (1 Bft)
19.08.2017 01:20 14,7 °C 14,7 °C 96 % 1014,7 hPa 0,0 mm 3,8 km/h (1 Bft) W-SW 257 ° 0 min 0,000 mm 0,0 UV-I 0 W/m² 14,1 °C 14,7 °C 9,7 km/h (2 Bft)
19.08.2017 01:21 14,7 °C 14,7 °C 95 % 1014,7 hPa 0,0 mm 7,2 km/h (2 Bft) W-SW 254 ° 0 min 0,000 mm 0,0 UV-I 0 W/m² 13,9 °C 14,7 °C 11,3 km/h (2 Bft)
19.08.2017 01:22 14,7 °C 14,8 °C 95 % 1014,7 hPa 0,0 mm 5,6 km/h (1 Bft) W 266 ° 0 min 0,000 mm 0,0 UV-I 0 W/m² 13,9 °C 14,7 °C 9,7 km/h (2 Bft)
19.08.2017 01:23 14,8 °C 14,8 °C 95 % 1014,7 hPa 0,0 mm 4,8 km/h (1 Bft) W 275 ° 0 min 0,000 mm 0,0 UV-I 0 W/m² 14,0 °C 14,8 °C 6,4 km/h (2 Bft)
19.08.2017 01:24 14,8 °C 14,8 °C 95 % 1014,7 hPa 0,0 mm 2,5 km/h (1 Bft) W 273 ° 0 min 0,000 mm 0,0 UV-I 0 W/m² 14,0 °C 14,8 °C 4,8 km/h (1 Bft)
19.08.2017 01:25 14,8 °C 14,8 °C 95 % 1014,7 hPa 0,0 mm 1,3 km/h (1 Bft) W 273 ° 0 min 0,000 mm 0,0 UV-I 0 W/m² 14,0 °C 14,8 °C 3,2 km/h (1 Bft)
19.08.2017 01:26 14,8 °C 14,8 °C 95 % 1014,6 hPa 0,0 mm 6,2 km/h (2 Bft) W-SW 257 ° 0 min 0,000 mm 0,0 UV-I 0 W/m² 14,0 °C 14,8 °C 11,3 km/h (2 Bft)
19.08.2017 01:27 14,8 °C 14,8 °C 95 % 1014,6 hPa 0,0 mm 2,1 km/h (1 Bft) W 262 ° 0 min 0,000 mm 0,0 UV-I 0 W/m² 14,0 °C 14,8 °C 4,8 km/h (1 Bft)
19.08.2017 01:28 14,8 °C 14,8 °C 95 % 1014,6 hPa 0,0 mm 2,9 km/h (1 Bft) W-SW 241 ° 0 min 0,000 mm 0,0 UV-I 0 W/m² 14,0 °C 14,8 °C 6,4 km/h (2 Bft)
19.08.2017 01:29 14,9 °C 14,9 °C 95 % 1014,6 hPa 0,0 mm 2,0 km/h (1 Bft) W-SW 245 ° 0 min 0,000 mm 0,0 UV-I 0 W/m² 14,1 °C 14,9 °C 3,2 km/h (1 Bft)
19.08.2017 01:30 14,8 °C 14,9 °C 95 % 1014,6 hPa 0,0 mm 5,2 km/h (1 Bft) W-SW 258 ° 0 min 0,000 mm 0,0 UV-I 0 W/m² 14,0 °C 14,8 °C 11,3 km/h (2 Bft)
19.08.2017 01:31 14,8 °C 14,9 °C 95 % 1014,6 hPa 0,0 mm 7,8 km/h (2 Bft) W 272 ° 0 min 0,000 mm 0,0 UV-I 0 W/m² 14,0 °C 14,8 °C 11,3 km/h (2 Bft)
19.08.2017 01:32 14,9 °C 14,9 °C 95 % 1014,6 hPa 0,2 mm 4,1 km/h (1 Bft) W-SW 242 ° 0 min 0,000 mm 0,0 UV-I 0 W/m² 14,1 °C 14,9 °C 6,4 km/h (2 Bft)
19.08.2017 01:33 14,9 °C 14,9 °C 95 % 1014,6 hPa 0,0 mm 1,8 km/h (1 Bft) W-SW 244 ° 0 min 0,000 mm 0,0 UV-I 0 W/m² 14,1 °C 14,9 °C 3,2 km/h (1 Bft)
19.08.2017 01:34 14,9 °C 14,9 °C 95 % 1014,6 hPa 0,0 mm 2,3 km/h (1 Bft) S-SW 205 ° 0 min 0,000 mm 0,0 UV-I 0 W/m² 14,1 °C 14,9 °C 3,2 km/h (1 Bft)
19.08.2017 01:35 14,9 °C 14,9 °C 95 % 1014,5 hPa 0,0 mm 4,9 km/h (1 Bft) W-SW 238 ° 0 min 0,000 mm 0,0 UV-I 0 W/m² 14,1 °C 14,9 °C 12,9 km/h (3 Bft)
19.08.2017 01:36 14,9 °C 14,9 °C 95 % 1014,5 hPa 0,0 mm 10,1 km/h (2 Bft) W 259 ° 0 min 0,000 mm 0,0 UV-I 0 W/m² 14,1 °C 14,9 °C 12,9 km/h (3 Bft)
19.08.2017 01:37 14,9 °C 14,9 °C 95 % 1014,5 hPa 0,0 mm 2,9 km/h (1 Bft) W 261 ° 0 min 0,000 mm 0,0 UV-I 0 W/m² 14,1 °C 14,9 °C 6,4 km/h (2 Bft)
19.08.2017 01:38 14,9 °C 14,9 °C 95 % 1014,5 hPa 0,0 mm 2,3 km/h (1 Bft) W-SW 248 ° 0 min 0,000 mm 0,0 UV-I 0 W/m² 14,1 °C 14,9 °C 4,8 km/h (1 Bft)
19.08.2017 01:39 14,9 °C 15,0 °C 95 % 1014,6 hPa 0,2 mm 0,7 km/h (0 Bft) W-SW 249 ° 0 min 0,000 mm 0,0 UV-I 0 W/m² 14,1 °C 14,9 °C 3,2 km/h (1 Bft)
19.08.2017 01:40 15,0 °C 15,0 °C 95 % 1014,6 hPa 0,0 mm 0,7 km/h (0 Bft) S-SW 196 ° 0 min 0,000 mm 0,0 UV-I 0 W/m² 14,2 °C 15,0 °C 3,2 km/h (1 Bft)
19.08.2017 01:41 14,9 °C 15,0 °C 95 % 1014,6 hPa 0,0 mm 0,5 km/h (0 Bft) W-SW 250 ° 0 min 0,000 mm 0,0 UV-I 0 W/m² 14,1 °C 14,9 °C 3,2 km/h (1 Bft)
19.08.2017 01:42 15,0 °C 15,0 °C 95 % 1014,6 hPa 0,0 mm 2,3 km/h (1 Bft) W-SW 245 ° 0 min 0,000 mm 0,0 UV-I 0 W/m² 14,2 °C 15,0 °C 4,8 km/h (1 Bft)
19.08.2017 01:43 15,0 °C 15,0 °C 95 % 1014,6 hPa 0,0 mm 0,9 km/h (0 Bft) W 260 ° 0 min 0,000 mm 0,0 UV-I 0 W/m² 14,2 °C 15,0 °C 6,4 km/h (2 Bft)
19.08.2017 01:44 15,0 °C 15,0 °C 95 % 1014,7 hPa 0,0 mm 3,4 km/h (1 Bft) W 260 ° 0 min 0,000 mm 0,0 UV-I 0 W/m² 14,2 °C 15,0 °C 4,8 km/h (1 Bft)
19.08.2017 01:45 14,9 °C 15,0 °C 94 % 1014,6 hPa 0,0 mm 4,1 km/h (1 Bft) W-SW 243 ° 0 min 0,000 mm 0,0 UV-I 0 W/m² 13,9 °C 14,9 °C 6,4 km/h (2 Bft)
19.08.2017 01:46 15,0 °C 15,0 °C 94 % 1014,6 hPa 0,0 mm 0,9 km/h (0 Bft) SW 234 ° 0 min 0,000 mm 0,0 UV-I 0 W/m² 14,0 °C 15,0 °C 3,2 km/h (1 Bft)
19.08.2017 01:47 14,9 °C 15,0 °C 94 % 1014,7 hPa 0,0 mm 1,1 km/h (1 Bft) SW 234 ° 0 min 0,000 mm 0,0 UV-I 0 W/m² 13,9 °C 14,9 °C 3,2 km/h (1 Bft)
19.08.2017 01:48 14,9 °C 15,0 °C 94 % 1014,7 hPa 0,0 mm 0,5 km/h (0 Bft) SW 234 ° 0 min 0,000 mm 0,0 UV-I 0 W/m² 13,9 °C 14,9 °C 1,6 km/h (1 Bft)
19.08.2017 01:49 14,9 °C 14,9 °C 94 % 1014,6 hPa 0,0 mm 0,7 km/h (0 Bft) W-SW 242 ° 0 min 0,000 mm 0,0 UV-I 0 W/m² 13,9 °C 14,9 °C 3,2 km/h (1 Bft)
19.08.2017 01:50 14,9 °C 14,9 °C 94 % 1014,6 hPa 0,0 mm 4,6 km/h (1 Bft) W-NW 291 ° 0 min 0,000 mm 0,0 UV-I 0 W/m² 13,9 °C 14,9 °C 6,4 km/h (2 Bft)
19.08.2017 01:51 14,9 °C 14,9 °C 94 % 1014,5 hPa 0,0 mm 6,4 km/h (2 Bft) W-SW 239 ° 0 min 0,000 mm 0,0 UV-I 0 W/m² 13,9 °C 14,9 °C 11,3 km/h (2 Bft)
19.08.2017 01:52 14,9 °C 14,9 °C 94 % 1014,5 hPa 0,0 mm 2,4 km/h (1 Bft) W-SW 250 ° 0 min 0,000 mm 0,0 UV-I 0 W/m² 13,9 °C 14,9 °C 6,4 km/h (2 Bft)
19.08.2017 01:53 14,9 °C 15,0 °C 94 % 1014,5 hPa 0,0 mm 0,3 km/h (0 Bft) W-SW 250 ° 0 min 0,000 mm 0,0 UV-I 0 W/m² 13,9 °C 14,9 °C 1,6 km/h (1 Bft)
19.08.2017 01:54 14,9 °C 14,9 °C 94 % 1014,5 hPa 0,0 mm 2,3 km/h (1 Bft) W-SW 238 ° 0 min 0,000 mm 0,0 UV-I 0 W/m² 13,9 °C 14,9 °C 6,4 km/h (2 Bft)
19.08.2017 01:55 14,9 °C 14,9 °C 94 % 1014,5 hPa 0,0 mm 3,1 km/h (1 Bft) W-SW 242 ° 0 min 0,000 mm 0,0 UV-I 0 W/m² 13,9 °C 14,9 °C 4,8 km/h (1 Bft)
19.08.2017 01:56 14,9 °C 14,9 °C 94 % 1014,5 hPa 0,0 mm 3,2 km/h (1 Bft) W-SW 242 ° 0 min 0,000 mm 0,0 UV-I 0 W/m² 13,9 °C 14,9 °C 4,8 km/h (1 Bft)
19.08.2017 01:57 14,9 °C 14,9 °C 94 % 1014,6 hPa 0,0 mm 1,5 km/h (1 Bft) W-SW 242 ° 0 min 0,000 mm 0,0 UV-I 0 W/m² 13,9 °C 14,9 °C 3,2 km/h (1 Bft)
19.08.2017 01:58 14,9 °C 14,9 °C 94 % 1014,6 hPa 0,0 mm 1,2 km/h (1 Bft) S-SW 213 ° 0 min 0,000 mm 0,0 UV-I 0 W/m² 13,9 °C 14,9 °C 4,8 km/h (1 Bft)
19.08.2017 01:59 14,9 °C 14,9 °C 94 % 1014,7 hPa 0,0 mm 3,6 km/h (1 Bft) W-SW 246 ° 0 min 0,000 mm 0,0 UV-I 0 W/m² 13,9 °C 14,9 °C 6,4 km/h (2 Bft)
19.08.2017 02:00 14,9 °C 14,9 °C 94 % 1014,7 hPa 0,0 mm 4,4 km/h (1 Bft) W 259 ° 0 min 0,000 mm 0,0 UV-I 0 W/m² 13,9 °C 14,9 °C 6,4 km/h (2 Bft)
19.08.2017 02:01 14,9 °C 14,9 °C 94 % 1014,7 hPa 0,0 mm 3,4 km/h (1 Bft) W-SW 246 ° 0 min 0,000 mm 0,0 UV-I 0 W/m² 13,9 °C 14,9 °C 4,8 km/h (1 Bft)
19.08.2017 02:02 14,9 °C 14,9 °C 94 % 1014,7 hPa 0,0 mm 2,1 km/h (1 Bft) W-SW 244 ° 0 min 0,000 mm 0,0 UV-I 0 W/m² 13,9 °C 14,9 °C 3,2 km/h (1 Bft)
19.08.2017 02:03 14,9 °C 14,9 °C 94 % 1014,6 hPa 0,0 mm 2,7 km/h (1 Bft) W-SW 251 ° 0 min 0,000 mm 0,0 UV-I 0 W/m² 13,9 °C 14,9 °C 6,4 km/h (2 Bft)
19.08.2017 02:04 14,9 °C 14,9 °C 94 % 1014,6 hPa 0,0 mm 3,1 km/h (1 Bft) SW 236 ° 0 min 0,000 mm 0,0 UV-I 0 W/m² 13,9 °C 14,9 °C 6,4 km/h (2 Bft)
19.08.2017 02:05 14,9 °C 14,9 °C 94 % 1014,6 hPa 0,0 mm 2,3 km/h (1 Bft) W-SW 239 ° 0 min 0,000 mm 0,0 UV-I 0 W/m² 13,9 °C 14,9 °C 3,2 km/h (1 Bft)
19.08.2017 02:06 14,9 °C 14,9 °C 94 % 1014,6 hPa 0,0 mm 2,3 km/h (1 Bft) W-SW 239 ° 0 min 0,000 mm 0,0 UV-I 0 W/m² 13,9 °C 14,9 °C 4,8 km/h (1 Bft)
19.08.2017 02:07 14,9 °C 14,9 °C 94 % 1014,6 hPa 0,0 mm 0,6 km/h (0 Bft) W-SW 239 ° 0 min 0,000 mm 0,0 UV-I 0 W/m² 13,9 °C 14,9 °C 1,6 km/h (1 Bft)
19.08.2017 02:08 14,8 °C 14,9 °C 94 % 1014,6 hPa 0,0 mm 1,3 km/h (1 Bft) W-SW 239 ° 0 min 0,000 mm 0,0 UV-I 0 W/m² 13,8 °C 14,8 °C 3,2 km/h (1 Bft)
19.08.2017 02:09 14,8 °C 14,9 °C 94 % 1014,6 hPa 0,0 mm 0,3 km/h (0 Bft) W-SW 239 ° 0 min 0,000 mm 0,0 UV-I 0 W/m² 13,8 °C 14,8 °C 1,6 km/h (1 Bft)
19.08.2017 02:10 14,8 °C 14,8 °C 94 % 1014,5 hPa 0,0 mm 0,2 km/h (0 Bft) W-SW 239 ° 0 min 0,000 mm 0,0 UV-I 0 W/m² 13,8 °C 14,8 °C 1,6 km/h (1 Bft)
19.08.2017 02:11 14,8 °C 14,8 °C 94 % 1014,5 hPa 0,0 mm 2,5 km/h (1 Bft) W-SW 239 ° 0 min 0,000 mm 0,0 UV-I 0 W/m² 13,8 °C 14,8 °C 4,8 km/h (1 Bft)
19.08.2017 02:12 14,8 °C 14,8 °C 94 % 1014,6 hPa 0,0 mm 3,9 km/h (1 Bft) W 275 ° 0 min 0,000 mm 0,0 UV-I 0 W/m² 13,8 °C 14,8 °C 6,4 km/h (2 Bft)
19.08.2017 02:13 14,8 °C 14,8 °C 94 % 1014,5 hPa 0,0 mm 2,5 km/h (1 Bft) W 275 ° 0 min 0,000 mm 0,0 UV-I 0 W/m² 13,8 °C 14,8 °C 4,8 km/h (1 Bft)
19.08.2017 02:14 14,9 °C 14,9 °C 94 % 1014,5 hPa 0,0 mm 1,7 km/h (1 Bft) W 275 ° 0 min 0,000 mm 0,0 UV-I 0 W/m² 13,9 °C 14,9 °C 4,8 km/h (1 Bft)
19.08.2017 02:15 14,8 °C 14,9 °C 94 % 1014,4 hPa 0,0 mm 2,3 km/h (1 Bft) W 275 ° 0 min 0,000 mm 0,0 UV-I 0 W/m² 13,8 °C 14,8 °C 3,2 km/h (1 Bft)
19.08.2017 02:16 14,9 °C 14,9 °C 95 % 1014,4 hPa 0,0 mm 3,9 km/h (1 Bft) W-NW 289 ° 0 min 0,000 mm 0,0 UV-I 0 W/m² 14,1 °C 14,9 °C 6,4 km/h (2 Bft)
19.08.2017 02:17 14,9 °C 14,9 °C 94 % 1014,4 hPa 0,2 mm 2,4 km/h (1 Bft) W-NW 286 ° 0 min 0,000 mm 0,0 UV-I 0 W/m² 13,9 °C 14,9 °C 4,8 km/h (1 Bft)
19.08.2017 02:18 14,8 °C 14,9 °C 94 % 1014,4 hPa 0,0 mm 4,1 km/h (1 Bft) W 259 ° 0 min 0,000 mm 0,0 UV-I 0 W/m² 13,8 °C 14,8 °C 6,4 km/h (2 Bft)
19.08.2017 02:19 14,8 °C 14,9 °C 94 % 1014,4 hPa 0,0 mm 3,0 km/h (1 Bft) W 268 ° 0 min 0,000 mm 0,0 UV-I 0 W/m² 13,8 °C 14,8 °C 4,8 km/h (1 Bft)
19.08.2017 02:20 14,8 °C 14,9 °C 94 % 1014,4 hPa 0,0 mm 1,2 km/h (1 Bft) W 268 ° 0 min 0,000 mm 0,0 UV-I 0 W/m² 13,8 °C 14,8 °C 1,6 km/h (1 Bft)
19.08.2017 02:21 14,8 °C 14,8 °C 94 % 1014,3 hPa 0,0 mm 2,7 km/h (1 Bft) W 268 ° 0 min 0,000 mm 0,0 UV-I 0 W/m² 13,8 °C 14,8 °C 4,8 km/h (1 Bft)
19.08.2017 02:22 14,8 °C 14,8 °C 94 % 1014,4 hPa 0,0 mm 1,4 km/h (1 Bft) W 268 ° 0 min 0,000 mm 0,0 UV-I 0 W/m² 13,8 °C 14,8 °C 3,2 km/h (1 Bft)
19.08.2017 02:23 14,8 °C 14,8 °C 94 % 1014,3 hPa 0,0 mm 0,2 km/h (0 Bft) W 268 ° 0 min 0,000 mm 0,0 UV-I 0 W/m² 13,8 °C 14,8 °C 1,6 km/h (1 Bft)
19.08.2017 02:24 14,8 °C 14,8 °C 94 % 1014,3 hPa 0,0 mm 2,3 km/h (1 Bft) W 268 ° 0 min 0,000 mm 0,0 UV-I 0 W/m² 13,8 °C 14,8 °C 3,2 km/h (1 Bft)
19.08.2017 02:25 14,8 °C 14,8 °C 94 % 1014,3 hPa 0,0 mm 1,5 km/h (1 Bft) W-SW 249 ° 0 min 0,000 mm 0,0 UV-I 0 W/m² 13,8 °C 14,8 °C 3,2 km/h (1 Bft)
19.08.2017 02:26 14,8 °C 14,8 °C 94 % 1014,3 hPa 0,0 mm 1,8 km/h (1 Bft) W 267 ° 0 min 0,000 mm 0,0 UV-I 0 W/m² 13,8 °C 14,8 °C 3,2 km/h (1 Bft)
19.08.2017 02:27 14,8 °C 14,8 °C 94 % 1014,3 hPa 0,0 mm 2,7 km/h (1 Bft) W 267 ° 0 min 0,000 mm 0,0 UV-I 0 W/m² 13,8 °C 14,8 °C 4,8 km/h (1 Bft)
19.08.2017 02:28 14,8 °C 14,8 °C 94 % 1014,3 hPa 0,0 mm 1,3 km/h (1 Bft) W 267 ° 0 min 0,000 mm 0,0 UV-I 0 W/m² 13,8 °C 14,8 °C 3,2 km/h (1 Bft)
19.08.2017 02:29 14,8 °C 14,8 °C 94 % 1014,3 hPa 0,0 mm 1,4 km/h (1 Bft) W 267 ° 0 min 0,000 mm 0,0 UV-I 0 W/m² 13,8 °C 14,8 °C 3,2 km/h (1 Bft)
19.08.2017 02:30 14,9 °C 14,9 °C 94 % 1014,4 hPa 0,0 mm 2,2 km/h (1 Bft) W 259 ° 0 min 0,000 mm 0,0 UV-I 0 W/m² 13,9 °C 14,9 °C 9,7 km/h (2 Bft)
19.08.2017 02:31 14,8 °C 14,9 °C 94 % 1014,4 hPa 0,0 mm 4,1 km/h (1 Bft) W-SW 258 ° 0 min 0,000 mm 0,0 UV-I 0 W/m² 13,8 °C 14,8 °C 6,4 km/h (2 Bft)
19.08.2017 02:32 14,8 °C 14,9 °C 94 % 1014,4 hPa 0,0 mm 5,0 km/h (1 Bft) W-SW 250 ° 0 min 0,000 mm 0,0 UV-I 0 W/m² 13,8 °C 14,8 °C 8,0 km/h (2 Bft)
19.08.2017 02:33 14,8 °C 14,9 °C 94 % 1014,4 hPa 0,0 mm 4,7 km/h (1 Bft) W-SW 246 ° 0 min 0,000 mm 0,0 UV-I 0 W/m² 13,8 °C 14,8 °C 11,3 km/h (2 Bft)
19.08.2017 02:34 14,9 °C 14,9 °C 95 % 1014,4 hPa 0,0 mm 7,0 km/h (2 Bft) W 267 ° 0 min 0,000 mm 0,0 UV-I 0 W/m² 14,1 °C 14,9 °C 11,3 km/h (2 Bft)
19.08.2017 02:35 14,9 °C 14,9 °C 94 % 1014,4 hPa 0,0 mm 1,9 km/h (1 Bft) W 266 ° 0 min 0,000 mm 0,0 UV-I 0 W/m² 13,9 °C 14,9 °C 4,8 km/h (1 Bft)
19.08.2017 02:36 14,8 °C 14,9 °C 94 % 1014,4 hPa 0,0 mm 0,2 km/h (0 Bft) W 266 ° 0 min 0,000 mm 0,0 UV-I 0 W/m² 13,8 °C 14,8 °C 1,6 km/h (1 Bft)
19.08.2017 02:37 14,8 °C 14,9 °C 94 % 1014,5 hPa 0,0 mm 3,4 km/h (1 Bft) W 266 ° 0 min 0,000 mm 0,0 UV-I 0 W/m² 13,8 °C 14,8 °C 4,8 km/h (1 Bft)
19.08.2017 02:38 14,8 °C 14,8 °C 94 % 1014,5 hPa 0,0 mm 3,1 km/h (1 Bft) W 277 ° 0 min 0,000 mm 0,0 UV-I 0 W/m² 13,8 °C 14,8 °C 4,8 km/h (1 Bft)
19.08.2017 02:39 14,8 °C 14,9 °C 94 % 1014,5 hPa 0,0 mm 2,1 km/h (1 Bft) W 263 ° 0 min 0,000 mm 0,0 UV-I 0 W/m² 13,8 °C 14,8 °C 4,8 km/h (1 Bft)
19.08.2017 02:40 14,8 °C 14,8 °C 94 % 1014,6 hPa 0,2 mm 3,3 km/h (1 Bft) W-NW 289 ° 0 min 0,000 mm 0,0 UV-I 0 W/m² 13,8 °C 14,8 °C 4,8 km/h (1 Bft)
19.08.2017 02:41 14,8 °C 14,9 °C 94 % 1014,6 hPa 0,0 mm 3,1 km/h (1 Bft) W-NW 291 ° 0 min 0,000 mm 0,0 UV-I 0 W/m² 13,8 °C 14,8 °C 4,8 km/h (1 Bft)
19.08.2017 02:42 14,8 °C 14,9 °C 94 % 1014,6 hPa 0,0 mm 3,4 km/h (1 Bft) NW 312 ° 0 min 0,000 mm 0,0 UV-I 0 W/m² 13,8 °C 14,8 °C 4,8 km/h (1 Bft)
19.08.2017 02:43 14,9 °C 14,9 °C 94 % 1014,6 hPa 0,0 mm 5,3 km/h (1 Bft) NW 306 ° 0 min 0,000 mm 0,0 UV-I 0 W/m² 13,9 °C 14,9 °C 11,3 km/h (2 Bft)
19.08.2017 02:44 14,9 °C 14,9 °C 94 % 1014,6 hPa 0,0 mm 9,2 km/h (2 Bft) W-NW 290 ° 0 min 0,000 mm 0,0 UV-I 0 W/m² 13,9 °C 14,9 °C 12,9 km/h (3 Bft)
19.08.2017 02:45 14,8 °C 14,9 °C 94 % 1014,6 hPa 0,0 mm 8,8 km/h (2 Bft) W-NW 286 ° 0 min 0,000 mm 0,0 UV-I 0 W/m² 13,8 °C 14,8 °C 12,9 km/h (3 Bft)
19.08.2017 02:46 14,8 °C 14,8 °C 94 % 1014,6 hPa 0,0 mm 5,6 km/h (1 Bft) NW 321 ° 0 min 0,000 mm 0,0 UV-I 0 W/m² 13,8 °C 14,8 °C 8,0 km/h (2 Bft)
19.08.2017 02:47 14,8 °C 14,8 °C 94 % 1014,6 hPa 0,0 mm 2,8 km/h (1 Bft) N-NW 327 ° 0 min 0,000 mm 0,0 UV-I 0 W/m² 13,8 °C 14,8 °C 6,4 km/h (2 Bft)
19.08.2017 02:48 14,8 °C 14,8 °C 94 % 1014,5 hPa 0,0 mm 7,4 km/h (2 Bft) NW 315 ° 0 min 0,000 mm 0,0 UV-I 0 W/m² 13,8 °C 14,8 °C 14,5 km/h (3 Bft)
19.08.2017 02:49 14,7 °C 14,8 °C 94 % 1014,5 hPa 0,0 mm 5,3 km/h (1 Bft) NW 315 ° 0 min 0,000 mm 0,0 UV-I 0 W/m² 13,7 °C 14,7 °C 12,9 km/h (3 Bft)
19.08.2017 02:50 14,7 °C 14,7 °C 94 % 1014,6 hPa 0,2 mm 4,0 km/h (1 Bft) W 269 ° 0 min 0,000 mm 0,0 UV-I 0 W/m² 13,7 °C 14,7 °C 6,4 km/h (2 Bft)
19.08.2017 02:51 14,7 °C 14,7 °C 94 % 1014,6 hPa 0,0 mm 15,1 km/h (3 Bft) W-NW 285 ° 0 min 0,000 mm 0,0 UV-I 0 W/m² 13,7 °C 14,7 °C 20,9 km/h (4 Bft)
19.08.2017 02:52 14,7 °C 14,7 °C 93 % 1014,6 hPa 0,0 mm 12,5 km/h (3 Bft) NW 319 ° 0 min 0,000 mm 0,0 UV-I 0 W/m² 13,6 °C 14,7 °C 20,9 km/h (4 Bft)
19.08.2017 02:53 14,6 °C 14,7 °C 93 % 1014,6 hPa 0,0 mm 8,6 km/h (2 Bft) W-NW 301 ° 0 min 0,000 mm 0,0 UV-I 0 W/m² 13,5 °C 14,6 °C 17,7 km/h (3 Bft)
19.08.2017 02:54 14,7 °C 14,7 °C 93 % 1014,6 hPa 0,0 mm 9,7 km/h (2 Bft) W-SW 255 ° 0 min 0,000 mm 0,0 UV-I 0 W/m² 13,6 °C 14,7 °C 14,5 km/h (3 Bft)
19.08.2017 02:55 14,6 °C 14,7 °C 93 % 1014,7 hPa 0,0 mm 10,0 km/h (2 Bft) W 280 ° 0 min 0,000 mm 0,0 UV-I 0 W/m² 13,5 °C 14,6 °C 14,5 km/h (3 Bft)
19.08.2017 02:56 14,6 °C 14,6 °C 93 % 1014,7 hPa 0,0 mm 5,7 km/h (1 Bft) W 270 ° 0 min 0,000 mm 0,0 UV-I 0 W/m² 13,5 °C 14,6 °C 8,0 km/h (2 Bft)
19.08.2017 02:57 14,6 °C 14,6 °C 93 % 1014,7 hPa 0,0 mm 6,9 km/h (2 Bft) W-SW 257 ° 0 min 0,000 mm 0,0 UV-I 0 W/m² 13,5 °C 14,6 °C 11,3 km/h (2 Bft)
19.08.2017 02:58 14,6 °C 14,6 °C 93 % 1014,7 hPa 0,2 mm 8,5 km/h (2 Bft) W-SW 258 ° 0 min 0,000 mm 0,0 UV-I 0 W/m² 13,5 °C 14,6 °C 16,1 km/h (3 Bft)
19.08.2017 02:59 14,5 °C 14,6 °C 93 % 1014,6 hPa 0,0 mm 11,7 km/h (2 Bft) W 273 ° 0 min 0,000 mm 0,0 UV-I 0 W/m² 13,4 °C 14,5 °C 16,1 km/h (3 Bft)
19.08.2017 03:00 14,4 °C 14,5 °C 93 % 1014,6 hPa 0,0 mm 8,4 km/h (2 Bft) W-NW 300 ° 0 min 0,000 mm 0,0 UV-I 0 W/m² 13,3 °C 14,4 °C 12,9 km/h (3 Bft)
19.08.2017 03:01 14,4 °C 14,4 °C 93 % 1014,5 hPa 0,2 mm 8,0 km/h (2 Bft) W-NW 290 ° 0 min 0,000 mm 0,0 UV-I 0 W/m² 13,3 °C 14,4 °C 11,3 km/h (2 Bft)
19.08.2017 03:02 14,4 °C 14,4 °C 93 % 1014,5 hPa 0,0 mm 6,9 km/h (2 Bft) W 276 ° 0 min 0,000 mm 0,0 UV-I 0 W/m² 13,3 °C 14,4 °C 11,3 km/h (2 Bft)
19.08.2017 03:03 14,4 °C 14,4 °C 93 % 1014,5 hPa 0,0 mm 5,5 km/h (1 Bft) W 272 ° 0 min 0,000 mm 0,0 UV-I 0 W/m² 13,3 °C 14,4 °C 6,4 km/h (2 Bft)
19.08.2017 03:04 14,3 °C 14,4 °C 93 % 1014,5 hPa 0,2 mm 5,1 km/h (1 Bft) W-NW 296 ° 0 min 0,000 mm 0,0 UV-I 0 W/m² 13,2 °C 14,3 °C 8,0 km/h (2 Bft)
19.08.2017 03:05 14,3 °C 14,3 °C 93 % 1014,5 hPa 0,0 mm 6,4 km/h (2 Bft) W-NW 286 ° 0 min 0,000 mm 0,0 UV-I 0 W/m² 13,2 °C 14,3 °C 12,9 km/h (3 Bft)
19.08.2017 03:06 14,3 °C 14,3 °C 93 % 1014,5 hPa 0,0 mm 11,1 km/h (2 Bft) W 273 ° 0 min 0,000 mm 0,0 UV-I 0 W/m² 13,2 °C 14,3 °C 14,5 km/h (3 Bft)
19.08.2017 03:07 14,2 °C 14,3 °C 93 % 1014,6 hPa 0,0 mm 9,1 km/h (2 Bft) W-SW 247 ° 0 min 0,000 mm 0,0 UV-I 0 W/m² 13,1 °C 14,2 °C 16,1 km/h (3 Bft)
19.08.2017 03:08 14,2 °C 14,2 °C 93 % 1014,6 hPa 0,2 mm 6,6 km/h (2 Bft) W-SW 243 ° 0 min 0,000 mm 0,0 UV-I 0 W/m² 13,1 °C 14,2 °C 16,1 km/h (3 Bft)
19.08.2017 03:09 14,1 °C 14,2 °C 93 % 1014,7 hPa 0,0 mm 9,7 km/h (2 Bft) W 264 ° 0 min 0,000 mm 0,0 UV-I 0 W/m² 13,0 °C 14,1 °C 16,1 km/h (3 Bft)
19.08.2017 03:10 14,1 °C 14,1 °C 93 % 1014,7 hPa 0,0 mm 8,5 km/h (2 Bft) W-NW 295 ° 0 min 0,000 mm 0,0 UV-I 0 W/m² 13,0 °C 14,1 °C 16,1 km/h (3 Bft)
19.08.2017 03:11 14,0 °C 14,1 °C 93 % 1014,7 hPa 0,2 mm 12,8 km/h (3 Bft) NW 306 ° 0 min 0,000 mm 0,0 UV-I 0 W/m² 12,9 °C 14,0 °C 19,3 km/h (3 Bft)
19.08.2017 03:12 13,9 °C 14,0 °C 93 % 1014,8 hPa 0,0 mm 9,5 km/h (2 Bft) W 266 ° 0 min 0,000 mm 0,0 UV-I 0 W/m² 12,8 °C 13,9 °C 12,9 km/h (3 Bft)
19.08.2017 03:13 13,9 °C 13,9 °C 93 % 1014,8 hPa 0,2 mm 5,4 km/h (1 Bft) W 265 ° 0 min 0,000 mm 0,0 UV-I 0 W/m² 12,8 °C 13,9 °C 9,7 km/h (2 Bft)
19.08.2017 03:14 13,8 °C 13,9 °C 93 % 1014,8 hPa 0,0 mm 3,4 km/h (1 Bft) W 269 ° 0 min 0,000 mm 0,0 UV-I 0 W/m² 12,7 °C 13,8 °C 6,4 km/h (2 Bft)
19.08.2017 03:15 13,8 °C 13,9 °C 93 % 1014,8 hPa 0,0 mm 6,8 km/h (2 Bft) W 275 ° 0 min 0,000 mm 0,0 UV-I 0 W/m² 12,7 °C 13,8 °C 12,9 km/h (3 Bft)
19.08.2017 03:16 13,8 °C 13,8 °C 93 % 1014,7 hPa 0,2 mm 5,8 km/h (2 Bft) W-SW 245 ° 0 min 0,000 mm 0,0 UV-I 0 W/m² 12,7 °C 13,8 °C 11,3 km/h (2 Bft)
19.08.2017 03:17 13,8 °C 13,8 °C 93 % 1014,7 hPa 0,0 mm 8,5 km/h (2 Bft) W-NW 294 ° 0 min 0,000 mm 0,0 UV-I 0 W/m² 12,7 °C 13,8 °C 14,5 km/h (3 Bft)
19.08.2017 03:18 13,8 °C 13,8 °C 93 % 1014,7 hPa 0,2 mm 5,0 km/h (1 Bft) SW 234 ° 0 min 0,000 mm 0,0 UV-I 0 W/m² 12,7 °C 13,8 °C 6,4 km/h (2 Bft)
19.08.2017 03:19 13,8 °C 13,8 °C 93 % 1014,7 hPa 0,0 mm 5,0 km/h (1 Bft) W-SW 252 ° 0 min 0,000 mm 0,0 UV-I 0 W/m² 12,7 °C 13,8 °C 9,7 km/h (2 Bft)
19.08.2017 03:20 13,7 °C 13,8 °C 93 % 1014,7 hPa 0,0 mm 5,1 km/h (1 Bft) SW 217 ° 0 min 0,000 mm 0,0 UV-I 0 W/m² 12,6 °C 13,7 °C 11,3 km/h (2 Bft)
19.08.2017 03:21 13,7 °C 13,7 °C 93 % 1014,7 hPa 0,2 mm 1,7 km/h (1 Bft) W 267 ° 0 min 0,000 mm 0,0 UV-I 0 W/m² 12,6 °C 13,7 °C 4,8 km/h (1 Bft)
19.08.2017 03:22 13,7 °C 13,7 °C 93 % 1014,7 hPa 0,0 mm 6,4 km/h (2 Bft) W 265 ° 0 min 0,000 mm 0,0 UV-I 0 W/m² 12,6 °C 13,7 °C 11,3 km/h (2 Bft)
19.08.2017 03:23 13,7 °C 13,7 °C 93 % 1014,6 hPa 0,0 mm 2,8 km/h (1 Bft) W 268 ° 0 min 0,000 mm 0,0 UV-I 0 W/m² 12,6 °C 13,7 °C 4,8 km/h (1 Bft)
19.08.2017 03:24 13,7 °C 13,7 °C 93 % 1014,6 hPa 0,0 mm 2,8 km/h (1 Bft) W-SW 244 ° 0 min 0,000 mm 0,0 UV-I 0 W/m² 12,6 °C 13,7 °C 4,8 km/h (1 Bft)
19.08.2017 03:25 13,6 °C 13,7 °C 93 % 1014,6 hPa 0,0 mm 4,4 km/h (1 Bft) W-NW 288 ° 0 min 0,000 mm 0,0 UV-I 0 W/m² 12,5 °C 13,6 °C 9,7 km/h (2 Bft)
19.08.2017 03:26 13,6 °C 13,6 °C 93 % 1014,6 hPa 0,0 mm 6,6 km/h (2 Bft) W-SW 256 ° 0 min 0,000 mm 0,0 UV-I 0 W/m² 12,5 °C 13,6 °C 9,7 km/h (2 Bft)
19.08.2017 03:27 13,6 °C 13,6 °C 93 % 1014,6 hPa 0,2 mm 3,2 km/h (1 Bft) W-SW 238 ° 0 min 0,000 mm 0,0 UV-I 0 W/m² 12,5 °C 13,6 °C 6,4 km/h (2 Bft)
19.08.2017 03:28 13,6 °C 13,6 °C 94 % 1014,7 hPa 0,0 mm 7,0 km/h (2 Bft) W-SW 256 ° 0 min 0,000 mm 0,0 UV-I 0 W/m² 12,7 °C 13,6 °C 11,3 km/h (2 Bft)
19.08.2017 03:29 13,6 °C 13,6 °C 94 % 1014,7 hPa 0,0 mm 6,6 km/h (2 Bft) W 271 ° 0 min 0,000 mm 0,0 UV-I 0 W/m² 12,7 °C 13,6 °C 11,3 km/h (2 Bft)
19.08.2017 03:30 13,6 °C 13,6 °C 94 % 1014,7 hPa 0,0 mm 4,7 km/h (1 Bft) W 260 ° 0 min 0,000 mm 0,0 UV-I 0 W/m² 12,7 °C 13,6 °C 9,7 km/h (2 Bft)
19.08.2017 03:31 13,6 °C 13,6 °C 94 % 1014,7 hPa 0,0 mm 2,8 km/h (1 Bft) SW 227 ° 0 min 0,000 mm 0,0 UV-I 0 W/m² 12,7 °C 13,6 °C 4,8 km/h (1 Bft)
19.08.2017 03:32 13,6 °C 13,6 °C 94 % 1014,7 hPa 0,0 mm 1,7 km/h (1 Bft) W 263 ° 0 min 0,000 mm 0,0 UV-I 0 W/m² 12,7 °C 13,6 °C 4,8 km/h (1 Bft)
19.08.2017 03:33 13,5 °C 13,6 °C 94 % 1014,7 hPa 0,0 mm 5,2 km/h (1 Bft) W-NW 284 ° 0 min 0,000 mm 0,0 UV-I 0 W/m² 12,6 °C 13,5 °C 11,3 km/h (2 Bft)
19.08.2017 03:34 13,5 °C 13,5 °C 94 % 1014,7 hPa 0,0 mm 5,5 km/h (1 Bft) W 264 ° 0 min 0,000 mm 0,0 UV-I 0 W/m² 12,6 °C 13,5 °C 9,7 km/h (2 Bft)
19.08.2017 03:35 13,5 °C 13,5 °C 94 % 1014,7 hPa 0,0 mm 5,0 km/h (1 Bft) W 274 ° 0 min 0,000 mm 0,0 UV-I 0 W/m² 12,6 °C 13,5 °C 6,4 km/h (2 Bft)
19.08.2017 03:36 13,5 °C 13,5 °C 94 % 1014,7 hPa 0,0 mm 6,0 km/h (2 Bft) W 274 ° 0 min 0,000 mm 0,0 UV-I 0 W/m² 12,6 °C 13,5 °C 9,7 km/h (2 Bft)
19.08.2017 03:37 13,6 °C 13,6 °C 94 % 1014,7 hPa 0,0 mm 5,6 km/h (1 Bft) W 271 ° 0 min 0,000 mm 0,0 UV-I 0 W/m² 12,7 °C 13,6 °C 6,4 km/h (2 Bft)
19.08.2017 03:38 13,5 °C 13,6 °C 94 % 1014,7 hPa 0,0 mm 7,8 km/h (2 Bft) W 275 ° 0 min 0,000 mm 0,0 UV-I 0 W/m² 12,6 °C 13,5 °C 12,9 km/h (3 Bft)
19.08.2017 03:39 13,5 °C 13,6 °C 94 % 1014,7 hPa 0,0 mm 5,3 km/h (1 Bft) W 260 ° 0 min 0,000 mm 0,0 UV-I 0 W/m² 12,6 °C 13,5 °C 12,9 km/h (3 Bft)
19.08.2017 03:40 13,5 °C 13,5 °C 94 % 1014,6 hPa 0,0 mm 1,2 km/h (1 Bft) W 260 ° 0 min 0,000 mm 0,0 UV-I 0 W/m² 12,6 °C 13,5 °C 3,2 km/h (1 Bft)
19.08.2017 03:41 13,5 °C 13,5 °C 94 % 1014,7 hPa 0,0 mm 4,0 km/h (1 Bft) W-SW 253 ° 0 min 0,000 mm 0,0 UV-I 0 W/m² 12,6 °C 13,5 °C 9,7 km/h (2 Bft)
19.08.2017 03:42 13,5 °C 13,5 °C 94 % 1014,7 hPa 0,2 mm 3,6 km/h (1 Bft) W-SW 248 ° 0 min 0,000 mm 0,0 UV-I 0 W/m² 12,6 °C 13,5 °C 6,4 km/h (2 Bft)
19.08.2017 03:43 13,5 °C 13,5 °C 94 % 1014,7 hPa 0,0 mm 3,8 km/h (1 Bft) SW 232 ° 0 min 0,000 mm 0,0 UV-I 0 W/m² 12,6 °C 13,5 °C 9,7 km/h (2 Bft)
19.08.2017 03:44 13,4 °C 13,5 °C 94 % 1014,7 hPa 0,0 mm 3,2 km/h (1 Bft) W-SW 242 ° 0 min 0,000 mm 0,0 UV-I 0 W/m² 12,5 °C 13,4 °C 4,8 km/h (1 Bft)
19.08.2017 03:45 13,4 °C 13,4 °C 94 % 1014,7 hPa 0,0 mm 4,9 km/h (1 Bft) W-SW 246 ° 0 min 0,000 mm 0,0 UV-I 0 W/m² 12,5 °C 13,4 °C 9,7 km/h (2 Bft)
19.08.2017 03:46 13,4 °C 13,4 °C 94 % 1014,7 hPa 0,0 mm 4,2 km/h (1 Bft) W-SW 252 ° 0 min 0,000 mm 0,0 UV-I 0 W/m² 12,5 °C 13,4 °C 6,4 km/h (2 Bft)
19.08.2017 03:47 13,4 °C 13,4 °C 94 % 1014,7 hPa 0,0 mm 6,1 km/h (2 Bft) W 273 ° 0 min 0,000 mm 0,0 UV-I 0 W/m² 12,5 °C 13,4 °C 9,7 km/h (2 Bft)
19.08.2017 03:48 13,4 °C 13,4 °C 94 % 1014,7 hPa 0,0 mm 3,2 km/h (1 Bft) W 269 ° 0 min 0,000 mm 0,0 UV-I 0 W/m² 12,5 °C 13,4 °C 6,4 km/h (2 Bft)
19.08.2017 03:49 13,4 °C 13,4 °C 94 % 1014,7 hPa 0,0 mm 4,2 km/h (1 Bft) SW 232 ° 0 min 0,000 mm 0,0 UV-I 0 W/m² 12,5 °C 13,4 °C 6,4 km/h (2 Bft)
19.08.2017 03:50 13,4 °C 13,4 °C 94 % 1014,7 hPa 0,0 mm 4,4 km/h (1 Bft) W-SW 250 ° 0 min 0,000 mm 0,0 UV-I 0 W/m² 12,5 °C 13,4 °C 6,4 km/h (2 Bft)
19.08.2017 03:51 13,4 °C 13,4 °C 94 % 1014,6 hPa 0,0 mm 4,0 km/h (1 Bft) W 272 ° 0 min 0,000 mm 0,0 UV-I 0 W/m² 12,5 °C 13,4 °C 11,3 km/h (2 Bft)
19.08.2017 03:52 13,4 °C 13,4 °C 94 % 1014,6 hPa 0,0 mm 5,5 km/h (1 Bft) W-SW 242 ° 0 min 0,000 mm 0,0 UV-I 0 W/m² 12,5 °C 13,4 °C 9,7 km/h (2 Bft)
19.08.2017 03:53 13,4 °C 13,4 °C 94 % 1014,7 hPa 0,0 mm 4,7 km/h (1 Bft) S-SW 193 ° 0 min 0,000 mm 0,0 UV-I 0 W/m² 12,5 °C 13,4 °C 8,0 km/h (2 Bft)
19.08.2017 03:54 13,4 °C 13,4 °C 94 % 1014,7 hPa 0,0 mm 1,3 km/h (1 Bft) W 262 ° 0 min 0,000 mm 0,0 UV-I 0 W/m² 12,5 °C 13,4 °C 3,2 km/h (1 Bft)
19.08.2017 03:55 13,4 °C 13,4 °C 94 % 1014,7 hPa 0,0 mm 4,8 km/h (1 Bft) S-SW 207 ° 0 min 0,000 mm 0,0 UV-I 0 W/m² 12,5 °C 13,4 °C 8,0 km/h (2 Bft)
19.08.2017 03:56 13,4 °C 13,4 °C 94 % 1014,7 hPa 0,2 mm 1,9 km/h (1 Bft) W-SW 254 ° 0 min 0,000 mm 0,0 UV-I 0 W/m² 12,5 °C 13,4 °C 6,4 km/h (2 Bft)
19.08.2017 03:57 13,4 °C 13,4 °C 94 % 1014,8 hPa 0,0 mm 3,7 km/h (1 Bft) W-SW 248 ° 0 min 0,000 mm 0,0 UV-I 0 W/m² 12,5 °C 13,4 °C 6,4 km/h (2 Bft)
19.08.2017 03:58 13,4 °C 13,4 °C 94 % 1014,8 hPa 0,0 mm 3,4 km/h (1 Bft) S-SW 211 ° 0 min 0,000 mm 0,0 UV-I 0 W/m² 12,5 °C 13,4 °C 6,4 km/h (2 Bft)
19.08.2017 03:59 13,4 °C 13,4 °C 94 % 1014,8 hPa 0,0 mm 1,8 km/h (1 Bft) W-SW 244 ° 0 min 0,000 mm 0,0 UV-I 0 W/m² 12,5 °C 13,4 °C 6,4 km/h (2 Bft)
19.08.2017 04:00 13,4 °C 13,4 °C 94 % 1014,8 hPa 0,0 mm 2,3 km/h (1 Bft) W 269 ° 0 min 0,000 mm 0,0 UV-I 0 W/m² 12,5 °C 13,4 °C 4,8 km/h (1 Bft)
19.08.2017 04:01 13,4 °C 13,4 °C 94 % 1014,9 hPa 0,0 mm 4,3 km/h (1 Bft) W 261 ° 0 min 0,000 mm 0,0 UV-I 0 W/m² 12,5 °C 13,4 °C 14,5 km/h (3 Bft)
19.08.2017 04:02 13,4 °C 13,4 °C 94 % 1014,9 hPa 0,0 mm 4,9 km/h (1 Bft) W 266 ° 0 min 0,000 mm 0,0 UV-I 0 W/m² 12,5 °C 13,4 °C 8,0 km/h (2 Bft)
19.08.2017 04:03 13,4 °C 13,4 °C 94 % 1014,8 hPa 0,0 mm 2,9 km/h (1 Bft) NW 308 ° 0 min 0,000 mm 0,0 UV-I 0 W/m² 12,5 °C 13,4 °C 6,4 km/h (2 Bft)
19.08.2017 04:04 13,4 °C 13,4 °C 94 % 1014,8 hPa 0,2 mm 2,2 km/h (1 Bft) W 269 ° 0 min 0,000 mm 0,0 UV-I 0 W/m² 12,5 °C 13,4 °C 6,4 km/h (2 Bft)
19.08.2017 04:05 13,4 °C 13,4 °C 94 % 1014,8 hPa 0,0 mm 3,8 km/h (1 Bft) W-SW 253 ° 0 min 0,000 mm 0,0 UV-I 0 W/m² 12,5 °C 13,4 °C 8,0 km/h (2 Bft)
19.08.2017 04:06 13,4 °C 13,4 °C 94 % 1014,8 hPa 0,0 mm 2,4 km/h (1 Bft) W-SW 252 ° 0 min 0,000 mm 0,0 UV-I 0 W/m² 12,5 °C 13,4 °C 3,2 km/h (1 Bft)
19.08.2017 04:07 13,3 °C 13,4 °C 94 % 1014,8 hPa 0,0 mm 2,2 km/h (1 Bft) SW 224 ° 0 min 0,000 mm 0,0 UV-I 0 W/m² 12,4 °C 13,3 °C 4,8 km/h (1 Bft)
19.08.2017 04:08 13,4 °C 13,4 °C 94 % 1014,8 hPa 0,0 mm 1,7 km/h (1 Bft) SW 224 ° 0 min 0,000 mm 0,0 UV-I 0 W/m² 12,5 °C 13,4 °C 4,8 km/h (1 Bft)
19.08.2017 04:09 13,3 °C 13,4 °C 94 % 1014,8 hPa 0,0 mm 0,3 km/h (0 Bft) SW 224 ° 0 min 0,000 mm 0,0 UV-I 0 W/m² 12,4 °C 13,3 °C 3,2 km/h (1 Bft)
19.08.2017 04:10 13,3 °C 13,4 °C 94 % 1014,9 hPa 0,2 mm 2,5 km/h (1 Bft) SW 232 ° 0 min 0,000 mm 0,0 UV-I 0 W/m² 12,4 °C 13,3 °C 6,4 km/h (2 Bft)
19.08.2017 04:11 13,3 °C 13,3 °C 94 % 1014,9 hPa 0,0 mm 1,7 km/h (1 Bft) SW 236 ° 0 min 0,000 mm 0,0 UV-I 0 W/m² 12,4 °C 13,3 °C 3,2 km/h (1 Bft)
19.08.2017 04:12 13,3 °C 13,3 °C 94 % 1014,9 hPa 0,0 mm 2,4 km/h (1 Bft) W-SW 246 ° 0 min 0,000 mm 0,0 UV-I 0 W/m² 12,4 °C 13,3 °C 4,8 km/h (1 Bft)
19.08.2017 04:13 13,3 °C 13,3 °C 94 % 1014,9 hPa 0,0 mm 1,8 km/h (1 Bft) W-SW 246 ° 0 min 0,000 mm 0,0 UV-I 0 W/m² 12,4 °C 13,3 °C 3,2 km/h (1 Bft)
19.08.2017 04:14 13,3 °C 13,3 °C 94 % 1014,8 hPa 0,0 mm 0,9 km/h (0 Bft) W-NW 284 ° 0 min 0,000 mm 0,0 UV-I 0 W/m² 12,4 °C 13,3 °C 3,2 km/h (1 Bft)
19.08.2017 04:15 13,3 °C 13,3 °C 94 % 1014,8 hPa 0,0 mm 1,3 km/h (1 Bft) W-NW 283 ° 0 min 0,000 mm 0,0 UV-I 0 W/m² 12,4 °C 13,3 °C 3,2 km/h (1 Bft)
19.08.2017 04:16 13,3 °C 13,3 °C 94 % 1014,8 hPa 0,0 mm 2,5 km/h (1 Bft) SW 231 ° 0 min 0,000 mm 0,0 UV-I 0 W/m² 12,4 °C 13,3 °C 4,8 km/h (1 Bft)
19.08.2017 04:17 13,3 °C 13,3 °C 94 % 1014,7 hPa 0,0 mm 0,3 km/h (0 Bft) SW 231 ° 0 min 0,000 mm 0,0 UV-I 0 W/m² 12,4 °C 13,3 °C 1,6 km/h (1 Bft)
19.08.2017 04:18 13,3 °C 13,3 °C 94 % 1014,7 hPa 0,0 mm 1,2 km/h (1 Bft) S 176 ° 0 min 0,000 mm 0,0 UV-I 0 W/m² 12,4 °C 13,3 °C 6,4 km/h (2 Bft)
19.08.2017 04:19 13,3 °C 13,3 °C 94 % 1014,7 hPa 0,0 mm 2,4 km/h (1 Bft) W-SW 240 ° 0 min 0,000 mm 0,0 UV-I 0 W/m² 12,4 °C 13,3 °C 3,2 km/h (1 Bft)
19.08.2017 04:20 13,3 °C 13,3 °C 94 % 1014,7 hPa 0,0 mm 4,2 km/h (1 Bft) W 275 ° 0 min 0,000 mm 0,0 UV-I 0 W/m² 12,4 °C 13,3 °C 6,4 km/h (2 Bft)
19.08.2017 04:21 13,3 °C 13,3 °C 94 % 1014,7 hPa 0,0 mm 1,7 km/h (1 Bft) W 275 ° 0 min 0,000 mm 0,0 UV-I 0 W/m² 12,4 °C 13,3 °C 3,2 km/h (1 Bft)
19.08.2017 04:22 13,3 °C 13,3 °C 94 % 1014,8 hPa 0,0 mm 1,7 km/h (1 Bft) W-SW 244 ° 0 min 0,000 mm 0,0 UV-I 0 W/m² 12,4 °C 13,3 °C 8,0 km/h (2 Bft)
19.08.2017 04:23 13,3 °C 13,3 °C 94 % 1014,7 hPa 0,2 mm 3,7 km/h (1 Bft) SW 234 ° 0 min 0,000 mm 0,0 UV-I 0 W/m² 12,4 °C 13,3 °C 8,0 km/h (2 Bft)
19.08.2017 04:24 13,3 °C 13,3 °C 94 % 1014,8 hPa 0,0 mm 2,3 km/h (1 Bft) S 190 ° 0 min 0,000 mm 0,0 UV-I 0 W/m² 12,4 °C 13,3 °C 4,8 km/h (1 Bft)
19.08.2017 04:25 13,3 °C 13,3 °C 94 % 1014,7 hPa 0,0 mm 2,0 km/h (1 Bft) S 190 ° 0 min 0,000 mm 0,0 UV-I 0 W/m² 12,4 °C 13,3 °C 3,2 km/h (1 Bft)
19.08.2017 04:26 13,3 °C 13,3 °C 94 % 1014,8 hPa 0,0 mm 1,6 km/h (1 Bft) S-SW 206 ° 0 min 0,000 mm 0,0 UV-I 0 W/m² 12,4 °C 13,3 °C 3,2 km/h (1 Bft)
19.08.2017 04:27 13,3 °C 13,3 °C 94 % 1014,7 hPa 0,0 mm 1,5 km/h (1 Bft) SW 217 ° 0 min 0,000 mm 0,0 UV-I 0 W/m² 12,4 °C 13,3 °C 4,8 km/h (1 Bft)
19.08.2017 04:28 13,3 °C 13,3 °C 94 % 1014,8 hPa 0,0 mm 1,3 km/h (1 Bft) SW 217 ° 0 min 0,000 mm 0,0 UV-I 0 W/m² 12,4 °C 13,3 °C 3,2 km/h (1 Bft)
19.08.2017 04:29 13,3 °C 13,3 °C 94 % 1014,8 hPa 0,0 mm 3,4 km/h (1 Bft) SW 221 ° 0 min 0,000 mm 0,0 UV-I 0 W/m² 12,4 °C 13,3 °C 4,8 km/h (1 Bft)
19.08.2017 04:30 13,3 °C 13,3 °C 94 % 1014,8 hPa 0,0 mm 3,1 km/h (1 Bft) W-SW 252 ° 0 min 0,000 mm 0,0 UV-I 0 W/m² 12,4 °C 13,3 °C 4,8 km/h (1 Bft)
19.08.2017 04:31 13,3 °C 13,3 °C 94 % 1014,8 hPa 0,0 mm 4,3 km/h (1 Bft) W 267 ° 0 min 0,000 mm 0,0 UV-I 0 W/m² 12,4 °C 13,3 °C 6,4 km/h (2 Bft)
19.08.2017 04:32 13,3 °C 13,3 °C 94 % 1014,8 hPa 0,0 mm 4,5 km/h (1 Bft) SW 232 ° 0 min 0,000 mm 0,0 UV-I 0 W/m² 12,4 °C 13,3 °C 8,0 km/h (2 Bft)
19.08.2017 04:33 13,4 °C 13,4 °C 94 % 1014,8 hPa 0,0 mm 3,7 km/h (1 Bft) S-SW 194 ° 0 min 0,000 mm 0,0 UV-I 0 W/m² 12,5 °C 13,4 °C 4,8 km/h (1 Bft)
19.08.2017 04:34 13,3 °C 13,4 °C 94 % 1014,8 hPa 0,0 mm 3,5 km/h (1 Bft) SW 217 ° 0 min 0,000 mm 0,0 UV-I 0 W/m² 12,4 °C 13,3 °C 8,0 km/h (2 Bft)
19.08.2017 04:35 13,4 °C 13,4 °C 94 % 1014,8 hPa 0,0 mm 2,9 km/h (1 Bft) SW 216 ° 0 min 0,000 mm 0,0 UV-I 0 W/m² 12,5 °C 13,4 °C 3,2 km/h (1 Bft)
19.08.2017 04:36 13,4 °C 13,4 °C 94 % 1014,8 hPa 0,0 mm 3,3 km/h (1 Bft) SW 236 ° 0 min 0,000 mm 0,0 UV-I 0 W/m² 12,5 °C 13,4 °C 4,8 km/h (1 Bft)
19.08.2017 04:37 13,4 °C 13,4 °C 94 % 1014,8 hPa 0,0 mm 1,3 km/h (1 Bft) SW 236 ° 0 min 0,000 mm 0,0 UV-I 0 W/m² 12,5 °C 13,4 °C 3,2 km/h (1 Bft)
19.08.2017 04:38 13,4 °C 13,4 °C 94 % 1014,8 hPa 0,0 mm 0,6 km/h (0 Bft) SW 235 ° 0 min 0,000 mm 0,0 UV-I 0 W/m² 12,5 °C 13,4 °C 3,2 km/h (1 Bft)
19.08.2017 04:39 13,4 °C 13,4 °C 94 % 1014,8 hPa 0,0 mm 3,9 km/h (1 Bft) S-SW 208 ° 0 min 0,000 mm 0,0 UV-I 0 W/m² 12,5 °C 13,4 °C 9,7 km/h (2 Bft)
19.08.2017 04:40 13,4 °C 13,4 °C 94 % 1014,8 hPa 0,0 mm 5,6 km/h (1 Bft) SW 214 ° 0 min 0,000 mm 0,0 UV-I 0 W/m² 12,5 °C 13,4 °C 11,3 km/h (2 Bft)
19.08.2017 04:41 13,4 °C 13,4 °C 93 % 1014,8 hPa 0,0 mm 7,3 km/h (2 Bft) S-SW 202 ° 0 min 0,000 mm 0,0 UV-I 0 W/m² 12,3 °C 13,4 °C 12,9 km/h (3 Bft)
19.08.2017 04:42 13,4 °C 13,4 °C 93 % 1014,8 hPa 0,0 mm 4,9 km/h (1 Bft) W-SW 258 ° 0 min 0,000 mm 0,0 UV-I 0 W/m² 12,3 °C 13,4 °C 12,9 km/h (3 Bft)
19.08.2017 04:43 13,4 °C 13,4 °C 93 % 1014,8 hPa 0,0 mm 3,8 km/h (1 Bft) W-SW 240 ° 0 min 0,000 mm 0,0 UV-I 0 W/m² 12,3 °C 13,4 °C 9,7 km/h (2 Bft)
19.08.2017 04:44 13,4 °C 13,4 °C 93 % 1014,8 hPa 0,0 mm 3,8 km/h (1 Bft) W 276 ° 0 min 0,000 mm 0,0 UV-I 0 W/m² 12,3 °C 13,4 °C 9,7 km/h (2 Bft)
19.08.2017 04:45 13,4 °C 13,4 °C 93 % 1014,8 hPa 0,0 mm 3,9 km/h (1 Bft) W-SW 258 ° 0 min 0,000 mm 0,0 UV-I 0 W/m² 12,3 °C 13,4 °C 4,8 km/h (1 Bft)
19.08.2017 04:46 13,4 °C 13,4 °C 93 % 1014,9 hPa 0,0 mm 4,1 km/h (1 Bft) W 260 ° 0 min 0,000 mm 0,0 UV-I 0 W/m² 12,3 °C 13,4 °C 6,4 km/h (2 Bft)
19.08.2017 04:47 13,4 °C 13,4 °C 93 % 1014,9 hPa 0,0 mm 1,3 km/h (1 Bft) W-SW 240 ° 0 min 0,000 mm 0,0 UV-I 0 W/m² 12,3 °C 13,4 °C 3,2 km/h (1 Bft)
19.08.2017 04:48 13,4 °C 13,4 °C 93 % 1014,9 hPa 0,0 mm 2,5 km/h (1 Bft) SW 232 ° 0 min 0,000 mm 0,0 UV-I 0 W/m² 12,3 °C 13,4 °C 8,0 km/h (2 Bft)
19.08.2017 04:49 13,4 °C 13,4 °C 93 % 1014,9 hPa 0,0 mm 6,7 km/h (2 Bft) W 259 ° 0 min 0,000 mm 0,0 UV-I 0 W/m² 12,3 °C 13,4 °C 11,3 km/h (2 Bft)
19.08.2017 04:50 13,4 °C 13,4 °C 93 % 1014,9 hPa 0,0 mm 1,9 km/h (1 Bft) W 269 ° 0 min 0,000 mm 0,0 UV-I 0 W/m² 12,3 °C 13,4 °C 6,4 km/h (2 Bft)
19.08.2017 04:51 13,4 °C 13,4 °C 93 % 1014,9 hPa 0,0 mm 4,0 km/h (1 Bft) W-SW 257 ° 0 min 0,000 mm 0,0 UV-I 0 W/m² 12,3 °C 13,4 °C 8,0 km/h (2 Bft)
19.08.2017 04:52 13,4 °C 13,4 °C 93 % 1014,9 hPa 0,0 mm 4,3 km/h (1 Bft) W-SW 237 ° 0 min 0,000 mm 0,0 UV-I 0 W/m² 12,3 °C 13,4 °C 11,3 km/h (2 Bft)
19.08.2017 04:53 13,4 °C 13,4 °C 93 % 1014,9 hPa 0,0 mm 6,2 km/h (2 Bft) SW 236 ° 0 min 0,000 mm 0,0 UV-I 0 W/m² 12,3 °C 13,4 °C 9,7 km/h (2 Bft)
19.08.2017 04:54 13,4 °C 13,4 °C 93 % 1014,9 hPa 0,0 mm 5,4 km/h (1 Bft) W 262 ° 0 min 0,000 mm 0,0 UV-I 0 W/m² 12,3 °C 13,4 °C 11,3 km/h (2 Bft)
19.08.2017 04:55 13,4 °C 13,4 °C 93 % 1014,8 hPa 0,0 mm 4,8 km/h (1 Bft) W-SW 244 ° 0 min 0,000 mm 0,0 UV-I 0 W/m² 12,3 °C 13,4 °C 12,9 km/h (3 Bft)
19.08.2017 04:56 13,4 °C 13,4 °C 93 % 1014,8 hPa 0,0 mm 4,1 km/h (1 Bft) W 261 ° 0 min 0,000 mm 0,0 UV-I 0 W/m² 12,3 °C 13,4 °C 8,0 km/h (2 Bft)
19.08.2017 04:57 13,4 °C 13,4 °C 93 % 1014,8 hPa 0,0 mm 4,6 km/h (1 Bft) W-SW 244 ° 0 min 0,000 mm 0,0 UV-I 0 W/m² 12,3 °C 13,4 °C 9,7 km/h (2 Bft)
19.08.2017 04:58 13,4 °C 13,4 °C 93 % 1014,8 hPa 0,0 mm 5,5 km/h (1 Bft) W-SW 241 ° 0 min 0,000 mm 0,0 UV-I 0 W/m² 12,3 °C 13,4 °C 8,0 km/h (2 Bft)
19.08.2017 04:59 13,4 °C 13,4 °C 93 % 1014,8 hPa 0,0 mm 5,3 km/h (1 Bft) W-SW 251 ° 0 min 0,000 mm 0,0 UV-I 0 W/m² 12,3 °C 13,4 °C 9,7 km/h (2 Bft)
19.08.2017 05:00 13,3 °C 13,4 °C 93 % 1014,8 hPa 0,0 mm 6,9 km/h (2 Bft) W 269 ° 0 min 0,000 mm 0,0 UV-I 0 W/m² 12,2 °C 13,3 °C 9,7 km/h (2 Bft)
19.08.2017 05:01 13,3 °C 13,4 °C 93 % 1014,9 hPa 0,0 mm 5,9 km/h (2 Bft) W 274 ° 0 min 0,000 mm 0,0 UV-I 0 W/m² 12,2 °C 13,3 °C 9,7 km/h (2 Bft)
19.08.2017 05:02 13,3 °C 13,4 °C 93 % 1014,9 hPa 0,0 mm 5,6 km/h (1 Bft) W-SW 251 ° 0 min 0,000 mm 0,0 UV-I 0 W/m² 12,2 °C 13,3 °C 11,3 km/h (2 Bft)
19.08.2017 05:03 13,4 °C 13,4 °C 93 % 1014,9 hPa 0,0 mm 6,9 km/h (2 Bft) W-NW 283 ° 0 min 0,000 mm 0,0 UV-I 0 W/m² 12,3 °C 13,4 °C 11,3 km/h (2 Bft)
19.08.2017 05:04 13,4 °C 13,4 °C 93 % 1014,8 hPa 0,0 mm 4,8 km/h (1 Bft) W 262 ° 0 min 0,000 mm 0,0 UV-I 0 W/m² 12,3 °C 13,4 °C 9,7 km/h (2 Bft)
19.08.2017 05:05 13,3 °C 13,4 °C 93 % 1014,8 hPa 0,0 mm 8,4 km/h (2 Bft) W 274 ° 0 min 0,000 mm 0,0 UV-I 0 W/m² 12,2 °C 13,3 °C 12,9 km/h (3 Bft)
19.08.2017 05:06 13,3 °C 13,4 °C 93 % 1014,8 hPa 0,0 mm 6,2 km/h (2 Bft) SW 234 ° 0 min 0,000 mm 0,0 UV-I 0 W/m² 12,2 °C 13,3 °C 11,3 km/h (2 Bft)
19.08.2017 05:07 13,3 °C 13,4 °C 93 % 1014,8 hPa 0,0 mm 5,6 km/h (1 Bft) W 259 ° 0 min 0,000 mm 0,0 UV-I 0 W/m² 12,2 °C 13,3 °C 11,3 km/h (2 Bft)
19.08.2017 05:08 13,3 °C 13,3 °C 93 % 1014,8 hPa 0,0 mm 7,0 km/h (2 Bft) SW 224 ° 0 min 0,000 mm 0,0 UV-I 0 W/m² 12,2 °C 13,3 °C 12,9 km/h (3 Bft)
19.08.2017 05:09 13,3 °C 13,3 °C 93 % 1014,9 hPa 0,0 mm 2,8 km/h (1 Bft) W-SW 240 ° 0 min 0,000 mm 0,0 UV-I 0 W/m² 12,2 °C 13,3 °C 4,8 km/h (1 Bft)
19.08.2017 05:10 13,3 °C 13,3 °C 93 % 1014,9 hPa 0,0 mm 7,0 km/h (2 Bft) W 267 ° 0 min 0,000 mm 0,0 UV-I 0 W/m² 12,2 °C 13,3 °C 12,9 km/h (3 Bft)
19.08.2017 05:11 13,3 °C 13,4 °C 93 % 1014,8 hPa 0,0 mm 2,9 km/h (1 Bft) W-SW 244 ° 0 min 0,000 mm 0,0 UV-I 0 W/m² 12,2 °C 13,3 °C 6,4 km/h (2 Bft)
19.08.2017 05:12 13,3 °C 13,3 °C 93 % 1014,8 hPa 0,0 mm 5,7 km/h (1 Bft) W-SW 256 ° 0 min 0,000 mm 0,0 UV-I 0 W/m² 12,2 °C 13,3 °C 6,4 km/h (2 Bft)
19.08.2017 05:13 13,3 °C 13,3 °C 93 % 1014,8 hPa 0,0 mm 2,4 km/h (1 Bft) W-SW 256 ° 0 min 0,000 mm 0,0 UV-I 0 W/m² 12,2 °C 13,3 °C 4,8 km/h (1 Bft)
19.08.2017 05:14 13,3 °C 13,3 °C 93 % 1014,8 hPa 0,0 mm 1,4 km/h (1 Bft) W 269 ° 0 min 0,000 mm 0,0 UV-I 0 W/m² 12,2 °C 13,3 °C 6,4 km/h (2 Bft)
19.08.2017 05:15 13,3 °C 13,3 °C 93 % 1014,8 hPa 0,0 mm 3,8 km/h (1 Bft) SW 236 ° 0 min 0,000 mm 0,0 UV-I 0 W/m² 12,2 °C 13,3 °C 6,4 km/h (2 Bft)
19.08.2017 05:16 13,3 °C 13,3 °C 93 % 1014,7 hPa 0,0 mm 3,0 km/h (1 Bft) W-SW 246 ° 0 min 0,000 mm 0,0 UV-I 0 W/m² 12,2 °C 13,3 °C 4,8 km/h (1 Bft)
19.08.2017 05:17 13,3 °C 13,3 °C 93 % 1014,7 hPa 0,0 mm 3,7 km/h (1 Bft) S 184 ° 0 min 0,000 mm 0,0 UV-I 0 W/m² 12,2 °C 13,3 °C 6,4 km/h (2 Bft)
19.08.2017 05:18 13,3 °C 13,3 °C 93 % 1014,8 hPa 0,0 mm 1,6 km/h (1 Bft) SW 231 ° 0 min 0,000 mm 0,0 UV-I 0 W/m² 12,2 °C 13,3 °C 3,2 km/h (1 Bft)
19.08.2017 05:19 13,3 °C 13,3 °C 93 % 1014,9 hPa 0,0 mm 1,7 km/h (1 Bft) S-SW 205 ° 0 min 0,000 mm 0,0 UV-I 0 W/m² 12,2 °C 13,3 °C 3,2 km/h (1 Bft)
19.08.2017 05:20 13,2 °C 13,3 °C 93 % 1014,8 hPa 0,0 mm 4,6 km/h (1 Bft) W 267 ° 0 min 0,000 mm 0,0 UV-I 0 W/m² 12,1 °C 13,2 °C 11,3 km/h (2 Bft)
19.08.2017 05:21 13,2 °C 13,3 °C 93 % 1014,8 hPa 0,0 mm 1,5 km/h (1 Bft) SW 218 ° 0 min 0,000 mm 0,0 UV-I 0 W/m² 12,1 °C 13,2 °C 3,2 km/h (1 Bft)
19.08.2017 05:22 13,2 °C 13,3 °C 93 % 1014,8 hPa 0,0 mm 2,0 km/h (1 Bft) W-SW 252 ° 0 min 0,000 mm 0,0 UV-I 0 W/m² 12,1 °C 13,2 °C 4,8 km/h (1 Bft)
19.08.2017 05:23 13,2 °C 13,3 °C 93 % 1014,8 hPa 0,0 mm 1,0 km/h (0 Bft) W-SW 252 ° 0 min 0,000 mm 0,0 UV-I 0 W/m² 12,1 °C 13,2 °C 3,2 km/h (1 Bft)
19.08.2017 05:24 13,2 °C 13,3 °C 93 % 1014,8 hPa 0,0 mm 2,9 km/h (1 Bft) W-SW 246 ° 0 min 0,000 mm 0,0 UV-I 0 W/m² 12,1 °C 13,2 °C 4,8 km/h (1 Bft)
19.08.2017 05:25 13,3 °C 13,3 °C 93 % 1014,8 hPa 0,0 mm 1,9 km/h (1 Bft) W-SW 246 ° 0 min 0,000 mm 0,0 UV-I 0 W/m² 12,2 °C 13,3 °C 4,8 km/h (1 Bft)
19.08.2017 05:26 13,2 °C 13,3 °C 93 % 1014,8 hPa 0,0 mm 0,1 km/h (0 Bft) W-SW 246 ° 0 min 0,000 mm 0,0 UV-I 0 W/m² 12,1 °C 13,2 °C 1,6 km/h (1 Bft)
19.08.2017 05:27 13,2 °C 13,3 °C 93 % 1014,8 hPa 0,0 mm 1,6 km/h (1 Bft) W-SW 251 ° 0 min 0,000 mm 0,0 UV-I 0 W/m² 12,1 °C 13,2 °C 4,8 km/h (1 Bft)
19.08.2017 05:28 13,2 °C 13,2 °C 93 % 1014,8 hPa 0,0 mm 2,0 km/h (1 Bft) W-SW 252 ° 0 min 0,000 mm 0,0 UV-I 0 W/m² 12,1 °C 13,2 °C 4,8 km/h (1 Bft)
19.08.2017 05:29 13,2 °C 13,2 °C 93 % 1014,9 hPa 0,0 mm 2,4 km/h (1 Bft) W-SW 252 ° 0 min 0,000 mm 0,0 UV-I 0 W/m² 12,1 °C 13,2 °C 4,8 km/h (1 Bft)
19.08.2017 05:30 13,2 °C 13,2 °C 93 % 1014,8 hPa 0,0 mm 2,5 km/h (1 Bft) W 260 ° 0 min 0,000 mm 0,0 UV-I 0 W/m² 12,1 °C 13,2 °C 6,4 km/h (2 Bft)
19.08.2017 05:31 13,2 °C 13,2 °C 93 % 1014,9 hPa 0,0 mm 2,3 km/h (1 Bft) W 260 ° 0 min 0,000 mm 0,0 UV-I 0 W/m² 12,1 °C 13,2 °C 4,8 km/h (1 Bft)
19.08.2017 05:32 13,2 °C 13,3 °C 93 % 1014,9 hPa 0,0 mm 0,3 km/h (0 Bft) W 260 ° 0 min 0,000 mm 0,0 UV-I 0 W/m² 12,1 °C 13,2 °C 1,6 km/h (1 Bft)
19.08.2017 05:33 13,2 °C 13,2 °C 93 % 1014,8 hPa 0,0 mm 3,3 km/h (1 Bft) W-SW 252 ° 0 min 0,000 mm 0,0 UV-I 0 W/m² 12,1 °C 13,2 °C 6,4 km/h (2 Bft)
19.08.2017 05:34 13,2 °C 13,2 °C 93 % 1014,8 hPa 0,0 mm 3,1 km/h (1 Bft) W-SW 246 ° 0 min 0,000 mm 0,0 UV-I 0 W/m² 12,1 °C 13,2 °C 4,8 km/h (1 Bft)
19.08.2017 05:35 13,2 °C 13,2 °C 93 % 1014,9 hPa 0,0 mm 1,4 km/h (1 Bft) W-SW 246 ° 0 min 0,000 mm 0,0 UV-I 0 W/m² 12,1 °C 13,2 °C 3,2 km/h (1 Bft)
19.08.2017 05:36 13,2 °C 13,2 °C 93 % 1014,9 hPa 0,0 mm 0,0 km/h (0 Bft) W-SW 246 ° 0 min 0,000 mm 0,0 UV-I 0 W/m² 12,1 °C 13,2 °C 0,0 km/h (0 Bft)
19.08.2017 05:37 13,2 °C 13,2 °C 94 % 1014,9 hPa 0,0 mm 0,5 km/h (0 Bft) W-SW 246 ° 0 min 0,000 mm 0,0 UV-I 0 W/m² 12,3 °C 13,2 °C 3,2 km/h (1 Bft)
19.08.2017 05:38 13,2 °C 13,2 °C 94 % 1015,0 hPa 0,0 mm 0,9 km/h (0 Bft) W-SW 246 ° 0 min 0,000 mm 0,0 UV-I 0 W/m² 12,3 °C 13,2 °C 3,2 km/h (1 Bft)
19.08.2017 05:39 13,1 °C 13,2 °C 94 % 1015,0 hPa 0,0 mm 0,4 km/h (0 Bft) W-SW 246 ° 0 min 0,000 mm 0,0 UV-I 0 W/m² 12,2 °C 13,1 °C 1,6 km/h (1 Bft)
19.08.2017 05:40 13,1 °C 13,1 °C 94 % 1015,0 hPa 0,0 mm 1,2 km/h (1 Bft) W-SW 246 ° 0 min 0,000 mm 0,0 UV-I 0 W/m² 12,2 °C 13,1 °C 1,6 km/h (1 Bft)
19.08.2017 05:41 13,2 °C 13,2 °C 94 % 1015,0 hPa 0,0 mm 0,3 km/h (0 Bft) W-SW 246 ° 0 min 0,000 mm 0,0 UV-I 0 W/m² 12,3 °C 13,2 °C 1,6 km/h (1 Bft)
19.08.2017 05:42 13,1 °C 13,2 °C 94 % 1015,0 hPa 0,0 mm 1,0 km/h (0 Bft) W-SW 246 ° 0 min 0,000 mm 0,0 UV-I 0 W/m² 12,2 °C 13,1 °C 3,2 km/h (1 Bft)
19.08.2017 05:43 13,1 °C 13,1 °C 94 % 1015,0 hPa 0,0 mm 0,4 km/h (0 Bft) W-SW 246 ° 0 min 0,000 mm 0,0 UV-I 0 W/m² 12,2 °C 13,1 °C 1,6 km/h (1 Bft)
19.08.2017 05:44 13,1 °C 13,1 °C 94 % 1015,0 hPa 0,0 mm 0,9 km/h (0 Bft) SW 234 ° 0 min 0,000 mm 0,0 UV-I 0 W/m² 12,2 °C 13,1 °C 3,2 km/h (1 Bft)
19.08.2017 05:45 13,1 °C 13,1 °C 94 % 1014,9 hPa 0,0 mm 1,7 km/h (1 Bft) SW 234 ° 0 min 0,000 mm 0,0 UV-I 0 W/m² 12,2 °C 13,1 °C 4,8 km/h (1 Bft)
19.08.2017 05:46 13,1 °C 13,1 °C 94 % 1015,0 hPa 0,0 mm 0,1 km/h (0 Bft) SW 234 ° 0 min 0,000 mm 0,0 UV-I 0 W/m² 12,2 °C 13,1 °C 1,6 km/h (1 Bft)
19.08.2017 05:47 13,1 °C 13,1 °C 94 % 1015,0 hPa 0,0 mm 0,0 km/h (0 Bft) SW 234 ° 0 min 0,000 mm 0,0 UV-I 0 W/m² 12,2 °C 13,1 °C 0,0 km/h (0 Bft)
19.08.2017 05:48 13,1 °C 13,1 °C 94 % 1015,1 hPa 0,0 mm 0,0 km/h (0 Bft) SW 234 ° 0 min 0,000 mm 0,0 UV-I 0 W/m² 12,2 °C 13,1 °C 0,0 km/h (0 Bft)
19.08.2017 05:49 13,1 °C 13,1 °C 94 % 1015,1 hPa 0,0 mm 0,9 km/h (0 Bft) SW 234 ° 0 min 0,000 mm 0,0 UV-I 0 W/m² 12,2 °C 13,1 °C 1,6 km/h (1 Bft)
19.08.2017 05:50 13,1 °C 13,1 °C 94 % 1015,1 hPa 0,0 mm 0,0 km/h (0 Bft) SW 234 ° 0 min 0,000 mm 0,0 UV-I 0 W/m² 12,2 °C 13,1 °C 0,0 km/h (0 Bft)
19.08.2017 05:51 13,1 °C 13,1 °C 94 % 1015,1 hPa 0,0 mm 0,0 km/h (0 Bft) SW 234 ° 0 min 0,000 mm 0,0 UV-I 0 W/m² 12,2 °C 13,1 °C 0,0 km/h (0 Bft)
19.08.2017 05:52 13,1 °C 13,1 °C 94 % 1015,0 hPa 0,0 mm 0,0 km/h (0 Bft) SW 234 ° 0 min 0,000 mm 0,0 UV-I 0 W/m² 12,2 °C 13,1 °C 0,0 km/h (0 Bft)
19.08.2017 05:53 13,1 °C 13,1 °C 94 % 1015,1 hPa 0,0 mm 0,0 km/h (0 Bft) SW 234 ° 0 min 0,000 mm 0,0 UV-I 0 W/m² 12,2 °C 13,1 °C 0,0 km/h (0 Bft)
19.08.2017 05:54 13,1 °C 13,1 °C 94 % 1015,1 hPa 0,0 mm 0,0 km/h (0 Bft) SW 234 ° 0 min 0,000 mm 0,0 UV-I 0 W/m² 12,2 °C 13,1 °C 0,0 km/h (0 Bft)
19.08.2017 05:55 13,1 °C 13,1 °C 94 % 1015,1 hPa 0,0 mm 0,0 km/h (0 Bft) SW 234 ° 0 min 0,000 mm 0,0 UV-I 0 W/m² 12,2 °C 13,1 °C 0,0 km/h (0 Bft)
19.08.2017 05:56 13,1 °C 13,1 °C 94 % 1015,1 hPa 0,0 mm 0,7 km/h (0 Bft) SW 234 ° 0 min 0,000 mm 0,0 UV-I 0 W/m² 12,2 °C 13,1 °C 1,6 km/h (1 Bft)
19.08.2017 05:57 13,1 °C 13,1 °C 94 % 1015,1 hPa 0,0 mm 0,0 km/h (0 Bft) SW 234 ° 0 min 0,000 mm 0,0 UV-I 0 W/m² 12,2 °C 13,1 °C 0,0 km/h (0 Bft)
19.08.2017 05:58 13,1 °C 13,1 °C 94 % 1015,1 hPa 0,0 mm 0,0 km/h (0 Bft) SW 234 ° 0 min 0,000 mm 0,0 UV-I 0 W/m² 12,2 °C 13,1 °C 0,0 km/h (0 Bft)
19.08.2017 05:59 13,1 °C 13,1 °C 94 % 1015,1 hPa 0,0 mm 0,0 km/h (0 Bft) SW 234 ° 0 min 0,000 mm 0,0 UV-I 0 W/m² 12,2 °C 13,1 °C 0,0 km/h (0 Bft)
19.08.2017 06:00 13,1 °C 13,1 °C 94 % 1015,1 hPa 0,0 mm 1,3 km/h (1 Bft) SW 234 ° 0 min 0,000 mm 0,0 UV-I 0 W/m² 12,2 °C 13,1 °C 4,8 km/h (1 Bft)
19.08.2017 06:01 13,1 °C 13,1 °C 94 % 1015,0 hPa 0,0 mm 2,4 km/h (1 Bft) SW 221 ° 0 min 0,000 mm 0,0 UV-I 0 W/m² 12,2 °C 13,1 °C 4,8 km/h (1 Bft)
19.08.2017 06:02 13,0 °C 13,1 °C 94 % 1015,0 hPa 0,0 mm 0,0 km/h (0 Bft) SW 221 ° 0 min 0,000 mm 0,0 UV-I 0 W/m² 12,1 °C 13,0 °C 0,0 km/h (0 Bft)
19.08.2017 06:03 13,1 °C 13,1 °C 94 % 1015,0 hPa 0,0 mm 0,0 km/h (0 Bft) SW 221 ° 0 min 0,000 mm 0,0 UV-I 0 W/m² 12,2 °C 13,1 °C 0,0 km/h (0 Bft)
19.08.2017 06:04 13,1 °C 13,1 °C 94 % 1015,1 hPa 0,0 mm 0,0 km/h (0 Bft) SW 221 ° 0 min 0,000 mm 0,0 UV-I 0 W/m² 12,2 °C 13,1 °C 0,0 km/h (0 Bft)
19.08.2017 06:05 13,1 °C 13,1 °C 94 % 1015,1 hPa 0,0 mm 0,0 km/h (0 Bft) SW 221 ° 0 min 0,000 mm 0,0 UV-I 0 W/m² 12,2 °C 13,1 °C 0,0 km/h (0 Bft)
19.08.2017 06:06 13,0 °C 13,1 °C 94 % 1015,1 hPa 0,0 mm 0,0 km/h (0 Bft) SW 221 ° 0 min 0,000 mm 0,0 UV-I 0 W/m² 12,1 °C 13,0 °C 0,0 km/h (0 Bft)
19.08.2017 06:07 13,0 °C 13,1 °C 94 % 1015,2 hPa 0,0 mm 0,0 km/h (0 Bft) SW 221 ° 0 min 0,000 mm 0,0 UV-I 0 W/m² 12,1 °C 13,0 °C 0,0 km/h (0 Bft)
19.08.2017 06:08 13,0 °C 13,1 °C 94 % 1015,2 hPa 0,0 mm 0,0 km/h (0 Bft) SW 221 ° 0 min 0,000 mm 0,0 UV-I 0 W/m² 12,1 °C 13,0 °C 0,0 km/h (0 Bft)
19.08.2017 06:09 13,0 °C 13,0 °C 94 % 1015,2 hPa 0,0 mm 1,2 km/h (1 Bft) W-SW 254 ° 0 min 0,000 mm 0,0 UV-I 0 W/m² 12,1 °C 13,0 °C 4,8 km/h (1 Bft)
19.08.2017 06:10 13,0 °C 13,0 °C 94 % 1015,2 hPa 0,0 mm 2,5 km/h (1 Bft) W-SW 254 ° 0 min 0,000 mm 0,0 UV-I 0 W/m² 12,1 °C 13,0 °C 3,2 km/h (1 Bft)
19.08.2017 06:11 13,0 °C 13,0 °C 94 % 1015,2 hPa 0,0 mm 2,5 km/h (1 Bft) W-SW 254 ° 0 min 0,000 mm 0,0 UV-I 0 W/m² 12,1 °C 13,0 °C 4,8 km/h (1 Bft)
19.08.2017 06:12 13,0 °C 13,0 °C 94 % 1015,1 hPa 0,0 mm 0,0 km/h (0 Bft) W-SW 254 ° 0 min 0,000 mm 0,0 UV-I 0 W/m² 12,1 °C 13,0 °C 0,0 km/h (0 Bft)
19.08.2017 06:13 13,0 °C 13,0 °C 94 % 1015,1 hPa 0,0 mm 0,0 km/h (0 Bft) W-SW 254 ° 0 min 0,000 mm 0,0 UV-I 0 W/m² 12,1 °C 13,0 °C 0,0 km/h (0 Bft)
19.08.2017 06:14 13,0 °C 13,0 °C 94 % 1015,0 hPa 0,0 mm 0,0 km/h (0 Bft) W-SW 254 ° 0 min 0,000 mm 0,0 UV-I 0 W/m² 12,1 °C 13,0 °C 0,0 km/h (0 Bft)
19.08.2017 06:15 13,0 °C 13,0 °C 94 % 1015,0 hPa 0,0 mm 0,5 km/h (0 Bft) W-SW 253 ° 0 min 0,000 mm 0,0 UV-I 0 W/m² 12,1 °C 13,0 °C 1,6 km/h (1 Bft)
19.08.2017 06:16 13,0 °C 13,0 °C 94 % 1014,9 hPa 0,0 mm 0,6 km/h (0 Bft) W-SW 243 ° 0 min 0,000 mm 0,0 UV-I 0 W/m² 12,1 °C 13,0 °C 3,2 km/h (1 Bft)
19.08.2017 06:17 12,9 °C 13,0 °C 94 % 1014,9 hPa 0,0 mm 2,1 km/h (1 Bft) W-SW 243 ° 0 min 0,000 mm 0,0 UV-I 0 W/m² 12,0 °C 12,9 °C 3,2 km/h (1 Bft)
19.08.2017 06:18 12,9 °C 13,0 °C 94 % 1014,9 hPa 0,0 mm 1,4 km/h (1 Bft) W-SW 243 ° 0 min 0,000 mm 0,0 UV-I 0 W/m² 12,0 °C 12,9 °C 3,2 km/h (1 Bft)
19.08.2017 06:19 12,9 °C 12,9 °C 94 % 1015,0 hPa 0,0 mm 1,2 km/h (1 Bft) W-SW 243 ° 0 min 0,000 mm 0,0 UV-I 0 W/m² 12,0 °C 12,9 °C 3,2 km/h (1 Bft)
19.08.2017 06:20 12,9 °C 12,9 °C 94 % 1015,0 hPa 0,0 mm 2,2 km/h (1 Bft) W-SW 243 ° 0 min 0,000 mm 0,0 UV-I 0 W/m² 12,0 °C 12,9 °C 3,2 km/h (1 Bft)
19.08.2017 06:21 12,9 °C 12,9 °C 94 % 1015,0 hPa 0,0 mm 3,6 km/h (1 Bft) S-SW 202 ° 0 min 0,000 mm 0,0 UV-I 0 W/m² 12,0 °C 12,9 °C 6,4 km/h (2 Bft)
19.08.2017 06:22 12,9 °C 12,9 °C 94 % 1015,0 hPa 0,0 mm 3,8 km/h (1 Bft) S-SW 207 ° 0 min 0,000 mm 0,0 UV-I 0 W/m² 12,0 °C 12,9 °C 6,4 km/h (2 Bft)
19.08.2017 06:23 12,9 °C 12,9 °C 94 % 1015,0 hPa 0,0 mm 3,6 km/h (1 Bft) S-SW 203 ° 0 min 0,000 mm 0,0 UV-I 0 W/m² 12,0 °C 12,9 °C 6,4 km/h (2 Bft)
19.08.2017 06:24 12,9 °C 12,9 °C 94 % 1015,0 hPa 0,0 mm 2,8 km/h (1 Bft) S-SW 194 ° 0 min 0,000 mm 0,0 UV-I 0 W/m² 12,0 °C 12,9 °C 4,8 km/h (1 Bft)
19.08.2017 06:25 12,9 °C 12,9 °C 94 % 1015,0 hPa 0,0 mm 0,5 km/h (0 Bft) S-SW 194 ° 0 min 0,000 mm 0,0 UV-I 0 W/m² 12,0 °C 12,9 °C 3,2 km/h (1 Bft)
19.08.2017 06:26 12,9 °C 12,9 °C 94 % 1015,0 hPa 0,0 mm 1,7 km/h (1 Bft) W-SW 240 ° 0 min 0,000 mm 0,0 UV-I 0 W/m² 12,0 °C 12,9 °C 3,2 km/h (1 Bft)
19.08.2017 06:27 12,9 °C 12,9 °C 94 % 1015,0 hPa 0,0 mm 1,6 km/h (1 Bft) S-SW 200 ° 0 min 0,000 mm 0,0 UV-I 0 W/m² 12,0 °C 12,9 °C 4,8 km/h (1 Bft)
19.08.2017 06:28 12,9 °C 12,9 °C 94 % 1015,0 hPa 0,0 mm 2,1 km/h (1 Bft) S-SW 200 ° 0 min 0,000 mm 0,0 UV-I 0 W/m² 12,0 °C 12,9 °C 4,8 km/h (1 Bft)
19.08.2017 06:29 12,9 °C 12,9 °C 94 % 1015,0 hPa 0,0 mm 1,7 km/h (1 Bft) S-SW 200 ° 0 min 0,000 mm 0,0 UV-I 0 W/m² 12,0 °C 12,9 °C 4,8 km/h (1 Bft)
19.08.2017 06:30 12,9 °C 12,9 °C 94 % 1015,0 hPa 0,0 mm 0,3 km/h (0 Bft) S-SW 200 ° 0 min 0,000 mm 0,0 UV-I 0 W/m² 12,0 °C 12,9 °C 1,6 km/h (1 Bft)
19.08.2017 06:31 12,9 °C 12,9 °C 94 % 1015,0 hPa 0,0 mm 5,5 km/h (1 Bft) S 171 ° 0 min 0,000 mm 0,0 UV-I 0 W/m² 12,0 °C 12,9 °C 9,7 km/h (2 Bft)
19.08.2017 06:32 12,9 °C 12,9 °C 94 % 1015,0 hPa 0,0 mm 2,0 km/h (1 Bft) SW 221 ° 0 min 0,000 mm 0,0 UV-I 0 W/m² 12,0 °C 12,9 °C 6,4 km/h (2 Bft)
19.08.2017 06:33 12,9 °C 13,0 °C 94 % 1015,1 hPa 0,0 mm 0,0 km/h (0 Bft) SW 222 ° 0 min 0,000 mm 0,0 UV-I 0 W/m² 12,0 °C 12,9 °C 0,0 km/h (0 Bft)
19.08.2017 06:34 12,9 °C 13,0 °C 94 % 1015,1 hPa 0,0 mm 0,3 km/h (0 Bft) SW 222 ° 0 min 0,000 mm 0,0 UV-I 0 W/m² 12,0 °C 12,9 °C 1,6 km/h (1 Bft)
19.08.2017 06:35 12,9 °C 13,0 °C 94 % 1015,1 hPa 0,0 mm 0,9 km/h (0 Bft) SW 222 ° 0 min 0,000 mm 0,0 UV-I 0 W/m² 12,0 °C 12,9 °C 3,2 km/h (1 Bft)
19.08.2017 06:36 13,0 °C 13,0 °C 94 % 1015,1 hPa 0,0 mm 0,0 km/h (0 Bft) SW 222 ° 0 min 0,000 mm 0,0 UV-I 0 W/m² 12,1 °C 13,0 °C 0,0 km/h (0 Bft)
19.08.2017 06:37 12,9 °C 13,0 °C 94 % 1015,0 hPa 0,2 mm 0,0 km/h (0 Bft) SW 222 ° 0 min 0,000 mm 0,0 UV-I 0 W/m² 12,0 °C 12,9 °C 0,0 km/h (0 Bft)
19.08.2017 06:38 12,9 °C 12,9 °C 94 % 1015,0 hPa 0,0 mm 0,3 km/h (0 Bft) SW 222 ° 0 min 0,000 mm 0,0 UV-I 0 W/m² 12,0 °C 12,9 °C 1,6 km/h (1 Bft)
19.08.2017 06:39 12,9 °C 13,0 °C 94 % 1015,1 hPa 0,0 mm 2,0 km/h (1 Bft) SW 222 ° 0 min 0,000 mm 0,0 UV-I 0 W/m² 12,0 °C 12,9 °C 3,2 km/h (1 Bft)
19.08.2017 06:40 12,9 °C 12,9 °C 94 % 1015,1 hPa 0,0 mm 0,5 km/h (0 Bft) SW 222 ° 0 min 0,000 mm 0,0 UV-I 0 W/m² 12,0 °C 12,9 °C 1,6 km/h (1 Bft)
19.08.2017 06:41 12,9 °C 12,9 °C 94 % 1015,2 hPa 0,0 mm 1,2 km/h (1 Bft) SW 222 ° 0 min 0,000 mm 0,0 UV-I 0 W/m² 12,0 °C 12,9 °C 3,2 km/h (1 Bft)
19.08.2017 06:42 12,9 °C 12,9 °C 94 % 1015,1 hPa 0,0 mm 1,6 km/h (1 Bft) S-SW 195 ° 0 min 0,000 mm 0,0 UV-I 0 W/m² 12,0 °C 12,9 °C 3,2 km/h (1 Bft)
19.08.2017 06:43 12,9 °C 12,9 °C 94 % 1015,2 hPa 0,0 mm 0,0 km/h (0 Bft) S-SW 195 ° 0 min 0,000 mm 0,0 UV-I 0 W/m² 12,0 °C 12,9 °C 0,0 km/h (0 Bft)
19.08.2017 06:44 12,9 °C 12,9 °C 94 % 1015,3 hPa 0,0 mm 0,0 km/h (0 Bft) S-SW 195 ° 0 min 0,000 mm 0,0 UV-I 0 W/m² 12,0 °C 12,9 °C 0,0 km/h (0 Bft)
19.08.2017 06:45 12,9 °C 12,9 °C 94 % 1015,3 hPa 0,0 mm 0,0 km/h (0 Bft) S-SW 195 ° 0 min 0,000 mm 0,0 UV-I 0 W/m² 12,0 °C 12,9 °C 0,0 km/h (0 Bft)
19.08.2017 06:46 12,9 °C 12,9 °C 94 % 1015,3 hPa 0,0 mm 0,0 km/h (0 Bft) S-SW 195 ° 0 min 0,000 mm 0,0 UV-I 0 W/m² 12,0 °C 12,9 °C 0,0 km/h (0 Bft)
19.08.2017 06:47 12,9 °C 12,9 °C 94 % 1015,3 hPa 0,0 mm 0,0 km/h (0 Bft) S-SW 195 ° 0 min 0,000 mm 0,0 UV-I 0 W/m² 12,0 °C 12,9 °C 0,0 km/h (0 Bft)
19.08.2017 06:48 12,9 °C 12,9 °C 94 % 1015,3 hPa 0,0 mm 1,6 km/h (1 Bft) S-SW 201 ° 0 min 0,000 mm 0,0 UV-I 0 W/m² 12,0 °C 12,9 °C 6,4 km/h (2 Bft)
19.08.2017 06:49 12,9 °C 12,9 °C 94 % 1015,3 hPa 0,0 mm 1,4 km/h (1 Bft) S-SW 201 ° 0 min 0,000 mm 0,0 UV-I 0 W/m² 12,0 °C 12,9 °C 4,8 km/h (1 Bft)
19.08.2017 06:50 12,9 °C 12,9 °C 94 % 1015,3 hPa 0,0 mm 1,5 km/h (1 Bft) S-SW 201 ° 0 min 0,000 mm 0,0 UV-I 0 W/m² 12,0 °C 12,9 °C 3,2 km/h (1 Bft)
19.08.2017 06:51 12,9 °C 12,9 °C 94 % 1015,3 hPa 0,0 mm 0,3 km/h (0 Bft) S-SW 201 ° 0 min 0,000 mm 0,0 UV-I 0 W/m² 12,0 °C 12,9 °C 1,6 km/h (1 Bft)
19.08.2017 06:52 12,9 °C 12,9 °C 94 % 1015,4 hPa 0,0 mm 0,0 km/h (0 Bft) S-SW 202 ° 0 min 0,000 mm 0,0 UV-I 0 W/m² 12,0 °C 12,9 °C 0,0 km/h (0 Bft)
19.08.2017 06:53 12,9 °C 12,9 °C 94 % 1015,4 hPa 0,0 mm 1,5 km/h (1 Bft) S-SW 211 ° 0 min 0,000 mm 0,0 UV-I 0 W/m² 12,0 °C 12,9 °C 4,8 km/h (1 Bft)
19.08.2017 06:54 12,9 °C 12,9 °C 94 % 1015,5 hPa 0,0 mm 0,0 km/h (0 Bft) S-SW 211 ° 0 min 0,000 mm 0,0 UV-I 0 W/m² 12,0 °C 12,9 °C 0,0 km/h (0 Bft)
19.08.2017 06:55 12,9 °C 12,9 °C 94 % 1015,5 hPa 0,0 mm 0,0 km/h (0 Bft) S-SW 211 ° 0 min 0,000 mm 0,0 UV-I 0 W/m² 12,0 °C 12,9 °C 0,0 km/h (0 Bft)
19.08.2017 06:56 12,9 °C 12,9 °C 94 % 1015,5 hPa 0,0 mm 0,9 km/h (0 Bft) S-SW 211 ° 0 min 0,000 mm 0,0 UV-I 0 W/m² 12,0 °C 12,9 °C 3,2 km/h (1 Bft)
19.08.2017 06:57 12,9 °C 12,9 °C 94 % 1015,5 hPa 0,0 mm 1,5 km/h (1 Bft) S-SW 196 ° 0 min 0,000 mm 0,0 UV-I 5 W/m² 12,0 °C 12,9 °C 3,2 km/h (1 Bft)
19.08.2017 06:58 12,9 °C 12,9 °C 94 % 1015,6 hPa 0,0 mm 0,0 km/h (0 Bft) S-SW 196 ° 0 min 0,000 mm 0,0 UV-I 5 W/m² 12,0 °C 12,9 °C 0,0 km/h (0 Bft)
19.08.2017 06:59 12,9 °C 12,9 °C 94 % 1015,5 hPa 0,0 mm 2,4 km/h (1 Bft) S-SW 196 ° 0 min 0,000 mm 0,0 UV-I 5 W/m² 12,0 °C 12,9 °C 3,2 km/h (1 Bft)
19.08.2017 07:00 12,9 °C 12,9 °C 94 % 1015,6 hPa 0,0 mm 1,7 km/h (1 Bft) S-SW 196 ° 0 min 0,000 mm 0,0 UV-I 5 W/m² 12,0 °C 12,9 °C 3,2 km/h (1 Bft)
19.08.2017 07:01 12,9 °C 12,9 °C 94 % 1015,6 hPa 0,0 mm 0,0 km/h (0 Bft) S-SW 196 ° 0 min 0,000 mm 0,0 UV-I 5 W/m² 12,0 °C 12,9 °C 0,0 km/h (0 Bft)
19.08.2017 07:02 12,9 °C 12,9 °C 94 % 1015,6 hPa 0,0 mm 0,0 km/h (0 Bft) S-SW 196 ° 0 min 0,000 mm 0,0 UV-I 7 W/m² 12,0 °C 12,9 °C 0,0 km/h (0 Bft)
19.08.2017 07:03 12,9 °C 12,9 °C 94 % 1015,6 hPa 0,0 mm 0,0 km/h (0 Bft) S-SW 196 ° 0 min 0,000 mm 0,0 UV-I 7 W/m² 12,0 °C 12,9 °C 0,0 km/h (0 Bft)
19.08.2017 07:04 12,9 °C 12,9 °C 94 % 1015,6 hPa 0,0 mm 0,0 km/h (0 Bft) S-SW 196 ° 0 min 0,000 mm 0,0 UV-I 9 W/m² 12,0 °C 12,9 °C 0,0 km/h (0 Bft)
19.08.2017 07:05 12,8 °C 12,9 °C 94 % 1015,6 hPa 0,0 mm 0,0 km/h (0 Bft) S-SW 196 ° 0 min 0,000 mm 0,0 UV-I 9 W/m² 11,9 °C 12,8 °C 0,0 km/h (0 Bft)
19.08.2017 07:06 12,8 °C 12,9 °C 94 % 1015,6 hPa 0,2 mm 0,0 km/h (0 Bft) S-SW 196 ° 0 min 0,000 mm 0,0 UV-I 11 W/m² 11,9 °C 12,8 °C 0,0 km/h (0 Bft)
19.08.2017 07:07 12,8 °C 12,8 °C 94 % 1015,6 hPa 0,0 mm 0,0 km/h (0 Bft) S-SW 196 ° 0 min 0,000 mm 0,0 UV-I 11 W/m² 11,9 °C 12,8 °C 0,0 km/h (0 Bft)
19.08.2017 07:08 12,9 °C 12,9 °C 95 % 1015,6 hPa 0,0 mm 0,0 km/h (0 Bft) S-SW 196 ° 0 min 0,000 mm 0,0 UV-I 11 W/m² 12,1 °C 12,9 °C 0,0 km/h (0 Bft)
19.08.2017 07:09 12,8 °C 12,9 °C 95 % 1015,6 hPa 0,0 mm 0,0 km/h (0 Bft) S-SW 196 ° 0 min 0,000 mm 0,0 UV-I 11 W/m² 12,0 °C 12,8 °C 0,0 km/h (0 Bft)
19.08.2017 07:10 12,9 °C 12,9 °C 95 % 1015,7 hPa 0,0 mm 0,0 km/h (0 Bft) S-SW 196 ° 0 min 0,000 mm 0,0 UV-I 11 W/m² 12,1 °C 12,9 °C 0,0 km/h (0 Bft)
19.08.2017 07:11 12,9 °C 12,9 °C 95 % 1015,6 hPa 0,0 mm 0,0 km/h (0 Bft) S-SW 196 ° 0 min 0,000 mm 0,0 UV-I 12 W/m² 12,1 °C 12,9 °C 0,0 km/h (0 Bft)
19.08.2017 07:12 12,8 °C 12,9 °C 95 % 1015,7 hPa 0,0 mm 0,8 km/h (0 Bft) S-SW 196 ° 0 min 0,000 mm 0,0 UV-I 12 W/m² 12,0 °C 12,8 °C 1,6 km/h (1 Bft)
19.08.2017 07:13 12,8 °C 12,8 °C 95 % 1015,7 hPa 0,0 mm 0,8 km/h (0 Bft) S-SW 196 ° 0 min 0,000 mm 0,0 UV-I 14 W/m² 12,0 °C 12,8 °C 1,6 km/h (1 Bft)
19.08.2017 07:14 12,8 °C 12,9 °C 95 % 1015,7 hPa 0,0 mm 0,0 km/h (0 Bft) S-SW 196 ° 0 min 0,000 mm 0,0 UV-I 14 W/m² 12,0 °C 12,8 °C 0,0 km/h (0 Bft)
19.08.2017 07:15 12,8 °C 12,9 °C 95 % 1015,6 hPa 0,0 mm 0,6 km/h (0 Bft) S-SW 196 ° 0 min 0,000 mm 0,0 UV-I 12 W/m² 12,0 °C 12,8 °C 1,6 km/h (1 Bft)
19.08.2017 07:16 12,8 °C 12,8 °C 95 % 1015,7 hPa 0,0 mm 0,9 km/h (0 Bft) S-SW 196 ° 0 min 0,000 mm 0,0 UV-I 12 W/m² 12,0 °C 12,8 °C 3,2 km/h (1 Bft)
19.08.2017 07:17 12,9 °C 12,9 °C 95 % 1015,7 hPa 0,0 mm 1,8 km/h (1 Bft) S-SW 196 ° 0 min 0,000 mm 0,0 UV-I 12 W/m² 12,1 °C 12,9 °C 3,2 km/h (1 Bft)
19.08.2017 07:18 12,8 °C 12,9 °C 95 % 1015,7 hPa 0,0 mm 0,0 km/h (0 Bft) S-SW 196 ° 0 min 0,000 mm 0,0 UV-I 14 W/m² 12,0 °C 12,8 °C 0,0 km/h (0 Bft)
19.08.2017 07:19 12,9 °C 12,9 °C 95 % 1015,7 hPa 0,0 mm 0,2 km/h (0 Bft) S-SW 196 ° 0 min 0,000 mm 0,0 UV-I 14 W/m² 12,1 °C 12,9 °C 1,6 km/h (1 Bft)
19.08.2017 07:20 12,9 °C 12,9 °C 95 % 1015,7 hPa 0,0 mm 0,7 km/h (0 Bft) S-SW 196 ° 0 min 0,000 mm 0,0 UV-I 14 W/m² 12,1 °C 12,9 °C 1,6 km/h (1 Bft)
19.08.2017 07:21 12,9 °C 12,9 °C 95 % 1015,7 hPa 0,0 mm 0,0 km/h (0 Bft) S-SW 196 ° 0 min 0,000 mm 0,0 UV-I 14 W/m² 12,1 °C 12,9 °C 0,0 km/h (0 Bft)
19.08.2017 07:22 12,9 °C 12,9 °C 95 % 1015,7 hPa 0,0 mm 0,0 km/h (0 Bft) S-SW 196 ° 0 min 0,000 mm 0,0 UV-I 14 W/m² 12,1 °C 12,9 °C 0,0 km/h (0 Bft)
19.08.2017 07:23 12,9 °C 12,9 °C 95 % 1015,7 hPa 0,0 mm 0,6 km/h (0 Bft) S-SW 196 ° 0 min 0,000 mm 0,0 UV-I 16 W/m² 12,1 °C 12,9 °C 1,6 km/h (1 Bft)
19.08.2017 07:24 12,9 °C 12,9 °C 95 % 1015,7 hPa 0,0 mm 0,0 km/h (0 Bft) S-SW 196 ° 0 min 0,000 mm 0,0 UV-I 16 W/m² 12,1 °C 12,9 °C 0,0 km/h (0 Bft)
19.08.2017 07:25 12,9 °C 12,9 °C 95 % 1015,7 hPa 0,0 mm 0,0 km/h (0 Bft) S-SW 196 ° 0 min 0,000 mm 0,0 UV-I 19 W/m² 12,1 °C 12,9 °C 0,0 km/h (0 Bft)
19.08.2017 07:26 12,9 °C 12,9 °C 95 % 1015,7 hPa 0,0 mm 0,7 km/h (0 Bft) S-SW 196 ° 0 min 0,000 mm 0,0 UV-I 19 W/m² 12,1 °C 12,9 °C 1,6 km/h (1 Bft)
19.08.2017 07:27 12,9 °C 12,9 °C 95 % 1015,7 hPa 0,0 mm 0,0 km/h (0 Bft) S-SW 196 ° 0 min 0,000 mm 0,0 UV-I 21 W/m² 12,1 °C 12,9 °C 0,0 km/h (0 Bft)
19.08.2017 07:28 12,9 °C 12,9 °C 95 % 1015,7 hPa 0,0 mm 0,4 km/h (0 Bft) S-SW 196 ° 0 min 0,000 mm 0,0 UV-I 23 W/m² 12,1 °C 12,9 °C 1,6 km/h (1 Bft)
19.08.2017 07:29 12,9 °C 12,9 °C 95 % 1015,8 hPa 0,0 mm 0,9 km/h (0 Bft) S-SW 196 ° 0 min 0,000 mm 0,0 UV-I 23 W/m² 12,1 °C 12,9 °C 1,6 km/h (1 Bft)
19.08.2017 07:30 12,9 °C 12,9 °C 95 % 1015,8 hPa 0,0 mm 0,4 km/h (0 Bft) S-SW 196 ° 0 min 0,000 mm 0,0 UV-I 25 W/m² 12,1 °C 12,9 °C 1,6 km/h (1 Bft)
19.08.2017 07:31 12,9 °C 13,0 °C 95 % 1015,8 hPa 0,0 mm 0,5 km/h (0 Bft) S-SW 196 ° 0 min 0,000 mm 0,0 UV-I 28 W/m² 12,1 °C 12,9 °C 1,6 km/h (1 Bft)
19.08.2017 07:32 13,0 °C 13,0 °C 95 % 1015,8 hPa 0,0 mm 0,7 km/h (0 Bft) S-SW 196 ° 0 min 0,000 mm 0,0 UV-I 30 W/m² 12,2 °C 13,0 °C 4,8 km/h (1 Bft)
19.08.2017 07:33 13,0 °C 13,0 °C 94 % 1015,9 hPa 0,0 mm 0,9 km/h (0 Bft) S-SW 196 ° 0 min 0,000 mm 0,0 UV-I 32 W/m² 12,1 °C 13,0 °C 3,2 km/h (1 Bft)
19.08.2017 07:34 13,0 °C 13,0 °C 94 % 1015,9 hPa 0,0 mm 1,2 km/h (1 Bft) S-SW 196 ° 0 min 0,000 mm 0,0 UV-I 33 W/m² 12,1 °C 13,0 °C 3,2 km/h (1 Bft)
19.08.2017 07:35 13,1 °C 13,1 °C 94 % 1015,9 hPa 0,0 mm 0,0 km/h (0 Bft) S-SW 196 ° 0 min 0,000 mm 0,0 UV-I 35 W/m² 12,2 °C 13,1 °C 0,0 km/h (0 Bft)
19.08.2017 07:36 13,1 °C 13,1 °C 94 % 1015,9 hPa 0,0 mm 0,0 km/h (0 Bft) S-SW 196 ° 0 min 0,000 mm 0,0 UV-I 39 W/m² 12,2 °C 13,1 °C 0,0 km/h (0 Bft)
19.08.2017 07:37 13,1 °C 13,1 °C 94 % 1015,9 hPa 0,0 mm 0,0 km/h (0 Bft) S-SW 196 ° 0 min 0,000 mm 0,0 UV-I 42 W/m² 12,2 °C 13,1 °C 0,0 km/h (0 Bft)
19.08.2017 07:38 13,1 °C 13,1 °C 95 % 1015,9 hPa 0,0 mm 0,0 km/h (0 Bft) S-SW 196 ° 0 min 0,000 mm 0,0 UV-I 42 W/m² 12,3 °C 13,1 °C 0,0 km/h (0 Bft)
19.08.2017 07:39 13,2 °C 13,2 °C 95 % 1015,9 hPa 0,0 mm 0,0 km/h (0 Bft) S-SW 196 ° 0 min 0,000 mm 0,0 UV-I 42 W/m² 12,4 °C 13,2 °C 0,0 km/h (0 Bft)
19.08.2017 07:40 13,2 °C 13,2 °C 94 % 1015,9 hPa 0,0 mm 0,0 km/h (0 Bft) S-SW 196 ° 0 min 0,000 mm 0,0 UV-I 42 W/m² 12,3 °C 13,2 °C 0,0 km/h (0 Bft)
19.08.2017 07:41 13,1 °C 13,2 °C 94 % 1015,9 hPa 0,0 mm 0,0 km/h (0 Bft) S-SW 196 ° 0 min 0,000 mm 0,0 UV-I 42 W/m² 12,2 °C 13,1 °C 0,0 km/h (0 Bft)
19.08.2017 07:42 13,2 °C 13,2 °C 95 % 1015,9 hPa 0,0 mm 0,0 km/h (0 Bft) S-SW 196 ° 0 min 0,000 mm 0,0 UV-I 44 W/m² 12,4 °C 13,2 °C 0,0 km/h (0 Bft)
19.08.2017 07:43 13,2 °C 13,2 °C 95 % 1015,9 hPa 0,0 mm 0,0 km/h (0 Bft) S-SW 196 ° 0 min 0,000 mm 0,0 UV-I 47 W/m² 12,4 °C 13,2 °C 0,0 km/h (0 Bft)
19.08.2017 07:44 13,2 °C 13,2 °C 95 % 1015,9 hPa 0,0 mm 0,0 km/h (0 Bft) S-SW 196 ° 0 min 0,000 mm 0,0 UV-I 49 W/m² 12,4 °C 13,2 °C 0,0 km/h (0 Bft)
19.08.2017 07:45 13,2 °C 13,2 °C 95 % 1015,9 hPa 0,0 mm 0,0 km/h (0 Bft) S-SW 196 ° 0 min 0,000 mm 0,0 UV-I 53 W/m² 12,4 °C 13,2 °C 0,0 km/h (0 Bft)
19.08.2017 07:46 13,1 °C 13,2 °C 95 % 1015,9 hPa 0,0 mm 0,1 km/h (0 Bft) S-SW 196 ° 0 min 0,000 mm 0,0 UV-I 56 W/m² 12,3 °C 13,1 °C 1,6 km/h (1 Bft)
19.08.2017 07:47 13,2 °C 13,2 °C 95 % 1015,9 hPa 0,0 mm 0,0 km/h (0 Bft) S-SW 196 ° 0 min 0,000 mm 0,0 UV-I 63 W/m² 12,4 °C 13,2 °C 0,0 km/h (0 Bft)
19.08.2017 07:48 13,2 °C 13,2 °C 95 % 1015,9 hPa 0,0 mm 0,0 km/h (0 Bft) S-SW 196 ° 0 min 0,000 mm 0,0 UV-I 72 W/m² 12,4 °C 13,2 °C 0,0 km/h (0 Bft)
19.08.2017 07:49 13,2 °C 13,2 °C 95 % 1015,9 hPa 0,0 mm 0,0 km/h (0 Bft) S-SW 196 ° 0 min 0,000 mm 0,0 UV-I 84 W/m² 12,4 °C 13,2 °C 0,0 km/h (0 Bft)
19.08.2017 07:50 13,1 °C 13,2 °C 95 % 1015,9 hPa 0,0 mm 0,0 km/h (0 Bft) S-SW 196 ° 0 min 0,000 mm 0,0 UV-I 90 W/m² 12,3 °C 13,1 °C 0,0 km/h (0 Bft)
19.08.2017 07:51 13,2 °C 13,2 °C 95 % 1015,9 hPa 0,0 mm 0,0 km/h (0 Bft) S-SW 196 ° 0 min 0,000 mm 0,0 UV-I 91 W/m² 12,4 °C 13,2 °C 0,0 km/h (0 Bft)
19.08.2017 07:52 13,2 °C 13,2 °C 95 % 1015,9 hPa 0,0 mm 0,0 km/h (0 Bft) S-SW 196 ° 0 min 0,000 mm 0,0 UV-I 91 W/m² 12,4 °C 13,2 °C 0,0 km/h (0 Bft)
19.08.2017 07:53 13,2 °C 13,2 °C 95 % 1015,9 hPa 0,0 mm 0,0 km/h (0 Bft) S-SW 196 ° 0 min 0,000 mm 0,0 UV-I 93 W/m² 12,4 °C 13,2 °C 0,0 km/h (0 Bft)
19.08.2017 07:54 13,2 °C 13,2 °C 95 % 1015,9 hPa 0,0 mm 0,0 km/h (0 Bft) S-SW 196 ° 0 min 0,000 mm 0,0 UV-I 93 W/m² 12,4 °C 13,2 °C 0,0 km/h (0 Bft)
19.08.2017 07:55 13,3 °C 13,3 °C 95 % 1015,9 hPa 0,0 mm 0,0 km/h (0 Bft) S-SW 196 ° 0 min 0,000 mm 0,0 UV-I 93 W/m² 12,5 °C 13,3 °C 0,0 km/h (0 Bft)
19.08.2017 07:56 13,3 °C 13,3 °C 95 % 1015,9 hPa 0,0 mm 0,0 km/h (0 Bft) S-SW 196 ° 0 min 0,000 mm 0,0 UV-I 91 W/m² 12,5 °C 13,3 °C 0,0 km/h (0 Bft)
19.08.2017 07:57 13,3 °C 13,3 °C 95 % 1015,9 hPa 0,0 mm 0,0 km/h (0 Bft) S-SW 196 ° 0 min 0,000 mm 0,0 UV-I 90 W/m² 12,5 °C 13,3 °C 0,0 km/h (0 Bft)
19.08.2017 07:58 13,3 °C 13,3 °C 95 % 1015,8 hPa 0,0 mm 0,0 km/h (0 Bft) S-SW 196 ° 0 min 0,000 mm 0,0 UV-I 90 W/m² 12,5 °C 13,3 °C 0,0 km/h (0 Bft)
19.08.2017 07:59 13,4 °C 13,4 °C 95 % 1015,8 hPa 0,0 mm 0,0 km/h (0 Bft) S-SW 196 ° 0 min 0,000 mm 0,0 UV-I 88 W/m² 12,6 °C 13,4 °C 0,0 km/h (0 Bft)
19.08.2017 08:00 13,4 °C 13,4 °C 95 % 1015,9 hPa 0,0 mm 0,0 km/h (0 Bft) S-SW 196 ° 0 min 0,025 mm 0,0 UV-I 93 W/m² 12,6 °C 13,4 °C 0,0 km/h (0 Bft)
19.08.2017 08:01 13,4 °C 13,4 °C 95 % 1015,9 hPa 0,0 mm 0,0 km/h (0 Bft) S-SW 196 ° 0 min 0,000 mm 0,0 UV-I 97 W/m² 12,6 °C 13,4 °C 0,0 km/h (0 Bft)
19.08.2017 08:02 13,4 °C 13,4 °C 95 % 1015,9 hPa 0,0 mm 0,0 km/h (0 Bft) S-SW 196 ° 0 min 0,000 mm 0,0 UV-I 97 W/m² 12,6 °C 13,4 °C 0,0 km/h (0 Bft)
19.08.2017 08:03 13,4 °C 13,4 °C 95 % 1015,9 hPa 0,0 mm 0,0 km/h (0 Bft) S-SW 196 ° 0 min 0,000 mm 0,0 UV-I 97 W/m² 12,6 °C 13,4 °C 0,0 km/h (0 Bft)
19.08.2017 08:04 13,4 °C 13,4 °C 95 % 1015,9 hPa 0,0 mm 0,0 km/h (0 Bft) S-SW 196 ° 0 min 0,000 mm 0,0 UV-I 93 W/m² 12,6 °C 13,4 °C 0,0 km/h (0 Bft)
19.08.2017 08:05 13,5 °C 13,5 °C 95 % 1016,0 hPa 0,0 mm 1,9 km/h (1 Bft) SW 219 ° 0 min 0,000 mm 0,0 UV-I 90 W/m² 12,7 °C 13,5 °C 4,8 km/h (1 Bft)
19.08.2017 08:06 13,5 °C 13,5 °C 95 % 1016,0 hPa 0,2 mm 0,7 km/h (0 Bft) SW 219 ° 0 min 0,000 mm 0,0 UV-I 77 W/m² 12,7 °C 13,5 °C 3,2 km/h (1 Bft)
19.08.2017 08:07 13,6 °C 13,6 °C 95 % 1015,9 hPa 0,0 mm 1,4 km/h (1 Bft) SW 219 ° 0 min 0,000 mm 0,0 UV-I 69 W/m² 12,8 °C 13,6 °C 3,2 km/h (1 Bft)
19.08.2017 08:08 13,6 °C 13,6 °C 95 % 1015,9 hPa 0,0 mm 2,4 km/h (1 Bft) SW 225 ° 0 min 0,000 mm 0,0 UV-I 63 W/m² 12,8 °C 13,6 °C 3,2 km/h (1 Bft)
19.08.2017 08:09 13,6 °C 13,6 °C 95 % 1016,0 hPa 0,0 mm 2,0 km/h (1 Bft) SW 225 ° 0 min 0,000 mm 0,0 UV-I 56 W/m² 12,8 °C 13,6 °C 3,2 km/h (1 Bft)
19.08.2017 08:10 13,6 °C 13,6 °C 95 % 1015,9 hPa 0,0 mm 0,0 km/h (0 Bft) SW 225 ° 0 min 0,000 mm 0,0 UV-I 51 W/m² 12,8 °C 13,6 °C 0,0 km/h (0 Bft)
19.08.2017 08:11 13,6 °C 13,6 °C 95 % 1015,9 hPa 0,0 mm 0,0 km/h (0 Bft) SW 225 ° 0 min 0,000 mm 0,0 UV-I 46 W/m² 12,8 °C 13,6 °C 0,0 km/h (0 Bft)
19.08.2017 08:12 13,6 °C 13,6 °C 95 % 1015,9 hPa 0,0 mm 0,0 km/h (0 Bft) SW 225 ° 0 min 0,000 mm 0,0 UV-I 39 W/m² 12,8 °C 13,6 °C 0,0 km/h (0 Bft)
19.08.2017 08:13 13,6 °C 13,6 °C 95 % 1015,9 hPa 0,0 mm 2,6 km/h (1 Bft) SW 225 ° 0 min 0,000 mm 0,0 UV-I 37 W/m² 12,8 °C 13,6 °C 4,8 km/h (1 Bft)
19.08.2017 08:14 13,6 °C 13,6 °C 95 % 1015,9 hPa 0,0 mm 2,3 km/h (1 Bft) SW 225 ° 0 min 0,000 mm 0,0 UV-I 35 W/m² 12,8 °C 13,6 °C 3,2 km/h (1 Bft)
19.08.2017 08:15 13,6 °C 13,6 °C 94 % 1016,0 hPa 0,0 mm 1,2 km/h (1 Bft) SW 225 ° 0 min 0,000 mm 0,0 UV-I 33 W/m² 12,7 °C 13,6 °C 3,2 km/h (1 Bft)
19.08.2017 08:16 13,5 °C 13,6 °C 94 % 1016,0 hPa 0,0 mm 0,2 km/h (0 Bft) SW 225 ° 0 min 0,000 mm 0,0 UV-I 33 W/m² 12,6 °C 13,5 °C 1,6 km/h (1 Bft)
19.08.2017 08:17 13,6 °C 13,6 °C 94 % 1016,0 hPa 0,0 mm 0,0 km/h (0 Bft) SW 225 ° 0 min 0,000 mm 0,0 UV-I 32 W/m² 12,7 °C 13,6 °C 0,0 km/h (0 Bft)
19.08.2017 08:18 13,6 °C 13,6 °C 95 % 1016,0 hPa 0,0 mm 0,0 km/h (0 Bft) SW 225 ° 0 min 0,000 mm 0,0 UV-I 33 W/m² 12,8 °C 13,6 °C 0,0 km/h (0 Bft)
19.08.2017 08:19 13,6 °C 13,6 °C 94 % 1015,9 hPa 0,0 mm 0,0 km/h (0 Bft) SW 225 ° 0 min 0,000 mm 0,0 UV-I 33 W/m² 12,7 °C 13,6 °C 0,0 km/h (0 Bft)
19.08.2017 08:20 13,5 °C 13,6 °C 94 % 1015,9 hPa 0,0 mm 0,7 km/h (0 Bft) W-SW 255 ° 0 min 0,000 mm 0,0 UV-I 35 W/m² 12,6 °C 13,5 °C 4,8 km/h (1 Bft)
19.08.2017 08:21 13,5 °C 13,5 °C 94 % 1016,0 hPa 0,0 mm 2,5 km/h (1 Bft) SW 231 ° 0 min 0,000 mm 0,0 UV-I 35 W/m² 12,6 °C 13,5 °C 6,4 km/h (2 Bft)
19.08.2017 08:22 13,4 °C 13,5 °C 94 % 1016,0 hPa 0,0 mm 0,6 km/h (0 Bft) SW 230 ° 0 min 0,000 mm 0,0 UV-I 37 W/m² 12,5 °C 13,4 °C 1,6 km/h (1 Bft)
19.08.2017 08:23 13,4 °C 13,5 °C 94 % 1016,0 hPa 0,0 mm 0,0 km/h (0 Bft) SW 230 ° 0 min 0,000 mm 0,0 UV-I 39 W/m² 12,5 °C 13,4 °C 0,0 km/h (0 Bft)
19.08.2017 08:24 13,4 °C 13,4 °C 94 % 1015,9 hPa 0,0 mm 0,0 km/h (0 Bft) SW 230 ° 0 min 0,000 mm 0,0 UV-I 40 W/m² 12,5 °C 13,4 °C 0,0 km/h (0 Bft)
19.08.2017 08:25 13,4 °C 13,4 °C 94 % 1016,0 hPa 0,0 mm 0,0 km/h (0 Bft) SW 230 ° 0 min 0,000 mm 0,0 UV-I 42 W/m² 12,5 °C 13,4 °C 0,0 km/h (0 Bft)
19.08.2017 08:26 13,4 °C 13,4 °C 94 % 1015,9 hPa 0,0 mm 0,0 km/h (0 Bft) SW 230 ° 0 min 0,000 mm 0,0 UV-I 42 W/m² 12,5 °C 13,4 °C 0,0 km/h (0 Bft)
19.08.2017 08:27 13,4 °C 13,4 °C 94 % 1016,0 hPa 0,2 mm 0,7 km/h (0 Bft) SW 230 ° 0 min 0,000 mm 0,0 UV-I 42 W/m² 12,5 °C 13,4 °C 1,6 km/h (1 Bft)
19.08.2017 08:28 13,4 °C 13,4 °C 94 % 1016,1 hPa 0,0 mm 0,2 km/h (0 Bft) SW 230 ° 0 min 0,000 mm 0,0 UV-I 42 W/m² 12,5 °C 13,4 °C 1,6 km/h (1 Bft)
19.08.2017 08:29 13,4 °C 13,4 °C 94 % 1016,1 hPa 0,0 mm 2,9 km/h (1 Bft) W 260 ° 0 min 0,000 mm 0,0 UV-I 42 W/m² 12,5 °C 13,4 °C 6,4 km/h (2 Bft)
19.08.2017 08:30 13,4 °C 13,4 °C 94 % 1016,1 hPa 0,0 mm 4,5 km/h (1 Bft) W-SW 250 ° 0 min 0,000 mm 0,0 UV-I 42 W/m² 12,5 °C 13,4 °C 6,4 km/h (2 Bft)
19.08.2017 08:31 13,4 °C 13,4 °C 94 % 1016,1 hPa 0,0 mm 2,3 km/h (1 Bft) W-SW 250 ° 0 min 0,000 mm 0,0 UV-I 44 W/m² 12,5 °C 13,4 °C 3,2 km/h (1 Bft)
19.08.2017 08:32 13,4 °C 13,5 °C 94 % 1016,2 hPa 0,0 mm 0,0 km/h (0 Bft) W-SW 250 ° 0 min 0,000 mm 0,0 UV-I 46 W/m² 12,5 °C 13,4 °C 0,0 km/h (0 Bft)
19.08.2017 08:33 13,5 °C 13,5 °C 94 % 1016,2 hPa 0,0 mm 2,4 km/h (1 Bft) W-SW 254 ° 0 min 0,000 mm 0,0 UV-I 47 W/m² 12,6 °C 13,5 °C 4,8 km/h (1 Bft)
19.08.2017 08:34 13,4 °C 13,5 °C 94 % 1016,2 hPa 0,0 mm 2,1 km/h (1 Bft) W-SW 254 ° 0 min 0,000 mm 0,0 UV-I 49 W/m² 12,5 °C 13,4 °C 4,8 km/h (1 Bft)
19.08.2017 08:35 13,4 °C 13,5 °C 94 % 1016,2 hPa 0,0 mm 0,8 km/h (0 Bft) W-SW 254 ° 0 min 0,000 mm 0,0 UV-I 51 W/m² 12,5 °C 13,4 °C 1,6 km/h (1 Bft)
19.08.2017 08:36 13,5 °C 13,5 °C 94 % 1016,2 hPa 0,0 mm 1,1 km/h (1 Bft) W-SW 252 ° 0 min 0,000 mm 0,0 UV-I 51 W/m² 12,6 °C 13,5 °C 3,2 km/h (1 Bft)
19.08.2017 08:37 13,5 °C 13,5 °C 94 % 1016,3 hPa 0,0 mm 4,4 km/h (1 Bft) W-SW 238 ° 0 min 0,000 mm 0,0 UV-I 49 W/m² 12,6 °C 13,5 °C 6,4 km/h (2 Bft)
19.08.2017 08:38 13,4 °C 13,5 °C 94 % 1016,2 hPa 0,0 mm 4,1 km/h (1 Bft) SW 236 ° 0 min 0,000 mm 0,0 UV-I 46 W/m² 12,5 °C 13,4 °C 6,4 km/h (2 Bft)
19.08.2017 08:39 13,5 °C 13,5 °C 94 % 1016,3 hPa 0,0 mm 3,9 km/h (1 Bft) W-SW 252 ° 0 min 0,000 mm 0,0 UV-I 42 W/m² 12,6 °C 13,5 °C 4,8 km/h (1 Bft)
19.08.2017 08:40 13,5 °C 13,5 °C 94 % 1016,3 hPa 0,2 mm 3,0 km/h (1 Bft) W-SW 252 ° 0 min 0,000 mm 0,0 UV-I 40 W/m² 12,6 °C 13,5 °C 6,4 km/h (2 Bft)
19.08.2017 08:41 13,4 °C 13,5 °C 94 % 1016,3 hPa 0,0 mm 1,4 km/h (1 Bft) W-SW 252 ° 0 min 0,000 mm 0,0 UV-I 39 W/m² 12,5 °C 13,4 °C 3,2 km/h (1 Bft)
19.08.2017 08:42 13,4 °C 13,5 °C 94 % 1016,3 hPa 0,0 mm 0,1 km/h (0 Bft) W-SW 252 ° 0 min 0,000 mm 0,0 UV-I 37 W/m² 12,5 °C 13,4 °C 1,6 km/h (1 Bft)
19.08.2017 08:43 13,4 °C 13,5 °C 94 % 1016,3 hPa 0,0 mm 1,2 km/h (1 Bft) W-SW 252 ° 0 min 0,000 mm 0,0 UV-I 37 W/m² 12,5 °C 13,4 °C 3,2 km/h (1 Bft)
19.08.2017 08:44 13,4 °C 13,5 °C 94 % 1016,3 hPa 0,0 mm 1,0 km/h (0 Bft) W-SW 252 ° 0 min 0,000 mm 0,0 UV-I 37 W/m² 12,5 °C 13,4 °C 3,2 km/h (1 Bft)
19.08.2017 08:45 13,4 °C 13,4 °C 94 % 1016,3 hPa 0,2 mm 0,9 km/h (0 Bft) SW 236 ° 0 min 0,000 mm 0,0 UV-I 39 W/m² 12,5 °C 13,4 °C 3,2 km/h (1 Bft)
19.08.2017 08:46 13,4 °C 13,4 °C 94 % 1016,3 hPa 0,0 mm 3,2 km/h (1 Bft) W-SW 240 ° 0 min 0,000 mm 0,0 UV-I 39 W/m² 12,5 °C 13,4 °C 4,8 km/h (1 Bft)
19.08.2017 08:47 13,4 °C 13,4 °C 94 % 1016,3 hPa 0,0 mm 0,1 km/h (0 Bft) W-SW 240 ° 0 min 0,000 mm 0,0 UV-I 40 W/m² 12,5 °C 13,4 °C 1,6 km/h (1 Bft)
19.08.2017 08:48 13,4 °C 13,4 °C 94 % 1016,3 hPa 0,0 mm 0,0 km/h (0 Bft) W-SW 240 ° 0 min 0,000 mm 0,0 UV-I 42 W/m² 12,5 °C 13,4 °C 0,0 km/h (0 Bft)
19.08.2017 08:49 13,4 °C 13,4 °C 94 % 1016,2 hPa 0,0 mm 0,0 km/h (0 Bft) W-SW 240 ° 0 min 0,000 mm 0,0 UV-I 44 W/m² 12,5 °C 13,4 °C 0,0 km/h (0 Bft)
19.08.2017 08:50 13,3 °C 13,4 °C 94 % 1016,2 hPa 0,0 mm 0,0 km/h (0 Bft) W-SW 240 ° 0 min 0,000 mm 0,0 UV-I 46 W/m² 12,4 °C 13,3 °C 0,0 km/h (0 Bft)
19.08.2017 08:51 13,3 °C 13,3 °C 94 % 1016,2 hPa 0,0 mm 0,0 km/h (0 Bft) W-SW 240 ° 0 min 0,000 mm 0,0 UV-I 49 W/m² 12,4 °C 13,3 °C 0,0 km/h (0 Bft)
19.08.2017 08:52 13,3 °C 13,3 °C 94 % 1016,2 hPa 0,0 mm 1,1 km/h (1 Bft) SW 219 ° 0 min 0,000 mm 0,0 UV-I 54 W/m² 12,4 °C 13,3 °C 1,6 km/h (1 Bft)
19.08.2017 08:53 13,3 °C 13,3 °C 94 % 1016,2 hPa 0,0 mm 1,1 km/h (1 Bft) SW 217 ° 0 min 0,000 mm 0,0 UV-I 67 W/m² 12,4 °C 13,3 °C 3,2 km/h (1 Bft)
19.08.2017 08:54 13,3 °C 13,3 °C 94 % 1016,2 hPa 0,2 mm 0,0 km/h (0 Bft) SW 217 ° 0 min 0,000 mm 0,5 UV-I 72 W/m² 12,4 °C 13,3 °C 0,0 km/h (0 Bft)
19.08.2017 08:55 13,3 °C 13,3 °C 94 % 1016,2 hPa 0,0 mm 0,7 km/h (0 Bft) SW 215 ° 0 min 0,000 mm 0,5 UV-I 79 W/m² 12,4 °C 13,3 °C 3,2 km/h (1 Bft)
19.08.2017 08:56 13,3 °C 13,3 °C 94 % 1016,3 hPa 0,0 mm 0,7 km/h (0 Bft) SW 215 ° 0 min 0,000 mm 0,5 UV-I 84 W/m² 12,4 °C 13,3 °C 1,6 km/h (1 Bft)
19.08.2017 08:57 13,3 °C 13,3 °C 94 % 1016,2 hPa 0,0 mm 0,3 km/h (0 Bft) SW 215 ° 0 min 0,000 mm 0,6 UV-I 90 W/m² 12,4 °C 13,3 °C 3,2 km/h (1 Bft)
19.08.2017 08:58 13,3 °C 13,3 °C 94 % 1016,3 hPa 0,0 mm 1,3 km/h (1 Bft) SW 215 ° 0 min 0,000 mm 0,6 UV-I 91 W/m² 12,4 °C 13,3 °C 3,2 km/h (1 Bft)
19.08.2017 08:59 13,3 °C 13,3 °C 94 % 1016,4 hPa 0,0 mm 0,0 km/h (0 Bft) SW 215 ° 0 min 0,000 mm 0,6 UV-I 97 W/m² 12,4 °C 13,3 °C 0,0 km/h (0 Bft)
19.08.2017 09:00 13,4 °C 13,4 °C 94 % 1016,3 hPa 0,0 mm 0,0 km/h (0 Bft) SW 215 ° 0 min 0,000 mm 0,6 UV-I 97 W/m² 12,5 °C 13,4 °C 0,0 km/h (0 Bft)
19.08.2017 09:01 13,4 °C 13,4 °C 94 % 1016,4 hPa 0,0 mm 0,0 km/h (0 Bft) SW 215 ° 0 min 0,026 mm 0,6 UV-I 97 W/m² 12,5 °C 13,4 °C 0,0 km/h (0 Bft)
19.08.2017 09:02 13,4 °C 13,4 °C 94 % 1016,4 hPa 0,0 mm 0,0 km/h (0 Bft) SW 215 ° 0 min 0,000 mm 0,6 UV-I 95 W/m² 12,5 °C 13,4 °C 0,0 km/h (0 Bft)
19.08.2017 09:03 13,5 °C 13,5 °C 94 % 1016,4 hPa 0,0 mm 0,0 km/h (0 Bft) SW 215 ° 0 min 0,000 mm 0,6 UV-I 93 W/m² 12,6 °C 13,5 °C 0,0 km/h (0 Bft)
19.08.2017 09:04 13,5 °C 13,5 °C 94 % 1016,4 hPa 0,0 mm 1,5 km/h (1 Bft) SW 231 ° 0 min 0,000 mm 0,6 UV-I 93 W/m² 12,6 °C 13,5 °C 4,8 km/h (1 Bft)
19.08.2017 09:05 13,6 °C 13,6 °C 94 % 1016,4 hPa 0,0 mm 1,4 km/h (1 Bft) SW 232 ° 0 min 0,000 mm 0,6 UV-I 95 W/m² 12,7 °C 13,6 °C 3,2 km/h (1 Bft)
19.08.2017 09:06 13,6 °C 13,6 °C 94 % 1016,3 hPa 0,0 mm 1,5 km/h (1 Bft) SW 232 ° 0 min 0,000 mm 0,7 UV-I 95 W/m² 12,7 °C 13,6 °C 3,2 km/h (1 Bft)
19.08.2017 09:07 13,6 °C 13,6 °C 94 % 1016,3 hPa 0,0 mm 0,0 km/h (0 Bft) SW 232 ° 0 min 0,000 mm 0,7 UV-I 98 W/m² 12,7 °C 13,6 °C 0,0 km/h (0 Bft)
19.08.2017 09:08 13,6 °C 13,6 °C 94 % 1016,3 hPa 0,0 mm 1,6 km/h (1 Bft) S 184 ° 0 min 0,000 mm 0,7 UV-I 104 W/m² 12,7 °C 13,6 °C 3,2 km/h (1 Bft)
19.08.2017 09:09 13,6 °C 13,6 °C 93 % 1016,3 hPa 0,0 mm 0,7 km/h (0 Bft) S 184 ° 0 min 0,000 mm 0,8 UV-I 109 W/m² 12,5 °C 13,6 °C 1,6 km/h (1 Bft)
19.08.2017 09:10 13,6 °C 13,6 °C 93 % 1016,3 hPa 0,0 mm 0,1 km/h (0 Bft) S 184 ° 0 min 0,000 mm 0,8 UV-I 113 W/m² 12,5 °C 13,6 °C 1,6 km/h (1 Bft)
19.08.2017 09:11 13,6 °C 13,6 °C 94 % 1016,3 hPa 0,0 mm 0,0 km/h (0 Bft) S 184 ° 0 min 0,000 mm 0,8 UV-I 118 W/m² 12,7 °C 13,6 °C 0,0 km/h (0 Bft)
19.08.2017 09:12 13,6 °C 13,7 °C 93 % 1016,3 hPa 0,0 mm 2,2 km/h (1 Bft) S-SW 202 ° 0 min 0,000 mm 0,8 UV-I 121 W/m² 12,5 °C 13,6 °C 3,2 km/h (1 Bft)
19.08.2017 09:13 13,6 °C 13,7 °C 93 % 1016,3 hPa 0,0 mm 2,0 km/h (1 Bft) S-SW 202 ° 0 min 0,000 mm 0,8 UV-I 128 W/m² 12,5 °C 13,6 °C 3,2 km/h (1 Bft)
19.08.2017 09:14 13,7 °C 13,7 °C 94 % 1016,3 hPa 0,0 mm 0,9 km/h (0 Bft) S-SW 202 ° 0 min 0,000 mm 0,9 UV-I 139 W/m² 12,8 °C 13,7 °C 3,2 km/h (1 Bft)
19.08.2017 09:15 13,7 °C 13,7 °C 94 % 1016,4 hPa 0,0 mm 0,0 km/h (0 Bft) S-SW 202 ° 0 min 0,000 mm 0,9 UV-I 142 W/m² 12,8 °C 13,7 °C 0,0 km/h (0 Bft)
19.08.2017 09:16 13,8 °C 13,8 °C 94 % 1016,4 hPa 0,0 mm 0,0 km/h (0 Bft) S-SW 202 ° 0 min 0,000 mm 0,9 UV-I 139 W/m² 12,9 °C 13,8 °C 0,0 km/h (0 Bft)
19.08.2017 09:17 13,8 °C 13,8 °C 94 % 1016,5 hPa 0,0 mm 1,8 km/h (1 Bft) S-SW 202 ° 0 min 0,000 mm 0,8 UV-I 128 W/m² 12,9 °C 13,8 °C 3,2 km/h (1 Bft)
19.08.2017 09:18 13,8 °C 13,8 °C 93 % 1016,4 hPa 0,0 mm 0,7 km/h (0 Bft) S-SW 202 ° 0 min 0,000 mm 0,8 UV-I 128 W/m² 12,7 °C 13,8 °C 1,6 km/h (1 Bft)
19.08.2017 09:19 13,8 °C 13,9 °C 94 % 1016,4 hPa 0,0 mm 0,8 km/h (0 Bft) S-SW 202 ° 0 min 0,000 mm 0,8 UV-I 130 W/m² 12,9 °C 13,8 °C 1,6 km/h (1 Bft)
19.08.2017 09:20 13,8 °C 13,8 °C 93 % 1016,4 hPa 0,0 mm 3,6 km/h (1 Bft) W 281 ° 0 min 0,000 mm 0,8 UV-I 130 W/m² 12,7 °C 13,8 °C 6,4 km/h (2 Bft)
19.08.2017 09:21 13,8 °C 13,9 °C 93 % 1016,4 hPa 0,0 mm 3,0 km/h (1 Bft) W 279 ° 0 min 0,000 mm 0,8 UV-I 127 W/m² 12,7 °C 13,8 °C 6,4 km/h (2 Bft)
19.08.2017 09:22 13,9 °C 13,9 °C 93 % 1016,6 hPa 0,0 mm 0,8 km/h (0 Bft) W 279 ° 0 min 0,000 mm 0,8 UV-I 118 W/m² 12,8 °C 13,9 °C 1,6 km/h (1 Bft)
19.08.2017 09:23 13,9 °C 13,9 °C 93 % 1016,6 hPa 0,0 mm 0,3 km/h (0 Bft) W 279 ° 0 min 0,000 mm 0,7 UV-I 116 W/m² 12,8 °C 13,9 °C 1,6 km/h (1 Bft)
19.08.2017 09:24 13,9 °C 13,9 °C 93 % 1016,5 hPa 0,0 mm 0,4 km/h (0 Bft) W 279 ° 0 min 0,000 mm 0,7 UV-I 114 W/m² 12,8 °C 13,9 °C 1,6 km/h (1 Bft)
19.08.2017 09:25 13,9 °C 13,9 °C 93 % 1016,5 hPa 0,0 mm 0,3 km/h (0 Bft) W 279 ° 0 min 0,000 mm 0,8 UV-I 116 W/m² 12,8 °C 13,9 °C 1,6 km/h (1 Bft)
19.08.2017 09:26 14,0 °C 14,0 °C 93 % 1016,5 hPa 0,0 mm 0,0 km/h (0 Bft) W 279 ° 0 min 0,000 mm 0,8 UV-I 116 W/m² 12,9 °C 14,0 °C 0,0 km/h (0 Bft)
19.08.2017 09:27 13,9 °C 14,0 °C 93 % 1016,5 hPa 0,0 mm 0,0 km/h (0 Bft) W 279 ° 0 min 0,000 mm 0,8 UV-I 113 W/m² 12,8 °C 13,9 °C 0,0 km/h (0 Bft)
19.08.2017 09:28 14,0 °C 14,0 °C 93 % 1016,5 hPa 0,0 mm 0,2 km/h (0 Bft) W 279 ° 0 min 0,000 mm 0,7 UV-I 109 W/m² 12,9 °C 14,0 °C 1,6 km/h (1 Bft)
19.08.2017 09:29 13,9 °C 14,0 °C 93 % 1016,5 hPa 0,0 mm 0,0 km/h (0 Bft) W 279 ° 0 min 0,000 mm 0,7 UV-I 105 W/m² 12,8 °C 13,9 °C 0,0 km/h (0 Bft)
19.08.2017 09:30 14,1 °C 14,1 °C 93 % 1016,6 hPa 0,0 mm 0,0 km/h (0 Bft) W 279 ° 0 min 0,000 mm 0,6 UV-I 97 W/m² 13,0 °C 14,1 °C 0,0 km/h (0 Bft)
19.08.2017 09:31 14,1 °C 14,1 °C 93 % 1016,6 hPa 0,0 mm 0,0 km/h (0 Bft) W 279 ° 0 min 0,000 mm 0,6 UV-I 90 W/m² 13,0 °C 14,1 °C 0,0 km/h (0 Bft)
19.08.2017 09:32 14,1 °C 14,1 °C 93 % 1016,6 hPa 0,0 mm 0,0 km/h (0 Bft) W 279 ° 0 min 0,000 mm 0,5 UV-I 81 W/m² 13,0 °C 14,1 °C 0,0 km/h (0 Bft)
19.08.2017 09:33 14,0 °C 14,1 °C 93 % 1016,6 hPa 0,2 mm 0,0 km/h (0 Bft) W 279 ° 0 min 0,000 mm 0,5 UV-I 76 W/m² 12,9 °C 14,0 °C 0,0 km/h (0 Bft)
19.08.2017 09:34 13,9 °C 14,0 °C 92 % 1016,6 hPa 0,0 mm 0,0 km/h (0 Bft) W 279 ° 0 min 0,000 mm 0,5 UV-I 67 W/m² 12,6 °C 13,9 °C 0,0 km/h (0 Bft)
19.08.2017 09:35 13,9 °C 13,9 °C 93 % 1016,7 hPa 0,0 mm 0,0 km/h (0 Bft) W 279 ° 0 min 0,000 mm 0,0 UV-I 62 W/m² 12,8 °C 13,9 °C 0,0 km/h (0 Bft)
19.08.2017 09:36 13,9 °C 13,9 °C 93 % 1016,7 hPa 0,0 mm 0,0 km/h (0 Bft) W 279 ° 0 min 0,000 mm 0,0 UV-I 60 W/m² 12,8 °C 13,9 °C 0,0 km/h (0 Bft)
19.08.2017 09:37 13,9 °C 13,9 °C 93 % 1016,7 hPa 0,0 mm 0,0 km/h (0 Bft) W 279 ° 0 min 0,000 mm 0,0 UV-I 58 W/m² 12,8 °C 13,9 °C 0,0 km/h (0 Bft)
19.08.2017 09:38 13,9 °C 13,9 °C 93 % 1016,7 hPa 0,0 mm 0,0 km/h (0 Bft) W 279 ° 0 min 0,000 mm 0,0 UV-I 60 W/m² 12,8 °C 13,9 °C 0,0 km/h (0 Bft)
19.08.2017 09:39 13,9 °C 13,9 °C 93 % 1016,7 hPa 0,2 mm 0,0 km/h (0 Bft) W 279 ° 0 min 0,000 mm 0,0 UV-I 60 W/m² 12,8 °C 13,9 °C 0,0 km/h (0 Bft)
19.08.2017 09:40 13,8 °C 13,9 °C 93 % 1016,7 hPa 0,0 mm 0,0 km/h (0 Bft) W 279 ° 0 min 0,000 mm 0,0 UV-I 63 W/m² 12,7 °C 13,8 °C 0,0 km/h (0 Bft)
19.08.2017 09:41 13,8 °C 13,8 °C 93 % 1016,7 hPa 0,0 mm 0,0 km/h (0 Bft) W 279 ° 0 min 0,000 mm 0,5 UV-I 69 W/m² 12,7 °C 13,8 °C 0,0 km/h (0 Bft)
19.08.2017 09:42 13,8 °C 13,8 °C 93 % 1016,7 hPa 0,0 mm 0,0 km/h (0 Bft) W 279 ° 0 min 0,000 mm 0,6 UV-I 76 W/m² 12,7 °C 13,8 °C 0,0 km/h (0 Bft)
19.08.2017 09:43 13,7 °C 13,8 °C 93 % 1016,7 hPa 0,0 mm 0,0 km/h (0 Bft) W 279 ° 0 min 0,000 mm 0,6 UV-I 79 W/m² 12,6 °C 13,7 °C 0,0 km/h (0 Bft)
19.08.2017 09:44 13,7 °C 13,7 °C 93 % 1016,7 hPa 0,0 mm 0,0 km/h (0 Bft) W 279 ° 0 min 0,000 mm 0,6 UV-I 83 W/m² 12,6 °C 13,7 °C 0,0 km/h (0 Bft)
19.08.2017 09:45 13,6 °C 13,7 °C 93 % 1016,7 hPa 0,0 mm 0,0 km/h (0 Bft) W 279 ° 0 min 0,000 mm 0,6 UV-I 84 W/m² 12,5 °C 13,6 °C 0,0 km/h (0 Bft)
19.08.2017 09:46 13,7 °C 13,7 °C 93 % 1016,8 hPa 0,0 mm 0,0 km/h (0 Bft) W 279 ° 0 min 0,000 mm 0,7 UV-I 90 W/m² 12,6 °C 13,7 °C 0,0 km/h (0 Bft)
19.08.2017 09:47 13,7 °C 13,7 °C 93 % 1016,8 hPa 0,0 mm 0,0 km/h (0 Bft) W 279 ° 0 min 0,000 mm 0,7 UV-I 88 W/m² 12,6 °C 13,7 °C 0,0 km/h (0 Bft)
19.08.2017 09:48 13,7 °C 13,7 °C 94 % 1016,9 hPa 0,0 mm 0,0 km/h (0 Bft) W 279 ° 0 min 0,000 mm 0,6 UV-I 86 W/m² 12,8 °C 13,7 °C 0,0 km/h (0 Bft)
19.08.2017 09:49 13,7 °C 13,7 °C 94 % 1016,8 hPa 0,2 mm 0,0 km/h (0 Bft) W 279 ° 0 min 0,000 mm 0,6 UV-I 86 W/m² 12,8 °C 13,7 °C 0,0 km/h (0 Bft)
19.08.2017 09:50 13,7 °C 13,8 °C 94 % 1016,9 hPa 0,0 mm 0,0 km/h (0 Bft) W 279 ° 0 min 0,000 mm 0,6 UV-I 83 W/m² 12,8 °C 13,7 °C 0,0 km/h (0 Bft)
19.08.2017 09:51 13,8 °C 13,8 °C 94 % 1016,8 hPa 0,2 mm 0,0 km/h (0 Bft) W 279 ° 0 min 0,000 mm 0,6 UV-I 76 W/m² 12,9 °C 13,8 °C 0,0 km/h (0 Bft)
19.08.2017 09:52 13,8 °C 13,8 °C 94 % 1016,9 hPa 0,0 mm 3,0 km/h (1 Bft) W-SW 240 ° 0 min 0,000 mm 0,5 UV-I 72 W/m² 12,9 °C 13,8 °C 4,8 km/h (1 Bft)
19.08.2017 09:53 13,8 °C 13,8 °C 94 % 1016,9 hPa 0,2 mm 2,9 km/h (1 Bft) W-SW 252 ° 0 min 0,000 mm 0,5 UV-I 67 W/m² 12,9 °C 13,8 °C 4,8 km/h (1 Bft)
19.08.2017 09:54 13,7 °C 13,8 °C 93 % 1016,9 hPa 0,0 mm 1,9 km/h (1 Bft) W-SW 252 ° 0 min 0,000 mm 0,5 UV-I 63 W/m² 12,6 °C 13,7 °C 4,8 km/h (1 Bft)
19.08.2017 09:55 13,7 °C 13,7 °C 94 % 1016,9 hPa 0,2 mm 0,8 km/h (0 Bft) W-SW 252 ° 0 min 0,000 mm 0,0 UV-I 58 W/m² 12,8 °C 13,7 °C 1,6 km/h (1 Bft)
19.08.2017 09:56 13,7 °C 13,7 °C 94 % 1016,9 hPa 0,0 mm 0,0 km/h (0 Bft) W-SW 252 ° 0 min 0,000 mm 0,0 UV-I 54 W/m² 12,8 °C 13,7 °C 0,0 km/h (0 Bft)
19.08.2017 09:57 13,7 °C 13,7 °C 94 % 1016,9 hPa 0,2 mm 0,3 km/h (0 Bft) W-SW 242 ° 0 min 0,000 mm 0,0 UV-I 47 W/m² 12,8 °C 13,7 °C 1,6 km/h (1 Bft)
19.08.2017 09:58 13,7 °C 13,7 °C 94 % 1016,9 hPa 0,0 mm 0,2 km/h (0 Bft) W-SW 242 ° 0 min 0,000 mm 0,0 UV-I 46 W/m² 12,8 °C 13,7 °C 1,6 km/h (1 Bft)
19.08.2017 09:59 13,7 °C 13,7 °C 94 % 1016,9 hPa 0,0 mm 0,0 km/h (0 Bft) W-SW 242 ° 0 min 0,000 mm 0,0 UV-I 44 W/m² 12,8 °C 13,7 °C 0,0 km/h (0 Bft)
19.08.2017 10:00 13,7 °C 13,7 °C 94 % 1017,0 hPa 0,0 mm 0,0 km/h (0 Bft) W-SW 242 ° 0 min 0,051 mm 0,0 UV-I 42 W/m² 12,8 °C 13,7 °C 0,0 km/h (0 Bft)
19.08.2017 10:01 13,7 °C 13,7 °C 94 % 1016,9 hPa 0,0 mm 0,0 km/h (0 Bft) W-SW 242 ° 0 min 0,000 mm 0,0 UV-I 42 W/m² 12,8 °C 13,7 °C 0,0 km/h (0 Bft)
19.08.2017 10:02 13,6 °C 13,6 °C 93 % 1016,9 hPa 0,0 mm 0,0 km/h (0 Bft) N 0 ° 0 min 0,000 mm 0,0 UV-I 39 W/m² 12,5 °C 13,6 °C 0,0 km/h (0 Bft)
19.08.2017 10:03 13,6 °C 13,6 °C 93 % 1017,0 hPa 0,0 mm 0,0 km/h (0 Bft) W-SW 247 ° 0 min 0,000 mm 0,0 UV-I 39 W/m² 12,5 °C 13,6 °C 1,6 km/h (1 Bft)
19.08.2017 10:04 13,5 °C 13,6 °C 93 % 1017,0 hPa 0,2 mm 1,6 km/h (1 Bft) W-SW 247 ° 0 min 0,000 mm 0,0 UV-I 35 W/m² 12,4 °C 13,5 °C 4,8 km/h (1 Bft)
19.08.2017 10:05 13,5 °C 13,5 °C 93 % 1017,0 hPa 0,0 mm 0,0 km/h (0 Bft) N 0 ° 0 min 0,000 mm 0,0 UV-I 35 W/m² 12,4 °C 13,5 °C 0,0 km/h (0 Bft)
19.08.2017 10:06 13,4 °C 13,5 °C 93 % 1017,0 hPa 0,0 mm 1,6 km/h (1 Bft) W-SW 247 ° 0 min 0,000 mm 0,0 UV-I 33 W/m² 12,3 °C 13,4 °C 3,2 km/h (1 Bft)
19.08.2017 10:07 13,4 °C 13,4 °C 94 % 1017,0 hPa 0,0 mm 1,6 km/h (1 Bft) W-SW 247 ° 0 min 0,000 mm 0,0 UV-I 33 W/m² 12,5 °C 13,4 °C 4,8 km/h (1 Bft)
19.08.2017 10:08 13,4 °C 13,4 °C 94 % 1017,1 hPa 0,0 mm 0,0 km/h (0 Bft) W-SW 247 ° 0 min 0,000 mm 0,0 UV-I 33 W/m² 12,5 °C 13,4 °C 1,6 km/h (1 Bft)
19.08.2017 10:09 13,3 °C 13,4 °C 94 % 1017,0 hPa 0,2 mm 0,0 km/h (0 Bft) W-SW 247 ° 0 min 0,000 mm 0,0 UV-I 33 W/m² 12,4 °C 13,3 °C 3,2 km/h (1 Bft)
19.08.2017 10:10 13,4 °C 13,4 °C 94 % 1017,0 hPa 0,0 mm 0,0 km/h (0 Bft) W-SW 247 ° 0 min 0,000 mm 0,0 UV-I 33 W/m² 12,5 °C 13,4 °C 4,8 km/h (1 Bft)
19.08.2017 10:14 13,2 °C 13,4 °C 94 % 1017,1 hPa 0,4 mm 1,9 km/h (1 Bft) SW 221 ° 0 min 0,000 mm 0,0 UV-I 30 W/m² 12,3 °C 13,2 °C 3,2 km/h (1 Bft)
19.08.2017 10:15 13,2 °C 13,3 °C 94 % 1017,1 hPa 0,0 mm 1,2 km/h (1 Bft) SW 221 ° 0 min 0,000 mm 0,0 UV-I 30 W/m² 12,3 °C 13,2 °C 3,2 km/h (1 Bft)
19.08.2017 10:16 13,2 °C 13,3 °C 94 % 1017,1 hPa 0,0 mm 0,2 km/h (0 Bft) SW 221 ° 0 min 0,000 mm 0,0 UV-I 30 W/m² 12,3 °C 13,2 °C 1,6 km/h (1 Bft)
19.08.2017 10:17 13,2 °C 13,2 °C 94 % 1017,1 hPa 0,0 mm 0,0 km/h (0 Bft) SW 221 ° 0 min 0,000 mm 0,0 UV-I 32 W/m² 12,3 °C 13,2 °C 0,0 km/h (0 Bft)
19.08.2017 10:18 13,2 °C 13,2 °C 94 % 1017,1 hPa 0,0 mm 0,1 km/h (0 Bft) SW 221 ° 0 min 0,000 mm 0,0 UV-I 33 W/m² 12,3 °C 13,2 °C 1,6 km/h (1 Bft)
19.08.2017 10:19 13,2 °C 13,2 °C 94 % 1017,1 hPa 0,2 mm 0,0 km/h (0 Bft) SW 221 ° 0 min 0,000 mm 0,0 UV-I 33 W/m² 12,3 °C 13,2 °C 0,0 km/h (0 Bft)
19.08.2017 10:20 13,1 °C 13,2 °C 94 % 1017,1 hPa 0,0 mm 0,1 km/h (0 Bft) SW 221 ° 0 min 0,000 mm 0,0 UV-I 33 W/m² 12,2 °C 13,1 °C 1,6 km/h (1 Bft)
19.08.2017 10:21 13,2 °C 13,2 °C 94 % 1017,1 hPa 0,0 mm 0,0 km/h (0 Bft) SW 221 ° 0 min 0,000 mm 0,0 UV-I 35 W/m² 12,3 °C 13,2 °C 0,0 km/h (0 Bft)
19.08.2017 10:22 13,2 °C 13,2 °C 94 % 1017,0 hPa 0,2 mm 0,0 km/h (0 Bft) SW 221 ° 0 min 0,000 mm 0,0 UV-I 35 W/m² 12,3 °C 13,2 °C 0,0 km/h (0 Bft)
19.08.2017 10:23 13,2 °C 13,2 °C 94 % 1017,1 hPa 0,0 mm 0,0 km/h (0 Bft) SW 221 ° 0 min 0,000 mm 0,0 UV-I 33 W/m² 12,3 °C 13,2 °C 0,0 km/h (0 Bft)
19.08.2017 10:24 13,1 °C 13,2 °C 94 % 1017,0 hPa 0,0 mm 0,0 km/h (0 Bft) SW 221 ° 0 min 0,000 mm 0,0 UV-I 33 W/m² 12,2 °C 13,1 °C 0,0 km/h (0 Bft)
19.08.2017 10:25 13,1 °C 13,2 °C 94 % 1017,1 hPa 0,0 mm 0,0 km/h (0 Bft) SW 221 ° 0 min 0,000 mm 0,0 UV-I 33 W/m² 12,2 °C 13,1 °C 0,0 km/h (0 Bft)
19.08.2017 10:26 13,1 °C 13,1 °C 94 % 1017,1 hPa 0,0 mm 0,0 km/h (0 Bft) SW 221 ° 0 min 0,000 mm 0,0 UV-I 33 W/m² 12,2 °C 13,1 °C 0,0 km/h (0 Bft)
19.08.2017 10:27 13,1 °C 13,1 °C 94 % 1017,1 hPa 0,0 mm 0,0 km/h (0 Bft) SW 221 ° 0 min 0,000 mm 0,0 UV-I 37 W/m² 12,2 °C 13,1 °C 0,0 km/h (0 Bft)
19.08.2017 10:28 13,1 °C 13,1 °C 94 % 1017,1 hPa 0,0 mm 0,0 km/h (0 Bft) SW 221 ° 0 min 0,000 mm 0,0 UV-I 39 W/m² 12,2 °C 13,1 °C 0,0 km/h (0 Bft)
19.08.2017 10:29 13,1 °C 13,1 °C 94 % 1017,0 hPa 0,0 mm 0,0 km/h (0 Bft) SW 221 ° 0 min 0,000 mm 0,0 UV-I 40 W/m² 12,2 °C 13,1 °C 0,0 km/h (0 Bft)
19.08.2017 10:30 13,1 °C 13,1 °C 94 % 1017,1 hPa 0,0 mm 0,0 km/h (0 Bft) SW 221 ° 0 min 0,000 mm 0,0 UV-I 40 W/m² 12,2 °C 13,1 °C 0,0 km/h (0 Bft)
19.08.2017 10:31 13,1 °C 13,1 °C 95 % 1017,0 hPa 0,0 mm 0,0 km/h (0 Bft) SW 221 ° 0 min 0,000 mm 0,0 UV-I 40 W/m² 12,3 °C 13,1 °C 0,0 km/h (0 Bft)
19.08.2017 10:32 13,1 °C 13,1 °C 95 % 1017,0 hPa 0,0 mm 0,0 km/h (0 Bft) SW 221 ° 0 min 0,000 mm 0,0 UV-I 40 W/m² 12,3 °C 13,1 °C 0,0 km/h (0 Bft)
19.08.2017 10:33 13,1 °C 13,1 °C 95 % 1017,0 hPa 0,0 mm 0,0 km/h (0 Bft) SW 221 ° 0 min 0,000 mm 0,0 UV-I 42 W/m² 12,3 °C 13,1 °C 0,0 km/h (0 Bft)
19.08.2017 10:34 13,1 °C 13,1 °C 95 % 1017,1 hPa 0,2 mm 0,0 km/h (0 Bft) SW 221 ° 0 min 0,000 mm 0,0 UV-I 44 W/m² 12,3 °C 13,1 °C 0,0 km/h (0 Bft)
19.08.2017 10:35 13,1 °C 13,1 °C 95 % 1017,0 hPa 0,0 mm 0,0 km/h (0 Bft) SW 221 ° 0 min 0,000 mm 0,0 UV-I 44 W/m² 12,3 °C 13,1 °C 0,0 km/h (0 Bft)
19.08.2017 10:36 13,1 °C 13,1 °C 95 % 1017,0 hPa 0,0 mm 0,0 km/h (0 Bft) SW 221 ° 0 min 0,000 mm 0,0 UV-I 44 W/m² 12,3 °C 13,1 °C 0,0 km/h (0 Bft)
19.08.2017 10:37 13,2 °C 13,2 °C 95 % 1017,0 hPa 0,0 mm 0,0 km/h (0 Bft) SW 221 ° 0 min 0,000 mm 0,0 UV-I 46 W/m² 12,4 °C 13,2 °C 0,0 km/h (0 Bft)
19.08.2017 10:38 13,1 °C 13,2 °C 95 % 1017,0 hPa 0,0 mm 0,0 km/h (0 Bft) SW 221 ° 0 min 0,000 mm 0,0 UV-I 46 W/m² 12,3 °C 13,1 °C 0,0 km/h (0 Bft)
19.08.2017 10:39 13,1 °C 13,2 °C 95 % 1017,0 hPa 0,0 mm 0,0 km/h (0 Bft) SW 221 ° 0 min 0,000 mm 0,0 UV-I 47 W/m² 12,3 °C 13,1 °C 0,0 km/h (0 Bft)
19.08.2017 10:40 13,2 °C 13,2 °C 95 % 1017,0 hPa 0,2 mm 0,0 km/h (0 Bft) SW 221 ° 0 min 0,000 mm 0,0 UV-I 49 W/m² 12,4 °C 13,2 °C 0,0 km/h (0 Bft)
19.08.2017 10:41 13,2 °C 13,2 °C 95 % 1017,0 hPa 0,0 mm 0,0 km/h (0 Bft) SW 221 ° 0 min 0,000 mm 0,0 UV-I 53 W/m² 12,4 °C 13,2 °C 0,0 km/h (0 Bft)
19.08.2017 10:42 13,2 °C 13,2 °C 95 % 1017,0 hPa 0,0 mm 0,0 km/h (0 Bft) SW 221 ° 0 min 0,000 mm 0,5 UV-I 56 W/m² 12,4 °C 13,2 °C 0,0 km/h (0 Bft)
19.08.2017 10:43 13,2 °C 13,2 °C 95 % 1017,0 hPa 0,0 mm 0,0 km/h (0 Bft) SW 221 ° 0 min 0,000 mm 0,5 UV-I 63 W/m² 12,4 °C 13,2 °C 0,0 km/h (0 Bft)
19.08.2017 10:44 13,2 °C 13,2 °C 95 % 1017,0 hPa 0,0 mm 0,0 km/h (0 Bft) SW 221 ° 0 min 0,000 mm 0,6 UV-I 84 W/m² 12,4 °C 13,2 °C 0,0 km/h (0 Bft)
19.08.2017 10:45 13,2 °C 13,2 °C 95 % 1017,0 hPa 0,2 mm 0,0 km/h (0 Bft) SW 221 ° 0 min 0,000 mm 0,7 UV-I 98 W/m² 12,4 °C 13,2 °C 0,0 km/h (0 Bft)
19.08.2017 10:46 13,2 °C 13,2 °C 95 % 1017,0 hPa 0,0 mm 0,0 km/h (0 Bft) SW 221 ° 0 min 0,000 mm 1,0 UV-I 116 W/m² 12,4 °C 13,2 °C 0,0 km/h (0 Bft)
19.08.2017 10:47 13,2 °C 13,2 °C 95 % 1017,1 hPa 0,0 mm 0,0 km/h (0 Bft) SW 221 ° 0 min 0,000 mm 1,1 UV-I 135 W/m² 12,4 °C 13,2 °C 0,0 km/h (0 Bft)
19.08.2017 10:48 13,2 °C 13,3 °C 95 % 1017,0 hPa 0,0 mm 0,0 km/h (0 Bft) SW 221 ° 0 min 0,000 mm 1,3 UV-I 155 W/m² 12,4 °C 13,2 °C 0,0 km/h (0 Bft)
19.08.2017 10:49 13,2 °C 13,2 °C 95 % 1016,9 hPa 0,0 mm 0,3 km/h (0 Bft) SW 221 ° 0 min 0,000 mm 1,5 UV-I 181 W/m² 12,4 °C 13,2 °C 1,6 km/h (1 Bft)
19.08.2017 10:50 13,3 °C 13,3 °C 95 % 1016,9 hPa 0,2 mm 1,8 km/h (1 Bft) O 79 ° 0 min 0,000 mm 1,7 UV-I 225 W/m² 12,5 °C 13,3 °C 3,2 km/h (1 Bft)
19.08.2017 10:51 13,3 °C 13,3 °C 95 % 1016,9 hPa 0,0 mm 1,6 km/h (1 Bft) O 79 ° 0 min 0,000 mm 2,0 UV-I 241 W/m² 12,5 °C 13,3 °C 3,2 km/h (1 Bft)
19.08.2017 10:52 13,4 °C 13,4 °C 95 % 1016,9 hPa 0,0 mm 1,5 km/h (1 Bft) O-NO 78 ° 0 min 0,000 mm 2,1 UV-I 251 W/m² 12,6 °C 13,4 °C 3,2 km/h (1 Bft)
19.08.2017 10:53 13,5 °C 13,5 °C 95 % 1016,9 hPa 0,0 mm 1,5 km/h (1 Bft) O-NO 78 ° 0 min 0,000 mm 2,2 UV-I 258 W/m² 12,7 °C 13,5 °C 1,6 km/h (1 Bft)
19.08.2017 10:54 13,7 °C 13,7 °C 95 % 1016,9 hPa 0,0 mm 0,0 km/h (0 Bft) O-NO 78 ° 0 min 0,000 mm 2,1 UV-I 255 W/m² 12,9 °C 13,7 °C 0,0 km/h (0 Bft)
19.08.2017 10:55 13,7 °C 13,7 °C 95 % 1016,9 hPa 0,0 mm 0,1 km/h (0 Bft) O-NO 78 ° 0 min 0,000 mm 2,1 UV-I 251 W/m² 12,9 °C 13,7 °C 1,6 km/h (1 Bft)
19.08.2017 10:56 13,8 °C 13,8 °C 95 % 1016,9 hPa 0,0 mm 0,0 km/h (0 Bft) O-NO 78 ° 0 min 0,000 mm 2,0 UV-I 230 W/m² 13,0 °C 13,8 °C 0,0 km/h (0 Bft)
19.08.2017 10:57 13,8 °C 13,8 °C 95 % 1016,9 hPa 0,0 mm 0,0 km/h (0 Bft) O-NO 78 ° 0 min 0,000 mm 1,8 UV-I 216 W/m² 13,0 °C 13,8 °C 0,0 km/h (0 Bft)
19.08.2017 10:58 13,9 °C 13,9 °C 95 % 1016,9 hPa 0,0 mm 0,0 km/h (0 Bft) O-NO 78 ° 0 min 0,000 mm 1,8 UV-I 209 W/m² 13,1 °C 13,9 °C 0,0 km/h (0 Bft)
19.08.2017 10:59 14,1 °C 14,1 °C 95 % 1016,9 hPa 0,0 mm 1,4 km/h (1 Bft) O-NO 78 ° 0 min 0,000 mm 1,8 UV-I 207 W/m² 13,3 °C 14,1 °C 3,2 km/h (1 Bft)
19.08.2017 11:00 14,2 °C 14,2 °C 95 % 1016,9 hPa 0,0 mm 1,5 km/h (1 Bft) O-NO 78 ° 0 min 0,050 mm 1,7 UV-I 202 W/m² 13,4 °C 14,2 °C 3,2 km/h (1 Bft)
19.08.2017 11:01 14,4 °C 14,4 °C 95 % 1016,9 hPa 0,0 mm 0,1 km/h (0 Bft) O-NO 78 ° 0 min 0,000 mm 1,7 UV-I 199 W/m² 13,6 °C 14,4 °C 1,6 km/h (1 Bft)
19.08.2017 11:02 14,4 °C 14,4 °C 95 % 1016,9 hPa 0,0 mm 1,0 km/h (0 Bft) O-NO 78 ° 0 min 0,000 mm 1,7 UV-I 195 W/m² 13,6 °C 14,4 °C 3,2 km/h (1 Bft)
19.08.2017 11:03 14,4 °C 14,4 °C 94 % 1017,0 hPa 0,0 mm 3,6 km/h (1 Bft) O 79 ° 0 min 0,000 mm 1,7 UV-I 190 W/m² 13,4 °C 14,4 °C 4,8 km/h (1 Bft)
19.08.2017 11:04 14,4 °C 14,4 °C 94 % 1016,9 hPa 0,0 mm 0,1 km/h (0 Bft) O 79 ° 0 min 0,000 mm 1,7 UV-I 192 W/m² 13,4 °C 14,4 °C 1,6 km/h (1 Bft)
19.08.2017 11:05 14,4 °C 14,4 °C 94 % 1016,9 hPa 0,0 mm 0,0 km/h (0 Bft) O 79 ° 0 min 0,000 mm 1,7 UV-I 199 W/m² 13,4 °C 14,4 °C 0,0 km/h (0 Bft)
19.08.2017 11:06 14,5 °C 14,5 °C 94 % 1016,9 hPa 0,0 mm 0,0 km/h (0 Bft) O 79 ° 0 min 0,000 mm 1,7 UV-I 200 W/m² 13,5 °C 14,5 °C 0,0 km/h (0 Bft)
19.08.2017 11:07 14,5 °C 14,5 °C 94 % 1017,0 hPa 0,0 mm 1,2 km/h (1 Bft) O 79 ° 0 min 0,000 mm 1,7 UV-I 202 W/m² 13,5 °C 14,5 °C 1,6 km/h (1 Bft)
19.08.2017 11:08 14,6 °C 14,6 °C 94 % 1017,0 hPa 0,0 mm 2,3 km/h (1 Bft) O-SO 121 ° 0 min 0,000 mm 1,8 UV-I 211 W/m² 13,6 °C 14,6 °C 4,8 km/h (1 Bft)
19.08.2017 11:09 14,6 °C 14,6 °C 93 % 1017,0 hPa 0,0 mm 3,1 km/h (1 Bft) O-SO 121 ° 0 min 0,000 mm 1,9 UV-I 221 W/m² 13,5 °C 14,6 °C 4,8 km/h (1 Bft)
19.08.2017 11:10 14,6 °C 14,6 °C 93 % 1017,0 hPa 0,0 mm 0,2 km/h (0 Bft) O-SO 121 ° 0 min 0,000 mm 1,9 UV-I 225 W/m² 13,5 °C 14,6 °C 1,6 km/h (1 Bft)
19.08.2017 11:11 14,6 °C 14,6 °C 93 % 1017,0 hPa 0,0 mm 0,0 km/h (0 Bft) O-SO 121 ° 0 min 0,000 mm 1,9 UV-I 230 W/m² 13,5 °C 14,6 °C 0,0 km/h (0 Bft)
19.08.2017 11:12 14,7 °C 14,7 °C 93 % 1017,0 hPa 0,0 mm 0,0 km/h (0 Bft) O-SO 121 ° 0 min 0,000 mm 2,0 UV-I 244 W/m² 13,6 °C 14,7 °C 0,0 km/h (0 Bft)
19.08.2017 11:13 14,7 °C 14,7 °C 93 % 1017,0 hPa 0,0 mm 0,9 km/h (0 Bft) S-SO 162 ° 0 min 0,000 mm 2,1 UV-I 255 W/m² 13,6 °C 14,7 °C 3,2 km/h (1 Bft)
19.08.2017 11:14 14,7 °C 14,7 °C 93 % 1017,0 hPa 0,0 mm 0,1 km/h (0 Bft) S-SO 162 ° 0 min 0,000 mm 2,1 UV-I 251 W/m² 13,6 °C 14,7 °C 1,6 km/h (1 Bft)
19.08.2017 11:15 14,6 °C 14,7 °C 92 % 1017,0 hPa 0,0 mm 0,0 km/h (0 Bft) S-SO 162 ° 0 min 0,000 mm 2,1 UV-I 246 W/m² 13,3 °C 14,6 °C 0,0 km/h (0 Bft)
19.08.2017 11:16 14,7 °C 14,7 °C 92 % 1017,0 hPa 0,0 mm 0,9 km/h (0 Bft) S-SO 162 ° 0 min 0,000 mm 2,0 UV-I 243 W/m² 13,4 °C 14,7 °C 3,2 km/h (1 Bft)
19.08.2017 11:17 14,7 °C 14,7 °C 92 % 1017,0 hPa 0,0 mm 3,2 km/h (1 Bft) S-SO 162 ° 0 min 0,000 mm 2,0 UV-I 241 W/m² 13,4 °C 14,7 °C 6,4 km/h (2 Bft)
19.08.2017 11:18 14,7 °C 14,7 °C 92 % 1016,9 hPa 0,0 mm 2,2 km/h (1 Bft) S-SO 162 ° 0 min 0,000 mm 2,0 UV-I 243 W/m² 13,4 °C 14,7 °C 3,2 km/h (1 Bft)
19.08.2017 11:19 14,7 °C 14,7 °C 91 % 1016,9 hPa 0,0 mm 0,9 km/h (0 Bft) S-SO 162 ° 0 min 0,000 mm 2,1 UV-I 269 W/m² 13,2 °C 14,7 °C 1,6 km/h (1 Bft)
19.08.2017 11:20 14,6 °C 14,7 °C 91 % 1016,9 hPa 0,0 mm 0,3 km/h (0 Bft) S-SO 162 ° 0 min 0,000 mm 2,2 UV-I 281 W/m² 13,1 °C 14,6 °C 1,6 km/h (1 Bft)
19.08.2017 11:21 14,7 °C 14,7 °C 91 % 1016,9 hPa 0,0 mm 0,0 km/h (0 Bft) S-SO 162 ° 0 min 0,000 mm 2,2 UV-I 281 W/m² 13,2 °C 14,7 °C 0,0 km/h (0 Bft)
19.08.2017 11:22 14,7 °C 14,7 °C 91 % 1016,9 hPa 0,0 mm 0,0 km/h (0 Bft) S-SO 162 ° 0 min 0,000 mm 2,2 UV-I 269 W/m² 13,2 °C 14,7 °C 0,0 km/h (0 Bft)
19.08.2017 11:23 14,7 °C 14,7 °C 91 % 1016,9 hPa 0,0 mm 0,0 km/h (0 Bft) S-SO 162 ° 0 min 0,000 mm 2,1 UV-I 258 W/m² 13,2 °C 14,7 °C 0,0 km/h (0 Bft)
19.08.2017 11:24 14,7 °C 14,7 °C 91 % 1016,9 hPa 0,0 mm 0,6 km/h (0 Bft) S-SO 162 ° 0 min 0,000 mm 2,0 UV-I 246 W/m² 13,2 °C 14,7 °C 1,6 km/h (1 Bft)
19.08.2017 11:25 14,7 °C 14,7 °C 90 % 1016,8 hPa 0,0 mm 0,6 km/h (0 Bft) S-SO 162 ° 0 min 0,000 mm 1,9 UV-I 213 W/m² 13,1 °C 14,7 °C 3,2 km/h (1 Bft)
19.08.2017 11:26 14,7 °C 14,7 °C 91 % 1016,8 hPa 0,0 mm 1,8 km/h (1 Bft) S-SO 162 ° 0 min 0,000 mm 1,8 UV-I 207 W/m² 13,2 °C 14,7 °C 3,2 km/h (1 Bft)
19.08.2017 11:27 14,7 °C 14,7 °C 91 % 1016,9 hPa 0,0 mm 1,5 km/h (1 Bft) S-SO 162 ° 0 min 0,000 mm 1,8 UV-I 211 W/m² 13,2 °C 14,7 °C 3,2 km/h (1 Bft)
19.08.2017 11:28 14,7 °C 14,8 °C 91 % 1016,9 hPa 0,0 mm 0,5 km/h (0 Bft) S-SO 162 ° 0 min 0,000 mm 1,9 UV-I 211 W/m² 13,2 °C 14,7 °C 1,6 km/h (1 Bft)
19.08.2017 11:29 14,8 °C 14,8 °C 93 % 1016,8 hPa 0,0 mm 0,2 km/h (0 Bft) S-SO 162 ° 0 min 0,000 mm 1,9 UV-I 218 W/m² 13,7 °C 14,8 °C 1,6 km/h (1 Bft)
19.08.2017 11:30 14,8 °C 14,8 °C 92 % 1016,8 hPa 0,0 mm 0,2 km/h (0 Bft) S-SO 162 ° 0 min 0,000 mm 1,9 UV-I 213 W/m² 13,5 °C 14,8 °C 1,6 km/h (1 Bft)
19.08.2017 11:31 14,8 °C 14,8 °C 93 % 1016,8 hPa 0,0 mm 0,0 km/h (0 Bft) S-SO 162 ° 0 min 0,000 mm 1,9 UV-I 213 W/m² 13,7 °C 14,8 °C 0,0 km/h (0 Bft)
19.08.2017 11:32 14,8 °C 14,8 °C 93 % 1016,8 hPa 0,0 mm 0,0 km/h (0 Bft) S-SO 162 ° 0 min 0,000 mm 1,9 UV-I 209 W/m² 13,7 °C 14,8 °C 0,0 km/h (0 Bft)
19.08.2017 11:33 14,9 °C 14,9 °C 92 % 1016,8 hPa 0,0 mm 0,0 km/h (0 Bft) S-SO 162 ° 0 min 0,000 mm 1,8 UV-I 209 W/m² 13,6 °C 14,9 °C 0,0 km/h (0 Bft)
19.08.2017 11:34 14,9 °C 14,9 °C 92 % 1016,9 hPa 0,0 mm 0,0 km/h (0 Bft) S-SO 162 ° 0 min 0,000 mm 1,9 UV-I 216 W/m² 13,6 °C 14,9 °C 0,0 km/h (0 Bft)
19.08.2017 11:35 14,9 °C 14,9 °C 92 % 1016,9 hPa 0,0 mm 0,0 km/h (0 Bft) S-SO 162 ° 0 min 0,000 mm 1,9 UV-I 223 W/m² 13,6 °C 14,9 °C 0,0 km/h (0 Bft)
19.08.2017 11:36 15,0 °C 15,0 °C 92 % 1016,9 hPa 0,0 mm 0,0 km/h (0 Bft) S-SO 162 ° 0 min 0,000 mm 2,0 UV-I 232 W/m² 13,7 °C 15,0 °C 0,0 km/h (0 Bft)
19.08.2017 11:37 15,0 °C 15,0 °C 92 % 1016,9 hPa 0,0 mm 1,2 km/h (1 Bft) W-SW 238 ° 0 min 0,000 mm 2,0 UV-I 243 W/m² 13,7 °C 15,0 °C 4,8 km/h (1 Bft)
19.08.2017 11:38 15,0 °C 15,1 °C 93 % 1016,9 hPa 0,0 mm 2,5 km/h (1 Bft) W-SW 252 ° 0 min 0,000 mm 2,0 UV-I 237 W/m² 13,9 °C 15,0 °C 4,8 km/h (1 Bft)
19.08.2017 11:39 15,0 °C 15,0 °C 91 % 1016,9 hPa 0,0 mm 2,5 km/h (1 Bft) W-SW 253 ° 0 min 0,000 mm 1,9 UV-I 225 W/m² 13,5 °C 15,0 °C 4,8 km/h (1 Bft)
19.08.2017 11:40 14,9 °C 15,0 °C 91 % 1016,9 hPa 0,0 mm 0,1 km/h (0 Bft) W-SW 252 ° 0 min 0,000 mm 1,8 UV-I 216 W/m² 13,4 °C 14,9 °C 1,6 km/h (1 Bft)
19.08.2017 11:41 15,0 °C 15,0 °C 92 % 1016,9 hPa 0,0 mm 0,0 km/h (0 Bft) W-SW 252 ° 0 min 0,000 mm 1,8 UV-I 214 W/m² 13,7 °C 15,0 °C 0,0 km/h (0 Bft)
19.08.2017 11:42 14,9 °C 15,0 °C 92 % 1016,9 hPa 0,0 mm 1,2 km/h (1 Bft) W 265 ° 0 min 0,000 mm 1,8 UV-I 218 W/m² 13,6 °C 14,9 °C 4,8 km/h (1 Bft)
19.08.2017 11:43 15,0 °C 15,0 °C 92 % 1016,9 hPa 0,0 mm 5,0 km/h (1 Bft) W 261 ° 0 min 0,000 mm 1,8 UV-I 213 W/m² 13,7 °C 15,0 °C 6,4 km/h (2 Bft)
19.08.2017 11:44 15,0 °C 15,1 °C 91 % 1016,9 hPa 0,0 mm 1,4 km/h (1 Bft) W 261 ° 0 min 0,000 mm 1,7 UV-I 207 W/m² 13,5 °C 15,0 °C 3,2 km/h (1 Bft)
19.08.2017 11:45 15,0 °C 15,0 °C 91 % 1016,9 hPa 0,0 mm 2,5 km/h (1 Bft) W 266 ° 0 min 0,000 mm 1,7 UV-I 206 W/m² 13,5 °C 15,0 °C 4,8 km/h (1 Bft)
19.08.2017 11:46 15,0 °C 15,0 °C 90 % 1016,9 hPa 0,0 mm 5,0 km/h (1 Bft) W-SW 246 ° 0 min 0,000 mm 1,7 UV-I 202 W/m² 13,4 °C 15,0 °C 6,4 km/h (2 Bft)
19.08.2017 11:47 15,0 °C 15,0 °C 91 % 1016,9 hPa 0,0 mm 3,8 km/h (1 Bft) W 269 ° 0 min 0,000 mm 1,6 UV-I 197 W/m² 13,5 °C 15,0 °C 6,4 km/h (2 Bft)
19.08.2017 11:48 15,1 °C 15,1 °C 91 % 1016,9 hPa 0,0 mm 2,1 km/h (1 Bft) W 269 ° 0 min 0,000 mm 1,6 UV-I 197 W/m² 13,6 °C 15,1 °C 3,2 km/h (1 Bft)
19.08.2017 11:49 15,1 °C 15,1 °C 91 % 1016,9 hPa 0,0 mm 1,3 km/h (1 Bft) W 269 ° 0 min 0,000 mm 1,7 UV-I 214 W/m² 13,6 °C 15,1 °C 3,2 km/h (1 Bft)
19.08.2017 11:50 15,1 °C 15,1 °C 91 % 1016,9 hPa 0,0 mm 2,7 km/h (1 Bft) W-NW 287 ° 0 min 0,000 mm 1,9 UV-I 221 W/m² 13,6 °C 15,1 °C 4,8 km/h (1 Bft)
19.08.2017 11:51 15,2 °C 15,2 °C 91 % 1016,9 hPa 0,0 mm 4,8 km/h (1 Bft) W-NW 288 ° 0 min 0,000 mm 1,9 UV-I 225 W/m² 13,7 °C 15,2 °C 8,0 km/h (2 Bft)
19.08.2017 11:52 15,2 °C 15,2 °C 91 % 1016,9 hPa 0,0 mm 3,2 km/h (1 Bft) W 276 ° 0 min 0,000 mm 1,9 UV-I 227 W/m² 13,7 °C 15,2 °C 4,8 km/h (1 Bft)
19.08.2017 11:53 15,3 °C 15,3 °C 91 % 1016,9 hPa 0,0 mm 4,1 km/h (1 Bft) W-NW 283 ° 0 min 0,000 mm 1,9 UV-I 225 W/m² 13,8 °C 15,3 °C 4,8 km/h (1 Bft)
19.08.2017 11:54 15,3 °C 15,3 °C 91 % 1016,9 hPa 0,0 mm 4,8 km/h (1 Bft) W-NW 291 ° 0 min 0,000 mm 1,9 UV-I 207 W/m² 13,8 °C 15,3 °C 6,4 km/h (2 Bft)
19.08.2017 11:55 15,3 °C 15,3 °C 90 % 1016,9 hPa 0,0 mm 2,8 km/h (1 Bft) W-NW 291 ° 0 min 0,000 mm 1,8 UV-I 202 W/m² 13,7 °C 15,3 °C 4,8 km/h (1 Bft)
19.08.2017 11:56 15,3 °C 15,3 °C 90 % 1016,9 hPa 0,0 mm 3,3 km/h (1 Bft) W 271 ° 0 min 0,000 mm 1,8 UV-I 204 W/m² 13,7 °C 15,3 °C 6,4 km/h (2 Bft)
19.08.2017 11:57 15,3 °C 15,3 °C 91 % 1016,9 hPa 0,0 mm 2,4 km/h (1 Bft) W-NW 291 ° 0 min 0,000 mm 1,8 UV-I 211 W/m² 13,8 °C 15,3 °C 8,0 km/h (2 Bft)
19.08.2017 11:58 15,3 °C 15,3 °C 92 % 1016,9 hPa 0,0 mm 4,9 km/h (1 Bft) W 267 ° 0 min 0,000 mm 1,7 UV-I 207 W/m² 14,0 °C 15,3 °C 6,4 km/h (2 Bft)
19.08.2017 11:59 15,3 °C 15,3 °C 91 % 1016,9 hPa 0,0 mm 4,1 km/h (1 Bft) W-NW 289 ° 0 min 0,000 mm 1,6 UV-I 192 W/m² 13,8 °C 15,3 °C 6,4 km/h (2 Bft)
19.08.2017 12:00 15,4 °C 15,4 °C 91 % 1016,9 hPa 0,0 mm 3,8 km/h (1 Bft) W-NW 289 ° 0 min 0,127 mm 1,7 UV-I 200 W/m² 13,9 °C 15,4 °C 4,8 km/h (1 Bft)
19.08.2017 12:01 15,4 °C 15,4 °C 91 % 1016,9 hPa 0,0 mm 3,5 km/h (1 Bft) W 279 ° 0 min 0,000 mm 1,7 UV-I 200 W/m² 13,9 °C 15,4 °C 6,4 km/h (2 Bft)
19.08.2017 12:02 15,4 °C 15,4 °C 91 % 1016,9 hPa 0,0 mm 2,5 km/h (1 Bft) W 279 ° 0 min 0,000 mm 1,6 UV-I 192 W/m² 13,9 °C 15,4 °C 4,8 km/h (1 Bft)
19.08.2017 12:03 15,4 °C 15,4 °C 91 % 1016,9 hPa 0,0 mm 1,1 km/h (1 Bft) W 279 ° 0 min 0,000 mm 1,6 UV-I 190 W/m² 13,9 °C 15,4 °C 1,6 km/h (1 Bft)
19.08.2017 12:04 15,4 °C 15,4 °C 91 % 1016,9 hPa 0,0 mm 2,0 km/h (1 Bft) W 279 ° 0 min 0,000 mm 1,7 UV-I 197 W/m² 13,9 °C 15,4 °C 3,2 km/h (1 Bft)
19.08.2017 12:05 15,5 °C 15,5 °C 92 % 1016,9 hPa 0,0 mm 2,4 km/h (1 Bft) W 274 ° 0 min 0,000 mm 1,8 UV-I 204 W/m² 14,2 °C 15,5 °C 4,8 km/h (1 Bft)
19.08.2017 12:06 15,5 °C 15,5 °C 91 % 1016,9 hPa 0,0 mm 5,2 km/h (1 Bft) W 263 ° 0 min 0,000 mm 1,8 UV-I 206 W/m² 14,0 °C 15,5 °C 11,3 km/h (2 Bft)
19.08.2017 12:07 15,4 °C 15,5 °C 90 % 1016,9 hPa 0,0 mm 6,4 km/h (2 Bft) W-SW 255 ° 0 min 0,000 mm 1,8 UV-I 204 W/m² 13,8 °C 15,4 °C 9,7 km/h (2 Bft)
19.08.2017 12:08 15,4 °C 15,4 °C 90 % 1016,9 hPa 0,0 mm 6,6 km/h (2 Bft) W 260 ° 0 min 0,000 mm 1,7 UV-I 200 W/m² 13,8 °C 15,4 °C 9,7 km/h (2 Bft)
19.08.2017 12:09 15,4 °C 15,4 °C 89 % 1016,9 hPa 0,0 mm 4,0 km/h (1 Bft) W 259 ° 0 min 0,000 mm 1,7 UV-I 200 W/m² 13,6 °C 15,4 °C 6,4 km/h (2 Bft)
19.08.2017 12:10 15,4 °C 15,4 °C 90 % 1016,9 hPa 0,0 mm 2,4 km/h (1 Bft) W 260 ° 0 min 0,000 mm 1,8 UV-I 204 W/m² 13,8 °C 15,4 °C 4,8 km/h (1 Bft)
19.08.2017 12:11 15,3 °C 15,4 °C 89 % 1016,8 hPa 0,0 mm 3,2 km/h (1 Bft) W 261 ° 0 min 0,000 mm 1,8 UV-I 206 W/m² 13,5 °C 15,3 °C 6,4 km/h (2 Bft)
19.08.2017 12:12 15,3 °C 15,4 °C 91 % 1016,8 hPa 0,0 mm 3,5 km/h (1 Bft) W 271 ° 0 min 0,000 mm 1,8 UV-I 199 W/m² 13,8 °C 15,3 °C 4,8 km/h (1 Bft)
19.08.2017 12:13 15,3 °C 15,3 °C 91 % 1016,8 hPa 0,0 mm 1,2 km/h (1 Bft) W 271 ° 0 min 0,000 mm 1,8 UV-I 197 W/m² 13,8 °C 15,3 °C 3,2 km/h (1 Bft)
19.08.2017 12:14 15,3 °C 15,3 °C 92 % 1016,8 hPa 0,0 mm 4,6 km/h (1 Bft) W-NW 290 ° 0 min 0,000 mm 1,9 UV-I 204 W/m² 14,0 °C 15,3 °C 6,4 km/h (2 Bft)
19.08.2017 12:15 15,3 °C 15,3 °C 91 % 1016,8 hPa 0,0 mm 4,6 km/h (1 Bft) W-NW 292 ° 0 min 0,000 mm 1,9 UV-I 216 W/m² 13,8 °C 15,3 °C 6,4 km/h (2 Bft)
19.08.2017 12:16 15,4 °C 15,4 °C 90 % 1016,9 hPa 0,0 mm 1,7 km/h (1 Bft) W-NW 292 ° 0 min 0,000 mm 2,0 UV-I 225 W/m² 13,8 °C 15,4 °C 3,2 km/h (1 Bft)
19.08.2017 12:17 15,4 °C 15,4 °C 90 % 1016,9 hPa 0,0 mm 0,5 km/h (0 Bft) W-NW 292 ° 0 min 0,000 mm 2,0 UV-I 225 W/m² 13,8 °C 15,4 °C 1,6 km/h (1 Bft)
19.08.2017 12:18 15,4 °C 15,4 °C 89 % 1016,9 hPa 0,0 mm 2,3 km/h (1 Bft) W-NW 292 ° 0 min 0,000 mm 2,0 UV-I 225 W/m² 13,6 °C 15,4 °C 3,2 km/h (1 Bft)
19.08.2017 12:19 15,5 °C 15,5 °C 90 % 1016,9 hPa 0,0 mm 2,0 km/h (1 Bft) W-NW 294 ° 0 min 0,000 mm 2,2 UV-I 237 W/m² 13,9 °C 15,5 °C 3,2 km/h (1 Bft)
19.08.2017 12:20 15,6 °C 15,6 °C 91 % 1016,9 hPa 0,0 mm 3,9 km/h (1 Bft) W 275 ° 0 min 0,000 mm 2,3 UV-I 246 W/m² 14,1 °C 15,6 °C 6,4 km/h (2 Bft)
19.08.2017 12:21 15,6 °C 15,6 °C 90 % 1016,9 hPa 0,0 mm 3,9 km/h (1 Bft) W 263 ° 0 min 0,000 mm 2,4 UV-I 265 W/m² 14,0 °C 15,6 °C 6,4 km/h (2 Bft)
19.08.2017 12:22 15,7 °C 15,7 °C 91 % 1016,9 hPa 0,0 mm 7,0 km/h (2 Bft) W 263 ° 0 min 0,000 mm 2,5 UV-I 283 W/m² 14,2 °C 15,7 °C 11,3 km/h (2 Bft)
19.08.2017 12:23 15,7 °C 15,7 °C 89 % 1016,9 hPa 0,0 mm 6,8 km/h (2 Bft) W-NW 283 ° 0 min 0,000 mm 2,5 UV-I 287 W/m² 13,9 °C 15,7 °C 11,3 km/h (2 Bft)
19.08.2017 12:24 15,7 °C 15,7 °C 89 % 1016,9 hPa 0,0 mm 6,2 km/h (2 Bft) W-NW 296 ° 1 min 0,000 mm 2,6 UV-I 294 W/m² 13,9 °C 15,7 °C 9,7 km/h (2 Bft)
19.08.2017 12:25 15,7 °C 15,7 °C 89 % 1016,9 hPa 0,0 mm 4,0 km/h (1 Bft) W 268 ° 1 min 0,000 mm 2,6 UV-I 292 W/m² 13,9 °C 15,7 °C 6,4 km/h (2 Bft)
19.08.2017 12:26 15,7 °C 15,8 °C 90 % 1017,0 hPa 0,0 mm 3,9 km/h (1 Bft) W-SW 254 ° 0 min 0,000 mm 2,5 UV-I 287 W/m² 14,1 °C 15,7 °C 6,4 km/h (2 Bft)
19.08.2017 12:27 15,8 °C 15,8 °C 89 % 1017,0 hPa 0,0 mm 3,0 km/h (1 Bft) W 266 ° 0 min 0,000 mm 2,5 UV-I 283 W/m² 14,0 °C 15,8 °C 6,4 km/h (2 Bft)
19.08.2017 12:28 15,7 °C 15,8 °C 88 % 1017,0 hPa 0,0 mm 6,4 km/h (2 Bft) W-NW 290 ° 0 min 0,000 mm 2,4 UV-I 279 W/m² 13,7 °C 15,7 °C 9,7 km/h (2 Bft)
19.08.2017 12:29 15,7 °C 15,7 °C 88 % 1017,0 hPa 0,0 mm 3,7 km/h (1 Bft) W-NW 283 ° 0 min 0,000 mm 2,4 UV-I 279 W/m² 13,7 °C 15,7 °C 6,4 km/h (2 Bft)
19.08.2017 12:30 15,8 °C 15,8 °C 89 % 1017,0 hPa 0,0 mm 6,4 km/h (2 Bft) W 279 ° 0 min 0,000 mm 2,4 UV-I 269 W/m² 14,0 °C 15,8 °C 9,7 km/h (2 Bft)
19.08.2017 12:31 15,8 °C 15,8 °C 89 % 1016,9 hPa 0,0 mm 5,1 km/h (1 Bft) W 270 ° 0 min 0,000 mm 2,3 UV-I 264 W/m² 14,0 °C 15,8 °C 9,7 km/h (2 Bft)
19.08.2017 12:32 15,8 °C 15,8 °C 88 % 1016,9 hPa 0,0 mm 3,9 km/h (1 Bft) W 279 ° 0 min 0,000 mm 2,4 UV-I 271 W/m² 13,8 °C 15,8 °C 6,4 km/h (2 Bft)
19.08.2017 12:33 15,8 °C 15,8 °C 89 % 1016,9 hPa 0,0 mm 4,4 km/h (1 Bft) W 266 ° 0 min 0,000 mm 2,5 UV-I 285 W/m² 14,0 °C 15,8 °C 6,4 km/h (2 Bft)
19.08.2017 12:34 15,8 °C 15,8 °C 89 % 1016,9 hPa 0,0 mm 5,3 km/h (1 Bft) W 275 ° 1 min 0,000 mm 2,6 UV-I 297 W/m² 14,0 °C 15,8 °C 6,4 km/h (2 Bft)
19.08.2017 12:35 15,8 °C 15,8 °C 89 % 1016,9 hPa 0,0 mm 4,7 km/h (1 Bft) W-NW 292 ° 1 min 0,000 mm 2,7 UV-I 302 W/m² 14,0 °C 15,8 °C 6,4 km/h (2 Bft)
19.08.2017 12:36 15,8 °C 15,8 °C 87 % 1017,0 hPa 0,0 mm 1,7 km/h (1 Bft) W-NW 292 ° 1 min 0,000 mm 2,7 UV-I 299 W/m² 13,6 °C 15,8 °C 4,8 km/h (1 Bft)
19.08.2017 12:37 15,9 °C 15,9 °C 88 % 1016,9 hPa 0,0 mm 4,8 km/h (1 Bft) W-NW 288 ° 1 min 0,000 mm 2,6 UV-I 292 W/m² 13,9 °C 15,9 °C 6,4 km/h (2 Bft)
19.08.2017 12:38 15,9 °C 15,9 °C 89 % 1016,9 hPa 0,0 mm 3,6 km/h (1 Bft) W-NW 290 ° 0 min 0,000 mm 2,5 UV-I 281 W/m² 14,1 °C 15,9 °C 6,4 km/h (2 Bft)
19.08.2017 12:39 15,9 °C 15,9 °C 89 % 1016,9 hPa 0,0 mm 3,8 km/h (1 Bft) W 275 ° 0 min 0,000 mm 2,4 UV-I 269 W/m² 14,1 °C 15,9 °C 4,8 km/h (1 Bft)
19.08.2017 12:40 15,9 °C 16,0 °C 89 % 1016,9 hPa 0,0 mm 2,1 km/h (1 Bft) W 275 ° 0 min 0,000 mm 2,3 UV-I 258 W/m² 14,1 °C 15,9 °C 4,8 km/h (1 Bft)
19.08.2017 12:41 15,9 °C 16,0 °C 88 % 1017,0 hPa 0,0 mm 1,3 km/h (1 Bft) W 275 ° 0 min 0,000 mm 2,3 UV-I 250 W/m² 13,9 °C 15,9 °C 3,2 km/h (1 Bft)
19.08.2017 12:42 15,9 °C 15,9 °C 88 % 1016,9 hPa 0,0 mm 0,0 km/h (0 Bft) W 275 ° 0 min 0,000 mm 2,3 UV-I 241 W/m² 13,9 °C 15,9 °C 0,0 km/h (0 Bft)
19.08.2017 12:43 16,0 °C 16,0 °C 89 % 1016,9 hPa 0,0 mm 6,4 km/h (2 Bft) W 275 ° 0 min 0,000 mm 2,3 UV-I 241 W/m² 14,2 °C 16,0 °C 11,3 km/h (2 Bft)
19.08.2017 12:44 15,9 °C 16,0 °C 88 % 1016,9 hPa 0,0 mm 4,6 km/h (1 Bft) W-NW 284 ° 0 min 0,000 mm 2,2 UV-I 239 W/m² 13,9 °C 15,9 °C 8,0 km/h (2 Bft)
19.08.2017 12:45 15,9 °C 15,9 °C 89 % 1016,9 hPa 0,0 mm 4,3 km/h (1 Bft) SW 227 ° 0 min 0,000 mm 2,3 UV-I 243 W/m² 14,1 °C 15,9 °C 6,4 km/h (2 Bft)
19.08.2017 12:46 15,9 °C 15,9 °C 89 % 1016,9 hPa 0,0 mm 4,3 km/h (1 Bft) W-SW 248 ° 0 min 0,000 mm 2,5 UV-I 260 W/m² 14,1 °C 15,9 °C 6,4 km/h (2 Bft)
19.08.2017 12:47 16,0 °C 16,0 °C 89 % 1016,9 hPa 0,0 mm 2,9 km/h (1 Bft) W-SW 248 ° 1 min 0,000 mm 2,8 UV-I 332 W/m² 14,2 °C 16,0 °C 4,8 km/h (1 Bft)
19.08.2017 12:48 16,0 °C 16,0 °C 89 % 1016,9 hPa 0,0 mm 2,6 km/h (1 Bft) W-SW 252 ° 1 min 0,000 mm 2,9 UV-I 330 W/m² 14,2 °C 16,0 °C 3,2 km/h (1 Bft)
19.08.2017 12:49 16,1 °C 16,1 °C 89 % 1016,8 hPa 0,0 mm 5,5 km/h (1 Bft) W 263 ° 1 min 0,000 mm 2,8 UV-I 330 W/m² 14,3 °C 16,1 °C 9,7 km/h (2 Bft)
19.08.2017 12:50 16,0 °C 16,1 °C 89 % 1016,8 hPa 0,0 mm 7,3 km/h (2 Bft) W-NW 290 ° 1 min 0,000 mm 2,8 UV-I 330 W/m² 14,2 °C 16,0 °C 9,7 km/h (2 Bft)
19.08.2017 12:51 16,1 °C 16,1 °C 89 % 1016,8 hPa 0,0 mm 4,7 km/h (1 Bft) W 261 ° 1 min 0,000 mm 3,0 UV-I 343 W/m² 14,3 °C 16,1 °C 6,4 km/h (2 Bft)
19.08.2017 12:52 16,2 °C 16,2 °C 90 % 1016,9 hPa 0,0 mm 4,5 km/h (1 Bft) W 267 ° 1 min 0,000 mm 3,0 UV-I 362 W/m² 14,6 °C 16,2 °C 6,4 km/h (2 Bft)
19.08.2017 12:53 16,2 °C 16,2 °C 89 % 1016,9 hPa 0,0 mm 3,5 km/h (1 Bft) W 281 ° 1 min 0,000 mm 3,1 UV-I 406 W/m² 14,4 °C 16,2 °C 6,4 km/h (2 Bft)
19.08.2017 12:54 16,2 °C 16,2 °C 89 % 1016,9 hPa 0,0 mm 4,1 km/h (1 Bft) W 274 ° 1 min 0,000 mm 3,7 UV-I 469 W/m² 14,4 °C 16,2 °C 6,4 km/h (2 Bft)
19.08.2017 12:55 16,3 °C 16,3 °C 88 % 1016,9 hPa 0,0 mm 5,6 km/h (1 Bft) W 263 ° 1 min 0,000 mm 3,7 UV-I 459 W/m² 14,3 °C 16,3 °C 9,7 km/h (2 Bft)
19.08.2017 12:56 16,4 °C 16,4 °C 88 % 1016,8 hPa 0,0 mm 3,7 km/h (1 Bft) W 267 ° 1 min 0,000 mm 3,7 UV-I 494 W/m² 14,4 °C 16,4 °C 6,4 km/h (2 Bft)
19.08.2017 12:57 16,3 °C 16,4 °C 87 % 1016,8 hPa 0,0 mm 4,7 km/h (1 Bft) W 263 ° 1 min 0,000 mm 3,8 UV-I 476 W/m² 14,1 °C 16,3 °C 8,0 km/h (2 Bft)
19.08.2017 12:58 16,4 °C 16,4 °C 87 % 1016,8 hPa 0,0 mm 3,2 km/h (1 Bft) W-SW 246 ° 1 min 0,000 mm 4,3 UV-I 476 W/m² 14,2 °C 16,4 °C 4,8 km/h (1 Bft)
19.08.2017 12:59 16,5 °C 16,5 °C 88 % 1016,8 hPa 0,0 mm 3,2 km/h (1 Bft) SW 228 ° 1 min 0,000 mm 3,4 UV-I 476 W/m² 14,5 °C 16,5 °C 4,8 km/h (1 Bft)
19.08.2017 13:00 16,5 °C 16,6 °C 88 % 1016,8 hPa 0,0 mm 1,9 km/h (1 Bft) SW 222 ° 1 min 0,153 mm 3,1 UV-I 411 W/m² 14,5 °C 16,5 °C 3,2 km/h (1 Bft)
19.08.2017 13:01 16,4 °C 16,5 °C 88 % 1016,8 hPa 0,0 mm 2,4 km/h (1 Bft) SW 223 ° 1 min 0,000 mm 2,9 UV-I 367 W/m² 14,4 °C 16,4 °C 4,8 km/h (1 Bft)
19.08.2017 13:02 16,4 °C 16,4 °C 86 % 1016,8 hPa 0,0 mm 3,0 km/h (1 Bft) W-SW 243 ° 1 min 0,000 mm 3,2 UV-I 425 W/m² 14,1 °C 16,4 °C 4,8 km/h (1 Bft)
19.08.2017 13:03 16,4 °C 16,4 °C 87 % 1016,8 hPa 0,0 mm 3,3 km/h (1 Bft) W-SW 242 ° 1 min 0,000 mm 3,1 UV-I 378 W/m² 14,2 °C 16,4 °C 4,8 km/h (1 Bft)
19.08.2017 13:04 16,4 °C 16,4 °C 88 % 1016,9 hPa 0,0 mm 1,5 km/h (1 Bft) W-SW 242 ° 1 min 0,000 mm 3,4 UV-I 434 W/m² 14,4 °C 16,4 °C 1,6 km/h (1 Bft)
19.08.2017 13:05 16,4 °C 16,4 °C 88 % 1016,8 hPa 0,0 mm 0,3 km/h (0 Bft) W-SW 252 ° 1 min 0,000 mm 3,3 UV-I 427 W/m² 14,4 °C 16,4 °C 1,6 km/h (1 Bft)
19.08.2017 13:06 16,5 °C 16,5 °C 86 % 1016,8 hPa 0,0 mm 3,1 km/h (1 Bft) W 261 ° 1 min 0,000 mm 3,8 UV-I 478 W/m² 14,1 °C 16,5 °C 4,8 km/h (1 Bft)
19.08.2017 13:07 16,5 °C 16,5 °C 86 % 1016,9 hPa 0,0 mm 5,5 km/h (1 Bft) W 276 ° 1 min 0,000 mm 3,6 UV-I 475 W/m² 14,1 °C 16,5 °C 9,7 km/h (2 Bft)
19.08.2017 13:08 16,5 °C 16,6 °C 84 % 1016,8 hPa 0,0 mm 4,3 km/h (1 Bft) S 187 ° 1 min 0,000 mm 3,3 UV-I 411 W/m² 13,8 °C 16,5 °C 8,0 km/h (2 Bft)
19.08.2017 13:09 16,4 °C 16,5 °C 84 % 1016,8 hPa 0,0 mm 4,9 km/h (1 Bft) W-NW 293 ° 1 min 0,000 mm 3,6 UV-I 443 W/m² 13,7 °C 16,4 °C 6,4 km/h (2 Bft)
19.08.2017 13:10 16,4 °C 16,5 °C 85 % 1016,8 hPa 0,0 mm 5,1 km/h (1 Bft) W-SW 254 ° 1 min 0,000 mm 3,6 UV-I 443 W/m² 13,9 °C 16,4 °C 9,7 km/h (2 Bft)
19.08.2017 13:11 16,6 °C 16,6 °C 86 % 1016,7 hPa 0,0 mm 4,0 km/h (1 Bft) W 264 ° 1 min 0,000 mm 3,0 UV-I 555 W/m² 14,2 °C 16,6 °C 6,4 km/h (2 Bft)
19.08.2017 13:12 16,6 °C 16,6 °C 85 % 1016,8 hPa 0,0 mm 7,9 km/h (2 Bft) W-SW 250 ° 1 min 0,000 mm 2,2 UV-I 555 W/m² 14,1 °C 16,6 °C 11,3 km/h (2 Bft)
19.08.2017 13:13 16,6 °C 16,6 °C 83 % 1016,8 hPa 0,0 mm 6,8 km/h (2 Bft) W 269 ° 0 min 0,000 mm 1,9 UV-I 234 W/m² 13,7 °C 16,6 °C 11,3 km/h (2 Bft)
19.08.2017 13:14 16,6 °C 16,6 °C 83 % 1016,7 hPa 0,0 mm 5,3 km/h (1 Bft) W-NW 290 ° 0 min 0,000 mm 1,8 UV-I 227 W/m² 13,7 °C 16,6 °C 9,7 km/h (2 Bft)
19.08.2017 13:15 16,5 °C 16,6 °C 85 % 1016,8 hPa 0,0 mm 5,6 km/h (1 Bft) W 268 ° 0 min 0,000 mm 1,8 UV-I 232 W/m² 14,0 °C 16,5 °C 9,7 km/h (2 Bft)
19.08.2017 13:16 16,5 °C 16,5 °C 85 % 1016,8 hPa 0,0 mm 6,7 km/h (2 Bft) W-NW 286 ° 0 min 0,000 mm 1,8 UV-I 225 W/m² 14,0 °C 16,5 °C 12,9 km/h (3 Bft)
19.08.2017 13:17 16,4 °C 16,5 °C 84 % 1016,8 hPa 0,0 mm 8,9 km/h (2 Bft) W-NW 290 ° 0 min 0,000 mm 1,6 UV-I 186 W/m² 13,7 °C 16,4 °C 12,9 km/h (3 Bft)
19.08.2017 13:18 16,4 °C 16,5 °C 83 % 1016,8 hPa 0,0 mm 7,3 km/h (2 Bft) W-NW 297 ° 0 min 0,000 mm 1,3 UV-I 171 W/m² 13,5 °C 16,4 °C 9,7 km/h (2 Bft)
19.08.2017 13:19 16,4 °C 16,4 °C 84 % 1016,8 hPa 0,0 mm 5,7 km/h (1 Bft) W-NW 298 ° 0 min 0,000 mm 1,2 UV-I 162 W/m² 13,7 °C 16,4 °C 8,0 km/h (2 Bft)
19.08.2017 13:20 16,4 °C 16,4 °C 84 % 1016,8 hPa 0,0 mm 4,4 km/h (1 Bft) W 269 ° 0 min 0,000 mm 1,2 UV-I 162 W/m² 13,7 °C 16,4 °C 6,4 km/h (2 Bft)
19.08.2017 13:21 16,3 °C 16,4 °C 85 % 1016,8 hPa 0,0 mm 0,5 km/h (0 Bft) W 269 ° 0 min 0,000 mm 1,3 UV-I 163 W/m² 13,8 °C 16,3 °C 1,6 km/h (1 Bft)
19.08.2017 13:22 16,3 °C 16,3 °C 85 % 1016,8 hPa 0,0 mm 6,7 km/h (2 Bft) NW 304 ° 0 min 0,000 mm 1,2 UV-I 158 W/m² 13,8 °C 16,3 °C 11,3 km/h (2 Bft)
19.08.2017 13:23 16,3 °C 16,3 °C 83 % 1016,8 hPa 0,0 mm 4,2 km/h (1 Bft) W-NW 296 ° 0 min 0,000 mm 1,2 UV-I 128 W/m² 13,4 °C 16,3 °C 9,7 km/h (2 Bft)
19.08.2017 13:24 16,2 °C 16,3 °C 83 % 1016,8 hPa 0,0 mm 6,1 km/h (2 Bft) NW 321 ° 0 min 0,000 mm 0,9 UV-I 114 W/m² 13,3 °C 16,2 °C 9,7 km/h (2 Bft)
19.08.2017 13:25 16,1 °C 16,2 °C 83 % 1016,8 hPa 0,0 mm 7,3 km/h (2 Bft) NW 325 ° 0 min 0,000 mm 0,8 UV-I 104 W/m² 13,2 °C 16,1 °C 11,3 km/h (2 Bft)
19.08.2017 13:26 16,0 °C 16,1 °C 84 % 1016,8 hPa 0,0 mm 5,0 km/h (1 Bft) NW 315 ° 0 min 0,000 mm 0,8 UV-I 93 W/m² 13,3 °C 16,0 °C 6,4 km/h (2 Bft)
19.08.2017 13:27 15,9 °C 16,0 °C 86 % 1016,8 hPa 0,0 mm 6,3 km/h (2 Bft) NW 325 ° 0 min 0,000 mm 0,7 UV-I 93 W/m² 13,6 °C 15,9 °C 9,7 km/h (2 Bft)
19.08.2017 13:28 15,8 °C 15,9 °C 86 % 1016,8 hPa 0,0 mm 5,8 km/h (2 Bft) W-NW 302 ° 0 min 0,000 mm 0,6 UV-I 63 W/m² 13,5 °C 15,8 °C 9,7 km/h (2 Bft)
19.08.2017 13:29 15,8 °C 15,8 °C 86 % 1016,8 hPa 0,0 mm 4,3 km/h (1 Bft) NW 319 ° 0 min 0,000 mm 0,0 UV-I 56 W/m² 13,5 °C 15,8 °C 6,4 km/h (2 Bft)
19.08.2017 13:30 15,7 °C 15,8 °C 86 % 1016,8 hPa 0,0 mm 5,0 km/h (1 Bft) NW 323 ° 0 min 0,000 mm 0,0 UV-I 53 W/m² 13,4 °C 15,7 °C 6,4 km/h (2 Bft)
19.08.2017 13:31 15,6 °C 15,7 °C 87 % 1016,9 hPa 0,0 mm 5,4 km/h (1 Bft) NW 325 ° 0 min 0,000 mm 0,0 UV-I 49 W/m² 13,4 °C 15,6 °C 6,4 km/h (2 Bft)
19.08.2017 13:32 15,6 °C 15,6 °C 87 % 1016,9 hPa 0,0 mm 4,7 km/h (1 Bft) NW 322 ° 0 min 0,000 mm 0,0 UV-I 47 W/m² 13,4 °C 15,6 °C 8,0 km/h (2 Bft)
19.08.2017 13:33 15,5 °C 15,6 °C 87 % 1016,9 hPa 0,0 mm 1,9 km/h (1 Bft) W-NW 282 ° 0 min 0,000 mm 0,0 UV-I 47 W/m² 13,3 °C 15,5 °C 3,2 km/h (1 Bft)
19.08.2017 13:34 15,4 °C 15,5 °C 88 % 1016,9 hPa 0,0 mm 0,9 km/h (0 Bft) W-NW 282 ° 0 min 0,000 mm 0,0 UV-I 53 W/m² 13,4 °C 15,4 °C 1,6 km/h (1 Bft)
19.08.2017 13:35 15,4 °C 15,4 °C 88 % 1016,9 hPa 0,0 mm 3,2 km/h (1 Bft) W-NW 282 ° 0 min 0,000 mm 0,0 UV-I 56 W/m² 13,4 °C 15,4 °C 4,8 km/h (1 Bft)
19.08.2017 13:36 15,4 °C 15,4 °C 88 % 1016,9 hPa 0,0 mm 2,8 km/h (1 Bft) W-NW 282 ° 0 min 0,000 mm 0,5 UV-I 60 W/m² 13,4 °C 15,4 °C 4,8 km/h (1 Bft)
19.08.2017 13:37 15,3 °C 15,4 °C 88 % 1016,9 hPa 0,0 mm 1,8 km/h (1 Bft) W-NW 283 ° 0 min 0,000 mm 0,5 UV-I 62 W/m² 13,3 °C 15,3 °C 3,2 km/h (1 Bft)
19.08.2017 13:38 15,3 °C 15,3 °C 89 % 1016,9 hPa 0,0 mm 0,0 km/h (0 Bft) W-NW 283 ° 0 min 0,000 mm 0,5 UV-I 65 W/m² 13,5 °C 15,3 °C 0,0 km/h (0 Bft)
19.08.2017 13:39 15,2 °C 15,3 °C 89 % 1016,9 hPa 0,0 mm 0,0 km/h (0 Bft) W-NW 283 ° 0 min 0,000 mm 0,5 UV-I 69 W/m² 13,4 °C 15,2 °C 0,0 km/h (0 Bft)
19.08.2017 13:40 15,1 °C 15,2 °C 90 % 1016,9 hPa 0,0 mm 0,0 km/h (0 Bft) W-NW 283 ° 0 min 0,000 mm 0,6 UV-I 79 W/m² 13,5 °C 15,1 °C 0,0 km/h (0 Bft)
19.08.2017 13:41 15,0 °C 15,1 °C 90 % 1016,9 hPa 0,0 mm 0,0 km/h (0 Bft) W-NW 283 ° 0 min 0,000 mm 0,7 UV-I 86 W/m² 13,4 °C 15,0 °C 0,0 km/h (0 Bft)
19.08.2017 13:42 14,9 °C 15,0 °C 91 % 1016,9 hPa 0,0 mm 0,0 km/h (0 Bft) W-NW 283 ° 0 min 0,000 mm 0,8 UV-I 95 W/m² 13,4 °C 14,9 °C 0,0 km/h (0 Bft)
19.08.2017 13:43 14,8 °C 14,9 °C 91 % 1016,9 hPa 0,0 mm 0,0 km/h (0 Bft) W-NW 283 ° 0 min 0,000 mm 0,9 UV-I 105 W/m² 13,3 °C 14,8 °C 0,0 km/h (0 Bft)
19.08.2017 13:44 14,8 °C 14,8 °C 91 % 1016,9 hPa 0,0 mm 0,0 km/h (0 Bft) W-NW 283 ° 0 min 0,000 mm 1,0 UV-I 116 W/m² 13,3 °C 14,8 °C 0,0 km/h (0 Bft)
19.08.2017 13:45 14,8 °C 14,8 °C 92 % 1016,9 hPa 0,0 mm 0,0 km/h (0 Bft) W-NW 283 ° 0 min 0,000 mm 1,1 UV-I 128 W/m² 13,5 °C 14,8 °C 0,0 km/h (0 Bft)
19.08.2017 13:46 14,8 °C 14,8 °C 92 % 1016,8 hPa 0,0 mm 0,0 km/h (0 Bft) W-NW 283 ° 0 min 0,000 mm 1,2 UV-I 156 W/m² 13,5 °C 14,8 °C 0,0 km/h (0 Bft)
19.08.2017 13:47 14,9 °C 14,9 °C 91 % 1016,8 hPa 0,0 mm 0,1 km/h (0 Bft) W-NW 283 ° 0 min 0,000 mm 1,4 UV-I 171 W/m² 13,4 °C 14,9 °C 1,6 km/h (1 Bft)
19.08.2017 13:48 15,0 °C 15,0 °C 92 % 1016,8 hPa 0,0 mm 0,0 km/h (0 Bft) W-NW 283 ° 0 min 0,000 mm 1,6 UV-I 185 W/m² 13,7 °C 15,0 °C 0,0 km/h (0 Bft)
19.08.2017 13:49 15,1 °C 15,1 °C 90 % 1016,8 hPa 0,0 mm 0,1 km/h (0 Bft) W-NW 283 ° 0 min 0,000 mm 1,7 UV-I 195 W/m² 13,5 °C 15,1 °C 1,6 km/h (1 Bft)
19.08.2017 13:50 15,2 °C 15,2 °C 91 % 1016,8 hPa 0,0 mm 0,0 km/h (0 Bft) W-NW 283 ° 0 min 0,000 mm 1,8 UV-I 211 W/m² 13,7 °C 15,2 °C 0,0 km/h (0 Bft)
19.08.2017 13:51 15,2 °C 15,2 °C 91 % 1016,7 hPa 0,0 mm 0,0 km/h (0 Bft) W-NW 283 ° 0 min 0,000 mm 1,9 UV-I 225 W/m² 13,7 °C 15,2 °C 0,0 km/h (0 Bft)
19.08.2017 13:52 15,1 °C 15,2 °C 91 % 1016,7 hPa 0,0 mm 0,0 km/h (0 Bft) W-NW 283 ° 0 min 0,000 mm 2,1 UV-I 267 W/m² 13,6 °C 15,1 °C 0,0 km/h (0 Bft)
19.08.2017 13:53 15,2 °C 15,2 °C 92 % 1016,7 hPa 0,0 mm 0,0 km/h (0 Bft) W-NW 283 ° 1 min 0,000 mm 2,5 UV-I 295 W/m² 13,9 °C 15,2 °C 0,0 km/h (0 Bft)
19.08.2017 13:54 15,3 °C 15,3 °C 92 % 1016,7 hPa 0,0 mm 2,5 km/h (1 Bft) W-NW 283 ° 1 min 0,000 mm 2,7 UV-I 322 W/m² 14,0 °C 15,3 °C 4,8 km/h (1 Bft)
19.08.2017 13:55 15,3 °C 15,3 °C 89 % 1016,7 hPa 0,0 mm 2,1 km/h (1 Bft) W-NW 283 ° 1 min 0,000 mm 2,9 UV-I 322 W/m² 13,5 °C 15,3 °C 3,2 km/h (1 Bft)
19.08.2017 13:56 15,4 °C 15,4 °C 88 % 1016,7 hPa 0,0 mm 1,0 km/h (0 Bft) W-NW 283 ° 1 min 0,000 mm 3,0 UV-I 352 W/m² 13,4 °C 15,4 °C 3,2 km/h (1 Bft)
19.08.2017 13:57 15,6 °C 15,6 °C 88 % 1016,7 hPa 0,0 mm 2,9 km/h (1 Bft) W 277 ° 1 min 0,000 mm 3,0 UV-I 353 W/m² 13,6 °C 15,6 °C 4,8 km/h (1 Bft)
19.08.2017 13:58 15,7 °C 15,7 °C 88 % 1016,7 hPa 0,0 mm 3,2 km/h (1 Bft) W 277 ° 1 min 0,000 mm 3,1 UV-I 352 W/m² 13,7 °C 15,7 °C 4,8 km/h (1 Bft)
19.08.2017 13:59 15,9 °C 15,9 °C 90 % 1016,7 hPa 0,0 mm 4,6 km/h (1 Bft) W-NW 292 ° 1 min 0,000 mm 3,1 UV-I 353 W/m² 14,3 °C 15,9 °C 6,4 km/h (2 Bft)
19.08.2017 14:00 16,0 °C 16,0 °C 87 % 1016,7 hPa 0,0 mm 3,5 km/h (1 Bft) W-NW 292 ° 1 min 0,127 mm 3,1 UV-I 357 W/m² 13,8 °C 16,0 °C 4,8 km/h (1 Bft)
19.08.2017 14:01 16,1 °C 16,1 °C 87 % 1016,8 hPa 0,0 mm 3,3 km/h (1 Bft) W-NW 282 ° 1 min 0,000 mm 3,2 UV-I 360 W/m² 13,9 °C 16,1 °C 4,8 km/h (1 Bft)
19.08.2017 14:02 16,1 °C 16,1 °C 85 % 1016,8 hPa 0,0 mm 3,9 km/h (1 Bft) W-SW 243 ° 1 min 0,000 mm 3,2 UV-I 362 W/m² 13,6 °C 16,1 °C 4,8 km/h (1 Bft)
19.08.2017 14:03 16,1 °C 16,1 °C 85 % 1016,7 hPa 0,0 mm 3,2 km/h (1 Bft) SW 236 ° 1 min 0,000 mm 3,2 UV-I 360 W/m² 13,6 °C 16,1 °C 4,8 km/h (1 Bft)
19.08.2017 14:04 16,1 °C 16,1 °C 86 % 1016,7 hPa 0,0 mm 3,1 km/h (1 Bft) W-SW 238 ° 1 min 0,000 mm 3,1 UV-I 334 W/m² 13,8 °C 16,1 °C 4,8 km/h (1 Bft)
19.08.2017 14:05 16,1 °C 16,1 °C 84 % 1016,6 hPa 0,0 mm 1,8 km/h (1 Bft) W-SW 240 ° 1 min 0,000 mm 3,0 UV-I 316 W/m² 13,4 °C 16,1 °C 3,2 km/h (1 Bft)
19.08.2017 14:06 16,1 °C 16,1 °C 85 % 1016,6 hPa 0,0 mm 0,1 km/h (0 Bft) W-SW 240 ° 1 min 0,000 mm 2,9 UV-I 297 W/m² 13,6 °C 16,1 °C 1,6 km/h (1 Bft)
19.08.2017 14:07 16,1 °C 16,1 °C 85 % 1016,6 hPa 0,0 mm 3,2 km/h (1 Bft) S-SW 207 ° 0 min 0,000 mm 2,9 UV-I 288 W/m² 13,6 °C 16,1 °C 4,8 km/h (1 Bft)
19.08.2017 14:08 16,0 °C 16,1 °C 84 % 1016,6 hPa 0,0 mm 2,4 km/h (1 Bft) SW 225 ° 1 min 0,000 mm 2,9 UV-I 292 W/m² 13,3 °C 16,0 °C 4,8 km/h (1 Bft)
19.08.2017 14:09 16,1 °C 16,1 °C 85 % 1016,6 hPa 0,0 mm 4,9 km/h (1 Bft) W-SW 257 ° 0 min 0,000 mm 2,8 UV-I 279 W/m² 13,6 °C 16,1 °C 6,4 km/h (2 Bft)
19.08.2017 14:10 16,1 °C 16,1 °C 85 % 1016,6 hPa 0,0 mm 2,2 km/h (1 Bft) W 260 ° 0 min 0,000 mm 2,7 UV-I 262 W/m² 13,6 °C 16,1 °C 3,2 km/h (1 Bft)
19.08.2017 14:11 16,1 °C 16,1 °C 84 % 1016,6 hPa 0,0 mm 2,4 km/h (1 Bft) W 260 ° 0 min 0,000 mm 2,6 UV-I 250 W/m² 13,4 °C 16,1 °C 4,8 km/h (1 Bft)
19.08.2017 14:12 16,1 °C 16,1 °C 85 % 1016,6 hPa 0,0 mm 2,9 km/h (1 Bft) W 260 ° 0 min 0,000 mm 2,6 UV-I 253 W/m² 13,6 °C 16,1 °C 4,8 km/h (1 Bft)
19.08.2017 14:13 16,1 °C 16,1 °C 85 % 1016,6 hPa 0,0 mm 2,3 km/h (1 Bft) W 260 ° 0 min 0,000 mm 2,7 UV-I 267 W/m² 13,6 °C 16,1 °C 4,8 km/h (1 Bft)
19.08.2017 14:14 16,1 °C 16,1 °C 86 % 1016,6 hPa 0,0 mm 2,8 km/h (1 Bft) W 260 ° 0 min 0,000 mm 2,7 UV-I 281 W/m² 13,8 °C 16,1 °C 4,8 km/h (1 Bft)
19.08.2017 14:15 16,1 °C 16,2 °C 84 % 1016,6 hPa 0,0 mm 0,0 km/h (0 Bft) W 260 ° 0 min 0,000 mm 2,6 UV-I 262 W/m² 13,4 °C 16,1 °C 0,0 km/h (0 Bft)
19.08.2017 14:16 16,1 °C 16,1 °C 84 % 1016,6 hPa 0,0 mm 3,5 km/h (1 Bft) W 260 ° 0 min 0,000 mm 2,2 UV-I 246 W/m² 13,4 °C 16,1 °C 4,8 km/h (1 Bft)
19.08.2017 14:17 16,2 °C 16,2 °C 85 % 1016,6 hPa 0,0 mm 1,1 km/h (1 Bft) W 260 ° 0 min 0,000 mm 2,0 UV-I 227 W/m² 13,7 °C 16,2 °C 3,2 km/h (1 Bft)
19.08.2017 14:18 16,2 °C 16,2 °C 86 % 1016,6 hPa 0,0 mm 0,3 km/h (0 Bft) W 260 ° 0 min 0,000 mm 1,8 UV-I 204 W/m² 13,9 °C 16,2 °C 1,6 km/h (1 Bft)
19.08.2017 14:19 16,2 °C 16,3 °C 86 % 1016,6 hPa 0,0 mm 1,3 km/h (1 Bft) W 260 ° 0 min 0,000 mm 1,6 UV-I 185 W/m² 13,9 °C 16,2 °C 4,8 km/h (1 Bft)
19.08.2017 14:20 16,2 °C 16,2 °C 86 % 1016,6 hPa 0,0 mm 0,7 km/h (0 Bft) W 260 ° 0 min 0,000 mm 1,5 UV-I 172 W/m² 13,9 °C 16,2 °C 3,2 km/h (1 Bft)
19.08.2017 14:21 16,2 °C 16,2 °C 86 % 1016,6 hPa 0,0 mm 2,1 km/h (1 Bft) W 260 ° 0 min 0,000 mm 1,5 UV-I 172 W/m² 13,9 °C 16,2 °C 3,2 km/h (1 Bft)
19.08.2017 14:22 16,2 °C 16,2 °C 87 % 1016,6 hPa 0,0 mm 2,2 km/h (1 Bft) W 260 ° 0 min 0,000 mm 1,5 UV-I 172 W/m² 14,0 °C 16,2 °C 3,2 km/h (1 Bft)
19.08.2017 14:23 16,2 °C 16,2 °C 85 % 1016,7 hPa 0,0 mm 2,7 km/h (1 Bft) W 260 ° 0 min 0,000 mm 1,6 UV-I 178 W/m² 13,7 °C 16,2 °C 4,8 km/h (1 Bft)
19.08.2017 14:24 16,2 °C 16,2 °C 87 % 1016,6 hPa 0,0 mm 1,9 km/h (1 Bft) W 260 ° 0 min 0,000 mm 1,7 UV-I 186 W/m² 14,0 °C 16,2 °C 3,2 km/h (1 Bft)
19.08.2017 14:25 16,2 °C 16,2 °C 85 % 1016,7 hPa 0,0 mm 0,7 km/h (0 Bft) W 260 ° 0 min 0,000 mm 1,8 UV-I 199 W/m² 13,7 °C 16,2 °C 1,6 km/h (1 Bft)
19.08.2017 14:26 16,2 °C 16,2 °C 86 % 1016,7 hPa 0,0 mm 1,7 km/h (1 Bft) W 260 ° 0 min 0,000 mm 1,9 UV-I 207 W/m² 13,9 °C 16,2 °C 3,2 km/h (1 Bft)
19.08.2017 14:27 16,1 °C 16,2 °C 87 % 1016,6 hPa 0,0 mm 0,1 km/h (0 Bft) W 260 ° 0 min 0,000 mm 2,0 UV-I 225 W/m² 13,9 °C 16,1 °C 1,6 km/h (1 Bft)
19.08.2017 14:28 16,0 °C 16,1 °C 89 % 1016,6 hPa 0,0 mm 0,6 km/h (0 Bft) W 260 ° 0 min 0,000 mm 2,2 UV-I 236 W/m² 14,2 °C 16,0 °C 3,2 km/h (1 Bft)
19.08.2017 14:29 15,9 °C 16,0 °C 89 % 1016,6 hPa 0,0 mm 0,3 km/h (0 Bft) W 260 ° 0 min 0,000 mm 2,3 UV-I 236 W/m² 14,1 °C 15,9 °C 1,6 km/h (1 Bft)
19.08.2017 14:30 15,9 °C 15,9 °C 88 % 1016,6 hPa 0,0 mm 3,8 km/h (1 Bft) S-SW 212 ° 0 min 0,000 mm 2,4 UV-I 265 W/m² 13,9 °C 15,9 °C 4,8 km/h (1 Bft)
19.08.2017 14:31 15,9 °C 15,9 °C 86 % 1016,7 hPa 0,0 mm 2,6 km/h (1 Bft) S-SW 207 ° 0 min 0,000 mm 2,4 UV-I 265 W/m² 13,6 °C 15,9 °C 4,8 km/h (1 Bft)
19.08.2017 14:32 16,0 °C 16,0 °C 87 % 1016,7 hPa 0,0 mm 0,1 km/h (0 Bft) S-SW 207 ° 0 min 0,000 mm 2,2 UV-I 221 W/m² 13,8 °C 16,0 °C 1,6 km/h (1 Bft)
19.08.2017 14:33 16,1 °C 16,1 °C 86 % 1016,7 hPa 0,0 mm 0,0 km/h (0 Bft) S-SW 207 ° 0 min 0,000 mm 2,1 UV-I 216 W/m² 13,8 °C 16,1 °C 0,0 km/h (0 Bft)
19.08.2017 14:34 16,2 °C 16,2 °C 87 % 1016,7 hPa 0,0 mm 3,3 km/h (1 Bft) W-SW 244 ° 0 min 0,000 mm 2,1 UV-I 216 W/m² 14,0 °C 16,2 °C 6,4 km/h (2 Bft)
19.08.2017 14:35 16,3 °C 16,3 °C 87 % 1016,8 hPa 0,0 mm 2,0 km/h (1 Bft) W-SW 244 ° 0 min 0,000 mm 2,0 UV-I 218 W/m² 14,1 °C 16,3 °C 3,2 km/h (1 Bft)
19.08.2017 14:36 16,3 °C 16,3 °C 88 % 1016,7 hPa 0,0 mm 0,5 km/h (0 Bft) W-SW 244 ° 0 min 0,000 mm 1,9 UV-I 211 W/m² 14,3 °C 16,3 °C 1,6 km/h (1 Bft)
19.08.2017 14:37 16,3 °C 16,3 °C 88 % 1016,8 hPa 0,0 mm 1,5 km/h (1 Bft) W-SW 244 ° 0 min 0,000 mm 1,7 UV-I 192 W/m² 14,3 °C 16,3 °C 3,2 km/h (1 Bft)
19.08.2017 14:38 16,3 °C 16,3 °C 87 % 1016,8 hPa 0,0 mm 0,7 km/h (0 Bft) W-SW 244 ° 0 min 0,000 mm 1,4 UV-I 142 W/m² 14,1 °C 16,3 °C 3,2 km/h (1 Bft)
19.08.2017 14:39 16,3 °C 16,3 °C 88 % 1016,8 hPa 0,0 mm 0,6 km/h (0 Bft) W-SW 244 ° 0 min 0,000 mm 1,2 UV-I 123 W/m² 14,3 °C 16,3 °C 3,2 km/h (1 Bft)
19.08.2017 14:40 16,3 °C 16,4 °C 87 % 1016,8 hPa 0,0 mm 0,6 km/h (0 Bft) W-SW 244 ° 0 min 0,000 mm 0,9 UV-I 107 W/m² 14,1 °C 16,3 °C 1,6 km/h (1 Bft)
19.08.2017 14:41 16,3 °C 16,3 °C 86 % 1016,8 hPa 0,0 mm 3,1 km/h (1 Bft) W-SW 244 ° 0 min 0,000 mm 0,8 UV-I 95 W/m² 14,0 °C 16,3 °C 4,8 km/h (1 Bft)
19.08.2017 14:42 16,3 °C 16,3 °C 86 % 1016,8 hPa 0,0 mm 5,1 km/h (1 Bft) W 263 ° 0 min 0,000 mm 0,7 UV-I 84 W/m² 14,0 °C 16,3 °C 6,4 km/h (2 Bft)
19.08.2017 14:43 16,2 °C 16,3 °C 87 % 1016,8 hPa 0,0 mm 2,6 km/h (1 Bft) W 263 ° 0 min 0,000 mm 0,7 UV-I 77 W/m² 14,0 °C 16,2 °C 4,8 km/h (1 Bft)
19.08.2017 14:44 16,2 °C 16,2 °C 86 % 1016,8 hPa 0,0 mm 0,2 km/h (0 Bft) W 263 ° 0 min 0,000 mm 0,6 UV-I 69 W/m² 13,9 °C 16,2 °C 1,6 km/h (1 Bft)
19.08.2017 14:45 16,1 °C 16,2 °C 87 % 1016,8 hPa 0,0 mm 0,0 km/h (0 Bft) W 263 ° 0 min 0,000 mm 0,6 UV-I 70 W/m² 13,9 °C 16,1 °C 0,0 km/h (0 Bft)
19.08.2017 14:46 16,0 °C 16,1 °C 87 % 1016,9 hPa 0,0 mm 0,6 km/h (0 Bft) W 263 ° 0 min 0,000 mm 0,7 UV-I 77 W/m² 13,8 °C 16,0 °C 1,6 km/h (1 Bft)
19.08.2017 14:47 15,8 °C 16,0 °C 87 % 1016,9 hPa 0,0 mm 2,7 km/h (1 Bft) S-SW 206 ° 0 min 0,000 mm 0,8 UV-I 84 W/m² 13,6 °C 15,8 °C 4,8 km/h (1 Bft)
19.08.2017 14:48 15,8 °C 15,8 °C 87 % 1016,9 hPa 0,0 mm 0,2 km/h (0 Bft) S-SW 206 ° 0 min 0,000 mm 0,8 UV-I 90 W/m² 13,6 °C 15,8 °C 1,6 km/h (1 Bft)
19.08.2017 14:49 15,7 °C 15,8 °C 88 % 1016,9 hPa 0,0 mm 0,0 km/h (0 Bft) S-SW 206 ° 0 min 0,000 mm 0,9 UV-I 95 W/m² 13,7 °C 15,7 °C 0,0 km/h (0 Bft)
19.08.2017 14:50 15,7 °C 15,7 °C 89 % 1016,9 hPa 0,0 mm 0,0 km/h (0 Bft) S-SW 206 ° 0 min 0,000 mm 0,9 UV-I 83 W/m² 13,9 °C 15,7 °C 0,0 km/h (0 Bft)
19.08.2017 14:51 15,6 °C 15,7 °C 89 % 1016,9 hPa 0,0 mm 0,0 km/h (0 Bft) S-SW 206 ° 0 min 0,000 mm 0,8 UV-I 70 W/m² 13,8 °C 15,6 °C 0,0 km/h (0 Bft)
19.08.2017 14:52 15,5 °C 15,6 °C 89 % 1016,9 hPa 0,0 mm 0,4 km/h (0 Bft) S-SW 206 ° 0 min 0,000 mm 0,6 UV-I 60 W/m² 13,7 °C 15,5 °C 1,6 km/h (1 Bft)
19.08.2017 14:53 15,4 °C 15,5 °C 90 % 1017,0 hPa 0,0 mm 5,3 km/h (1 Bft) O-NO 67 ° 0 min 0,000 mm 0,0 UV-I 49 W/m² 13,8 °C 15,4 °C 6,4 km/h (2 Bft)
19.08.2017 14:54 15,4 °C 15,4 °C 90 % 1017,0 hPa 0,0 mm 11,5 km/h (2 Bft) N-NO 26 ° 0 min 0,000 mm 0,0 UV-I 42 W/m² 13,8 °C 15,4 °C 17,7 km/h (3 Bft)
19.08.2017 14:55 15,4 °C 15,4 °C 89 % 1017,2 hPa 0,0 mm 7,8 km/h (2 Bft) N-NO 13 ° 0 min 0,000 mm 0,0 UV-I 33 W/m² 13,6 °C 15,4 °C 12,9 km/h (3 Bft)
19.08.2017 14:56 15,4 °C 15,4 °C 89 % 1017,1 hPa 0,0 mm 6,2 km/h (2 Bft) NW 312 ° 0 min 0,000 mm 0,0 UV-I 25 W/m² 13,6 °C 15,4 °C 9,7 km/h (2 Bft)
19.08.2017 14:57 15,4 °C 15,4 °C 89 % 1017,1 hPa 0,0 mm 8,6 km/h (2 Bft) NW 317 ° 0 min 0,000 mm 0,0 UV-I 26 W/m² 13,6 °C 15,4 °C 14,5 km/h (3 Bft)
19.08.2017 14:58 15,3 °C 15,4 °C 88 % 1017,2 hPa 0,0 mm 6,1 km/h (2 Bft) NW 316 ° 0 min 0,000 mm 0,0 UV-I 28 W/m² 13,3 °C 15,3 °C 9,7 km/h (2 Bft)
19.08.2017 14:59 15,3 °C 15,3 °C 89 % 1017,2 hPa 0,0 mm 8,4 km/h (2 Bft) NW 308 ° 0 min 0,000 mm 0,0 UV-I 30 W/m² 13,5 °C 15,3 °C 12,9 km/h (3 Bft)
19.08.2017 15:00 15,2 °C 15,3 °C 89 % 1017,2 hPa 0,0 mm 4,8 km/h (1 Bft) N-NW 342 ° 0 min 0,101 mm 0,0 UV-I 32 W/m² 13,4 °C 15,2 °C 8,0 km/h (2 Bft)
19.08.2017 15:01 15,1 °C 15,2 °C 89 % 1017,2 hPa 0,0 mm 4,9 km/h (1 Bft) N 9 ° 0 min 0,000 mm 0,0 UV-I 30 W/m² 13,3 °C 15,1 °C 11,3 km/h (2 Bft)
19.08.2017 15:03 15,0 °C 15,1 °C 90 % 1017,3 hPa 0,0 mm 5,3 km/h (1 Bft) O 86 ° 0 min 0,000 mm 0,0 UV-I 28 W/m² 13,4 °C 15,0 °C 9,7 km/h (2 Bft)
19.08.2017 15:04 14,9 °C 15,0 °C 89 % 1017,2 hPa 0,0 mm 4,1 km/h (1 Bft) O-NO 78 ° 0 min 0,000 mm 0,0 UV-I 26 W/m² 13,1 °C 14,9 °C 9,7 km/h (2 Bft)
19.08.2017 15:05 14,9 °C 14,9 °C 89 % 1017,2 hPa 0,0 mm 1,1 km/h (1 Bft) O-NO 78 ° 0 min 0,000 mm 0,0 UV-I 25 W/m² 13,1 °C 14,9 °C 3,2 km/h (1 Bft)
19.08.2017 15:06 14,8 °C 14,9 °C 89 % 1017,2 hPa 0,0 mm 3,6 km/h (1 Bft) N-NO 17 ° 0 min 0,000 mm 0,0 UV-I 25 W/m² 13,0 °C 14,8 °C 6,4 km/h (2 Bft)
19.08.2017 15:07 14,8 °C 14,9 °C 90 % 1017,2 hPa 0,0 mm 3,8 km/h (1 Bft) N 360 ° 0 min 0,000 mm 0,0 UV-I 21 W/m² 13,2 °C 14,8 °C 4,8 km/h (1 Bft)
19.08.2017 15:08 14,8 °C 14,8 °C 90 % 1017,3 hPa 0,0 mm 2,8 km/h (1 Bft) NO 39 ° 0 min 0,000 mm 0,0 UV-I 18 W/m² 13,2 °C 14,8 °C 6,4 km/h (2 Bft)
19.08.2017 15:09 14,8 °C 14,8 °C 90 % 1017,3 hPa 0,0 mm 1,5 km/h (1 Bft) N-NO 15 ° 0 min 0,000 mm 0,0 UV-I 19 W/m² 13,2 °C 14,8 °C 6,4 km/h (2 Bft)
19.08.2017 15:10 14,8 °C 14,8 °C 90 % 1017,3 hPa 0,0 mm 5,7 km/h (1 Bft) N-NW 339 ° 0 min 0,000 mm 0,0 UV-I 19 W/m² 13,2 °C 14,8 °C 8,0 km/h (2 Bft)
19.08.2017 15:11 14,8 °C 14,8 °C 90 % 1017,3 hPa 0,0 mm 7,0 km/h (2 Bft) N 5 ° 0 min 0,000 mm 0,0 UV-I 23 W/m² 13,2 °C 14,8 °C 9,7 km/h (2 Bft)
19.08.2017 15:12 14,7 °C 14,8 °C 90 % 1017,3 hPa 0,0 mm 6,3 km/h (2 Bft) N-NO 16 ° 0 min 0,000 mm 0,0 UV-I 28 W/m² 13,1 °C 14,7 °C 9,7 km/h (2 Bft)
19.08.2017 15:13 14,7 °C 14,7 °C 90 % 1017,3 hPa 0,0 mm 5,0 km/h (1 Bft) N 360 ° 0 min 0,000 mm 0,0 UV-I 35 W/m² 13,1 °C 14,7 °C 8,0 km/h (2 Bft)
19.08.2017 15:14 14,7 °C 14,7 °C 90 % 1017,3 hPa 0,0 mm 4,4 km/h (1 Bft) NO 48 ° 0 min 0,000 mm 0,0 UV-I 51 W/m² 13,1 °C 14,7 °C 6,4 km/h (2 Bft)
19.08.2017 15:15 14,7 °C 14,7 °C 90 % 1017,4 hPa 0,0 mm 2,3 km/h (1 Bft) NO 48 ° 0 min 0,000 mm 0,6 UV-I 67 W/m² 13,1 °C 14,7 °C 3,2 km/h (1 Bft)
19.08.2017 15:16 14,7 °C 14,7 °C 90 % 1017,3 hPa 0,0 mm 3,4 km/h (1 Bft) N-NO 13 ° 0 min 0,000 mm 0,8 UV-I 90 W/m² 13,1 °C 14,7 °C 4,8 km/h (1 Bft)
19.08.2017 15:17 14,7 °C 14,7 °C 91 % 1017,3 hPa 0,0 mm 0,8 km/h (0 Bft) N-NO 13 ° 0 min 0,000 mm 1,0 UV-I 102 W/m² 13,2 °C 14,7 °C 3,2 km/h (1 Bft)
19.08.2017 15:18 14,7 °C 14,7 °C 90 % 1017,2 hPa 0,0 mm 1,9 km/h (1 Bft) NO 39 ° 0 min 0,000 mm 1,0 UV-I 109 W/m² 13,1 °C 14,7 °C 3,2 km/h (1 Bft)
19.08.2017 15:19 14,7 °C 14,7 °C 90 % 1017,2 hPa 0,0 mm 4,4 km/h (1 Bft) O-NO 58 ° 0 min 0,000 mm 0,8 UV-I 95 W/m² 13,1 °C 14,7 °C 8,0 km/h (2 Bft)
19.08.2017 15:20 14,6 °C 14,7 °C 91 % 1017,2 hPa 0,0 mm 4,4 km/h (1 Bft) NO 39 ° 0 min 0,000 mm 0,7 UV-I 63 W/m² 13,1 °C 14,6 °C 6,4 km/h (2 Bft)
19.08.2017 15:21 14,6 °C 14,7 °C 90 % 1017,2 hPa 0,0 mm 2,7 km/h (1 Bft) NO 41 ° 0 min 0,000 mm 0,0 UV-I 51 W/m² 13,0 °C 14,6 °C 4,8 km/h (1 Bft)
19.08.2017 15:22 14,6 °C 14,7 °C 91 % 1017,2 hPa 0,0 mm 0,1 km/h (0 Bft) NO 41 ° 0 min 0,000 mm 0,0 UV-I 42 W/m² 13,1 °C 14,6 °C 1,6 km/h (1 Bft)
19.08.2017 15:23 14,6 °C 14,6 °C 91 % 1017,2 hPa 0,0 mm 4,2 km/h (1 Bft) O 84 ° 0 min 0,000 mm 0,0 UV-I 35 W/m² 13,1 °C 14,6 °C 6,4 km/h (2 Bft)
19.08.2017 15:24 14,6 °C 14,6 °C 91 % 1017,3 hPa 0,0 mm 3,1 km/h (1 Bft) O-NO 78 ° 0 min 0,000 mm 0,0 UV-I 33 W/m² 13,1 °C 14,6 °C 6,4 km/h (2 Bft)
19.08.2017 15:25 14,5 °C 14,6 °C 91 % 1017,3 hPa 0,0 mm 1,3 km/h (1 Bft) O 82 ° 0 min 0,000 mm 0,0 UV-I 49 W/m² 13,0 °C 14,5 °C 3,2 km/h (1 Bft)
19.08.2017 15:26 14,5 °C 14,6 °C 91 % 1017,2 hPa 0,0 mm 0,5 km/h (0 Bft) O 82 ° 0 min 0,000 mm 0,0 UV-I 62 W/m² 13,0 °C 14,5 °C 1,6 km/h (1 Bft)
19.08.2017 15:27 14,4 °C 14,5 °C 91 % 1017,2 hPa 0,0 mm 0,0 km/h (0 Bft) O 82 ° 0 min 0,000 mm 0,5 UV-I 67 W/m² 12,9 °C 14,4 °C 0,0 km/h (0 Bft)
19.08.2017 15:28 14,5 °C 14,5 °C 91 % 1017,2 hPa 0,0 mm 0,0 km/h (0 Bft) O 82 ° 0 min 0,000 mm 0,6 UV-I 76 W/m² 13,0 °C 14,5 °C 0,0 km/h (0 Bft)
19.08.2017 15:29 14,4 °C 14,5 °C 91 % 1017,2 hPa 0,0 mm 0,0 km/h (0 Bft) O 82 ° 0 min 0,000 mm 0,6 UV-I 76 W/m² 12,9 °C 14,4 °C 0,0 km/h (0 Bft)
19.08.2017 15:30 14,4 °C 14,4 °C 91 % 1017,2 hPa 0,0 mm 0,0 km/h (0 Bft) O 82 ° 0 min 0,000 mm 0,6 UV-I 72 W/m² 12,9 °C 14,4 °C 0,0 km/h (0 Bft)
19.08.2017 15:31 14,4 °C 14,4 °C 91 % 1017,2 hPa 0,0 mm 2,1 km/h (1 Bft) O 80 ° 0 min 0,000 mm 0,6 UV-I 70 W/m² 12,9 °C 14,4 °C 4,8 km/h (1 Bft)
19.08.2017 15:32 14,4 °C 14,4 °C 91 % 1017,2 hPa 0,0 mm 2,7 km/h (1 Bft) O 80 ° 0 min 0,000 mm 0,6 UV-I 70 W/m² 12,9 °C 14,4 °C 3,2 km/h (1 Bft)
19.08.2017 15:33 14,4 °C 14,4 °C 91 % 1017,3 hPa 0,0 mm 4,2 km/h (1 Bft) SO 129 ° 0 min 0,000 mm 0,5 UV-I 60 W/m² 12,9 °C 14,4 °C 6,4 km/h (2 Bft)
19.08.2017 15:34 14,4 °C 14,4 °C 92 % 1017,5 hPa 0,0 mm 1,6 km/h (1 Bft) SO 129 ° 0 min 0,000 mm 0,0 UV-I 46 W/m² 13,1 °C 14,4 °C 4,8 km/h (1 Bft)
19.08.2017 15:35 14,4 °C 14,4 °C 91 % 1017,4 hPa 0,0 mm 0,1 km/h (0 Bft) SO 129 ° 0 min 0,000 mm 0,0 UV-I 33 W/m² 12,9 °C 14,4 °C 1,6 km/h (1 Bft)
19.08.2017 15:36 14,4 °C 14,4 °C 91 % 1017,5 hPa 0,0 mm 0,0 km/h (0 Bft) SO 129 ° 0 min 0,000 mm 0,0 UV-I 25 W/m² 12,9 °C 14,4 °C 0,0 km/h (0 Bft)
19.08.2017 15:37 14,3 °C 14,4 °C 91 % 1017,5 hPa 0,0 mm 0,0 km/h (0 Bft) SO 129 ° 0 min 0,000 mm 0,0 UV-I 16 W/m² 12,8 °C 14,3 °C 0,0 km/h (0 Bft)
19.08.2017 15:38 14,3 °C 14,3 °C 91 % 1017,5 hPa 0,0 mm 0,1 km/h (0 Bft) SO 129 ° 0 min 0,000 mm 0,0 UV-I 18 W/m² 12,8 °C 14,3 °C 1,6 km/h (1 Bft)
19.08.2017 15:39 14,3 °C 14,3 °C 92 % 1017,5 hPa 0,0 mm 0,0 km/h (0 Bft) SO 129 ° 0 min 0,000 mm 0,0 UV-I 21 W/m² 13,0 °C 14,3 °C 0,0 km/h (0 Bft)
19.08.2017 15:40 14,3 °C 14,3 °C 92 % 1017,5 hPa 0,0 mm 0,0 km/h (0 Bft) SO 129 ° 0 min 0,000 mm 0,0 UV-I 25 W/m² 13,0 °C 14,3 °C 0,0 km/h (0 Bft)
19.08.2017 15:41 14,3 °C 14,3 °C 92 % 1017,5 hPa 0,0 mm 2,5 km/h (1 Bft) SO 129 ° 0 min 0,000 mm 0,0 UV-I 32 W/m² 13,0 °C 14,3 °C 3,2 km/h (1 Bft)
19.08.2017 15:42 14,3 °C 14,3 °C 92 % 1017,5 hPa 0,0 mm 3,1 km/h (1 Bft) SO 129 ° 0 min 0,000 mm 0,0 UV-I 37 W/m² 13,0 °C 14,3 °C 4,8 km/h (1 Bft)
19.08.2017 15:43 14,3 °C 14,3 °C 92 % 1017,5 hPa 0,0 mm 2,0 km/h (1 Bft) SO 129 ° 0 min 0,000 mm 0,0 UV-I 46 W/m² 13,0 °C 14,3 °C 3,2 km/h (1 Bft)
19.08.2017 15:44 14,3 °C 14,3 °C 92 % 1017,4 hPa 0,2 mm 2,5 km/h (1 Bft) O-SO 110 ° 0 min 0,000 mm 0,0 UV-I 47 W/m² 13,0 °C 14,3 °C 4,8 km/h (1 Bft)
19.08.2017 15:45 14,3 °C 14,3 °C 92 % 1017,4 hPa 0,0 mm 5,7 km/h (1 Bft) O-NO 66 ° 0 min 0,000 mm 0,0 UV-I 46 W/m² 13,0 °C 14,3 °C 8,0 km/h (2 Bft)
19.08.2017 15:46 14,3 °C 14,3 °C 92 % 1017,4 hPa 0,0 mm 6,8 km/h (2 Bft) O 82 ° 0 min 0,000 mm 0,0 UV-I 44 W/m² 13,0 °C 14,3 °C 11,3 km/h (2 Bft)
19.08.2017 15:47 14,2 °C 14,3 °C 92 % 1017,4 hPa 0,0 mm 5,2 km/h (1 Bft) SO 133 ° 0 min 0,000 mm 0,0 UV-I 47 W/m² 12,9 °C 14,2 °C 6,4 km/h (2 Bft)
19.08.2017 15:48 14,2 °C 14,2 °C 92 % 1017,4 hPa 0,0 mm 6,2 km/h (2 Bft) SO 124 ° 0 min 0,000 mm 0,0 UV-I 47 W/m² 12,9 °C 14,2 °C 11,3 km/h (2 Bft)
19.08.2017 15:49 14,1 °C 14,2 °C 92 % 1017,4 hPa 0,0 mm 3,4 km/h (1 Bft) O 86 ° 0 min 0,000 mm 0,0 UV-I 40 W/m² 12,8 °C 14,1 °C 4,8 km/h (1 Bft)
19.08.2017 15:50 14,1 °C 14,1 °C 92 % 1017,4 hPa 0,0 mm 4,5 km/h (1 Bft) S-SO 150 ° 0 min 0,000 mm 0,0 UV-I 39 W/m² 12,8 °C 14,1 °C 6,4 km/h (2 Bft)
19.08.2017 15:51 14,1 °C 14,1 °C 92 % 1017,4 hPa 0,0 mm 3,2 km/h (1 Bft) S 172 ° 0 min 0,000 mm 0,0 UV-I 32 W/m² 12,8 °C 14,1 °C 4,8 km/h (1 Bft)
19.08.2017 15:52 14,1 °C 14,1 °C 92 % 1017,4 hPa 0,0 mm 2,5 km/h (1 Bft) O-SO 104 ° 0 min 0,000 mm 0,0 UV-I 28 W/m² 12,8 °C 14,1 °C 4,8 km/h (1 Bft)
19.08.2017 15:53 14,0 °C 14,1 °C 92 % 1017,4 hPa 0,0 mm 2,8 km/h (1 Bft) O 87 ° 0 min 0,000 mm 0,0 UV-I 25 W/m² 12,7 °C 14,0 °C 6,4 km/h (2 Bft)
19.08.2017 15:54 14,0 °C 14,0 °C 93 % 1017,4 hPa 0,0 mm 4,7 km/h (1 Bft) O-NO 61 ° 0 min 0,000 mm 0,0 UV-I 23 W/m² 12,9 °C 14,0 °C 8,0 km/h (2 Bft)
19.08.2017 15:55 14,0 °C 14,0 °C 93 % 1017,5 hPa 0,2 mm 1,5 km/h (1 Bft) O-NO 61 ° 0 min 0,000 mm 0,0 UV-I 26 W/m² 12,9 °C 14,0 °C 4,8 km/h (1 Bft)
19.08.2017 15:56 14,0 °C 14,0 °C 93 % 1017,6 hPa 0,2 mm 4,6 km/h (1 Bft) O-NO 73 ° 0 min 0,000 mm 0,0 UV-I 30 W/m² 12,9 °C 14,0 °C 6,4 km/h (2 Bft)
19.08.2017 15:57 13,9 °C 14,0 °C 93 % 1017,6 hPa 0,0 mm 6,6 km/h (2 Bft) O-NO 63 ° 0 min 0,000 mm 0,0 UV-I 32 W/m² 12,8 °C 13,9 °C 9,7 km/h (2 Bft)
19.08.2017 15:58 13,9 °C 14,0 °C 93 % 1017,6 hPa 0,0 mm 5,6 km/h (1 Bft) O-NO 71 ° 0 min 0,000 mm 0,0 UV-I 30 W/m² 12,8 °C 13,9 °C 9,7 km/h (2 Bft)
19.08.2017 15:59 13,9 °C 13,9 °C 93 % 1017,6 hPa 0,2 mm 4,5 km/h (1 Bft) O-NO 65 ° 0 min 0,000 mm 0,0 UV-I 33 W/m² 12,8 °C 13,9 °C 6,4 km/h (2 Bft)
19.08.2017 16:00 13,9 °C 13,9 °C 93 % 1017,7 hPa 0,0 mm 3,6 km/h (1 Bft) N-NO 17 ° 0 min 0,026 mm 0,0 UV-I 33 W/m² 12,8 °C 13,9 °C 6,4 km/h (2 Bft)
19.08.2017 16:01 13,9 °C 13,9 °C 93 % 1017,7 hPa 0,0 mm 4,0 km/h (1 Bft) NO 42 ° 0 min 0,000 mm 0,0 UV-I 35 W/m² 12,8 °C 13,9 °C 6,4 km/h (2 Bft)
19.08.2017 16:02 13,9 °C 13,9 °C 93 % 1017,7 hPa 0,0 mm 4,8 km/h (1 Bft) O-NO 65 ° 0 min 0,000 mm 0,0 UV-I 44 W/m² 12,8 °C 13,9 °C 6,4 km/h (2 Bft)
19.08.2017 16:03 13,9 °C 13,9 °C 93 % 1017,7 hPa 0,0 mm 4,1 km/h (1 Bft) O-NO 61 ° 0 min 0,000 mm 0,0 UV-I 44 W/m² 12,8 °C 13,9 °C 4,8 km/h (1 Bft)
19.08.2017 16:04 13,9 °C 13,9 °C 93 % 1017,7 hPa 0,2 mm 1,4 km/h (1 Bft) O-NO 61 ° 0 min 0,000 mm 0,0 UV-I 37 W/m² 12,8 °C 13,9 °C 3,2 km/h (1 Bft)
19.08.2017 16:05 13,9 °C 13,9 °C 93 % 1017,7 hPa 0,4 mm 2,2 km/h (1 Bft) O-NO 61 ° 0 min 0,000 mm 0,0 UV-I 37 W/m² 12,8 °C 13,9 °C 3,2 km/h (1 Bft)
19.08.2017 16:06 13,9 °C 13,9 °C 93 % 1017,6 hPa 0,2 mm 4,8 km/h (1 Bft) O-NO 76 ° 0 min 0,000 mm 0,0 UV-I 26 W/m² 12,8 °C 13,9 °C 6,4 km/h (2 Bft)
19.08.2017 16:07 14,0 °C 14,0 °C 93 % 1017,6 hPa 0,0 mm 1,4 km/h (1 Bft) O-NO 76 ° 0 min 0,000 mm 0,0 UV-I 32 W/m² 12,9 °C 14,0 °C 3,2 km/h (1 Bft)
19.08.2017 16:08 14,0 °C 14,0 °C 93 % 1017,7 hPa 0,0 mm 0,1 km/h (0 Bft) O-NO 76 ° 0 min 0,000 mm 0,0 UV-I 44 W/m² 12,9 °C 14,0 °C 1,6 km/h (1 Bft)
19.08.2017 16:09 13,9 °C 14,0 °C 93 % 1017,6 hPa 0,0 mm 4,5 km/h (1 Bft) O-NO 62 ° 0 min 0,000 mm 0,6 UV-I 72 W/m² 12,8 °C 13,9 °C 6,4 km/h (2 Bft)
19.08.2017 16:10 13,9 °C 13,9 °C 93 % 1017,6 hPa 0,0 mm 2,5 km/h (1 Bft) N-NO 28 ° 0 min 0,000 mm 0,8 UV-I 104 W/m² 12,8 °C 13,9 °C 4,8 km/h (1 Bft)
19.08.2017 16:11 13,9 °C 13,9 °C 93 % 1017,6 hPa 0,0 mm 2,3 km/h (1 Bft) N-NO 28 ° 0 min 0,000 mm 0,8 UV-I 105 W/m² 12,8 °C 13,9 °C 3,2 km/h (1 Bft)
19.08.2017 16:12 13,9 °C 13,9 °C 93 % 1017,7 hPa 0,0 mm 1,1 km/h (1 Bft) N-NO 28 ° 0 min 0,000 mm 0,7 UV-I 84 W/m² 12,8 °C 13,9 °C 3,2 km/h (1 Bft)
19.08.2017 16:13 13,9 °C 13,9 °C 93 % 1017,7 hPa 0,0 mm 1,0 km/h (0 Bft) N-NO 28 ° 0 min 0,000 mm 0,7 UV-I 88 W/m² 12,8 °C 13,9 °C 1,6 km/h (1 Bft)
19.08.2017 16:14 14,0 °C 14,0 °C 93 % 1017,7 hPa 0,0 mm 0,0 km/h (0 Bft) N-NO 28 ° 0 min 0,000 mm 0,8 UV-I 93 W/m² 12,9 °C 14,0 °C 0,0 km/h (0 Bft)
19.08.2017 16:15 14,0 °C 14,0 °C 93 % 1017,7 hPa 0,0 mm 0,0 km/h (0 Bft) N-NO 28 ° 0 min 0,000 mm 0,8 UV-I 97 W/m² 12,9 °C 14,0 °C 0,0 km/h (0 Bft)
19.08.2017 16:16 14,0 °C 14,0 °C 93 % 1017,8 hPa 0,2 mm 0,0 km/h (0 Bft) N-NO 28 ° 0 min 0,000 mm 0,9 UV-I 104 W/m² 12,9 °C 14,0 °C 0,0 km/h (0 Bft)
19.08.2017 16:17 14,0 °C 14,0 °C 93 % 1017,8 hPa 0,0 mm 0,0 km/h (0 Bft) N-NO 28 ° 0 min 0,000 mm 1,0 UV-I 120 W/m² 12,9 °C 14,0 °C 0,0 km/h (0 Bft)
19.08.2017 16:18 14,0 °C 14,0 °C 93 % 1017,8 hPa 0,0 mm 0,0 km/h (0 Bft) N-NO 28 ° 0 min 0,000 mm 1,1 UV-I 162 W/m² 12,9 °C 14,0 °C 0,0 km/h (0 Bft)
19.08.2017 16:19 13,9 °C 14,0 °C 93 % 1017,7 hPa 0,0 mm 0,0 km/h (0 Bft) N-NO 28 ° 0 min 0,000 mm 1,3 UV-I 167 W/m² 12,8 °C 13,9 °C 0,0 km/h (0 Bft)
19.08.2017 16:20 13,9 °C 14,0 °C 93 % 1017,7 hPa 0,0 mm 0,0 km/h (0 Bft) N-NO 28 ° 0 min 0,000 mm 1,3 UV-I 172 W/m² 12,8 °C 13,9 °C 0,0 km/h (0 Bft)
19.08.2017 16:21 13,9 °C 13,9 °C 93 % 1017,7 hPa 0,0 mm 0,0 km/h (0 Bft) N-NO 28 ° 0 min 0,000 mm 1,3 UV-I 179 W/m² 12,8 °C 13,9 °C 0,0 km/h (0 Bft)
19.08.2017 16:22 14,0 °C 14,0 °C 93 % 1017,7 hPa 0,0 mm 0,0 km/h (0 Bft) N-NO 28 ° 0 min 0,000 mm 1,4 UV-I 183 W/m² 12,9 °C 14,0 °C 0,0 km/h (0 Bft)
19.08.2017 16:23 14,1 °C 14,1 °C 93 % 1017,7 hPa 0,0 mm 0,0 km/h (0 Bft) N-NO 28 ° 0 min 0,000 mm 1,4 UV-I 183 W/m² 13,0 °C 14,1 °C 0,0 km/h (0 Bft)
19.08.2017 16:24 14,1 °C 14,1 °C 93 % 1017,7 hPa 0,0 mm 0,0 km/h (0 Bft) N-NO 28 ° 0 min 0,000 mm 1,3 UV-I 163 W/m² 13,0 °C 14,1 °C 0,0 km/h (0 Bft)
19.08.2017 16:25 14,2 °C 14,2 °C 93 % 1017,8 hPa 0,0 mm 0,0 km/h (0 Bft) N-NO 28 ° 0 min 0,000 mm 1,3 UV-I 160 W/m² 13,1 °C 14,2 °C 0,0 km/h (0 Bft)
19.08.2017 16:26 14,1 °C 14,2 °C 93 % 1017,7 hPa 0,0 mm 0,0 km/h (0 Bft) N-NO 28 ° 0 min 0,000 mm 1,3 UV-I 160 W/m² 13,0 °C 14,1 °C 0,0 km/h (0 Bft)
19.08.2017 16:27 14,1 °C 14,1 °C 93 % 1017,7 hPa 0,0 mm 0,0 km/h (0 Bft) N-NO 28 ° 0 min 0,000 mm 1,3 UV-I 160 W/m² 13,0 °C 14,1 °C 0,0 km/h (0 Bft)
19.08.2017 16:28 14,1 °C 14,1 °C 93 % 1017,7 hPa 0,0 mm 0,0 km/h (0 Bft) N-NO 28 ° 0 min 0,000 mm 1,3 UV-I 165 W/m² 13,0 °C 14,1 °C 0,0 km/h (0 Bft)
19.08.2017 16:29 14,1 °C 14,1 °C 93 % 1017,8 hPa 0,0 mm 0,0 km/h (0 Bft) N-NO 28 ° 0 min 0,000 mm 1,3 UV-I 179 W/m² 13,0 °C 14,1 °C 0,0 km/h (0 Bft)
19.08.2017 16:30 14,2 °C 14,2 °C 93 % 1017,7 hPa 0,0 mm 0,0 km/h (0 Bft) N-NO 28 ° 0 min 0,000 mm 1,4 UV-I 192 W/m² 13,1 °C 14,2 °C 0,0 km/h (0 Bft)
19.08.2017 16:31 14,2 °C 14,2 °C 93 % 1017,7 hPa 0,0 mm 1,5 km/h (1 Bft) N-NO 28 ° 0 min 0,000 mm 1,5 UV-I 199 W/m² 13,1 °C 14,2 °C 3,2 km/h (1 Bft)
19.08.2017 16:32 14,2 °C 14,2 °C 93 % 1017,7 hPa 0,0 mm 0,1 km/h (0 Bft) N-NO 28 ° 0 min 0,000 mm 1,4 UV-I 185 W/m² 13,1 °C 14,2 °C 1,6 km/h (1 Bft)
19.08.2017 16:33 14,2 °C 14,2 °C 92 % 1017,8 hPa 0,0 mm 1,6 km/h (1 Bft) O-NO 66 ° 0 min 0,000 mm 1,2 UV-I 162 W/m² 12,9 °C 14,2 °C 3,2 km/h (1 Bft)
19.08.2017 16:34 14,2 °C 14,3 °C 92 % 1017,8 hPa 0,0 mm 0,9 km/h (0 Bft) O-NO 66 ° 0 min 0,000 mm 1,1 UV-I 144 W/m² 12,9 °C 14,2 °C 1,6 km/h (1 Bft)
19.08.2017 16:35 14,2 °C 14,2 °C 92 % 1017,9 hPa 0,0 mm 0,9 km/h (0 Bft) O-NO 66 ° 0 min 0,000 mm 1,1 UV-I 132 W/m² 12,9 °C 14,2 °C 1,6 km/h (1 Bft)
19.08.2017 16:36 14,3 °C 14,3 °C 93 % 1017,8 hPa 0,0 mm 3,5 km/h (1 Bft) O-NO 66 ° 0 min 0,000 mm 1,1 UV-I 134 W/m² 13,2 °C 14,3 °C 4,8 km/h (1 Bft)
19.08.2017 16:37 14,3 °C 14,3 °C 93 % 1017,8 hPa 0,0 mm 1,3 km/h (1 Bft) O-NO 66 ° 0 min 0,000 mm 1,1 UV-I 139 W/m² 13,2 °C 14,3 °C 3,2 km/h (1 Bft)
19.08.2017 16:38 14,3 °C 14,3 °C 92 % 1017,9 hPa 0,0 mm 1,1 km/h (1 Bft) O-NO 66 ° 0 min 0,000 mm 1,1 UV-I 148 W/m² 13,0 °C 14,3 °C 4,8 km/h (1 Bft)
19.08.2017 16:39 14,2 °C 14,3 °C 92 % 1017,9 hPa 0,0 mm 2,6 km/h (1 Bft) O-NO 66 ° 0 min 0,000 mm 1,2 UV-I 149 W/m² 12,9 °C 14,2 °C 4,8 km/h (1 Bft)
19.08.2017 16:40 14,2 °C 14,2 °C 92 % 1017,9 hPa 0,0 mm 0,2 km/h (0 Bft) O-NO 66 ° 0 min 0,000 mm 1,1 UV-I 142 W/m² 12,9 °C 14,2 °C 1,6 km/h (1 Bft)
19.08.2017 16:41 14,2 °C 14,2 °C 92 % 1017,9 hPa 0,0 mm 0,0 km/h (0 Bft) O-NO 66 ° 0 min 0,000 mm 1,0 UV-I 134 W/m² 12,9 °C 14,2 °C 0,0 km/h (0 Bft)
19.08.2017 16:42 14,2 °C 14,2 °C 92 % 1017,9 hPa 0,0 mm 0,0 km/h (0 Bft) O-NO 66 ° 0 min 0,000 mm 1,0 UV-I 137 W/m² 12,9 °C 14,2 °C 0,0 km/h (0 Bft)
19.08.2017 16:43 14,2 °C 14,2 °C 92 % 1017,9 hPa 0,0 mm 0,0 km/h (0 Bft) O-NO 66 ° 0 min 0,000 mm 1,1 UV-I 153 W/m² 12,9 °C 14,2 °C 0,0 km/h (0 Bft)
19.08.2017 16:44 14,2 °C 14,2 °C 92 % 1017,9 hPa 0,0 mm 0,2 km/h (0 Bft) O-NO 66 ° 0 min 0,000 mm 1,2 UV-I 174 W/m² 12,9 °C 14,2 °C 1,6 km/h (1 Bft)
19.08.2017 16:45 14,4 °C 14,4 °C 93 % 1017,9 hPa 0,0 mm 0,7 km/h (0 Bft) O-NO 66 ° 0 min 0,000 mm 1,3 UV-I 190 W/m² 13,3 °C 14,4 °C 3,2 km/h (1 Bft)
19.08.2017 16:46 14,4 °C 14,4 °C 93 % 1017,9 hPa 0,0 mm 2,2 km/h (1 Bft) O-NO 66 ° 0 min 0,000 mm 1,4 UV-I 193 W/m² 13,3 °C 14,4 °C 3,2 km/h (1 Bft)
19.08.2017 16:47 14,3 °C 14,4 °C 92 % 1017,9 hPa 0,0 mm 3,8 km/h (1 Bft) SO 128 ° 0 min 0,000 mm 1,4 UV-I 202 W/m² 13,0 °C 14,3 °C 6,4 km/h (2 Bft)
19.08.2017 16:48 14,4 °C 14,4 °C 93 % 1017,9 hPa 0,0 mm 2,7 km/h (1 Bft) S-SO 151 ° 0 min 0,000 mm 1,5 UV-I 200 W/m² 13,3 °C 14,4 °C 4,8 km/h (1 Bft)
19.08.2017 16:49 14,4 °C 14,4 °C 92 % 1017,9 hPa 0,0 mm 3,9 km/h (1 Bft) S-SO 151 ° 0 min 0,000 mm 1,5 UV-I 214 W/m² 13,1 °C 14,4 °C 4,8 km/h (1 Bft)
19.08.2017 16:50 14,3 °C 14,4 °C 92 % 1017,9 hPa 0,0 mm 1,3 km/h (1 Bft) S-SO 151 ° 0 min 0,000 mm 1,5 UV-I 221 W/m² 13,0 °C 14,3 °C 3,2 km/h (1 Bft)
19.08.2017 16:51 14,3 °C 14,3 °C 92 % 1017,9 hPa 0,0 mm 0,0 km/h (0 Bft) S-SO 151 ° 0 min 0,000 mm 1,5 UV-I 206 W/m² 13,0 °C 14,3 °C 0,0 km/h (0 Bft)
19.08.2017 16:52 14,3 °C 14,4 °C 92 % 1017,9 hPa 0,0 mm 0,0 km/h (0 Bft) S-SO 151 ° 0 min 0,000 mm 1,4 UV-I 192 W/m² 13,0 °C 14,3 °C 0,0 km/h (0 Bft)
19.08.2017 16:53 14,5 °C 14,5 °C 93 % 1017,9 hPa 0,0 mm 0,1 km/h (0 Bft) S-SO 151 ° 0 min 0,000 mm 1,3 UV-I 165 W/m² 13,4 °C 14,5 °C 1,6 km/h (1 Bft)
19.08.2017 16:54 14,5 °C 14,5 °C 92 % 1017,9 hPa 0,0 mm 1,1 km/h (1 Bft) S-SO 151 ° 0 min 0,000 mm 1,2 UV-I 155 W/m² 13,2 °C 14,5 °C 3,2 km/h (1 Bft)
19.08.2017 16:55 14,4 °C 14,5 °C 92 % 1017,8 hPa 0,0 mm 2,5 km/h (1 Bft) S-SO 148 ° 0 min 0,000 mm 1,2 UV-I 148 W/m² 13,1 °C 14,4 °C 3,2 km/h (1 Bft)
19.08.2017 16:56 14,4 °C 14,4 °C 91 % 1017,8 hPa 0,0 mm 2,6 km/h (1 Bft) SO 144 ° 0 min 0,000 mm 1,2 UV-I 155 W/m² 12,9 °C 14,4 °C 3,2 km/h (1 Bft)
19.08.2017 16:57 14,4 °C 14,5 °C 92 % 1017,8 hPa 0,0 mm 3,4 km/h (1 Bft) O 91 ° 0 min 0,000 mm 1,3 UV-I 167 W/m² 13,1 °C 14,4 °C 4,8 km/h (1 Bft)
19.08.2017 16:58 14,4 °C 14,5 °C 91 % 1017,9 hPa 0,0 mm 1,9 km/h (1 Bft) O 92 ° 0 min 0,000 mm 1,4 UV-I 186 W/m² 12,9 °C 14,4 °C 3,2 km/h (1 Bft)
19.08.2017 16:59 14,4 °C 14,4 °C 91 % 1017,8 hPa 0,0 mm 0,3 km/h (0 Bft) O 92 ° 0 min 0,000 mm 1,4 UV-I 172 W/m² 12,9 °C 14,4 °C 1,6 km/h (1 Bft)
19.08.2017 17:00 14,4 °C 14,5 °C 91 % 1017,8 hPa 0,0 mm 1,9 km/h (1 Bft) O-SO 111 ° 0 min 0,076 mm 1,4 UV-I 165 W/m² 12,9 °C 14,4 °C 4,8 km/h (1 Bft)
19.08.2017 17:01 14,4 °C 14,4 °C 91 % 1017,9 hPa 0,0 mm 1,9 km/h (1 Bft) O-SO 111 ° 0 min 0,000 mm 1,3 UV-I 156 W/m² 12,9 °C 14,4 °C 3,2 km/h (1 Bft)
19.08.2017 17:02 14,4 °C 14,4 °C 91 % 1017,8 hPa 0,0 mm 0,2 km/h (0 Bft) O-SO 111 ° 0 min 0,000 mm 1,3 UV-I 151 W/m² 12,9 °C 14,4 °C 1,6 km/h (1 Bft)
19.08.2017 17:03 14,4 °C 14,4 °C 91 % 1017,8 hPa 0,0 mm 0,4 km/h (0 Bft) O-SO 122 ° 0 min 0,000 mm 1,2 UV-I 146 W/m² 12,9 °C 14,4 °C 1,6 km/h (1 Bft)
19.08.2017 17:04 14,4 °C 14,4 °C 91 % 1017,9 hPa 0,0 mm 0,9 km/h (0 Bft) O-SO 122 ° 0 min 0,000 mm 1,2 UV-I 142 W/m² 12,9 °C 14,4 °C 1,6 km/h (1 Bft)
19.08.2017 17:05 14,4 °C 14,4 °C 91 % 1017,9 hPa 0,0 mm 0,5 km/h (0 Bft) O-SO 122 ° 0 min 0,000 mm 1,1 UV-I 146 W/m² 12,9 °C 14,4 °C 1,6 km/h (1 Bft)
19.08.2017 17:06 14,4 °C 14,4 °C 91 % 1017,9 hPa 0,0 mm 0,0 km/h (0 Bft) O-SO 122 ° 0 min 0,000 mm 1,1 UV-I 146 W/m² 12,9 °C 14,4 °C 0,0 km/h (0 Bft)
19.08.2017 17:07 14,4 °C 14,4 °C 91 % 1017,9 hPa 0,0 mm 0,0 km/h (0 Bft) O-SO 122 ° 0 min 0,000 mm 1,1 UV-I 144 W/m² 12,9 °C 14,4 °C 0,0 km/h (0 Bft)
19.08.2017 17:08 14,4 °C 14,4 °C 90 % 1017,8 hPa 0,0 mm 0,0 km/h (0 Bft) O-SO 122 ° 0 min 0,000 mm 1,1 UV-I 144 W/m² 12,8 °C 14,4 °C 0,0 km/h (0 Bft)
19.08.2017 17:09 14,4 °C 14,4 °C 91 % 1017,9 hPa 0,0 mm 0,0 km/h (0 Bft) O-SO 122 ° 0 min 0,000 mm 1,1 UV-I 144 W/m² 12,9 °C 14,4 °C 0,0 km/h (0 Bft)
19.08.2017 17:10 14,4 °C 14,5 °C 91 % 1017,9 hPa 0,0 mm 0,0 km/h (0 Bft) O-SO 122 ° 0 min 0,000 mm 1,1 UV-I 144 W/m² 12,9 °C 14,4 °C 0,0 km/h (0 Bft)
19.08.2017 17:11 14,5 °C 14,5 °C 92 % 1017,9 hPa 0,0 mm 0,0 km/h (0 Bft) O-SO 122 ° 0 min 0,000 mm 1,0 UV-I 141 W/m² 13,2 °C 14,5 °C 0,0 km/h (0 Bft)
19.08.2017 17:12 14,5 °C 14,5 °C 92 % 1017,9 hPa 0,0 mm 0,0 km/h (0 Bft) O-SO 122 ° 0 min 0,000 mm 1,0 UV-I 141 W/m² 13,2 °C 14,5 °C 0,0 km/h (0 Bft)
19.08.2017 17:13 14,5 °C 14,5 °C 92 % 1017,9 hPa 0,0 mm 1,6 km/h (1 Bft) O-SO 121 ° 0 min 0,000 mm 0,9 UV-I 137 W/m² 13,2 °C 14,5 °C 3,2 km/h (1 Bft)
19.08.2017 17:14 14,5 °C 14,5 °C 92 % 1018,0 hPa 0,0 mm 1,5 km/h (1 Bft) O-SO 121 ° 0 min 0,000 mm 0,9 UV-I 137 W/m² 13,2 °C 14,5 °C 3,2 km/h (1 Bft)
19.08.2017 17:15 14,6 °C 14,6 °C 93 % 1017,9 hPa 0,0 mm 2,0 km/h (1 Bft) O-SO 121 ° 0 min 0,000 mm 1,0 UV-I 144 W/m² 13,5 °C 14,6 °C 3,2 km/h (1 Bft)
19.08.2017 17:16 14,7 °C 14,7 °C 93 % 1017,9 hPa 0,0 mm 0,0 km/h (0 Bft) O-SO 121 ° 0 min 0,000 mm 1,1 UV-I 160 W/m² 13,6 °C 14,7 °C 0,0 km/h (0 Bft)
19.08.2017 17:17 14,7 °C 14,7 °C 93 % 1017,9 hPa 0,0 mm 5,7 km/h (1 Bft) O-SO 113 ° 0 min 0,000 mm 1,2 UV-I 207 W/m² 13,6 °C 14,7 °C 6,4 km/h (2 Bft)
19.08.2017 17:18 14,6 °C 14,7 °C 92 % 1018,0 hPa 0,0 mm 4,2 km/h (1 Bft) O-SO 112 ° 0 min 0,000 mm 1,3 UV-I 234 W/m² 13,3 °C 14,6 °C 9,7 km/h (2 Bft)
19.08.2017 17:19 14,6 °C 14,6 °C 92 % 1018,0 hPa 0,0 mm 3,3 km/h (1 Bft) O-SO 112 ° 0 min 0,000 mm 1,4 UV-I 244 W/m² 13,3 °C 14,6 °C 4,8 km/h (1 Bft)
19.08.2017 17:20 14,6 °C 14,6 °C 92 % 1018,0 hPa 0,0 mm 1,2 km/h (1 Bft) O 89 ° 0 min 0,000 mm 1,3 UV-I 243 W/m² 13,3 °C 14,6 °C 3,2 km/h (1 Bft)
19.08.2017 17:21 14,6 °C 14,6 °C 92 % 1018,1 hPa 0,0 mm 1,9 km/h (1 Bft) O-NO 77 ° 0 min 0,000 mm 1,3 UV-I 230 W/m² 13,3 °C 14,6 °C 3,2 km/h (1 Bft)
19.08.2017 17:22 14,7 °C 14,7 °C 92 % 1018,0 hPa 0,0 mm 2,5 km/h (1 Bft) O 101 ° 0 min 0,000 mm 1,2 UV-I 223 W/m² 13,4 °C 14,7 °C 3,2 km/h (1 Bft)
19.08.2017 17:23 14,7 °C 14,7 °C 91 % 1018,1 hPa 0,0 mm 0,6 km/h (0 Bft) O 100 ° 0 min 0,000 mm 1,2 UV-I 234 W/m² 13,2 °C 14,7 °C 3,2 km/h (1 Bft)
19.08.2017 17:24 14,7 °C 14,7 °C 91 % 1018,1 hPa 0,0 mm 2,3 km/h (1 Bft) O 99 ° 0 min 0,000 mm 1,3 UV-I 243 W/m² 13,2 °C 14,7 °C 4,8 km/h (1 Bft)
19.08.2017 17:25 14,7 °C 14,7 °C 91 % 1018,1 hPa 0,0 mm 2,1 km/h (1 Bft) O 99 ° 0 min 0,000 mm 1,2 UV-I 227 W/m² 13,2 °C 14,7 °C 4,8 km/h (1 Bft)
19.08.2017 17:26 14,8 °C 14,8 °C 92 % 1018,2 hPa 0,0 mm 2,4 km/h (1 Bft) O 99 ° 0 min 0,000 mm 1,2 UV-I 195 W/m² 13,5 °C 14,8 °C 4,8 km/h (1 Bft)
19.08.2017 17:27 14,8 °C 14,8 °C 91 % 1018,2 hPa 0,0 mm 3,7 km/h (1 Bft) O 100 ° 0 min 0,000 mm 1,1 UV-I 171 W/m² 13,3 °C 14,8 °C 4,8 km/h (1 Bft)
19.08.2017 17:28 14,8 °C 14,8 °C 91 % 1018,2 hPa 0,0 mm 3,8 km/h (1 Bft) O-NO 68 ° 0 min 0,000 mm 0,9 UV-I 144 W/m² 13,3 °C 14,8 °C 6,4 km/h (2 Bft)
19.08.2017 17:29 14,7 °C 14,8 °C 90 % 1018,2 hPa 0,0 mm 3,2 km/h (1 Bft) O-SO 118 ° 0 min 0,000 mm 0,8 UV-I 121 W/m² 13,1 °C 14,7 °C 4,8 km/h (1 Bft)
19.08.2017 17:30 14,6 °C 14,7 °C 90 % 1018,2 hPa 0,0 mm 2,9 km/h (1 Bft) SO 136 ° 0 min 0,000 mm 0,7 UV-I 97 W/m² 13,0 °C 14,6 °C 4,8 km/h (1 Bft)
19.08.2017 17:31 14,6 °C 14,6 °C 90 % 1018,1 hPa 0,0 mm 0,8 km/h (0 Bft) SO 136 ° 0 min 0,000 mm 0,7 UV-I 90 W/m² 13,0 °C 14,6 °C 3,2 km/h (1 Bft)
19.08.2017 17:32 14,6 °C 14,6 °C 90 % 1018,0 hPa 0,0 mm 1,7 km/h (1 Bft) SO 136 ° 0 min 0,000 mm 0,7 UV-I 86 W/m² 13,0 °C 14,6 °C 3,2 km/h (1 Bft)
19.08.2017 17:33 14,6 °C 14,6 °C 91 % 1018,0 hPa 0,0 mm 1,3 km/h (1 Bft) SO 136 ° 0 min 0,000 mm 0,7 UV-I 84 W/m² 13,1 °C 14,6 °C 3,2 km/h (1 Bft)
19.08.2017 17:34 14,6 °C 14,6 °C 91 % 1018,0 hPa 0,0 mm 2,5 km/h (1 Bft) SO 136 ° 0 min 0,000 mm 0,7 UV-I 86 W/m² 13,1 °C 14,6 °C 4,8 km/h (1 Bft)
19.08.2017 17:35 14,5 °C 14,6 °C 91 % 1018,0 hPa 0,0 mm 2,6 km/h (1 Bft) SO 136 ° 0 min 0,000 mm 0,7 UV-I 86 W/m² 13,0 °C 14,5 °C 4,8 km/h (1 Bft)
19.08.2017 17:36 14,5 °C 14,5 °C 91 % 1018,0 hPa 0,0 mm 2,0 km/h (1 Bft) SO 136 ° 0 min 0,000 mm 0,6 UV-I 86 W/m² 13,0 °C 14,5 °C 3,2 km/h (1 Bft)
19.08.2017 17:37 14,5 °C 14,6 °C 92 % 1018,0 hPa 0,0 mm 2,8 km/h (1 Bft) SO 136 ° 0 min 0,000 mm 0,6 UV-I 88 W/m² 13,2 °C 14,5 °C 4,8 km/h (1 Bft)
19.08.2017 17:38 14,5 °C 14,5 °C 92 % 1018,0 hPa 0,0 mm 1,6 km/h (1 Bft) SO 136 ° 0 min 0,000 mm 0,7 UV-I 91 W/m² 13,2 °C 14,5 °C 3,2 km/h (1 Bft)
19.08.2017 17:39 14,5 °C 14,5 °C 92 % 1018,0 hPa 0,0 mm 3,3 km/h (1 Bft) SO 136 ° 0 min 0,000 mm 0,7 UV-I 91 W/m² 13,2 °C 14,5 °C 4,8 km/h (1 Bft)
19.08.2017 17:40 14,5 °C 14,5 °C 92 % 1018,0 hPa 0,0 mm 0,9 km/h (0 Bft) SO 136 ° 0 min 0,000 mm 0,7 UV-I 88 W/m² 13,2 °C 14,5 °C 3,2 km/h (1 Bft)
19.08.2017 17:41 14,6 °C 14,6 °C 92 % 1018,0 hPa 0,0 mm 0,0 km/h (0 Bft) SO 136 ° 0 min 0,000 mm 0,8 UV-I 86 W/m² 13,3 °C 14,6 °C 0,0 km/h (0 Bft)
19.08.2017 17:42 14,6 °C 14,6 °C 92 % 1018,0 hPa 0,0 mm 0,0 km/h (0 Bft) SO 136 ° 0 min 0,000 mm 0,8 UV-I 86 W/m² 13,3 °C 14,6 °C 0,0 km/h (0 Bft)
19.08.2017 17:43 14,6 °C 14,6 °C 92 % 1018,0 hPa 0,0 mm 0,2 km/h (0 Bft) SO 136 ° 0 min 0,000 mm 0,7 UV-I 88 W/m² 13,3 °C 14,6 °C 1,6 km/h (1 Bft)
19.08.2017 17:44 14,6 °C 14,6 °C 92 % 1018,0 hPa 0,0 mm 1,1 km/h (1 Bft) SO 136 ° 0 min 0,000 mm 0,7 UV-I 90 W/m² 13,3 °C 14,6 °C 3,2 km/h (1 Bft)
19.08.2017 17:45 14,6 °C 14,6 °C 93 % 1018,0 hPa 0,0 mm 2,1 km/h (1 Bft) SO 136 ° 0 min 0,000 mm 0,7 UV-I 88 W/m² 13,5 °C 14,6 °C 3,2 km/h (1 Bft)
19.08.2017 17:46 14,6 °C 14,6 °C 92 % 1018,0 hPa 0,0 mm 1,3 km/h (1 Bft) SO 136 ° 0 min 0,000 mm 0,6 UV-I 77 W/m² 13,3 °C 14,6 °C 3,2 km/h (1 Bft)
19.08.2017 17:47 14,6 °C 14,6 °C 93 % 1018,1 hPa 0,0 mm 0,4 km/h (0 Bft) SO 136 ° 0 min 0,000 mm 0,6 UV-I 76 W/m² 13,5 °C 14,6 °C 1,6 km/h (1 Bft)
19.08.2017 17:48 14,4 °C 14,6 °C 92 % 1018,0 hPa 0,0 mm 0,0 km/h (0 Bft) SO 136 ° 0 min 0,000 mm 0,6 UV-I 77 W/m² 13,1 °C 14,4 °C 0,0 km/h (0 Bft)
19.08.2017 17:49 14,4 °C 14,5 °C 92 % 1018,0 hPa 0,0 mm 0,0 km/h (0 Bft) SO 136 ° 0 min 0,000 mm 0,6 UV-I 79 W/m² 13,1 °C 14,4 °C 0,0 km/h (0 Bft)
19.08.2017 17:50 14,3 °C 14,4 °C 92 % 1018,1 hPa 0,0 mm 1,9 km/h (1 Bft) SO 124 ° 0 min 0,000 mm 0,6 UV-I 86 W/m² 13,0 °C 14,3 °C 4,8 km/h (1 Bft)
19.08.2017 17:51 14,4 °C 14,4 °C 92 % 1018,1 hPa 0,0 mm 0,3 km/h (0 Bft) SO 124 ° 0 min 0,000 mm 0,7 UV-I 97 W/m² 13,1 °C 14,4 °C 1,6 km/h (1 Bft)
19.08.2017 17:52 14,3 °C 14,4 °C 92 % 1018,0 hPa 0,0 mm 0,4 km/h (0 Bft) SO 124 ° 0 min 0,000 mm 0,7 UV-I 111 W/m² 13,0 °C 14,3 °C 1,6 km/h (1 Bft)
19.08.2017 17:53 14,3 °C 14,4 °C 92 % 1018,1 hPa 0,0 mm 0,0 km/h (0 Bft) SO 124 ° 0 min 0,000 mm 0,7 UV-I 111 W/m² 13,0 °C 14,3 °C 0,0 km/h (0 Bft)
19.08.2017 17:54 14,4 °C 14,4 °C 92 % 1018,1 hPa 0,0 mm 0,0 km/h (0 Bft) SO 124 ° 0 min 0,000 mm 0,8 UV-I 111 W/m² 13,1 °C 14,4 °C 0,0 km/h (0 Bft)
19.08.2017 17:55 14,3 °C 14,4 °C 92 % 1018,0 hPa 0,0 mm 0,2 km/h (0 Bft) SO 124 ° 0 min 0,000 mm 0,8 UV-I 120 W/m² 13,0 °C 14,3 °C 1,6 km/h (1 Bft)
19.08.2017 17:56 14,3 °C 14,3 °C 91 % 1018,0 hPa 0,0 mm 0,5 km/h (0 Bft) SO 124 ° 0 min 0,000 mm 0,9 UV-I 144 W/m² 12,8 °C 14,3 °C 1,6 km/h (1 Bft)
19.08.2017 17:57 14,4 °C 14,4 °C 92 % 1017,9 hPa 0,0 mm 1,5 km/h (1 Bft) SO 124 ° 0 min 0,000 mm 1,0 UV-I 167 W/m² 13,1 °C 14,4 °C 3,2 km/h (1 Bft)
19.08.2017 17:58 14,4 °C 14,4 °C 92 % 1017,9 hPa 0,0 mm 0,1 km/h (0 Bft) SO 124 ° 0 min 0,000 mm 1,1 UV-I 214 W/m² 13,1 °C 14,4 °C 1,6 km/h (1 Bft)
19.08.2017 17:59 14,4 °C 14,4 °C 92 % 1017,9 hPa 0,0 mm 0,6 km/h (0 Bft) SO 124 ° 0 min 0,000 mm 1,2 UV-I 221 W/m² 13,1 °C 14,4 °C 1,6 km/h (1 Bft)
19.08.2017 18:00 14,6 °C 14,6 °C 93 % 1017,9 hPa 0,0 mm 2,7 km/h (1 Bft) O-SO 123 ° 0 min 0,076 mm 1,1 UV-I 211 W/m² 13,5 °C 14,6 °C 4,8 km/h (1 Bft)
19.08.2017 18:01 14,7 °C 14,7 °C 93 % 1017,9 hPa 0,0 mm 1,5 km/h (1 Bft) O-SO 123 ° 0 min 0,000 mm 1,1 UV-I 206 W/m² 13,6 °C 14,7 °C 3,2 km/h (1 Bft)
19.08.2017 18:02 14,7 °C 14,7 °C 93 % 1017,9 hPa 0,0 mm 0,0 km/h (0 Bft) O-SO 123 ° 0 min 0,000 mm 1,1 UV-I 207 W/m² 13,6 °C 14,7 °C 0,0 km/h (0 Bft)
19.08.2017 18:03 14,7 °C 14,7 °C 93 % 1017,9 hPa 0,0 mm 0,4 km/h (0 Bft) O-SO 115 ° 0 min 0,000 mm 1,0 UV-I 202 W/m² 13,6 °C 14,7 °C 3,2 km/h (1 Bft)
19.08.2017 18:04 14,7 °C 14,7 °C 92 % 1017,9 hPa 0,0 mm 1,9 km/h (1 Bft) O 83 ° 0 min 0,000 mm 0,9 UV-I 174 W/m² 13,4 °C 14,7 °C 4,8 km/h (1 Bft)
19.08.2017 18:05 14,8 °C 14,8 °C 92 % 1017,9 hPa 0,0 mm 1,7 km/h (1 Bft) O 83 ° 0 min 0,000 mm 0,6 UV-I 139 W/m² 13,5 °C 14,8 °C 3,2 km/h (1 Bft)
19.08.2017 18:06 14,8 °C 14,8 °C 92 % 1018,0 hPa 0,0 mm 3,3 km/h (1 Bft) SO 146 ° 0 min 0,000 mm 0,5 UV-I 105 W/m² 13,5 °C 14,8 °C 4,8 km/h (1 Bft)
19.08.2017 18:07 14,8 °C 14,8 °C 92 % 1018,0 hPa 0,0 mm 4,3 km/h (1 Bft) O-SO 113 ° 0 min 0,000 mm 0,5 UV-I 91 W/m² 13,5 °C 14,8 °C 6,4 km/h (2 Bft)
19.08.2017 18:08 14,7 °C 14,8 °C 91 % 1018,0 hPa 0,0 mm 3,2 km/h (1 Bft) O-SO 112 ° 0 min 0,000 mm 0,5 UV-I 90 W/m² 13,2 °C 14,7 °C 4,8 km/h (1 Bft)
19.08.2017 18:09 14,8 °C 14,8 °C 92 % 1018,1 hPa 0,0 mm 1,5 km/h (1 Bft) O-SO 112 ° 0 min 0,000 mm 0,5 UV-I 98 W/m² 13,5 °C 14,8 °C 4,8 km/h (1 Bft)
19.08.2017 18:10 14,8 °C 14,8 °C 92 % 1018,1 hPa 0,0 mm 0,1 km/h (0 Bft) O-SO 112 ° 0 min 0,000 mm 0,5 UV-I 98 W/m² 13,5 °C 14,8 °C 1,6 km/h (1 Bft)
19.08.2017 18:11 14,7 °C 14,8 °C 93 % 1018,0 hPa 0,0 mm 2,2 km/h (1 Bft) SO 134 ° 0 min 0,000 mm 0,0 UV-I 95 W/m² 13,6 °C 14,7 °C 4,8 km/h (1 Bft)
19.08.2017 18:12 14,7 °C 14,7 °C 93 % 1018,0 hPa 0,0 mm 0,9 km/h (0 Bft) SO 134 ° 0 min 0,000 mm 0,0 UV-I 91 W/m² 13,6 °C 14,7 °C 3,2 km/h (1 Bft)
19.08.2017 18:13 14,6 °C 14,7 °C 92 % 1018,0 hPa 0,0 mm 0,0 km/h (0 Bft) SO 134 ° 0 min 0,000 mm 0,0 UV-I 90 W/m² 13,3 °C 14,6 °C 0,0 km/h (0 Bft)
19.08.2017 18:14 14,4 °C 14,6 °C 92 % 1018,0 hPa 0,0 mm 0,0 km/h (0 Bft) SO 134 ° 0 min 0,000 mm 0,0 UV-I 88 W/m² 13,1 °C 14,4 °C 0,0 km/h (0 Bft)
19.08.2017 18:15 14,5 °C 14,5 °C 92 % 1018,0 hPa 0,0 mm 0,0 km/h (0 Bft) SO 134 ° 0 min 0,000 mm 0,0 UV-I 88 W/m² 13,2 °C 14,5 °C 0,0 km/h (0 Bft)
19.08.2017 18:16 14,4 °C 14,5 °C 92 % 1018,0 hPa 0,0 mm 0,0 km/h (0 Bft) SO 134 ° 0 min 0,000 mm 0,0 UV-I 84 W/m² 13,1 °C 14,4 °C 0,0 km/h (0 Bft)
19.08.2017 18:17 14,4 °C 14,4 °C 92 % 1018,0 hPa 0,0 mm 0,4 km/h (0 Bft) SO 134 ° 0 min 0,000 mm 0,0 UV-I 79 W/m² 13,1 °C 14,4 °C 3,2 km/h (1 Bft)
19.08.2017 18:18 14,4 °C 14,4 °C 92 % 1018,0 hPa 0,0 mm 0,6 km/h (0 Bft) SO 134 ° 0 min 0,000 mm 0,0 UV-I 74 W/m² 13,1 °C 14,4 °C 1,6 km/h (1 Bft)
19.08.2017 18:19 14,4 °C 14,4 °C 91 % 1018,0 hPa 0,0 mm 0,0 km/h (0 Bft) SO 134 ° 0 min 0,000 mm 0,0 UV-I 67 W/m² 12,9 °C 14,4 °C 0,0 km/h (0 Bft)
19.08.2017 18:20 14,4 °C 14,4 °C 92 % 1018,0 hPa 0,0 mm 0,0 km/h (0 Bft) SO 134 ° 0 min 0,000 mm 0,0 UV-I 62 W/m² 13,1 °C 14,4 °C 0,0 km/h (0 Bft)
19.08.2017 18:21 14,4 °C 14,4 °C 92 % 1018,0 hPa 0,0 mm 0,0 km/h (0 Bft) SO 134 ° 0 min 0,000 mm 0,0 UV-I 51 W/m² 13,1 °C 14,4 °C 0,0 km/h (0 Bft)
19.08.2017 18:22 14,4 °C 14,4 °C 92 % 1018,0 hPa 0,0 mm 1,3 km/h (1 Bft) SO 134 ° 0 min 0,000 mm 0,0 UV-I 47 W/m² 13,1 °C 14,4 °C 3,2 km/h (1 Bft)
19.08.2017 18:23 14,4 °C 14,4 °C 93 % 1018,0 hPa 0,0 mm 0,9 km/h (0 Bft) SO 134 ° 0 min 0,000 mm 0,0 UV-I 46 W/m² 13,3 °C 14,4 °C 3,2 km/h (1 Bft)
19.08.2017 18:24 14,4 °C 14,4 °C 93 % 1018,0 hPa 0,0 mm 0,1 km/h (0 Bft) SO 134 ° 0 min 0,000 mm 0,0 UV-I 44 W/m² 13,3 °C 14,4 °C 1,6 km/h (1 Bft)
19.08.2017 18:25 14,3 °C 14,4 °C 93 % 1018,1 hPa 0,0 mm 0,0 km/h (0 Bft) SO 134 ° 0 min 0,000 mm 0,0 UV-I 40 W/m² 13,2 °C 14,3 °C 0,0 km/h (0 Bft)
19.08.2017 18:26 14,3 °C 14,3 °C 93 % 1018,2 hPa 0,0 mm 0,0 km/h (0 Bft) SO 134 ° 0 min 0,000 mm 0,0 UV-I 37 W/m² 13,2 °C 14,3 °C 0,0 km/h (0 Bft)
19.08.2017 18:27 14,2 °C 14,3 °C 93 % 1018,1 hPa 0,0 mm 0,0 km/h (0 Bft) SO 134 ° 0 min 0,000 mm 0,0 UV-I 35 W/m² 13,1 °C 14,2 °C 0,0 km/h (0 Bft)
19.08.2017 18:28 14,2 °C 14,2 °C 93 % 1018,1 hPa 0,0 mm 0,0 km/h (0 Bft) SO 134 ° 0 min 0,000 mm 0,0 UV-I 35 W/m² 13,1 °C 14,2 °C 0,0 km/h (0 Bft)
19.08.2017 18:29 14,1 °C 14,2 °C 93 % 1018,1 hPa 0,0 mm 0,0 km/h (0 Bft) SO 134 ° 0 min 0,000 mm 0,0 UV-I 35 W/m² 13,0 °C 14,1 °C 0,0 km/h (0 Bft)
19.08.2017 18:30 14,0 °C 14,1 °C 93 % 1018,0 hPa 0,0 mm 0,0 km/h (0 Bft) SO 134 ° 0 min 0,000 mm 0,0 UV-I 35 W/m² 12,9 °C 14,0 °C 0,0 km/h (0 Bft)
19.08.2017 18:31 14,1 °C 14,1 °C 93 % 1018,1 hPa 0,0 mm 0,0 km/h (0 Bft) SO 134 ° 0 min 0,000 mm 0,0 UV-I 33 W/m² 13,0 °C 14,1 °C 0,0 km/h (0 Bft)
19.08.2017 18:32 14,0 °C 14,1 °C 93 % 1018,0 hPa 0,0 mm 0,0 km/h (0 Bft) SO 134 ° 0 min 0,000 mm 0,0 UV-I 32 W/m² 12,9 °C 14,0 °C 0,0 km/h (0 Bft)
19.08.2017 18:33 14,0 °C 14,1 °C 93 % 1018,0 hPa 0,0 mm 1,2 km/h (1 Bft) SO 134 ° 0 min 0,000 mm 0,0 UV-I 26 W/m² 12,9 °C 14,0 °C 3,2 km/h (1 Bft)
19.08.2017 18:34 14,0 °C 14,0 °C 94 % 1018,1 hPa 0,0 mm 1,6 km/h (1 Bft) SO 134 ° 0 min 0,000 mm 0,0 UV-I 25 W/m² 13,0 °C 14,0 °C 3,2 km/h (1 Bft)
19.08.2017 18:35 14,0 °C 14,0 °C 93 % 1018,0 hPa 0,0 mm 2,6 km/h (1 Bft) SO 128 ° 0 min 0,000 mm 0,0 UV-I 23 W/m² 12,9 °C 14,0 °C 4,8 km/h (1 Bft)
19.08.2017 18:36 14,0 °C 14,0 °C 93 % 1018,0 hPa 0,0 mm 3,1 km/h (1 Bft) SO 128 ° 0 min 0,000 mm 0,0 UV-I 21 W/m² 12,9 °C 14,0 °C 4,8 km/h (1 Bft)
19.08.2017 18:38 13,9 °C 14,0 °C 93 % 1018,0 hPa 0,0 mm 0,7 km/h (0 Bft) SO 128 ° 0 min 0,000 mm 0,0 UV-I 25 W/m² 12,8 °C 13,9 °C 4,8 km/h (1 Bft)
19.08.2017 18:39 13,9 °C 13,9 °C 93 % 1018,0 hPa 0,0 mm 0,0 km/h (0 Bft) SO 128 ° 0 min 0,000 mm 0,0 UV-I 26 W/m² 12,8 °C 13,9 °C 0,0 km/h (0 Bft)
19.08.2017 18:40 13,8 °C 13,9 °C 93 % 1018,0 hPa 0,0 mm 0,0 km/h (0 Bft) SO 128 ° 0 min 0,000 mm 0,0 UV-I 30 W/m² 12,7 °C 13,8 °C 0,0 km/h (0 Bft)
19.08.2017 18:41 13,7 °C 13,8 °C 93 % 1018,0 hPa 0,0 mm 0,0 km/h (0 Bft) SO 128 ° 0 min 0,000 mm 0,0 UV-I 30 W/m² 12,6 °C 13,7 °C 0,0 km/h (0 Bft)
19.08.2017 18:42 13,7 °C 13,7 °C 93 % 1018,0 hPa 0,0 mm 0,0 km/h (0 Bft) SO 128 ° 0 min 0,000 mm 0,0 UV-I 30 W/m² 12,6 °C 13,7 °C 0,0 km/h (0 Bft)
19.08.2017 18:43 13,6 °C 13,7 °C 93 % 1018,0 hPa 0,0 mm 0,0 km/h (0 Bft) SO 128 ° 0 min 0,000 mm 0,0 UV-I 28 W/m² 12,5 °C 13,6 °C 0,0 km/h (0 Bft)
19.08.2017 18:44 13,6 °C 13,6 °C 93 % 1018,0 hPa 0,0 mm 0,0 km/h (0 Bft) SO 128 ° 0 min 0,000 mm 0,0 UV-I 28 W/m² 12,5 °C 13,6 °C 0,0 km/h (0 Bft)
19.08.2017 18:45 13,6 °C 13,6 °C 93 % 1018,1 hPa 0,0 mm 0,0 km/h (0 Bft) SO 128 ° 0 min 0,000 mm 0,0 UV-I 33 W/m² 12,5 °C 13,6 °C 0,0 km/h (0 Bft)
19.08.2017 18:46 13,6 °C 13,6 °C 93 % 1018,1 hPa 0,0 mm 0,0 km/h (0 Bft) SO 128 ° 0 min 0,000 mm 0,0 UV-I 35 W/m² 12,5 °C 13,6 °C 0,0 km/h (0 Bft)
19.08.2017 18:47 13,6 °C 13,6 °C 93 % 1018,2 hPa 0,0 mm 0,0 km/h (0 Bft) SO 128 ° 0 min 0,000 mm 0,0 UV-I 40 W/m² 12,5 °C 13,6 °C 0,0 km/h (0 Bft)
19.08.2017 18:48 13,5 °C 13,6 °C 94 % 1018,1 hPa 0,0 mm 0,0 km/h (0 Bft) SO 128 ° 0 min 0,000 mm 0,0 UV-I 46 W/m² 12,6 °C 13,5 °C 0,0 km/h (0 Bft)
19.08.2017 18:49 13,6 °C 13,6 °C 94 % 1018,2 hPa 0,0 mm 0,0 km/h (0 Bft) SO 128 ° 0 min 0,000 mm 0,0 UV-I 51 W/m² 12,7 °C 13,6 °C 0,0 km/h (0 Bft)
19.08.2017 18:50 13,6 °C 13,6 °C 94 % 1018,1 hPa 0,0 mm 0,0 km/h (0 Bft) SO 128 ° 0 min 0,000 mm 0,0 UV-I 63 W/m² 12,7 °C 13,6 °C 0,0 km/h (0 Bft)
19.08.2017 18:51 13,6 °C 13,6 °C 94 % 1018,1 hPa 0,0 mm 0,0 km/h (0 Bft) SO 128 ° 0 min 0,000 mm 0,0 UV-I 70 W/m² 12,7 °C 13,6 °C 0,0 km/h (0 Bft)
19.08.2017 18:52 13,5 °C 13,6 °C 94 % 1018,0 hPa 0,0 mm 0,0 km/h (0 Bft) SO 128 ° 0 min 0,000 mm 0,0 UV-I 79 W/m² 12,6 °C 13,5 °C 0,0 km/h (0 Bft)
19.08.2017 18:53 13,6 °C 13,6 °C 94 % 1018,0 hPa 0,0 mm 0,0 km/h (0 Bft) SO 128 ° 0 min 0,000 mm 0,0 UV-I 88 W/m² 12,7 °C 13,6 °C 0,0 km/h (0 Bft)
19.08.2017 18:54 13,6 °C 13,6 °C 94 % 1018,1 hPa 0,0 mm 0,0 km/h (0 Bft) SO 128 ° 0 min 0,000 mm 0,0 UV-I 97 W/m² 12,7 °C 13,6 °C 0,0 km/h (0 Bft)
19.08.2017 18:55 13,6 °C 13,6 °C 94 % 1018,2 hPa 0,0 mm 0,0 km/h (0 Bft) SO 128 ° 0 min 0,000 mm 0,0 UV-I 102 W/m² 12,7 °C 13,6 °C 0,0 km/h (0 Bft)
19.08.2017 18:56 13,6 °C 13,6 °C 94 % 1018,1 hPa 0,0 mm 0,0 km/h (0 Bft) SO 128 ° 0 min 0,000 mm 0,0 UV-I 102 W/m² 12,7 °C 13,6 °C 0,0 km/h (0 Bft)
19.08.2017 18:57 13,6 °C 13,6 °C 94 % 1018,2 hPa 0,0 mm 0,0 km/h (0 Bft) SO 128 ° 0 min 0,000 mm 0,0 UV-I 100 W/m² 12,7 °C 13,6 °C 0,0 km/h (0 Bft)
19.08.2017 18:58 13,7 °C 13,7 °C 94 % 1018,2 hPa 0,0 mm 0,0 km/h (0 Bft) SO 128 ° 0 min 0,000 mm 0,0 UV-I 98 W/m² 12,8 °C 13,7 °C 0,0 km/h (0 Bft)
19.08.2017 18:59 13,7 °C 13,7 °C 94 % 1018,3 hPa 0,0 mm 0,0 km/h (0 Bft) SO 128 ° 0 min 0,000 mm 0,0 UV-I 98 W/m² 12,8 °C 13,7 °C 0,0 km/h (0 Bft)
19.08.2017 19:00 13,7 °C 13,7 °C 94 % 1018,2 hPa 0,0 mm 0,0 km/h (0 Bft) SO 128 ° 0 min 0,026 mm 0,0 UV-I 93 W/m² 12,8 °C 13,7 °C 0,0 km/h (0 Bft)
19.08.2017 19:01 13,8 °C 13,8 °C 94 % 1018,3 hPa 0,0 mm 0,0 km/h (0 Bft) SO 128 ° 0 min 0,000 mm 0,0 UV-I 84 W/m² 12,9 °C 13,8 °C 0,0 km/h (0 Bft)
19.08.2017 19:02 13,8 °C 13,8 °C 94 % 1018,2 hPa 0,0 mm 0,0 km/h (0 Bft) SO 128 ° 0 min 0,000 mm 0,0 UV-I 72 W/m² 12,9 °C 13,8 °C 0,0 km/h (0 Bft)
19.08.2017 19:03 13,8 °C 13,8 °C 94 % 1018,2 hPa 0,0 mm 0,0 km/h (0 Bft) SO 128 ° 0 min 0,000 mm 0,0 UV-I 63 W/m² 12,9 °C 13,8 °C 0,0 km/h (0 Bft)
19.08.2017 19:04 13,8 °C 13,8 °C 94 % 1018,2 hPa 0,0 mm 0,0 km/h (0 Bft) SO 128 ° 0 min 0,000 mm 0,0 UV-I 56 W/m² 12,9 °C 13,8 °C 0,0 km/h (0 Bft)
19.08.2017 19:05 13,8 °C 13,8 °C 94 % 1018,2 hPa 0,0 mm 0,0 km/h (0 Bft) SO 128 ° 0 min 0,000 mm 0,0 UV-I 49 W/m² 12,9 °C 13,8 °C 0,0 km/h (0 Bft)
19.08.2017 19:06 13,8 °C 13,9 °C 94 % 1018,2 hPa 0,0 mm 0,0 km/h (0 Bft) SO 128 ° 0 min 0,000 mm 0,0 UV-I 47 W/m² 12,9 °C 13,8 °C 0,0 km/h (0 Bft)
19.08.2017 19:07 13,8 °C 13,9 °C 94 % 1018,2 hPa 0,0 mm 0,0 km/h (0 Bft) SO 128 ° 0 min 0,000 mm 0,0 UV-I 47 W/m² 12,9 °C 13,8 °C 0,0 km/h (0 Bft)
19.08.2017 19:08 13,8 °C 13,9 °C 94 % 1018,2 hPa 0,0 mm 0,0 km/h (0 Bft) SO 128 ° 0 min 0,000 mm 0,0 UV-I 51 W/m² 12,9 °C 13,8 °C 0,0 km/h (0 Bft)
19.08.2017 19:09 13,9 °C 13,9 °C 94 % 1018,2 hPa 0,0 mm 0,0 km/h (0 Bft) SO 128 ° 0 min 0,000 mm 0,0 UV-I 51 W/m² 12,9 °C 13,9 °C 0,0 km/h (0 Bft)
19.08.2017 19:10 13,9 °C 13,9 °C 94 % 1018,2 hPa 0,0 mm 0,0 km/h (0 Bft) SO 128 ° 0 min 0,000 mm 0,0 UV-I 51 W/m² 12,9 °C 13,9 °C 0,0 km/h (0 Bft)
19.08.2017 19:11 13,9 °C 13,9 °C 94 % 1018,2 hPa 0,0 mm 0,0 km/h (0 Bft) SO 128 ° 0 min 0,000 mm 0,0 UV-I 49 W/m² 12,9 °C 13,9 °C 0,0 km/h (0 Bft)
19.08.2017 19:12 13,9 °C 13,9 °C 94 % 1018,2 hPa 0,0 mm 0,0 km/h (0 Bft) SO 128 ° 0 min 0,000 mm 0,0 UV-I 44 W/m² 12,9 °C 13,9 °C 0,0 km/h (0 Bft)
19.08.2017 19:13 13,9 °C 13,9 °C 94 % 1018,2 hPa 0,0 mm 0,0 km/h (0 Bft) SO 128 ° 0 min 0,000 mm 0,0 UV-I 42 W/m² 12,9 °C 13,9 °C 0,0 km/h (0 Bft)
19.08.2017 19:14 13,9 °C 13,9 °C 94 % 1018,2 hPa 0,0 mm 0,0 km/h (0 Bft) SO 128 ° 0 min 0,000 mm 0,0 UV-I 37 W/m² 12,9 °C 13,9 °C 0,0 km/h (0 Bft)
19.08.2017 19:15 13,8 °C 13,9 °C 94 % 1018,2 hPa 0,0 mm 0,0 km/h (0 Bft) SO 128 ° 0 min 0,000 mm 0,0 UV-I 35 W/m² 12,9 °C 13,8 °C 0,0 km/h (0 Bft)
19.08.2017 19:16 13,8 °C 13,8 °C 94 % 1018,2 hPa 0,0 mm 0,0 km/h (0 Bft) SO 128 ° 0 min 0,000 mm 0,0 UV-I 33 W/m² 12,9 °C 13,8 °C 0,0 km/h (0 Bft)
19.08.2017 19:17 13,8 °C 13,8 °C 94 % 1018,1 hPa 0,0 mm 0,0 km/h (0 Bft) SO 128 ° 0 min 0,000 mm 0,0 UV-I 30 W/m² 12,9 °C 13,8 °C 0,0 km/h (0 Bft)
19.08.2017 19:18 13,7 °C 13,8 °C 94 % 1018,2 hPa 0,0 mm 0,0 km/h (0 Bft) SO 128 ° 0 min 0,000 mm 0,0 UV-I 28 W/m² 12,8 °C 13,7 °C 0,0 km/h (0 Bft)
19.08.2017 19:19 13,7 °C 13,7 °C 94 % 1018,2 hPa 0,0 mm 0,0 km/h (0 Bft) SO 128 ° 0 min 0,000 mm 0,0 UV-I 26 W/m² 12,8 °C 13,7 °C 0,0 km/h (0 Bft)
19.08.2017 19:20 13,6 °C 13,7 °C 94 % 1018,2 hPa 0,0 mm 0,0 km/h (0 Bft) SO 128 ° 0 min 0,000 mm 0,0 UV-I 26 W/m² 12,7 °C 13,6 °C 0,0 km/h (0 Bft)
19.08.2017 19:21 13,6 °C 13,6 °C 94 % 1018,2 hPa 0,0 mm 0,0 km/h (0 Bft) SO 128 ° 0 min 0,000 mm 0,0 UV-I 25 W/m² 12,7 °C 13,6 °C 0,0 km/h (0 Bft)
19.08.2017 19:22 13,6 °C 13,6 °C 94 % 1018,2 hPa 0,0 mm 0,0 km/h (0 Bft) SO 128 ° 0 min 0,000 mm 0,0 UV-I 25 W/m² 12,7 °C 13,6 °C 0,0 km/h (0 Bft)
19.08.2017 19:23 13,5 °C 13,6 °C 94 % 1018,3 hPa 0,0 mm 0,0 km/h (0 Bft) SO 128 ° 0 min 0,000 mm 0,0 UV-I 26 W/m² 12,6 °C 13,5 °C 0,0 km/h (0 Bft)
19.08.2017 19:24 13,5 °C 13,5 °C 94 % 1018,3 hPa 0,0 mm 0,0 km/h (0 Bft) SO 128 ° 0 min 0,000 mm 0,0 UV-I 26 W/m² 12,6 °C 13,5 °C 0,0 km/h (0 Bft)
19.08.2017 19:25 13,4 °C 13,5 °C 94 % 1018,3 hPa 0,0 mm 0,0 km/h (0 Bft) SO 128 ° 0 min 0,000 mm 0,0 UV-I 28 W/m² 12,5 °C 13,4 °C 0,0 km/h (0 Bft)
19.08.2017 19:26 13,4 °C 13,4 °C 94 % 1018,3 hPa 0,0 mm 0,0 km/h (0 Bft) SO 128 ° 0 min 0,000 mm 0,0 UV-I 33 W/m² 12,5 °C 13,4 °C 0,0 km/h (0 Bft)
19.08.2017 19:27 13,4 °C 13,4 °C 94 % 1018,3 hPa 0,0 mm 0,0 km/h (0 Bft) SO 128 ° 0 min 0,000 mm 0,0 UV-I 37 W/m² 12,5 °C 13,4 °C 0,0 km/h (0 Bft)
19.08.2017 19:28 13,3 °C 13,4 °C 94 % 1018,2 hPa 0,0 mm 0,0 km/h (0 Bft) SO 128 ° 0 min 0,000 mm 0,0 UV-I 56 W/m² 12,4 °C 13,3 °C 0,0 km/h (0 Bft)
19.08.2017 19:29 13,3 °C 13,3 °C 94 % 1018,2 hPa 0,0 mm 0,0 km/h (0 Bft) SO 128 ° 0 min 0,000 mm 0,0 UV-I 63 W/m² 12,4 °C 13,3 °C 0,0 km/h (0 Bft)
19.08.2017 19:30 13,3 °C 13,4 °C 94 % 1018,2 hPa 0,0 mm 0,0 km/h (0 Bft) SO 128 ° 0 min 0,000 mm 0,0 UV-I 63 W/m² 12,4 °C 13,3 °C 0,0 km/h (0 Bft)
19.08.2017 19:31 13,4 °C 13,4 °C 94 % 1018,2 hPa 0,0 mm 0,0 km/h (0 Bft) SO 128 ° 0 min 0,000 mm 0,0 UV-I 42 W/m² 12,5 °C 13,4 °C 0,0 km/h (0 Bft)
19.08.2017 19:32 13,4 °C 13,4 °C 94 % 1018,3 hPa 0,0 mm 0,0 km/h (0 Bft) SO 128 ° 0 min 0,000 mm 0,0 UV-I 40 W/m² 12,5 °C 13,4 °C 0,0 km/h (0 Bft)
19.08.2017 19:33 13,4 °C 13,4 °C 94 % 1018,3 hPa 0,0 mm 0,0 km/h (0 Bft) SO 128 ° 0 min 0,000 mm 0,0 UV-I 40 W/m² 12,5 °C 13,4 °C 0,0 km/h (0 Bft)
19.08.2017 19:34 13,4 °C 13,4 °C 94 % 1018,3 hPa 0,0 mm 0,0 km/h (0 Bft) SO 128 ° 0 min 0,000 mm 0,0 UV-I 40 W/m² 12,5 °C 13,4 °C 0,0 km/h (0 Bft)
19.08.2017 19:35 13,4 °C 13,4 °C 94 % 1018,3 hPa 0,0 mm 0,0 km/h (0 Bft) SO 128 ° 0 min 0,000 mm 0,0 UV-I 40 W/m² 12,5 °C 13,4 °C 0,0 km/h (0 Bft)
19.08.2017 19:36 13,4 °C 13,4 °C 94 % 1018,4 hPa 0,0 mm 0,0 km/h (0 Bft) SO 128 ° 0 min 0,000 mm 0,0 UV-I 40 W/m² 12,5 °C 13,4 °C 0,0 km/h (0 Bft)
19.08.2017 19:37 13,4 °C 13,4 °C 94 % 1018,4 hPa 0,0 mm 0,0 km/h (0 Bft) SO 128 ° 0 min 0,000 mm 0,0 UV-I 44 W/m² 12,5 °C 13,4 °C 0,0 km/h (0 Bft)
19.08.2017 19:38 13,4 °C 13,4 °C 94 % 1018,4 hPa 0,0 mm 0,0 km/h (0 Bft) SO 128 ° 0 min 0,000 mm 0,0 UV-I 46 W/m² 12,5 °C 13,4 °C 0,0 km/h (0 Bft)
19.08.2017 19:39 13,4 °C 13,4 °C 94 % 1018,4 hPa 0,0 mm 0,0 km/h (0 Bft) SO 128 ° 0 min 0,000 mm 0,0 UV-I 49 W/m² 12,5 °C 13,4 °C 0,0 km/h (0 Bft)
19.08.2017 19:40 13,4 °C 13,4 °C 94 % 1018,5 hPa 0,0 mm 0,0 km/h (0 Bft) SO 128 ° 0 min 0,000 mm 0,0 UV-I 40 W/m² 12,5 °C 13,4 °C 0,0 km/h (0 Bft)
19.08.2017 19:41 13,4 °C 13,4 °C 94 % 1018,4 hPa 0,0 mm 0,0 km/h (0 Bft) SO 128 ° 0 min 0,000 mm 0,0 UV-I 39 W/m² 12,5 °C 13,4 °C 0,0 km/h (0 Bft)
19.08.2017 19:42 13,4 °C 13,4 °C 95 % 1018,4 hPa 0,0 mm 0,0 km/h (0 Bft) SO 128 ° 0 min 0,000 mm 0,0 UV-I 40 W/m² 12,6 °C 13,4 °C 0,0 km/h (0 Bft)
19.08.2017 19:43 13,5 °C 13,5 °C 95 % 1018,4 hPa 0,0 mm 0,0 km/h (0 Bft) SO 128 ° 0 min 0,000 mm 0,0 UV-I 39 W/m² 12,7 °C 13,5 °C 0,0 km/h (0 Bft)
19.08.2017 19:44 13,5 °C 13,5 °C 95 % 1018,4 hPa 0,0 mm 0,0 km/h (0 Bft) SO 128 ° 0 min 0,000 mm 0,0 UV-I 40 W/m² 12,7 °C 13,5 °C 0,0 km/h (0 Bft)
19.08.2017 19:45 13,5 °C 13,5 °C 95 % 1018,4 hPa 0,0 mm 0,0 km/h (0 Bft) SO 128 ° 0 min 0,000 mm 0,0 UV-I 40 W/m² 12,7 °C 13,5 °C 0,0 km/h (0 Bft)
19.08.2017 19:46 13,6 °C 13,6 °C 95 % 1018,4 hPa 0,0 mm 0,0 km/h (0 Bft) SO 128 ° 0 min 0,000 mm 0,0 UV-I 40 W/m² 12,8 °C 13,6 °C 0,0 km/h (0 Bft)
19.08.2017 19:47 13,6 °C 13,6 °C 95 % 1018,4 hPa 0,0 mm 0,0 km/h (0 Bft) SO 128 ° 0 min 0,000 mm 0,0 UV-I 40 W/m² 12,8 °C 13,6 °C 0,0 km/h (0 Bft)
19.08.2017 19:48 13,6 °C 13,6 °C 95 % 1018,5 hPa 0,0 mm 0,0 km/h (0 Bft) SO 128 ° 0 min 0,000 mm 0,0 UV-I 40 W/m² 12,8 °C 13,6 °C 0,0 km/h (0 Bft)
19.08.2017 19:49 13,6 °C 13,6 °C 94 % 1018,5 hPa 0,0 mm 0,0 km/h (0 Bft) SO 128 ° 0 min 0,000 mm 0,0 UV-I 40 W/m² 12,7 °C 13,6 °C 0,0 km/h (0 Bft)
19.08.2017 19:50 13,6 °C 13,6 °C 94 % 1018,6 hPa 0,0 mm 0,0 km/h (0 Bft) SO 128 ° 0 min 0,000 mm 0,0 UV-I 40 W/m² 12,7 °C 13,6 °C 0,0 km/h (0 Bft)
19.08.2017 19:51 13,5 °C 13,6 °C 94 % 1018,6 hPa 0,0 mm 0,0 km/h (0 Bft) SO 128 ° 0 min 0,000 mm 0,0 UV-I 39 W/m² 12,6 °C 13,5 °C 0,0 km/h (0 Bft)
19.08.2017 19:52 13,5 °C 13,5 °C 94 % 1018,8 hPa 0,0 mm 0,0 km/h (0 Bft) SO 128 ° 0 min 0,000 mm 0,0 UV-I 39 W/m² 12,6 °C 13,5 °C 0,0 km/h (0 Bft)
19.08.2017 19:53 13,5 °C 13,5 °C 94 % 1018,8 hPa 0,0 mm 0,0 km/h (0 Bft) SO 128 ° 0 min 0,000 mm 0,0 UV-I 39 W/m² 12,6 °C 13,5 °C 0,0 km/h (0 Bft)
19.08.2017 19:54 13,6 °C 13,6 °C 94 % 1018,8 hPa 0,0 mm 0,0 km/h (0 Bft) SO 128 ° 0 min 0,000 mm 0,0 UV-I 37 W/m² 12,7 °C 13,6 °C 0,0 km/h (0 Bft)
19.08.2017 19:55 13,5 °C 13,6 °C 94 % 1018,8 hPa 0,0 mm 0,0 km/h (0 Bft) SO 128 ° 0 min 0,000 mm 0,0 UV-I 32 W/m² 12,6 °C 13,5 °C 0,0 km/h (0 Bft)
19.08.2017 19:56 13,5 °C 13,5 °C 94 % 1018,8 hPa 0,0 mm 0,0 km/h (0 Bft) SO 128 ° 0 min 0,000 mm 0,0 UV-I 26 W/m² 12,6 °C 13,5 °C 0,0 km/h (0 Bft)
19.08.2017 19:57 13,6 °C 13,6 °C 94 % 1018,8 hPa 0,0 mm 0,0 km/h (0 Bft) SO 128 ° 0 min 0,000 mm 0,0 UV-I 25 W/m² 12,7 °C 13,6 °C 0,0 km/h (0 Bft)
19.08.2017 19:58 13,6 °C 13,6 °C 94 % 1018,8 hPa 0,0 mm 0,0 km/h (0 Bft) SO 128 ° 0 min 0,000 mm 0,0 UV-I 21 W/m² 12,7 °C 13,6 °C 0,0 km/h (0 Bft)
19.08.2017 19:59 13,6 °C 13,6 °C 94 % 1018,8 hPa 0,0 mm 0,0 km/h (0 Bft) SO 128 ° 0 min 0,000 mm 0,0 UV-I 21 W/m² 12,7 °C 13,6 °C 0,0 km/h (0 Bft)
19.08.2017 20:00 13,6 °C 13,6 °C 94 % 1018,8 hPa 0,0 mm 0,0 km/h (0 Bft) SO 128 ° 0 min 0,025 mm 0,0 UV-I 21 W/m² 12,7 °C 13,6 °C 0,0 km/h (0 Bft)
19.08.2017 20:01 13,6 °C 13,6 °C 94 % 1018,8 hPa 0,0 mm 0,0 km/h (0 Bft) SO 128 ° 0 min 0,000 mm 0,0 UV-I 21 W/m² 12,7 °C 13,6 °C 0,0 km/h (0 Bft)
19.08.2017 20:02 13,6 °C 13,6 °C 94 % 1018,7 hPa 0,0 mm 0,0 km/h (0 Bft) SO 128 ° 0 min 0,000 mm 0,0 UV-I 21 W/m² 12,7 °C 13,6 °C 0,0 km/h (0 Bft)
19.08.2017 20:03 13,6 °C 13,6 °C 94 % 1018,7 hPa 0,0 mm 0,0 km/h (0 Bft) SO 128 ° 0 min 0,000 mm 0,0 UV-I 23 W/m² 12,7 °C 13,6 °C 0,0 km/h (0 Bft)
19.08.2017 20:04 13,6 °C 13,6 °C 94 % 1018,7 hPa 0,0 mm 0,0 km/h (0 Bft) SO 128 ° 0 min 0,000 mm 0,0 UV-I 23 W/m² 12,7 °C 13,6 °C 0,0 km/h (0 Bft)
19.08.2017 20:05 13,6 °C 13,6 °C 94 % 1018,7 hPa 0,0 mm 0,0 km/h (0 Bft) SO 128 ° 0 min 0,000 mm 0,0 UV-I 23 W/m² 12,7 °C 13,6 °C 0,0 km/h (0 Bft)
19.08.2017 20:06 13,6 °C 13,6 °C 94 % 1018,7 hPa 0,0 mm 0,0 km/h (0 Bft) SO 128 ° 0 min 0,000 mm 0,0 UV-I 19 W/m² 12,7 °C 13,6 °C 0,0 km/h (0 Bft)
19.08.2017 20:07 13,6 °C 13,6 °C 94 % 1018,7 hPa 0,0 mm 0,0 km/h (0 Bft) SO 140 ° 0 min 0,000 mm 0,0 UV-I 18 W/m² 12,7 °C 13,6 °C 0,0 km/h (0 Bft)
19.08.2017 20:08 13,5 °C 13,6 °C 94 % 1018,6 hPa 0,0 mm 0,0 km/h (0 Bft) SO 142 ° 0 min 0,000 mm 0,0 UV-I 18 W/m² 12,6 °C 13,5 °C 0,0 km/h (0 Bft)
19.08.2017 20:09 13,5 °C 13,6 °C 94 % 1018,6 hPa 0,0 mm 0,0 km/h (0 Bft) SO 142 ° 0 min 0,000 mm 0,0 UV-I 16 W/m² 12,6 °C 13,5 °C 0,0 km/h (0 Bft)
19.08.2017 20:10 13,4 °C 13,5 °C 94 % 1018,6 hPa 0,0 mm 0,0 km/h (0 Bft) SO 142 ° 0 min 0,000 mm 0,0 UV-I 14 W/m² 12,5 °C 13,4 °C 0,0 km/h (0 Bft)
19.08.2017 20:11 13,4 °C 13,4 °C 94 % 1018,5 hPa 0,0 mm 0,0 km/h (0 Bft) SO 142 ° 0 min 0,000 mm 0,0 UV-I 14 W/m² 12,5 °C 13,4 °C 0,0 km/h (0 Bft)
19.08.2017 20:12 13,4 °C 13,4 °C 94 % 1018,5 hPa 0,0 mm 0,0 km/h (0 Bft) SO 142 ° 0 min 0,000 mm 0,0 UV-I 12 W/m² 12,5 °C 13,4 °C 0,0 km/h (0 Bft)
19.08.2017 20:14 13,3 °C 13,4 °C 93 % 1018,5 hPa 0,0 mm 0,0 km/h (0 Bft) SO 142 ° 0 min 0,000 mm 0,0 UV-I 9 W/m² 12,2 °C 13,3 °C 0,0 km/h (0 Bft)
19.08.2017 20:15 13,2 °C 13,3 °C 93 % 1018,5 hPa 0,0 mm 0,0 km/h (0 Bft) SO 142 ° 0 min 0,000 mm 0,0 UV-I 9 W/m² 12,1 °C 13,2 °C 0,0 km/h (0 Bft)
19.08.2017 20:16 13,2 °C 13,2 °C 93 % 1018,5 hPa 0,0 mm 0,0 km/h (0 Bft) SO 142 ° 0 min 0,000 mm 0,0 UV-I 9 W/m² 12,1 °C 13,2 °C 0,0 km/h (0 Bft)
19.08.2017 20:17 13,2 °C 13,2 °C 94 % 1018,4 hPa 0,0 mm 0,0 km/h (0 Bft) SO 142 ° 0 min 0,000 mm 0,0 UV-I 5 W/m² 12,3 °C 13,2 °C 0,0 km/h (0 Bft)
19.08.2017 20:18 13,1 °C 13,2 °C 94 % 1018,5 hPa 0,0 mm 0,0 km/h (0 Bft) SO 142 ° 0 min 0,000 mm 0,0 UV-I 0 W/m² 12,2 °C 13,1 °C 0,0 km/h (0 Bft)
19.08.2017 20:19 13,1 °C 13,1 °C 94 % 1018,5 hPa 0,0 mm 0,0 km/h (0 Bft) SO 142 ° 0 min 0,000 mm 0,0 UV-I 0 W/m² 12,2 °C 13,1 °C 0,0 km/h (0 Bft)
19.08.2017 20:20 13,0 °C 13,1 °C 94 % 1018,5 hPa 0,0 mm 0,0 km/h (0 Bft) SO 142 ° 0 min 0,000 mm 0,0 UV-I 0 W/m² 12,1 °C 13,0 °C 0,0 km/h (0 Bft)
19.08.2017 20:21 13,0 °C 13,0 °C 94 % 1018,5 hPa 0,0 mm 0,0 km/h (0 Bft) SO 142 ° 0 min 0,000 mm 0,0 UV-I 0 W/m² 12,1 °C 13,0 °C 0,0 km/h (0 Bft)
19.08.2017 20:22 12,9 °C 13,0 °C 94 % 1018,5 hPa 0,0 mm 0,0 km/h (0 Bft) SO 142 ° 0 min 0,000 mm 0,0 UV-I 0 W/m² 12,0 °C 12,9 °C 0,0 km/h (0 Bft)
19.08.2017 20:23 12,9 °C 13,0 °C 94 % 1018,5 hPa 0,0 mm 0,0 km/h (0 Bft) SO 142 ° 0 min 0,000 mm 0,0 UV-I 0 W/m² 12,0 °C 12,9 °C 0,0 km/h (0 Bft)
19.08.2017 20:24 12,9 °C 12,9 °C 94 % 1018,5 hPa 0,0 mm 0,0 km/h (0 Bft) SO 142 ° 0 min 0,000 mm 0,0 UV-I 0 W/m² 12,0 °C 12,9 °C 0,0 km/h (0 Bft)
19.08.2017 20:25 12,9 °C 12,9 °C 94 % 1018,5 hPa 0,0 mm 0,0 km/h (0 Bft) SO 142 ° 0 min 0,000 mm 0,0 UV-I 0 W/m² 12,0 °C 12,9 °C 0,0 km/h (0 Bft)
19.08.2017 20:26 12,9 °C 12,9 °C 94 % 1018,4 hPa 0,0 mm 0,0 km/h (0 Bft) SO 142 ° 0 min 0,000 mm 0,0 UV-I 0 W/m² 12,0 °C 12,9 °C 0,0 km/h (0 Bft)
19.08.2017 20:27 12,9 °C 12,9 °C 94 % 1018,4 hPa 0,0 mm 0,0 km/h (0 Bft) SO 142 ° 0 min 0,000 mm 0,0 UV-I 0 W/m² 12,0 °C 12,9 °C 0,0 km/h (0 Bft)
19.08.2017 20:28 12,8 °C 12,9 °C 94 % 1018,5 hPa 0,0 mm 0,0 km/h (0 Bft) SO 142 ° 0 min 0,000 mm 0,0 UV-I 0 W/m² 11,9 °C 12,8 °C 0,0 km/h (0 Bft)
19.08.2017 20:29 12,8 °C 12,8 °C 94 % 1018,5 hPa 0,0 mm 0,0 km/h (0 Bft) SO 142 ° 0 min 0,000 mm 0,0 UV-I 0 W/m² 11,9 °C 12,8 °C 0,0 km/h (0 Bft)
19.08.2017 20:30 12,8 °C 12,8 °C 94 % 1018,6 hPa 0,0 mm 0,0 km/h (0 Bft) SO 142 ° 0 min 0,000 mm 0,0 UV-I 0 W/m² 11,9 °C 12,8 °C 0,0 km/h (0 Bft)
19.08.2017 20:31 12,7 °C 12,8 °C 94 % 1018,6 hPa 0,0 mm 0,0 km/h (0 Bft) SO 142 ° 0 min 0,000 mm 0,0 UV-I 0 W/m² 11,8 °C 12,7 °C 0,0 km/h (0 Bft)
19.08.2017 20:32 12,7 °C 12,7 °C 94 % 1018,6 hPa 0,0 mm 0,0 km/h (0 Bft) SO 142 ° 0 min 0,000 mm 0,0 UV-I 0 W/m² 11,8 °C 12,7 °C 0,0 km/h (0 Bft)
19.08.2017 20:33 12,6 °C 12,7 °C 94 % 1018,6 hPa 0,0 mm 0,0 km/h (0 Bft) SO 142 ° 0 min 0,000 mm 0,0 UV-I 0 W/m² 11,7 °C 12,6 °C 0,0 km/h (0 Bft)
19.08.2017 20:34 12,6 °C 12,6 °C 94 % 1018,6 hPa 0,0 mm 0,0 km/h (0 Bft) SO 142 ° 0 min 0,000 mm 0,0 UV-I 0 W/m² 11,7 °C 12,6 °C 0,0 km/h (0 Bft)
19.08.2017 20:35 12,5 °C 12,6 °C 94 % 1018,6 hPa 0,0 mm 0,0 km/h (0 Bft) SO 136 ° 0 min 0,000 mm 0,0 UV-I 0 W/m² 11,6 °C 12,5 °C 0,0 km/h (0 Bft)
19.08.2017 20:36 12,5 °C 12,5 °C 94 % 1018,6 hPa 0,0 mm 3,2 km/h (1 Bft) SO 133 ° 0 min 0,000 mm 0,0 UV-I 0 W/m² 11,6 °C 12,5 °C 4,8 km/h (1 Bft)
19.08.2017 20:37 12,4 °C 12,5 °C 94 % 1018,7 hPa 0,0 mm 0,0 km/h (0 Bft) SO 133 ° 0 min 0,000 mm 0,0 UV-I 0 W/m² 11,5 °C 12,4 °C 0,0 km/h (0 Bft)
19.08.2017 20:38 12,4 °C 12,4 °C 94 % 1018,7 hPa 0,0 mm 0,0 km/h (0 Bft) SO 133 ° 0 min 0,000 mm 0,0 UV-I 0 W/m² 11,5 °C 12,4 °C 0,0 km/h (0 Bft)
19.08.2017 20:39 12,4 °C 12,4 °C 94 % 1018,7 hPa 0,0 mm 0,0 km/h (0 Bft) SO 133 ° 0 min 0,000 mm 0,0 UV-I 0 W/m² 11,5 °C 12,4 °C 0,0 km/h (0 Bft)
19.08.2017 20:40 12,3 °C 12,4 °C 94 % 1018,7 hPa 0,0 mm 0,0 km/h (0 Bft) SO 133 ° 0 min 0,000 mm 0,0 UV-I 0 W/m² 11,4 °C 12,3 °C 0,0 km/h (0 Bft)
19.08.2017 20:41 12,3 °C 12,3 °C 94 % 1018,7 hPa 0,0 mm 1,0 km/h (0 Bft) SO 132 ° 0 min 0,000 mm 0,0 UV-I 0 W/m² 11,4 °C 12,3 °C 3,2 km/h (1 Bft)
19.08.2017 20:42 12,2 °C 12,3 °C 94 % 1018,7 hPa 0,0 mm 0,3 km/h (0 Bft) SO 132 ° 0 min 0,000 mm 0,0 UV-I 0 W/m² 11,3 °C 12,2 °C 1,6 km/h (1 Bft)
19.08.2017 20:43 12,2 °C 12,2 °C 94 % 1018,7 hPa 0,0 mm 0,0 km/h (0 Bft) SO 132 ° 0 min 0,000 mm 0,0 UV-I 0 W/m² 11,3 °C 12,2 °C 0,0 km/h (0 Bft)
19.08.2017 20:44 12,2 °C 12,2 °C 94 % 1018,7 hPa 0,0 mm 0,0 km/h (0 Bft) SO 132 ° 0 min 0,000 mm 0,0 UV-I 0 W/m² 11,3 °C 12,2 °C 0,0 km/h (0 Bft)
19.08.2017 20:45 12,2 °C 12,2 °C 94 % 1018,8 hPa 0,0 mm 0,0 km/h (0 Bft) SO 132 ° 0 min 0,000 mm 0,0 UV-I 0 W/m² 11,3 °C 12,2 °C 0,0 km/h (0 Bft)
19.08.2017 20:46 12,2 °C 12,2 °C 95 % 1018,8 hPa 0,0 mm 0,0 km/h (0 Bft) SO 132 ° 0 min 0,000 mm 0,0 UV-I 0 W/m² 11,4 °C 12,2 °C 0,0 km/h (0 Bft)
19.08.2017 20:47 12,2 °C 12,2 °C 95 % 1018,8 hPa 0,0 mm 0,0 km/h (0 Bft) SO 132 ° 0 min 0,000 mm 0,0 UV-I 0 W/m² 11,4 °C 12,2 °C 0,0 km/h (0 Bft)
19.08.2017 20:48 12,1 °C 12,2 °C 94 % 1018,8 hPa 0,0 mm 0,0 km/h (0 Bft) SO 132 ° 0 min 0,000 mm 0,0 UV-I 0 W/m² 11,2 °C 12,1 °C 0,0 km/h (0 Bft)
19.08.2017 20:49 12,1 °C 12,1 °C 95 % 1018,8 hPa 0,0 mm 0,0 km/h (0 Bft) SO 132 ° 0 min 0,000 mm 0,0 UV-I 0 W/m² 11,3 °C 12,1 °C 0,0 km/h (0 Bft)
19.08.2017 20:50 12,1 °C 12,1 °C 95 % 1018,8 hPa 0,0 mm 0,0 km/h (0 Bft) SO 132 ° 0 min 0,000 mm 0,0 UV-I 0 W/m² 11,3 °C 12,1 °C 0,0 km/h (0 Bft)
19.08.2017 20:51 12,1 °C 12,1 °C 95 % 1018,8 hPa 0,0 mm 0,0 km/h (0 Bft) SO 132 ° 0 min 0,000 mm 0,0 UV-I 0 W/m² 11,3 °C 12,1 °C 0,0 km/h (0 Bft)
19.08.2017 20:52 12,1 °C 12,1 °C 95 % 1018,8 hPa 0,0 mm 0,0 km/h (0 Bft) SO 132 ° 0 min 0,000 mm 0,0 UV-I 0 W/m² 11,3 °C 12,1 °C 0,0 km/h (0 Bft)
19.08.2017 20:53 12,1 °C 12,1 °C 95 % 1018,8 hPa 0,0 mm 0,1 km/h (0 Bft) SO 132 ° 0 min 0,000 mm 0,0 UV-I 0 W/m² 11,3 °C 12,1 °C 1,6 km/h (1 Bft)
19.08.2017 20:54 12,1 °C 12,1 °C 95 % 1018,8 hPa 0,0 mm 0,0 km/h (0 Bft) SO 132 ° 0 min 0,000 mm 0,0 UV-I 0 W/m² 11,3 °C 12,1 °C 0,0 km/h (0 Bft)
19.08.2017 20:55 12,1 °C 12,1 °C 95 % 1018,8 hPa 0,0 mm 0,0 km/h (0 Bft) SO 132 ° 0 min 0,000 mm 0,0 UV-I 0 W/m² 11,3 °C 12,1 °C 0,0 km/h (0 Bft)
19.08.2017 20:56 12,1 °C 12,1 °C 95 % 1018,8 hPa 0,0 mm 0,0 km/h (0 Bft) SO 132 ° 0 min 0,000 mm 0,0 UV-I 0 W/m² 11,3 °C 12,1 °C 0,0 km/h (0 Bft)
19.08.2017 20:57 12,1 °C 12,1 °C 95 % 1018,9 hPa 0,0 mm 0,0 km/h (0 Bft) SO 132 ° 0 min 0,000 mm 0,0 UV-I 0 W/m² 11,3 °C 12,1 °C 0,0 km/h (0 Bft)
19.08.2017 20:58 12,1 °C 12,1 °C 95 % 1018,9 hPa 0,0 mm 0,0 km/h (0 Bft) SO 132 ° 0 min 0,000 mm 0,0 UV-I 0 W/m² 11,3 °C 12,1 °C 0,0 km/h (0 Bft)
19.08.2017 20:59 12,0 °C 12,1 °C 95 % 1018,9 hPa 0,0 mm 0,0 km/h (0 Bft) SO 132 ° 0 min 0,000 mm 0,0 UV-I 0 W/m² 11,2 °C 12,0 °C 0,0 km/h (0 Bft)
19.08.2017 21:00 11,9 °C 12,0 °C 95 % 1018,9 hPa 0,0 mm 0,0 km/h (0 Bft) SO 132 ° 0 min 0,000 mm 0,0 UV-I 0 W/m² 11,1 °C 11,9 °C 0,0 km/h (0 Bft)
19.08.2017 21:01 11,9 °C 11,9 °C 94 % 1018,9 hPa 0,0 mm 0,0 km/h (0 Bft) SO 132 ° 0 min 0,000 mm 0,0 UV-I 0 W/m² 11,0 °C 11,9 °C 0,0 km/h (0 Bft)
19.08.2017 21:02 11,8 °C 11,9 °C 94 % 1018,9 hPa 0,0 mm 0,0 km/h (0 Bft) SO 132 ° 0 min 0,000 mm 0,0 UV-I 0 W/m² 10,9 °C 11,8 °C 0,0 km/h (0 Bft)
19.08.2017 21:03 11,8 °C 11,8 °C 95 % 1019,0 hPa 0,0 mm 0,0 km/h (0 Bft) SO 132 ° 0 min 0,000 mm 0,0 UV-I 0 W/m² 11,0 °C 11,8 °C 0,0 km/h (0 Bft)
19.08.2017 21:04 11,8 °C 11,8 °C 95 % 1019,0 hPa 0,0 mm 0,0 km/h (0 Bft) SO 132 ° 0 min 0,000 mm 0,0 UV-I 0 W/m² 11,0 °C 11,8 °C 0,0 km/h (0 Bft)
19.08.2017 21:05 11,8 °C 11,8 °C 95 % 1019,0 hPa 0,0 mm 0,0 km/h (0 Bft) SO 132 ° 0 min 0,000 mm 0,0 UV-I 0 W/m² 11,0 °C 11,8 °C 0,0 km/h (0 Bft)
19.08.2017 21:06 11,7 °C 11,8 °C 95 % 1019,0 hPa 0,0 mm 0,0 km/h (0 Bft) SO 132 ° 0 min 0,000 mm 0,0 UV-I 0 W/m² 10,9 °C 11,7 °C 0,0 km/h (0 Bft)
19.08.2017 21:07 11,7 °C 11,8 °C 95 % 1019,0 hPa 0,0 mm 0,0 km/h (0 Bft) SO 132 ° 0 min 0,000 mm 0,0 UV-I 0 W/m² 10,9 °C 11,7 °C 0,0 km/h (0 Bft)
19.08.2017 21:08 11,7 °C 11,7 °C 95 % 1019,1 hPa 0,0 mm 0,0 km/h (0 Bft) SO 132 ° 0 min 0,000 mm 0,0 UV-I 0 W/m² 10,9 °C 11,7 °C 0,0 km/h (0 Bft)
19.08.2017 21:09 11,7 °C 11,7 °C 95 % 1019,0 hPa 0,0 mm 0,0 km/h (0 Bft) SO 132 ° 0 min 0,000 mm 0,0 UV-I 0 W/m² 10,9 °C 11,7 °C 0,0 km/h (0 Bft)
19.08.2017 21:10 11,7 °C 11,7 °C 95 % 1019,0 hPa 0,0 mm 0,0 km/h (0 Bft) SO 132 ° 0 min 0,000 mm 0,0 UV-I 0 W/m² 10,9 °C 11,7 °C 0,0 km/h (0 Bft)
19.08.2017 21:11 11,7 °C 11,7 °C 95 % 1019,0 hPa 0,0 mm 0,0 km/h (0 Bft) SO 132 ° 0 min 0,000 mm 0,0 UV-I 0 W/m² 10,9 °C 11,7 °C 0,0 km/h (0 Bft)
19.08.2017 21:12 11,7 °C 11,7 °C 95 % 1019,0 hPa 0,0 mm 0,0 km/h (0 Bft) SO 132 ° 0 min 0,000 mm 0,0 UV-I 0 W/m² 10,9 °C 11,7 °C 0,0 km/h (0 Bft)
19.08.2017 21:13 11,7 °C 11,7 °C 95 % 1019,0 hPa 0,0 mm 0,0 km/h (0 Bft) SO 132 ° 0 min 0,000 mm 0,0 UV-I 0 W/m² 10,9 °C 11,7 °C 0,0 km/h (0 Bft)
19.08.2017 21:14 11,6 °C 11,7 °C 95 % 1019,0 hPa 0,0 mm 0,0 km/h (0 Bft) SO 132 ° 0 min 0,000 mm 0,0 UV-I 0 W/m² 10,8 °C 11,6 °C 0,0 km/h (0 Bft)
19.08.2017 21:15 11,6 °C 11,6 °C 95 % 1019,0 hPa 0,0 mm 0,0 km/h (0 Bft) SO 132 ° 0 min 0,000 mm 0,0 UV-I 0 W/m² 10,8 °C 11,6 °C 0,0 km/h (0 Bft)
19.08.2017 21:16 11,6 °C 11,6 °C 95 % 1018,9 hPa 0,0 mm 0,0 km/h (0 Bft) SO 132 ° 0 min 0,000 mm 0,0 UV-I 0 W/m² 10,8 °C 11,6 °C 0,0 km/h (0 Bft)
19.08.2017 21:17 11,6 °C 11,6 °C 95 % 1019,0 hPa 0,0 mm 0,0 km/h (0 Bft) SO 132 ° 0 min 0,000 mm 0,0 UV-I 0 W/m² 10,8 °C 11,6 °C 0,0 km/h (0 Bft)
19.08.2017 21:18 11,5 °C 11,6 °C 95 % 1018,9 hPa 0,0 mm 0,0 km/h (0 Bft) SO 132 ° 0 min 0,000 mm 0,0 UV-I 0 W/m² 10,7 °C 11,5 °C 0,0 km/h (0 Bft)
19.08.2017 21:19 11,6 °C 11,6 °C 95 % 1018,9 hPa 0,0 mm 0,0 km/h (0 Bft) SO 132 ° 0 min 0,000 mm 0,0 UV-I 0 W/m² 10,8 °C 11,6 °C 0,0 km/h (0 Bft)
19.08.2017 21:20 11,5 °C 11,6 °C 95 % 1018,8 hPa 0,0 mm 0,0 km/h (0 Bft) SO 132 ° 0 min 0,000 mm 0,0 UV-I 0 W/m² 10,7 °C 11,5 °C 0,0 km/h (0 Bft)
19.08.2017 21:21 11,5 °C 11,5 °C 95 % 1018,9 hPa 0,0 mm 0,0 km/h (0 Bft) SO 132 ° 0 min 0,000 mm 0,0 UV-I 0 W/m² 10,7 °C 11,5 °C 0,0 km/h (0 Bft)
19.08.2017 21:22 11,5 °C 11,5 °C 95 % 1018,9 hPa 0,0 mm 0,0 km/h (0 Bft) SO 132 ° 0 min 0,000 mm 0,0 UV-I 0 W/m² 10,7 °C 11,5 °C 0,0 km/h (0 Bft)
19.08.2017 21:23 11,6 °C 11,6 °C 95 % 1018,9 hPa 0,0 mm 0,0 km/h (0 Bft) SO 132 ° 0 min 0,000 mm 0,0 UV-I 0 W/m² 10,8 °C 11,6 °C 0,0 km/h (0 Bft)
19.08.2017 21:24 11,6 °C 11,6 °C 95 % 1018,8 hPa 0,0 mm 0,0 km/h (0 Bft) SO 132 ° 0 min 0,000 mm 0,0 UV-I 0 W/m² 10,8 °C 11,6 °C 0,0 km/h (0 Bft)
19.08.2017 21:25 11,6 °C 11,6 °C 95 % 1018,8 hPa 0,0 mm 0,0 km/h (0 Bft) SO 132 ° 0 min 0,000 mm 0,0 UV-I 0 W/m² 10,8 °C 11,6 °C 0,0 km/h (0 Bft)
19.08.2017 21:26 11,5 °C 11,6 °C 95 % 1018,8 hPa 0,0 mm 0,0 km/h (0 Bft) SO 132 ° 0 min 0,000 mm 0,0 UV-I 0 W/m² 10,7 °C 11,5 °C 0,0 km/h (0 Bft)
19.08.2017 21:27 11,5 °C 11,5 °C 95 % 1018,8 hPa 0,0 mm 0,0 km/h (0 Bft) SO 132 ° 0 min 0,000 mm 0,0 UV-I 0 W/m² 10,7 °C 11,5 °C 0,0 km/h (0 Bft)
19.08.2017 21:28 11,5 °C 11,5 °C 95 % 1018,8 hPa 0,0 mm 0,0 km/h (0 Bft) SO 132 ° 0 min 0,000 mm 0,0 UV-I 0 W/m² 10,7 °C 11,5 °C 0,0 km/h (0 Bft)
19.08.2017 21:29 11,4 °C 11,5 °C 95 % 1018,9 hPa 0,0 mm 0,0 km/h (0 Bft) SO 132 ° 0 min 0,000 mm 0,0 UV-I 0 W/m² 10,6 °C 11,4 °C 0,0 km/h (0 Bft)
19.08.2017 21:30 11,4 °C 11,5 °C 95 % 1018,9 hPa 0,0 mm 0,0 km/h (0 Bft) SO 132 ° 0 min 0,000 mm 0,0 UV-I 0 W/m² 10,6 °C 11,4 °C 0,0 km/h (0 Bft)
19.08.2017 21:31 11,5 °C 11,5 °C 95 % 1019,0 hPa 0,0 mm 0,0 km/h (0 Bft) SO 132 ° 0 min 0,000 mm 0,0 UV-I 0 W/m² 10,7 °C 11,5 °C 0,0 km/h (0 Bft)
19.08.2017 21:32 11,5 °C 11,6 °C 96 % 1019,0 hPa 0,0 mm 0,0 km/h (0 Bft) SO 132 ° 0 min 0,000 mm 0,0 UV-I 0 W/m² 10,9 °C 11,5 °C 0,0 km/h (0 Bft)
19.08.2017 21:33 11,6 °C 11,6 °C 96 % 1019,1 hPa 0,0 mm 0,0 km/h (0 Bft) SO 132 ° 0 min 0,000 mm 0,0 UV-I 0 W/m² 11,0 °C 11,6 °C 0,0 km/h (0 Bft)
19.08.2017 21:34 11,6 °C 11,6 °C 95 % 1019,1 hPa 0,0 mm 0,0 km/h (0 Bft) SO 132 ° 0 min 0,000 mm 0,0 UV-I 0 W/m² 10,8 °C 11,6 °C 0,0 km/h (0 Bft)
19.08.2017 21:35 11,6 °C 11,6 °C 95 % 1019,1 hPa 0,0 mm 0,0 km/h (0 Bft) SO 132 ° 0 min 0,000 mm 0,0 UV-I 0 W/m² 10,8 °C 11,6 °C 0,0 km/h (0 Bft)
19.08.2017 21:36 11,6 °C 11,6 °C 95 % 1019,1 hPa 0,0 mm 0,0 km/h (0 Bft) SO 132 ° 0 min 0,000 mm 0,0 UV-I 0 W/m² 10,8 °C 11,6 °C 0,0 km/h (0 Bft)
19.08.2017 21:37 11,6 °C 11,6 °C 96 % 1019,2 hPa 0,0 mm 0,0 km/h (0 Bft) SO 132 ° 0 min 0,000 mm 0,0 UV-I 0 W/m² 11,0 °C 11,6 °C 0,0 km/h (0 Bft)
19.08.2017 21:38 11,6 °C 11,6 °C 96 % 1019,1 hPa 0,0 mm 0,0 km/h (0 Bft) SO 132 ° 0 min 0,000 mm 0,0 UV-I 0 W/m² 11,0 °C 11,6 °C 0,0 km/h (0 Bft)
19.08.2017 21:39 11,6 °C 11,6 °C 96 % 1019,2 hPa 0,0 mm 0,0 km/h (0 Bft) SO 132 ° 0 min 0,000 mm 0,0 UV-I 0 W/m² 11,0 °C 11,6 °C 0,0 km/h (0 Bft)
19.08.2017 21:40 11,6 °C 11,6 °C 95 % 1019,2 hPa 0,0 mm 0,0 km/h (0 Bft) SO 132 ° 0 min 0,000 mm 0,0 UV-I 0 W/m² 10,8 °C 11,6 °C 0,0 km/h (0 Bft)
19.08.2017 21:41 11,6 °C 11,6 °C 96 % 1019,2 hPa 0,0 mm 0,5 km/h (0 Bft) SO 132 ° 0 min 0,000 mm 0,0 UV-I 0 W/m² 11,0 °C 11,6 °C 1,6 km/h (1 Bft)
19.08.2017 21:42 11,7 °C 11,7 °C 95 % 1019,2 hPa 0,0 mm 2,2 km/h (1 Bft) SO 132 ° 0 min 0,000 mm 0,0 UV-I 0 W/m² 10,9 °C 11,7 °C 3,2 km/h (1 Bft)
19.08.2017 21:43 11,7 °C 11,7 °C 95 % 1019,2 hPa 0,0 mm 0,5 km/h (0 Bft) SO 132 ° 0 min 0,000 mm 0,0 UV-I 0 W/m² 10,9 °C 11,7 °C 1,6 km/h (1 Bft)
19.08.2017 21:44 11,7 °C 11,7 °C 95 % 1019,2 hPa 0,0 mm 0,0 km/h (0 Bft) SO 132 ° 0 min 0,000 mm 0,0 UV-I 0 W/m² 10,9 °C 11,7 °C 0,0 km/h (0 Bft)
19.08.2017 21:45 11,7 °C 11,7 °C 95 % 1019,2 hPa 0,0 mm 0,3 km/h (0 Bft) SO 132 ° 0 min 0,000 mm 0,0 UV-I 0 W/m² 10,9 °C 11,7 °C 1,6 km/h (1 Bft)
19.08.2017 21:46 11,7 °C 11,7 °C 95 % 1019,3 hPa 0,0 mm 0,1 km/h (0 Bft) SO 132 ° 0 min 0,000 mm 0,0 UV-I 0 W/m² 10,9 °C 11,7 °C 1,6 km/h (1 Bft)
19.08.2017 21:47 11,7 °C 11,7 °C 95 % 1019,2 hPa 0,0 mm 0,0 km/h (0 Bft) SO 132 ° 0 min 0,000 mm 0,0 UV-I 0 W/m² 10,9 °C 11,7 °C 0,0 km/h (0 Bft)
19.08.2017 21:48 11,8 °C 11,8 °C 95 % 1019,2 hPa 0,0 mm 0,3 km/h (0 Bft) SO 132 ° 0 min 0,000 mm 0,0 UV-I 0 W/m² 11,0 °C 11,8 °C 1,6 km/h (1 Bft)
19.08.2017 21:49 11,8 °C 11,8 °C 95 % 1019,3 hPa 0,0 mm 1,1 km/h (1 Bft) SO 132 ° 0 min 0,000 mm 0,0 UV-I 0 W/m² 11,0 °C 11,8 °C 1,6 km/h (1 Bft)
19.08.2017 21:50 11,8 °C 11,8 °C 95 % 1019,3 hPa 0,0 mm 0,1 km/h (0 Bft) SO 132 ° 0 min 0,000 mm 0,0 UV-I 0 W/m² 11,0 °C 11,8 °C 1,6 km/h (1 Bft)
19.08.2017 21:51 11,8 °C 11,8 °C 95 % 1019,3 hPa 0,0 mm 0,0 km/h (0 Bft) SO 132 ° 0 min 0,000 mm 0,0 UV-I 0 W/m² 11,0 °C 11,8 °C 0,0 km/h (0 Bft)
19.08.2017 21:52 11,8 °C 11,8 °C 95 % 1019,3 hPa 0,0 mm 0,0 km/h (0 Bft) SO 132 ° 0 min 0,000 mm 0,0 UV-I 0 W/m² 11,0 °C 11,8 °C 0,0 km/h (0 Bft)
19.08.2017 21:53 11,8 °C 11,8 °C 95 % 1019,3 hPa 0,0 mm 0,0 km/h (0 Bft) SO 132 ° 0 min 0,000 mm 0,0 UV-I 0 W/m² 11,0 °C 11,8 °C 0,0 km/h (0 Bft)
19.08.2017 21:54 11,8 °C 11,8 °C 95 % 1019,3 hPa 0,0 mm 0,0 km/h (0 Bft) SO 132 ° 0 min 0,000 mm 0,0 UV-I 0 W/m² 11,0 °C 11,8 °C 0,0 km/h (0 Bft)
19.08.2017 21:55 11,8 °C 11,8 °C 95 % 1019,3 hPa 0,0 mm 0,0 km/h (0 Bft) SO 132 ° 0 min 0,000 mm 0,0 UV-I 0 W/m² 11,0 °C 11,8 °C 0,0 km/h (0 Bft)
19.08.2017 21:56 11,8 °C 11,8 °C 95 % 1019,3 hPa 0,0 mm 0,0 km/h (0 Bft) SO 132 ° 0 min 0,000 mm 0,0 UV-I 0 W/m² 11,0 °C 11,8 °C 0,0 km/h (0 Bft)
19.08.2017 21:57 11,8 °C 11,8 °C 95 % 1019,2 hPa 0,0 mm 0,0 km/h (0 Bft) SO 132 ° 0 min 0,000 mm 0,0 UV-I 0 W/m² 11,0 °C 11,8 °C 0,0 km/h (0 Bft)
19.08.2017 21:58 11,8 °C 11,8 °C 95 % 1019,2 hPa 0,0 mm 0,0 km/h (0 Bft) SO 132 ° 0 min 0,000 mm 0,0 UV-I 0 W/m² 11,0 °C 11,8 °C 0,0 km/h (0 Bft)
19.08.2017 21:59 11,7 °C 11,8 °C 95 % 1019,2 hPa 0,0 mm 0,0 km/h (0 Bft) SO 132 ° 0 min 0,000 mm 0,0 UV-I 0 W/m² 10,9 °C 11,7 °C 0,0 km/h (0 Bft)
19.08.2017 22:00 11,7 °C 11,8 °C 95 % 1019,2 hPa 0,0 mm 0,0 km/h (0 Bft) SO 132 ° 0 min 0,000 mm 0,0 UV-I 0 W/m² 10,9 °C 11,7 °C 0,0 km/h (0 Bft)
19.08.2017 22:01 11,7 °C 11,8 °C 95 % 1019,2 hPa 0,0 mm 0,0 km/h (0 Bft) SO 132 ° 0 min 0,000 mm 0,0 UV-I 0 W/m² 10,9 °C 11,7 °C 0,0 km/h (0 Bft)
19.08.2017 22:02 11,7 °C 11,7 °C 95 % 1019,2 hPa 0,0 mm 0,0 km/h (0 Bft) SO 132 ° 0 min 0,000 mm 0,0 UV-I 0 W/m² 10,9 °C 11,7 °C 0,0 km/h (0 Bft)
19.08.2017 22:03 11,7 °C 11,7 °C 95 % 1019,1 hPa 0,0 mm 0,0 km/h (0 Bft) SO 132 ° 0 min 0,000 mm 0,0 UV-I 0 W/m² 10,9 °C 11,7 °C 0,0 km/h (0 Bft)
19.08.2017 22:04 11,7 °C 11,7 °C 95 % 1019,1 hPa 0,0 mm 0,0 km/h (0 Bft) SO 132 ° 0 min 0,000 mm 0,0 UV-I 0 W/m² 10,9 °C 11,7 °C 0,0 km/h (0 Bft)
19.08.2017 22:05 11,7 °C 11,7 °C 95 % 1019,1 hPa 0,0 mm 0,0 km/h (0 Bft) SO 132 ° 0 min 0,000 mm 0,0 UV-I 0 W/m² 10,9 °C 11,7 °C 0,0 km/h (0 Bft)
19.08.2017 22:06 11,7 °C 11,7 °C 95 % 1019,1 hPa 0,0 mm 0,0 km/h (0 Bft) SO 132 ° 0 min 0,000 mm 0,0 UV-I 0 W/m² 10,9 °C 11,7 °C 0,0 km/h (0 Bft)
19.08.2017 22:07 11,7 °C 11,7 °C 95 % 1019,1 hPa 0,0 mm 0,0 km/h (0 Bft) SO 132 ° 0 min 0,000 mm 0,0 UV-I 0 W/m² 10,9 °C 11,7 °C 0,0 km/h (0 Bft)
19.08.2017 22:08 11,7 °C 11,7 °C 95 % 1019,1 hPa 0,0 mm 0,0 km/h (0 Bft) SO 132 ° 0 min 0,000 mm 0,0 UV-I 0 W/m² 10,9 °C 11,7 °C 0,0 km/h (0 Bft)
19.08.2017 22:09 11,7 °C 11,7 °C 95 % 1019,2 hPa 0,0 mm 0,0 km/h (0 Bft) SO 132 ° 0 min 0,000 mm 0,0 UV-I 0 W/m² 10,9 °C 11,7 °C 0,0 km/h (0 Bft)
19.08.2017 22:10 11,7 °C 11,7 °C 95 % 1019,2 hPa 0,0 mm 0,0 km/h (0 Bft) SO 132 ° 0 min 0,000 mm 0,0 UV-I 0 W/m² 10,9 °C 11,7 °C 0,0 km/h (0 Bft)
19.08.2017 22:11 11,7 °C 11,7 °C 95 % 1019,2 hPa 0,0 mm 1,8 km/h (1 Bft) W-SW 254 ° 0 min 0,000 mm 0,0 UV-I 0 W/m² 10,9 °C 11,7 °C 4,8 km/h (1 Bft)
19.08.2017 22:12 11,7 °C 11,7 °C 95 % 1019,2 hPa 0,0 mm 3,7 km/h (1 Bft) W-NW 290 ° 0 min 0,000 mm 0,0 UV-I 0 W/m² 10,9 °C 11,7 °C 4,8 km/h (1 Bft)
19.08.2017 22:13 11,7 °C 11,7 °C 95 % 1019,2 hPa 0,0 mm 2,5 km/h (1 Bft) W-NW 292 ° 0 min 0,000 mm 0,0 UV-I 0 W/m² 10,9 °C 11,7 °C 4,8 km/h (1 Bft)
19.08.2017 22:14 11,7 °C 11,8 °C 95 % 1019,2 hPa 0,0 mm 3,3 km/h (1 Bft) W-NW 292 ° 0 min 0,000 mm 0,0 UV-I 0 W/m² 10,9 °C 11,7 °C 4,8 km/h (1 Bft)
19.08.2017 22:15 11,7 °C 11,7 °C 95 % 1019,2 hPa 0,0 mm 0,9 km/h (0 Bft) W-NW 292 ° 0 min 0,000 mm 0,0 UV-I 0 W/m² 10,9 °C 11,7 °C 3,2 km/h (1 Bft)
19.08.2017 22:16 11,7 °C 11,8 °C 95 % 1019,2 hPa 0,0 mm 2,1 km/h (1 Bft) W-NW 292 ° 0 min 0,000 mm 0,0 UV-I 0 W/m² 10,9 °C 11,7 °C 3,2 km/h (1 Bft)
19.08.2017 22:17 11,7 °C 11,8 °C 95 % 1019,2 hPa 0,0 mm 2,4 km/h (1 Bft) W-NW 292 ° 0 min 0,000 mm 0,0 UV-I 0 W/m² 10,9 °C 11,7 °C 4,8 km/h (1 Bft)
19.08.2017 22:18 11,7 °C 11,7 °C 95 % 1019,3 hPa 0,0 mm 0,1 km/h (0 Bft) W-NW 292 ° 0 min 0,000 mm 0,0 UV-I 0 W/m² 10,9 °C 11,7 °C 3,2 km/h (1 Bft)
19.08.2017 22:19 11,7 °C 11,7 °C 95 % 1019,3 hPa 0,0 mm 4,2 km/h (1 Bft) W-NW 292 ° 0 min 0,000 mm 0,0 UV-I 0 W/m² 10,9 °C 11,7 °C 4,8 km/h (1 Bft)
19.08.2017 22:20 11,7 °C 11,7 °C 95 % 1019,3 hPa 0,0 mm 2,5 km/h (1 Bft) W-NW 292 ° 0 min 0,000 mm 0,0 UV-I 0 W/m² 10,9 °C 11,7 °C 3,2 km/h (1 Bft)
19.08.2017 22:21 11,7 °C 11,7 °C 95 % 1019,3 hPa 0,0 mm 1,9 km/h (1 Bft) W-NW 292 ° 0 min 0,000 mm 0,0 UV-I 0 W/m² 10,9 °C 11,7 °C 3,2 km/h (1 Bft)
19.08.2017 22:22 11,7 °C 11,7 °C 95 % 1019,5 hPa 0,0 mm 0,8 km/h (0 Bft) W-NW 292 ° 0 min 0,000 mm 0,0 UV-I 0 W/m² 10,9 °C 11,7 °C 1,6 km/h (1 Bft)
19.08.2017 22:23 11,7 °C 11,7 °C 95 % 1019,5 hPa 0,0 mm 1,0 km/h (0 Bft) W-NW 292 ° 0 min 0,000 mm 0,0 UV-I 0 W/m² 10,9 °C 11,7 °C 3,2 km/h (1 Bft)
19.08.2017 22:24 11,7 °C 11,7 °C 95 % 1019,6 hPa 0,0 mm 0,2 km/h (0 Bft) W-NW 292 ° 0 min 0,000 mm 0,0 UV-I 0 W/m² 10,9 °C 11,7 °C 1,6 km/h (1 Bft)
19.08.2017 22:25 11,7 °C 11,7 °C 95 % 1019,6 hPa 0,0 mm 0,0 km/h (0 Bft) W-NW 292 ° 0 min 0,000 mm 0,0 UV-I 0 W/m² 10,9 °C 11,7 °C 0,0 km/h (0 Bft)
19.08.2017 22:26 11,6 °C 11,7 °C 95 % 1019,7 hPa 0,0 mm 0,0 km/h (0 Bft) W-NW 292 ° 0 min 0,000 mm 0,0 UV-I 0 W/m² 10,8 °C 11,6 °C 0,0 km/h (0 Bft)
19.08.2017 22:27 11,6 °C 11,6 °C 95 % 1019,7 hPa 0,0 mm 0,0 km/h (0 Bft) W-NW 292 ° 0 min 0,000 mm 0,0 UV-I 0 W/m² 10,8 °C 11,6 °C 0,0 km/h (0 Bft)
19.08.2017 22:28 11,6 °C 11,6 °C 95 % 1019,8 hPa 0,0 mm 0,0 km/h (0 Bft) W-NW 292 ° 0 min 0,000 mm 0,0 UV-I 0 W/m² 10,8 °C 11,6 °C 0,0 km/h (0 Bft)
19.08.2017 22:29 11,6 °C 11,6 °C 95 % 1019,8 hPa 0,0 mm 0,0 km/h (0 Bft) W-NW 292 ° 0 min 0,000 mm 0,0 UV-I 0 W/m² 10,8 °C 11,6 °C 0,0 km/h (0 Bft)
19.08.2017 22:30 11,7 °C 11,7 °C 95 % 1019,8 hPa 0,0 mm 3,2 km/h (1 Bft) W 263 ° 0 min 0,000 mm 0,0 UV-I 0 W/m² 10,9 °C 11,7 °C 6,4 km/h (2 Bft)
19.08.2017 22:31 11,7 °C 11,7 °C 95 % 1019,8 hPa 0,0 mm 4,3 km/h (1 Bft) W-SW 257 ° 0 min 0,000 mm 0,0 UV-I 0 W/m² 10,9 °C 11,7 °C 4,8 km/h (1 Bft)
19.08.2017 22:32 11,7 °C 11,7 °C 95 % 1019,9 hPa 0,0 mm 5,0 km/h (1 Bft) W 264 ° 0 min 0,000 mm 0,0 UV-I 0 W/m² 10,9 °C 11,7 °C 6,4 km/h (2 Bft)
19.08.2017 22:33 11,7 °C 11,7 °C 95 % 1019,9 hPa 0,0 mm 3,9 km/h (1 Bft) W-SW 250 ° 0 min 0,000 mm 0,0 UV-I 0 W/m² 10,9 °C 11,7 °C 4,8 km/h (1 Bft)
19.08.2017 22:34 11,7 °C 11,7 °C 95 % 1019,9 hPa 0,0 mm 0,7 km/h (0 Bft) W-SW 250 ° 0 min 0,000 mm 0,0 UV-I 0 W/m² 10,9 °C 11,7 °C 3,2 km/h (1 Bft)
19.08.2017 22:35 11,7 °C 11,7 °C 95 % 1019,8 hPa 0,0 mm 0,0 km/h (0 Bft) W-SW 250 ° 0 min 0,000 mm 0,0 UV-I 0 W/m² 10,9 °C 11,7 °C 0,0 km/h (0 Bft)
19.08.2017 22:36 11,8 °C 11,8 °C 95 % 1019,9 hPa 0,0 mm 3,7 km/h (1 Bft) S-SW 198 ° 0 min 0,000 mm 0,0 UV-I 0 W/m² 11,0 °C 11,8 °C 6,4 km/h (2 Bft)
19.08.2017 22:37 11,8 °C 11,8 °C 95 % 1019,9 hPa 0,0 mm 1,0 km/h (0 Bft) S-SW 194 ° 0 min 0,000 mm 0,0 UV-I 0 W/m² 11,0 °C 11,8 °C 3,2 km/h (1 Bft)
19.08.2017 22:38 11,9 °C 11,9 °C 95 % 1019,9 hPa 0,0 mm 1,3 km/h (1 Bft) S-SW 194 ° 0 min 0,000 mm 0,0 UV-I 0 W/m² 11,1 °C 11,9 °C 3,2 km/h (1 Bft)
19.08.2017 22:39 12,0 °C 12,0 °C 95 % 1019,9 hPa 0,0 mm 4,3 km/h (1 Bft) S-SW 197 ° 0 min 0,000 mm 0,0 UV-I 0 W/m² 11,2 °C 12,0 °C 9,7 km/h (2 Bft)
19.08.2017 22:40 12,1 °C 12,1 °C 95 % 1019,9 hPa 0,0 mm 2,2 km/h (1 Bft) W-SW 250 ° 0 min 0,000 mm 0,0 UV-I 0 W/m² 11,3 °C 12,1 °C 8,0 km/h (2 Bft)
19.08.2017 22:41 12,2 °C 12,2 °C 95 % 1019,9 hPa 0,0 mm 6,4 km/h (2 Bft) SW 222 ° 0 min 0,000 mm 0,0 UV-I 0 W/m² 11,4 °C 12,2 °C 11,3 km/h (2 Bft)
19.08.2017 22:42 12,2 °C 12,2 °C 95 % 1019,9 hPa 0,0 mm 4,6 km/h (1 Bft) S-SW 211 ° 0 min 0,000 mm 0,0 UV-I 0 W/m² 11,4 °C 12,2 °C 8,0 km/h (2 Bft)
19.08.2017 22:43 12,3 °C 12,3 °C 95 % 1019,9 hPa 0,0 mm 4,0 km/h (1 Bft) W-SW 257 ° 0 min 0,000 mm 0,0 UV-I 0 W/m² 11,5 °C 12,3 °C 4,8 km/h (1 Bft)
19.08.2017 22:44 12,4 °C 12,4 °C 94 % 1019,8 hPa 0,0 mm 2,2 km/h (1 Bft) SW 227 ° 0 min 0,000 mm 0,0 UV-I 0 W/m² 11,5 °C 12,4 °C 3,2 km/h (1 Bft)
19.08.2017 22:45 12,4 °C 12,4 °C 94 % 1019,8 hPa 0,0 mm 3,3 km/h (1 Bft) W 280 ° 0 min 0,000 mm 0,0 UV-I 0 W/m² 11,5 °C 12,4 °C 4,8 km/h (1 Bft)
19.08.2017 22:46 12,5 °C 12,5 °C 94 % 1019,8 hPa 0,0 mm 2,7 km/h (1 Bft) W-SW 248 ° 0 min 0,000 mm 0,0 UV-I 0 W/m² 11,6 °C 12,5 °C 4,8 km/h (1 Bft)
19.08.2017 22:47 12,5 °C 12,6 °C 94 % 1019,8 hPa 0,0 mm 2,4 km/h (1 Bft) W 263 ° 0 min 0,000 mm 0,0 UV-I 0 W/m² 11,6 °C 12,5 °C 4,8 km/h (1 Bft)
19.08.2017 22:48 12,6 °C 12,6 °C 94 % 1019,8 hPa 0,0 mm 7,1 km/h (2 Bft) W-SW 257 ° 0 min 0,000 mm 0,0 UV-I 0 W/m² 11,7 °C 12,6 °C 12,9 km/h (3 Bft)
19.08.2017 22:49 12,5 °C 12,6 °C 93 % 1019,8 hPa 0,0 mm 3,6 km/h (1 Bft) W-SW 240 ° 0 min 0,000 mm 0,0 UV-I 0 W/m² 11,4 °C 12,5 °C 6,4 km/h (2 Bft)
19.08.2017 22:50 12,6 °C 12,6 °C 93 % 1019,9 hPa 0,0 mm 3,6 km/h (1 Bft) W-NW 292 ° 0 min 0,000 mm 0,0 UV-I 0 W/m² 11,5 °C 12,6 °C 6,4 km/h (2 Bft)
19.08.2017 22:51 12,6 °C 12,6 °C 93 % 1019,8 hPa 0,0 mm 3,8 km/h (1 Bft) W 276 ° 0 min 0,000 mm 0,0 UV-I 0 W/m² 11,5 °C 12,6 °C 6,4 km/h (2 Bft)
19.08.2017 22:52 12,5 °C 12,6 °C 93 % 1019,9 hPa 0,0 mm 5,4 km/h (1 Bft) W 269 ° 0 min 0,000 mm 0,0 UV-I 0 W/m² 11,4 °C 12,5 °C 9,7 km/h (2 Bft)
19.08.2017 22:53 12,5 °C 12,5 °C 93 % 1019,9 hPa 0,0 mm 3,0 km/h (1 Bft) W-SW 241 ° 0 min 0,000 mm 0,0 UV-I 0 W/m² 11,4 °C 12,5 °C 6,4 km/h (2 Bft)
19.08.2017 22:54 12,5 °C 12,5 °C 93 % 1019,9 hPa 0,0 mm 5,1 km/h (1 Bft) W-NW 284 ° 0 min 0,000 mm 0,0 UV-I 0 W/m² 11,4 °C 12,5 °C 6,4 km/h (2 Bft)
19.08.2017 22:55 12,4 °C 12,5 °C 93 % 1019,9 hPa 0,0 mm 3,8 km/h (1 Bft) W-SW 255 ° 0 min 0,000 mm 0,0 UV-I 0 W/m² 11,3 °C 12,4 °C 6,4 km/h (2 Bft)
19.08.2017 22:56 12,4 °C 12,5 °C 92 % 1019,9 hPa 0,0 mm 3,8 km/h (1 Bft) W 265 ° 0 min 0,000 mm 0,0 UV-I 0 W/m² 11,1 °C 12,4 °C 6,4 km/h (2 Bft)
19.08.2017 22:57 12,4 °C 12,4 °C 92 % 1019,9 hPa 0,0 mm 4,4 km/h (1 Bft) W-SW 255 ° 0 min 0,000 mm 0,0 UV-I 0 W/m² 11,1 °C 12,4 °C 6,4 km/h (2 Bft)
19.08.2017 22:58 12,4 °C 12,4 °C 92 % 1019,9 hPa 0,0 mm 2,2 km/h (1 Bft) W-SW 239 ° 0 min 0,000 mm 0,0 UV-I 0 W/m² 11,1 °C 12,4 °C 3,2 km/h (1 Bft)
19.08.2017 22:59 12,4 °C 12,4 °C 92 % 1019,9 hPa 0,0 mm 4,8 km/h (1 Bft) S-SW 200 ° 0 min 0,000 mm 0,0 UV-I 0 W/m² 11,1 °C 12,4 °C 9,7 km/h (2 Bft)
19.08.2017 23:00 12,4 °C 12,4 °C 91 % 1020,0 hPa 0,0 mm 3,8 km/h (1 Bft) S 189 ° 0 min 0,000 mm 0,0 UV-I 0 W/m² 11,0 °C 12,4 °C 8,0 km/h (2 Bft)
19.08.2017 23:01 12,4 °C 12,4 °C 91 % 1020,0 hPa 0,0 mm 2,2 km/h (1 Bft) W 275 ° 0 min 0,000 mm 0,0 UV-I 0 W/m² 11,0 °C 12,4 °C 3,2 km/h (1 Bft)
19.08.2017 23:02 12,4 °C 12,4 °C 91 % 1020,0 hPa 0,0 mm 2,6 km/h (1 Bft) W 271 ° 0 min 0,000 mm 0,0 UV-I 0 W/m² 11,0 °C 12,4 °C 4,8 km/h (1 Bft)
19.08.2017 23:03 12,4 °C 12,4 °C 91 % 1020,1 hPa 0,0 mm 2,2 km/h (1 Bft) SW 232 ° 0 min 0,000 mm 0,0 UV-I 0 W/m² 11,0 °C 12,4 °C 3,2 km/h (1 Bft)
19.08.2017 23:04 12,4 °C 12,4 °C 91 % 1020,0 hPa 0,0 mm 2,9 km/h (1 Bft) W-SW 252 ° 0 min 0,000 mm 0,0 UV-I 0 W/m² 11,0 °C 12,4 °C 4,8 km/h (1 Bft)
19.08.2017 23:05 12,4 °C 12,4 °C 91 % 1020,0 hPa 0,0 mm 4,8 km/h (1 Bft) W 264 ° 0 min 0,000 mm 0,0 UV-I 0 W/m² 11,0 °C 12,4 °C 6,4 km/h (2 Bft)
19.08.2017 23:06 12,4 °C 12,4 °C 91 % 1020,0 hPa 0,0 mm 3,4 km/h (1 Bft) S-SW 197 ° 0 min 0,000 mm 0,0 UV-I 0 W/m² 11,0 °C 12,4 °C 6,4 km/h (2 Bft)
19.08.2017 23:07 12,4 °C 12,4 °C 91 % 1020,0 hPa 0,0 mm 2,1 km/h (1 Bft) S-SW 192 ° 0 min 0,000 mm 0,0 UV-I 0 W/m² 11,0 °C 12,4 °C 6,4 km/h (2 Bft)
19.08.2017 23:08 12,4 °C 12,4 °C 91 % 1020,1 hPa 0,0 mm 4,8 km/h (1 Bft) S-SW 207 ° 0 min 0,000 mm 0,0 UV-I 0 W/m² 11,0 °C 12,4 °C 11,3 km/h (2 Bft)
19.08.2017 23:09 12,4 °C 12,4 °C 90 % 1020,0 hPa 0,0 mm 3,0 km/h (1 Bft) W-SW 241 ° 0 min 0,000 mm 0,0 UV-I 0 W/m² 10,8 °C 12,4 °C 4,8 km/h (1 Bft)
19.08.2017 23:10 12,4 °C 12,4 °C 90 % 1020,0 hPa 0,0 mm 3,4 km/h (1 Bft) SW 231 ° 0 min 0,000 mm 0,0 UV-I 0 W/m² 10,8 °C 12,4 °C 8,0 km/h (2 Bft)
19.08.2017 23:11 12,4 °C 12,4 °C 91 % 1020,1 hPa 0,0 mm 2,7 km/h (1 Bft) SW 236 ° 0 min 0,000 mm 0,0 UV-I 0 W/m² 11,0 °C 12,4 °C 4,8 km/h (1 Bft)
19.08.2017 23:12 12,4 °C 12,4 °C 91 % 1020,1 hPa 0,0 mm 0,7 km/h (0 Bft) SW 236 ° 0 min 0,000 mm 0,0 UV-I 0 W/m² 11,0 °C 12,4 °C 1,6 km/h (1 Bft)
19.08.2017 23:13 12,3 °C 12,4 °C 90 % 1020,1 hPa 0,0 mm 0,8 km/h (0 Bft) SW 236 ° 0 min 0,000 mm 0,0 UV-I 0 W/m² 10,7 °C 12,3 °C 3,2 km/h (1 Bft)
19.08.2017 23:14 12,3 °C 12,4 °C 91 % 1020,1 hPa 0,0 mm 3,0 km/h (1 Bft) W-SW 251 ° 0 min 0,000 mm 0,0 UV-I 0 W/m² 10,9 °C 12,3 °C 3,2 km/h (1 Bft)
19.08.2017 23:15 12,3 °C 12,3 °C 91 % 1020,2 hPa 0,0 mm 1,6 km/h (1 Bft) W-SW 251 ° 0 min 0,000 mm 0,0 UV-I 0 W/m² 10,9 °C 12,3 °C 3,2 km/h (1 Bft)
19.08.2017 23:16 12,3 °C 12,3 °C 91 % 1020,2 hPa 0,0 mm 1,1 km/h (1 Bft) W-SW 251 ° 0 min 0,000 mm 0,0 UV-I 0 W/m² 10,9 °C 12,3 °C 3,2 km/h (1 Bft)
19.08.2017 23:17 12,2 °C 12,3 °C 91 % 1020,3 hPa 0,0 mm 3,1 km/h (1 Bft) W 267 ° 0 min 0,000 mm 0,0 UV-I 0 W/m² 10,8 °C 12,2 °C 4,8 km/h (1 Bft)
19.08.2017 23:18 12,2 °C 12,2 °C 91 % 1020,3 hPa 0,0 mm 2,7 km/h (1 Bft) W 267 ° 0 min 0,000 mm 0,0 UV-I 0 W/m² 10,8 °C 12,2 °C 4,8 km/h (1 Bft)
19.08.2017 23:19 12,2 °C 12,2 °C 91 % 1020,3 hPa 0,0 mm 1,5 km/h (1 Bft) W 267 ° 0 min 0,000 mm 0,0 UV-I 0 W/m² 10,8 °C 12,2 °C 3,2 km/h (1 Bft)
19.08.2017 23:20 12,2 °C 12,2 °C 91 % 1020,3 hPa 0,0 mm 0,3 km/h (0 Bft) W 267 ° 0 min 0,000 mm 0,0 UV-I 0 W/m² 10,8 °C 12,2 °C 1,6 km/h (1 Bft)
19.08.2017 23:21 12,2 °C 12,2 °C 91 % 1020,3 hPa 0,0 mm 1,4 km/h (1 Bft) S-SW 196 ° 0 min 0,000 mm 0,0 UV-I 0 W/m² 10,8 °C 12,2 °C 3,2 km/h (1 Bft)
19.08.2017 23:22 12,2 °C 12,2 °C 91 % 1020,2 hPa 0,0 mm 2,2 km/h (1 Bft) S-SW 209 ° 0 min 0,000 mm 0,0 UV-I 0 W/m² 10,8 °C 12,2 °C 3,2 km/h (1 Bft)
19.08.2017 23:23 12,2 °C 12,2 °C 91 % 1020,2 hPa 0,0 mm 2,3 km/h (1 Bft) S-SW 209 ° 0 min 0,000 mm 0,0 UV-I 0 W/m² 10,8 °C 12,2 °C 4,8 km/h (1 Bft)
19.08.2017 23:24 12,2 °C 12,2 °C 91 % 1020,3 hPa 0,0 mm 2,7 km/h (1 Bft) W 271 ° 0 min 0,000 mm 0,0 UV-I 0 W/m² 10,8 °C 12,2 °C 3,2 km/h (1 Bft)
19.08.2017 23:25 12,2 °C 12,2 °C 91 % 1020,3 hPa 0,0 mm 0,0 km/h (0 Bft) W 271 ° 0 min 0,000 mm 0,0 UV-I 0 W/m² 10,8 °C 12,2 °C 0,0 km/h (0 Bft)
19.08.2017 23:26 12,2 °C 12,2 °C 91 % 1020,3 hPa 0,0 mm 1,0 km/h (0 Bft) SW 221 ° 0 min 0,000 mm 0,0 UV-I 0 W/m² 10,8 °C 12,2 °C 3,2 km/h (1 Bft)
19.08.2017 23:27 12,2 °C 12,2 °C 92 % 1020,3 hPa 0,0 mm 1,5 km/h (1 Bft) SW 221 ° 0 min 0,000 mm 0,0 UV-I 0 W/m² 10,9 °C 12,2 °C 3,2 km/h (1 Bft)
19.08.2017 23:28 12,1 °C 12,2 °C 92 % 1020,3 hPa 0,0 mm 1,2 km/h (1 Bft) SW 219 ° 0 min 0,000 mm 0,0 UV-I 0 W/m² 10,8 °C 12,1 °C 3,2 km/h (1 Bft)
19.08.2017 23:29 12,1 °C 12,1 °C 92 % 1020,2 hPa 0,0 mm 0,5 km/h (0 Bft) SW 219 ° 0 min 0,000 mm 0,0 UV-I 0 W/m² 10,8 °C 12,1 °C 1,6 km/h (1 Bft)
19.08.2017 23:30 11,9 °C 12,1 °C 93 % 1020,2 hPa 0,0 mm 0,6 km/h (0 Bft) SW 219 ° 0 min 0,000 mm 0,0 UV-I 0 W/m² 10,8 °C 11,9 °C 1,6 km/h (1 Bft)
19.08.2017 23:31 11,9 °C 11,9 °C 92 % 1020,2 hPa 0,0 mm 1,0 km/h (0 Bft) W-SW 237 ° 0 min 0,000 mm 0,0 UV-I 0 W/m² 10,6 °C 11,9 °C 1,6 km/h (1 Bft)
19.08.2017 23:32 11,8 °C 11,9 °C 93 % 1020,2 hPa 0,0 mm 2,5 km/h (1 Bft) S-SO 166 ° 0 min 0,000 mm 0,0 UV-I 0 W/m² 10,7 °C 11,8 °C 6,4 km/h (2 Bft)
19.08.2017 23:33 11,8 °C 11,9 °C 93 % 1020,2 hPa 0,0 mm 3,6 km/h (1 Bft) W-SW 243 ° 0 min 0,000 mm 0,0 UV-I 0 W/m² 10,7 °C 11,8 °C 8,0 km/h (2 Bft)
19.08.2017 23:34 11,8 °C 11,8 °C 93 % 1020,2 hPa 0,0 mm 2,7 km/h (1 Bft) S 180 ° 0 min 0,000 mm 0,0 UV-I 0 W/m² 10,7 °C 11,8 °C 4,8 km/h (1 Bft)
19.08.2017 23:35 11,8 °C 11,8 °C 93 % 1020,2 hPa 0,0 mm 2,1 km/h (1 Bft) O 92 ° 0 min 0,000 mm 0,0 UV-I 0 W/m² 10,7 °C 11,8 °C 3,2 km/h (1 Bft)
19.08.2017 23:36 11,8 °C 11,8 °C 93 % 1020,2 hPa 0,0 mm 0,2 km/h (0 Bft) O 92 ° 0 min 0,000 mm 0,0 UV-I 0 W/m² 10,7 °C 11,8 °C 1,6 km/h (1 Bft)
19.08.2017 23:37 11,8 °C 11,8 °C 93 % 1020,2 hPa 0,0 mm 0,3 km/h (0 Bft) O 90 ° 0 min 0,000 mm 0,0 UV-I 0 W/m² 10,7 °C 11,8 °C 4,8 km/h (1 Bft)
19.08.2017 23:38 11,8 °C 11,8 °C 93 % 1020,1 hPa 0,0 mm 4,0 km/h (1 Bft) O 82 ° 0 min 0,000 mm 0,0 UV-I 0 W/m² 10,7 °C 11,8 °C 6,4 km/h (2 Bft)
19.08.2017 23:39 11,8 °C 11,8 °C 93 % 1020,1 hPa 0,0 mm 2,6 km/h (1 Bft) O 82 ° 0 min 0,000 mm 0,0 UV-I 0 W/m² 10,7 °C 11,8 °C 4,8 km/h (1 Bft)
19.08.2017 23:40 11,7 °C 11,8 °C 93 % 1020,0 hPa 0,0 mm 1,6 km/h (1 Bft) O 82 ° 0 min 0,000 mm 0,0 UV-I 0 W/m² 10,6 °C 11,7 °C 3,2 km/h (1 Bft)
19.08.2017 23:41 11,7 °C 11,8 °C 93 % 1020,0 hPa 0,0 mm 0,8 km/h (0 Bft) O 82 ° 0 min 0,000 mm 0,0 UV-I 0 W/m² 10,6 °C 11,7 °C 3,2 km/h (1 Bft)
19.08.2017 23:42 11,7 °C 11,8 °C 94 % 1020,0 hPa 0,0 mm 1,7 km/h (1 Bft) O 87 ° 0 min 0,000 mm 0,0 UV-I 0 W/m² 10,8 °C 11,7 °C 3,2 km/h (1 Bft)
19.08.2017 23:43 11,7 °C 11,7 °C 94 % 1020,0 hPa 0,0 mm 0,0 km/h (0 Bft) O 87 ° 0 min 0,000 mm 0,0 UV-I 0 W/m² 10,8 °C 11,7 °C 0,0 km/h (0 Bft)
19.08.2017 23:44 11,7 °C 11,7 °C 94 % 1020,0 hPa 0,0 mm 0,0 km/h (0 Bft) O 87 ° 0 min 0,000 mm 0,0 UV-I 0 W/m² 10,8 °C 11,7 °C 0,0 km/h (0 Bft)
19.08.2017 23:45 11,7 °C 11,7 °C 94 % 1020,0 hPa 0,0 mm 0,0 km/h (0 Bft) O 87 ° 0 min 0,000 mm 0,0 UV-I 0 W/m² 10,8 °C 11,7 °C 0,0 km/h (0 Bft)
19.08.2017 23:46 11,7 °C 11,7 °C 94 % 1019,9 hPa 0,0 mm 0,0 km/h (0 Bft) O 87 ° 0 min 0,000 mm 0,0 UV-I 0 W/m² 10,8 °C 11,7 °C 0,0 km/h (0 Bft)
19.08.2017 23:47 11,7 °C 11,7 °C 94 % 1019,8 hPa 0,0 mm 0,0 km/h (0 Bft) O 87 ° 0 min 0,000 mm 0,0 UV-I 0 W/m² 10,8 °C 11,7 °C 0,0 km/h (0 Bft)
19.08.2017 23:48 11,7 °C 11,7 °C 94 % 1019,8 hPa 0,0 mm 0,0 km/h (0 Bft) O 87 ° 0 min 0,000 mm 0,0 UV-I 0 W/m² 10,8 °C 11,7 °C 0,0 km/h (0 Bft)
19.08.2017 23:49 11,6 °C 11,7 °C 94 % 1019,8 hPa 0,0 mm 0,0 km/h (0 Bft) O 87 ° 0 min 0,000 mm 0,0 UV-I 0 W/m² 10,7 °C 11,6 °C 0,0 km/h (0 Bft)
19.08.2017 23:50 11,6 °C 11,6 °C 94 % 1019,8 hPa 0,0 mm 0,7 km/h (0 Bft) O 87 ° 0 min 0,000 mm 0,0 UV-I 0 W/m² 10,7 °C 11,6 °C 1,6 km/h (1 Bft)
19.08.2017 23:51 11,6 °C 11,6 °C 94 % 1019,8 hPa 0,0 mm 0,0 km/h (0 Bft) O 87 ° 0 min 0,000 mm 0,0 UV-I 0 W/m² 10,7 °C 11,6 °C 0,0 km/h (0 Bft)
19.08.2017 23:52 11,6 °C 11,6 °C 94 % 1019,7 hPa 0,0 mm 1,6 km/h (1 Bft) O 87 ° 0 min 0,000 mm 0,0 UV-I 0 W/m² 10,7 °C 11,6 °C 3,2 km/h (1 Bft)
19.08.2017 23:53 11,6 °C 11,6 °C 94 % 1019,7 hPa 0,0 mm 2,9 km/h (1 Bft) O 87 ° 0 min 0,000 mm 0,0 UV-I 0 W/m² 10,7 °C 11,6 °C 4,8 km/h (1 Bft)
19.08.2017 23:54 11,6 °C 11,6 °C 94 % 1019,6 hPa 0,0 mm 2,3 km/h (1 Bft) O 87 ° 0 min 0,000 mm 0,0 UV-I 0 W/m² 10,7 °C 11,6 °C 3,2 km/h (1 Bft)
19.08.2017 23:55 11,6 °C 11,6 °C 94 % 1019,5 hPa 0,0 mm 3,6 km/h (1 Bft) O 97 ° 0 min 0,000 mm 0,0 UV-I 0 W/m² 10,7 °C 11,6 °C 6,4 km/h (2 Bft)
19.08.2017 23:56 11,6 °C 11,6 °C 94 % 1019,4 hPa 0,0 mm 1,5 km/h (1 Bft) NO 51 ° 0 min 0,000 mm 0,0 UV-I 0 W/m² 10,7 °C 11,6 °C 3,2 km/h (1 Bft)
19.08.2017 23:57 11,5 °C 11,6 °C 94 % 1019,4 hPa 0,0 mm 0,9 km/h (0 Bft) NO 51 ° 0 min 0,000 mm 0,0 UV-I 0 W/m² 10,6 °C 11,5 °C 3,2 km/h (1 Bft)
19.08.2017 23:58 11,5 °C 11,5 °C 94 % 1019,3 hPa 0,0 mm 0,0 km/h (0 Bft) NO 51 ° 0 min 0,000 mm 0,0 UV-I 0 W/m² 10,6 °C 11,5 °C 0,0 km/h (0 Bft)
19.08.2017 23:59 11,5 °C 11,6 °C 94 % 1019,3 hPa 0,0 mm 0,0 km/h (0 Bft) NO 51 ° 0 min 0,000 mm 0,0 UV-I 0 W/m² 10,6 °C 11,5 °C 0,0 km/h (0 Bft)
_ Min-Zeit 21:30 23:58 13:25 02:29 - 23:59 - - - - - - 23:59 21:30 23:59
Minimum _ 11,4 °C 11,5 °C 83 % 1014,3 hPa - 0,0 km/h (0 Bft) - - - - - - 10,6 °C 11,4 °C 0,0 km/h (0 Bft)
_ Max-Zeit 13:14 13:15 21:41 23:28 16:05 02:51 - - 14:08 13:00 12:58 13:12 12:52 13:14 02:52
Maximum _ 16,6 °C 16,6 °C 96 % 1020,3 hPa 0,4 mm 15,1 km/h
W-NW (3 Bft)
- - 1 min 0,153 mm 4,3 UV-I 555 W/m² 14,6 °C 16,6 °C 20,9 km/h
W-NW (4 Bft)
Durchschnitt _ 13,8 °C 13,9 °C 93 % 1016,8 hPa #10,6 mm 1,8 km/h (1 Bft) W - #47 min. #0,889 mm 1,5 UV-I 67 W/m² 12,7 °C 13,8 °C 3,4 km/h (1 Bft)